<?xml version="1.0" encoding="UTF-8" standalone="no" ?>
<gpx xmlns="http://www.topografix.com/GPX/1/1" xmlns:xsi="http://www.w3.org/2001/XMLSchema-instance" xsi:schemaLocation="http://www.topografix.com/GPX/1/1 http://www.topografix.com/GPX/1/1/gpx.xsd" version="1.1" creator="VisuGPX - https://www.visugpx.com">
  <metadata>
    <name>Trek au Ladakh</name>
    <desc><![CDATA[Trek au Ladakh - Septembre 2015]]></desc>
  </metadata>
  <trk>
    <name><![CDATA[Camp de Sumda Chemno (4240m) - Sumda Chemno (3960m) - Camp de Lanak (4120m)]]></name>
    <trkseg>
      <trkpt lat="34.13668" lon="77.04525">
        <ele>4223.2</ele>
        <time>2015-08-30T03:19:48Z</time>
      </trkpt>
      <trkpt lat="34.13667" lon="77.04527">
        <ele>4223.2</ele>
        <time>2015-08-30T03:19:50Z</time>
      </trkpt>
      <trkpt lat="34.13667" lon="77.04525">
        <ele>4224.2</ele>
        <time>2015-08-30T03:20:36Z</time>
      </trkpt>
      <trkpt lat="34.13666" lon="77.04528">
        <ele>4224.6</ele>
        <time>2015-08-30T03:20:39Z</time>
      </trkpt>
      <trkpt lat="34.13665" lon="77.0453">
        <ele>4224.6</ele>
        <time>2015-08-30T03:20:41Z</time>
      </trkpt>
      <trkpt lat="34.13664" lon="77.04533">
        <ele>4224.8</ele>
        <time>2015-08-30T03:20:43Z</time>
      </trkpt>
      <trkpt lat="34.13664" lon="77.04536">
        <ele>4225.4</ele>
        <time>2015-08-30T03:20:45Z</time>
      </trkpt>
      <trkpt lat="34.13663" lon="77.04542">
        <ele>4226.4</ele>
        <time>2015-08-30T03:20:53Z</time>
      </trkpt>
      <trkpt lat="34.13666" lon="77.04551">
        <ele>4227.4</ele>
        <time>2015-08-30T03:21:04Z</time>
      </trkpt>
      <trkpt lat="34.13667" lon="77.04552">
        <ele>4227.6</ele>
        <time>2015-08-30T03:21:05Z</time>
      </trkpt>
      <trkpt lat="34.13668" lon="77.04562">
        <ele>4228.6</ele>
        <time>2015-08-30T03:21:18Z</time>
      </trkpt>
      <trkpt lat="34.1367" lon="77.04577">
        <ele>4229.6</ele>
        <time>2015-08-30T03:21:43Z</time>
      </trkpt>
      <trkpt lat="34.13675" lon="77.0458">
        <ele>4230</ele>
        <time>2015-08-30T03:21:51Z</time>
      </trkpt>
      <trkpt lat="34.13669" lon="77.04589">
        <ele>4230.6</ele>
        <time>2015-08-30T03:22:03Z</time>
      </trkpt>
      <trkpt lat="34.13665" lon="77.04601">
        <ele>4231.6</ele>
        <time>2015-08-30T03:22:15Z</time>
      </trkpt>
      <trkpt lat="34.13665" lon="77.04602">
        <ele>4231.8</ele>
        <time>2015-08-30T03:22:16Z</time>
      </trkpt>
      <trkpt lat="34.13663" lon="77.0461">
        <ele>4232.6</ele>
        <time>2015-08-30T03:22:25Z</time>
      </trkpt>
      <trkpt lat="34.13656" lon="77.04603">
        <ele>4232.4</ele>
        <time>2015-08-30T03:22:45Z</time>
      </trkpt>
      <trkpt lat="34.13661" lon="77.04603">
        <ele>4233</ele>
        <time>2015-08-30T03:23:17Z</time>
      </trkpt>
      <trkpt lat="34.13658" lon="77.04604">
        <ele>4232.8</ele>
        <time>2015-08-30T03:23:24Z</time>
      </trkpt>
      <trkpt lat="34.13658" lon="77.04606">
        <ele>4233</ele>
        <time>2015-08-30T03:23:26Z</time>
      </trkpt>
      <trkpt lat="34.1366" lon="77.04608">
        <ele>4233.2</ele>
        <time>2015-08-30T03:23:29Z</time>
      </trkpt>
      <trkpt lat="34.13658" lon="77.04617">
        <ele>4232</ele>
        <time>2015-08-30T03:23:44Z</time>
      </trkpt>
      <trkpt lat="34.13657" lon="77.0462">
        <ele>4231.6</ele>
        <time>2015-08-30T03:23:48Z</time>
      </trkpt>
      <trkpt lat="34.13656" lon="77.04625">
        <ele>4231.2</ele>
        <time>2015-08-30T03:23:51Z</time>
      </trkpt>
      <trkpt lat="34.13654" lon="77.04631">
        <ele>4230.6</ele>
        <time>2015-08-30T03:23:56Z</time>
      </trkpt>
      <trkpt lat="34.13653" lon="77.04637">
        <ele>4229.6</ele>
        <time>2015-08-30T03:24:01Z</time>
      </trkpt>
      <trkpt lat="34.13651" lon="77.04642">
        <ele>4228.4</ele>
        <time>2015-08-30T03:24:06Z</time>
      </trkpt>
      <trkpt lat="34.13648" lon="77.04647">
        <ele>4227.4</ele>
        <time>2015-08-30T03:24:14Z</time>
      </trkpt>
      <trkpt lat="34.13647" lon="77.04652">
        <ele>4226.4</ele>
        <time>2015-08-30T03:24:20Z</time>
      </trkpt>
      <trkpt lat="34.13642" lon="77.04657">
        <ele>4225.2</ele>
        <time>2015-08-30T03:24:30Z</time>
      </trkpt>
      <trkpt lat="34.13639" lon="77.04659">
        <ele>4224.2</ele>
        <time>2015-08-30T03:24:35Z</time>
      </trkpt>
      <trkpt lat="34.1364" lon="77.04661">
        <ele>4223.2</ele>
        <time>2015-08-30T03:24:39Z</time>
      </trkpt>
      <trkpt lat="34.13642" lon="77.04663">
        <ele>4222</ele>
        <time>2015-08-30T03:24:44Z</time>
      </trkpt>
      <trkpt lat="34.1364" lon="77.04667">
        <ele>4220.6</ele>
        <time>2015-08-30T03:24:51Z</time>
      </trkpt>
      <trkpt lat="34.1364" lon="77.04668">
        <ele>4219.6</ele>
        <time>2015-08-30T03:24:56Z</time>
      </trkpt>
      <trkpt lat="34.13638" lon="77.04673">
        <ele>4218.6</ele>
        <time>2015-08-30T03:25:03Z</time>
      </trkpt>
      <trkpt lat="34.13638" lon="77.04674">
        <ele>4217.6</ele>
        <time>2015-08-30T03:25:07Z</time>
      </trkpt>
      <trkpt lat="34.13642" lon="77.04676">
        <ele>4216.4</ele>
        <time>2015-08-30T03:25:17Z</time>
      </trkpt>
      <trkpt lat="34.13643" lon="77.04679">
        <ele>4215.4</ele>
        <time>2015-08-30T03:25:22Z</time>
      </trkpt>
      <trkpt lat="34.13643" lon="77.04681">
        <ele>4214</ele>
        <time>2015-08-30T03:25:27Z</time>
      </trkpt>
      <trkpt lat="34.13639" lon="77.04684">
        <ele>4213</ele>
        <time>2015-08-30T03:25:32Z</time>
      </trkpt>
      <trkpt lat="34.1364" lon="77.04687">
        <ele>4211.8</ele>
        <time>2015-08-30T03:25:37Z</time>
      </trkpt>
      <trkpt lat="34.1364" lon="77.0469">
        <ele>4211.2</ele>
        <time>2015-08-30T03:25:40Z</time>
      </trkpt>
      <trkpt lat="34.13642" lon="77.04691">
        <ele>4210.6</ele>
        <time>2015-08-30T03:25:42Z</time>
      </trkpt>
      <trkpt lat="34.13644" lon="77.04692">
        <ele>4209.6</ele>
        <time>2015-08-30T03:26:03Z</time>
      </trkpt>
      <trkpt lat="34.13643" lon="77.04693">
        <ele>4209.6</ele>
        <time>2015-08-30T03:26:10Z</time>
      </trkpt>
      <trkpt lat="34.13644" lon="77.04706">
        <ele>4208.6</ele>
        <time>2015-08-30T03:26:39Z</time>
      </trkpt>
      <trkpt lat="34.13645" lon="77.04713">
        <ele>4207.4</ele>
        <time>2015-08-30T03:26:48Z</time>
      </trkpt>
      <trkpt lat="34.1365" lon="77.04714">
        <ele>4206.2</ele>
        <time>2015-08-30T03:27:00Z</time>
      </trkpt>
      <trkpt lat="34.1365" lon="77.04711">
        <ele>4205.2</ele>
        <time>2015-08-30T03:27:07Z</time>
      </trkpt>
      <trkpt lat="34.13651" lon="77.04716">
        <ele>4204.4</ele>
        <time>2015-08-30T03:27:12Z</time>
      </trkpt>
      <trkpt lat="34.13651" lon="77.04718">
        <ele>4204</ele>
        <time>2015-08-30T03:27:14Z</time>
      </trkpt>
      <trkpt lat="34.13646" lon="77.04718">
        <ele>4204.4</ele>
        <time>2015-08-30T03:27:25Z</time>
      </trkpt>
      <trkpt lat="34.1364" lon="77.04715">
        <ele>4205.2</ele>
        <time>2015-08-30T03:27:40Z</time>
      </trkpt>
      <trkpt lat="34.13634" lon="77.04736">
        <ele>4204.6</ele>
        <time>2015-08-30T03:28:03Z</time>
      </trkpt>
      <trkpt lat="34.13635" lon="77.04741">
        <ele>4204.2</ele>
        <time>2015-08-30T03:28:07Z</time>
      </trkpt>
      <trkpt lat="34.1363" lon="77.04752">
        <ele>4203.2</ele>
        <time>2015-08-30T03:28:31Z</time>
      </trkpt>
      <trkpt lat="34.13625" lon="77.04756">
        <ele>4202.4</ele>
        <time>2015-08-30T03:28:36Z</time>
      </trkpt>
      <trkpt lat="34.13625" lon="77.04756">
        <ele>4202.2</ele>
        <time>2015-08-30T03:28:37Z</time>
      </trkpt>
      <trkpt lat="34.13624" lon="77.04762">
        <ele>4201.2</ele>
        <time>2015-08-30T03:28:46Z</time>
      </trkpt>
      <trkpt lat="34.13625" lon="77.04771">
        <ele>4200</ele>
        <time>2015-08-30T03:28:54Z</time>
      </trkpt>
      <trkpt lat="34.13623" lon="77.04779">
        <ele>4198.8</ele>
        <time>2015-08-30T03:29:02Z</time>
      </trkpt>
      <trkpt lat="34.13622" lon="77.04782">
        <ele>4197.8</ele>
        <time>2015-08-30T03:29:07Z</time>
      </trkpt>
      <trkpt lat="34.13618" lon="77.04788">
        <ele>4196.6</ele>
        <time>2015-08-30T03:29:13Z</time>
      </trkpt>
      <trkpt lat="34.13605" lon="77.048">
        <ele>4195.6</ele>
        <time>2015-08-30T03:29:29Z</time>
      </trkpt>
      <trkpt lat="34.136" lon="77.04808">
        <ele>4194.4</ele>
        <time>2015-08-30T03:29:40Z</time>
      </trkpt>
      <trkpt lat="34.13598" lon="77.04818">
        <ele>4193.2</ele>
        <time>2015-08-30T03:29:46Z</time>
      </trkpt>
      <trkpt lat="34.13595" lon="77.04834">
        <ele>4192.2</ele>
        <time>2015-08-30T03:30:03Z</time>
      </trkpt>
      <trkpt lat="34.1359" lon="77.04842">
        <ele>4191.2</ele>
        <time>2015-08-30T03:30:17Z</time>
      </trkpt>
      <trkpt lat="34.13592" lon="77.04855">
        <ele>4190.6</ele>
        <time>2015-08-30T03:30:57Z</time>
      </trkpt>
      <trkpt lat="34.13591" lon="77.04856">
        <ele>4190</ele>
        <time>2015-08-30T03:31:01Z</time>
      </trkpt>
      <trkpt lat="34.13581" lon="77.04868">
        <ele>4189.6</ele>
        <time>2015-08-30T03:31:34Z</time>
      </trkpt>
      <trkpt lat="34.13581" lon="77.04874">
        <ele>4189.6</ele>
        <time>2015-08-30T03:31:40Z</time>
      </trkpt>
      <trkpt lat="34.13583" lon="77.04874">
        <ele>4189.6</ele>
        <time>2015-08-30T03:31:42Z</time>
      </trkpt>
      <trkpt lat="34.13586" lon="77.04874">
        <ele>4189.6</ele>
        <time>2015-08-30T03:31:44Z</time>
      </trkpt>
      <trkpt lat="34.13587" lon="77.04875">
        <ele>4189.6</ele>
        <time>2015-08-30T03:31:46Z</time>
      </trkpt>
      <trkpt lat="34.13584" lon="77.04871">
        <ele>4190</ele>
        <time>2015-08-30T03:32:13Z</time>
      </trkpt>
      <trkpt lat="34.13584" lon="77.04872">
        <ele>4189</ele>
        <time>2015-08-30T03:32:23Z</time>
      </trkpt>
      <trkpt lat="34.13585" lon="77.04886">
        <ele>4189</ele>
        <time>2015-08-30T03:33:14Z</time>
      </trkpt>
      <trkpt lat="34.13582" lon="77.04887">
        <ele>4188</ele>
        <time>2015-08-30T03:33:21Z</time>
      </trkpt>
      <trkpt lat="34.13583" lon="77.04887">
        <ele>4188.8</ele>
        <time>2015-08-30T03:33:53Z</time>
      </trkpt>
      <trkpt lat="34.13583" lon="77.04885">
        <ele>4189</ele>
        <time>2015-08-30T03:34:21Z</time>
      </trkpt>
      <trkpt lat="34.13591" lon="77.04894">
        <ele>4188.6</ele>
        <time>2015-08-30T03:34:35Z</time>
      </trkpt>
      <trkpt lat="34.13589" lon="77.0491">
        <ele>4188</ele>
        <time>2015-08-30T03:34:53Z</time>
      </trkpt>
      <trkpt lat="34.13587" lon="77.04917">
        <ele>4187</ele>
        <time>2015-08-30T03:35:03Z</time>
      </trkpt>
      <trkpt lat="34.13584" lon="77.04936">
        <ele>4185.8</ele>
        <time>2015-08-30T03:35:20Z</time>
      </trkpt>
      <trkpt lat="34.13579" lon="77.04944">
        <ele>4184.8</ele>
        <time>2015-08-30T03:35:31Z</time>
      </trkpt>
      <trkpt lat="34.13567" lon="77.04961">
        <ele>4184.6</ele>
        <time>2015-08-30T03:35:51Z</time>
      </trkpt>
      <trkpt lat="34.13562" lon="77.0497">
        <ele>4183.6</ele>
        <time>2015-08-30T03:35:59Z</time>
      </trkpt>
      <trkpt lat="34.13554" lon="77.04975">
        <ele>4182.6</ele>
        <time>2015-08-30T03:36:11Z</time>
      </trkpt>
      <trkpt lat="34.13545" lon="77.04983">
        <ele>4181.4</ele>
        <time>2015-08-30T03:36:24Z</time>
      </trkpt>
      <trkpt lat="34.13537" lon="77.05003">
        <ele>4181.4</ele>
        <time>2015-08-30T03:36:44Z</time>
      </trkpt>
      <trkpt lat="34.13534" lon="77.0501">
        <ele>4181.4</ele>
        <time>2015-08-30T03:36:51Z</time>
      </trkpt>
      <trkpt lat="34.13536" lon="77.05013">
        <ele>4182.6</ele>
        <time>2015-08-30T03:36:57Z</time>
      </trkpt>
      <trkpt lat="34.13537" lon="77.05015">
        <ele>4183.6</ele>
        <time>2015-08-30T03:37:04Z</time>
      </trkpt>
      <trkpt lat="34.13539" lon="77.05022">
        <ele>4184.6</ele>
        <time>2015-08-30T03:37:20Z</time>
      </trkpt>
      <trkpt lat="34.13547" lon="77.05042">
        <ele>4185.6</ele>
        <time>2015-08-30T03:37:49Z</time>
      </trkpt>
      <trkpt lat="34.13552" lon="77.05053">
        <ele>4185.8</ele>
        <time>2015-08-30T03:38:09Z</time>
      </trkpt>
      <trkpt lat="34.13556" lon="77.05058">
        <ele>4186.8</ele>
        <time>2015-08-30T03:38:18Z</time>
      </trkpt>
      <trkpt lat="34.13553" lon="77.05067">
        <ele>4187.8</ele>
        <time>2015-08-30T03:38:44Z</time>
      </trkpt>
      <trkpt lat="34.13543" lon="77.05074">
        <ele>4188.2</ele>
        <time>2015-08-30T03:39:18Z</time>
      </trkpt>
      <trkpt lat="34.13541" lon="77.05075">
        <ele>4188.8</ele>
        <time>2015-08-30T03:39:22Z</time>
      </trkpt>
      <trkpt lat="34.13539" lon="77.05075">
        <ele>4190</ele>
        <time>2015-08-30T03:39:27Z</time>
      </trkpt>
      <trkpt lat="34.13536" lon="77.05075">
        <ele>4191</ele>
        <time>2015-08-30T03:39:32Z</time>
      </trkpt>
      <trkpt lat="34.1353" lon="77.05075">
        <ele>4192.2</ele>
        <time>2015-08-30T03:39:50Z</time>
      </trkpt>
      <trkpt lat="34.13526" lon="77.05076">
        <ele>4193.2</ele>
        <time>2015-08-30T03:40:02Z</time>
      </trkpt>
      <trkpt lat="34.13526" lon="77.05094">
        <ele>4194.4</ele>
        <time>2015-08-30T03:40:25Z</time>
      </trkpt>
      <trkpt lat="34.13529" lon="77.05101">
        <ele>4195.4</ele>
        <time>2015-08-30T03:40:36Z</time>
      </trkpt>
      <trkpt lat="34.13529" lon="77.05108">
        <ele>4196.4</ele>
        <time>2015-08-30T03:40:48Z</time>
      </trkpt>
      <trkpt lat="34.13535" lon="77.05115">
        <ele>4197.4</ele>
        <time>2015-08-30T03:41:02Z</time>
      </trkpt>
      <trkpt lat="34.13537" lon="77.05121">
        <ele>4198.4</ele>
        <time>2015-08-30T03:41:12Z</time>
      </trkpt>
      <trkpt lat="34.13537" lon="77.05127">
        <ele>4199.2</ele>
        <time>2015-08-30T03:41:21Z</time>
      </trkpt>
      <trkpt lat="34.13536" lon="77.0513">
        <ele>4199.4</ele>
        <time>2015-08-30T03:41:25Z</time>
      </trkpt>
      <trkpt lat="34.13538" lon="77.05153">
        <ele>4199.2</ele>
        <time>2015-08-30T03:41:52Z</time>
      </trkpt>
      <trkpt lat="34.13532" lon="77.05172">
        <ele>4198.4</ele>
        <time>2015-08-30T03:42:12Z</time>
      </trkpt>
      <trkpt lat="34.1353" lon="77.05187">
        <ele>4197.4</ele>
        <time>2015-08-30T03:42:28Z</time>
      </trkpt>
      <trkpt lat="34.13533" lon="77.05196">
        <ele>4196.2</ele>
        <time>2015-08-30T03:42:36Z</time>
      </trkpt>
      <trkpt lat="34.13527" lon="77.05205">
        <ele>4195.2</ele>
        <time>2015-08-30T03:42:47Z</time>
      </trkpt>
      <trkpt lat="34.13526" lon="77.05212">
        <ele>4194.4</ele>
        <time>2015-08-30T03:42:52Z</time>
      </trkpt>
      <trkpt lat="34.13526" lon="77.05214">
        <ele>4194</ele>
        <time>2015-08-30T03:42:54Z</time>
      </trkpt>
      <trkpt lat="34.13527" lon="77.05222">
        <ele>4193</ele>
        <time>2015-08-30T03:43:02Z</time>
      </trkpt>
      <trkpt lat="34.13529" lon="77.05228">
        <ele>4192.2</ele>
        <time>2015-08-30T03:43:08Z</time>
      </trkpt>
      <trkpt lat="34.13528" lon="77.0523">
        <ele>4192</ele>
        <time>2015-08-30T03:43:10Z</time>
      </trkpt>
      <trkpt lat="34.13526" lon="77.05238">
        <ele>4191</ele>
        <time>2015-08-30T03:43:21Z</time>
      </trkpt>
      <trkpt lat="34.13524" lon="77.05241">
        <ele>4189.8</ele>
        <time>2015-08-30T03:43:28Z</time>
      </trkpt>
      <trkpt lat="34.13522" lon="77.05244">
        <ele>4188.6</ele>
        <time>2015-08-30T03:43:33Z</time>
      </trkpt>
      <trkpt lat="34.13521" lon="77.05248">
        <ele>4187.4</ele>
        <time>2015-08-30T03:43:40Z</time>
      </trkpt>
      <trkpt lat="34.13521" lon="77.05251">
        <ele>4186.4</ele>
        <time>2015-08-30T03:43:47Z</time>
      </trkpt>
      <trkpt lat="34.13518" lon="77.05253">
        <ele>4185.2</ele>
        <time>2015-08-30T03:43:53Z</time>
      </trkpt>
      <trkpt lat="34.13516" lon="77.05253">
        <ele>4184</ele>
        <time>2015-08-30T03:43:57Z</time>
      </trkpt>
      <trkpt lat="34.13515" lon="77.05255">
        <ele>4182.8</ele>
        <time>2015-08-30T03:44:03Z</time>
      </trkpt>
      <trkpt lat="34.13515" lon="77.05258">
        <ele>4181.8</ele>
        <time>2015-08-30T03:44:08Z</time>
      </trkpt>
      <trkpt lat="34.13513" lon="77.05262">
        <ele>4180.8</ele>
        <time>2015-08-30T03:44:14Z</time>
      </trkpt>
      <trkpt lat="34.13512" lon="77.05266">
        <ele>4179.8</ele>
        <time>2015-08-30T03:44:19Z</time>
      </trkpt>
      <trkpt lat="34.1351" lon="77.05269">
        <ele>4178.6</ele>
        <time>2015-08-30T03:44:24Z</time>
      </trkpt>
      <trkpt lat="34.13509" lon="77.05273">
        <ele>4177.4</ele>
        <time>2015-08-30T03:44:29Z</time>
      </trkpt>
      <trkpt lat="34.13508" lon="77.05276">
        <ele>4176.4</ele>
        <time>2015-08-30T03:44:35Z</time>
      </trkpt>
      <trkpt lat="34.13506" lon="77.0528">
        <ele>4175.2</ele>
        <time>2015-08-30T03:44:39Z</time>
      </trkpt>
      <trkpt lat="34.13505" lon="77.05283">
        <ele>4174.2</ele>
        <time>2015-08-30T03:44:43Z</time>
      </trkpt>
      <trkpt lat="34.13503" lon="77.05288">
        <ele>4173</ele>
        <time>2015-08-30T03:44:49Z</time>
      </trkpt>
      <trkpt lat="34.13501" lon="77.05293">
        <ele>4172</ele>
        <time>2015-08-30T03:44:55Z</time>
      </trkpt>
      <trkpt lat="34.13496" lon="77.05298">
        <ele>4171</ele>
        <time>2015-08-30T03:45:01Z</time>
      </trkpt>
      <trkpt lat="34.13493" lon="77.05301">
        <ele>4170</ele>
        <time>2015-08-30T03:45:05Z</time>
      </trkpt>
      <trkpt lat="34.13493" lon="77.05302">
        <ele>4169.6</ele>
        <time>2015-08-30T03:45:06Z</time>
      </trkpt>
      <trkpt lat="34.13492" lon="77.05304">
        <ele>4169</ele>
        <time>2015-08-30T03:45:08Z</time>
      </trkpt>
      <trkpt lat="34.1349" lon="77.05306">
        <ele>4168.6</ele>
        <time>2015-08-30T03:45:11Z</time>
      </trkpt>
      <trkpt lat="34.13488" lon="77.0531">
        <ele>4167.6</ele>
        <time>2015-08-30T03:45:15Z</time>
      </trkpt>
      <trkpt lat="34.13487" lon="77.0531">
        <ele>4167.4</ele>
        <time>2015-08-30T03:45:16Z</time>
      </trkpt>
      <trkpt lat="34.13486" lon="77.05311">
        <ele>4167.2</ele>
        <time>2015-08-30T03:45:18Z</time>
      </trkpt>
      <trkpt lat="34.13485" lon="77.05313">
        <ele>4166.8</ele>
        <time>2015-08-30T03:45:20Z</time>
      </trkpt>
      <trkpt lat="34.13484" lon="77.05314">
        <ele>4166.4</ele>
        <time>2015-08-30T03:45:22Z</time>
      </trkpt>
      <trkpt lat="34.13482" lon="77.05317">
        <ele>4165.4</ele>
        <time>2015-08-30T03:45:26Z</time>
      </trkpt>
      <trkpt lat="34.13478" lon="77.05323">
        <ele>4164.4</ele>
        <time>2015-08-30T03:45:31Z</time>
      </trkpt>
      <trkpt lat="34.13477" lon="77.05325">
        <ele>4163.8</ele>
        <time>2015-08-30T03:45:33Z</time>
      </trkpt>
      <trkpt lat="34.13475" lon="77.05326">
        <ele>4163.2</ele>
        <time>2015-08-30T03:45:35Z</time>
      </trkpt>
      <trkpt lat="34.13471" lon="77.05328">
        <ele>4162</ele>
        <time>2015-08-30T03:45:42Z</time>
      </trkpt>
      <trkpt lat="34.13469" lon="77.0533">
        <ele>4161.2</ele>
        <time>2015-08-30T03:45:45Z</time>
      </trkpt>
      <trkpt lat="34.13467" lon="77.05331">
        <ele>4160.8</ele>
        <time>2015-08-30T03:45:47Z</time>
      </trkpt>
      <trkpt lat="34.13466" lon="77.05334">
        <ele>4159.6</ele>
        <time>2015-08-30T03:45:51Z</time>
      </trkpt>
      <trkpt lat="34.13462" lon="77.05338">
        <ele>4158.6</ele>
        <time>2015-08-30T03:45:57Z</time>
      </trkpt>
      <trkpt lat="34.13455" lon="77.05355">
        <ele>4157.6</ele>
        <time>2015-08-30T03:46:09Z</time>
      </trkpt>
      <trkpt lat="34.13453" lon="77.0536">
        <ele>4157</ele>
        <time>2015-08-30T03:46:13Z</time>
      </trkpt>
      <trkpt lat="34.13452" lon="77.05362">
        <ele>4156.6</ele>
        <time>2015-08-30T03:46:15Z</time>
      </trkpt>
      <trkpt lat="34.13448" lon="77.0537">
        <ele>4155.6</ele>
        <time>2015-08-30T03:46:27Z</time>
      </trkpt>
      <trkpt lat="34.13442" lon="77.05372">
        <ele>4154.6</ele>
        <time>2015-08-30T03:46:36Z</time>
      </trkpt>
      <trkpt lat="34.13438" lon="77.05373">
        <ele>4153.4</ele>
        <time>2015-08-30T03:46:41Z</time>
      </trkpt>
      <trkpt lat="34.13436" lon="77.05375">
        <ele>4152.2</ele>
        <time>2015-08-30T03:46:49Z</time>
      </trkpt>
      <trkpt lat="34.13433" lon="77.05378">
        <ele>4151</ele>
        <time>2015-08-30T03:46:55Z</time>
      </trkpt>
      <trkpt lat="34.13429" lon="77.05375">
        <ele>4149.8</ele>
        <time>2015-08-30T03:47:00Z</time>
      </trkpt>
      <trkpt lat="34.13427" lon="77.05374">
        <ele>4149.4</ele>
        <time>2015-08-30T03:47:02Z</time>
      </trkpt>
      <trkpt lat="34.13422" lon="77.05382">
        <ele>4149.2</ele>
        <time>2015-08-30T03:47:18Z</time>
      </trkpt>
      <trkpt lat="34.13419" lon="77.0539">
        <ele>4149.2</ele>
        <time>2015-08-30T03:47:23Z</time>
      </trkpt>
      <trkpt lat="34.1342" lon="77.05396">
        <ele>4148.8</ele>
        <time>2015-08-30T03:47:27Z</time>
      </trkpt>
      <trkpt lat="34.13421" lon="77.05397">
        <ele>4148.8</ele>
        <time>2015-08-30T03:47:28Z</time>
      </trkpt>
      <trkpt lat="34.13424" lon="77.0541">
        <ele>4147.6</ele>
        <time>2015-08-30T03:47:47Z</time>
      </trkpt>
      <trkpt lat="34.13417" lon="77.05408">
        <ele>4147.2</ele>
        <time>2015-08-30T03:48:01Z</time>
      </trkpt>
      <trkpt lat="34.13413" lon="77.05419">
        <ele>4147.6</ele>
        <time>2015-08-30T03:48:49Z</time>
      </trkpt>
      <trkpt lat="34.1341" lon="77.05418">
        <ele>4147</ele>
        <time>2015-08-30T03:49:01Z</time>
      </trkpt>
      <trkpt lat="34.13407" lon="77.0541">
        <ele>4147.2</ele>
        <time>2015-08-30T03:49:11Z</time>
      </trkpt>
      <trkpt lat="34.13404" lon="77.05408">
        <ele>4147</ele>
        <time>2015-08-30T03:49:18Z</time>
      </trkpt>
      <trkpt lat="34.13394" lon="77.05406">
        <ele>4148.4</ele>
        <time>2015-08-30T03:49:45Z</time>
      </trkpt>
      <trkpt lat="34.1339" lon="77.0541">
        <ele>4148</ele>
        <time>2015-08-30T03:49:51Z</time>
      </trkpt>
      <trkpt lat="34.13384" lon="77.05422">
        <ele>4148.6</ele>
        <time>2015-08-30T03:50:05Z</time>
      </trkpt>
      <trkpt lat="34.13382" lon="77.05426">
        <ele>4148.8</ele>
        <time>2015-08-30T03:50:08Z</time>
      </trkpt>
      <trkpt lat="34.13379" lon="77.05432">
        <ele>4149.2</ele>
        <time>2015-08-30T03:50:16Z</time>
      </trkpt>
      <trkpt lat="34.13377" lon="77.05437">
        <ele>4150</ele>
        <time>2015-08-30T03:50:22Z</time>
      </trkpt>
      <trkpt lat="34.13376" lon="77.05445">
        <ele>4151</ele>
        <time>2015-08-30T03:50:32Z</time>
      </trkpt>
      <trkpt lat="34.13365" lon="77.05456">
        <ele>4152</ele>
        <time>2015-08-30T03:50:58Z</time>
      </trkpt>
      <trkpt lat="34.13359" lon="77.05459">
        <ele>4151.8</ele>
        <time>2015-08-30T03:51:09Z</time>
      </trkpt>
      <trkpt lat="34.13356" lon="77.05459">
        <ele>4151.4</ele>
        <time>2015-08-30T03:51:12Z</time>
      </trkpt>
      <trkpt lat="34.13354" lon="77.0548">
        <ele>4152.8</ele>
        <time>2015-08-30T03:51:35Z</time>
      </trkpt>
      <trkpt lat="34.13352" lon="77.05483">
        <ele>4153</ele>
        <time>2015-08-30T03:51:40Z</time>
      </trkpt>
      <trkpt lat="34.13349" lon="77.05485">
        <ele>4154.2</ele>
        <time>2015-08-30T03:51:51Z</time>
      </trkpt>
      <trkpt lat="34.13348" lon="77.05485">
        <ele>4154.2</ele>
        <time>2015-08-30T03:51:53Z</time>
      </trkpt>
      <trkpt lat="34.13348" lon="77.05488">
        <ele>4155.2</ele>
        <time>2015-08-30T03:52:02Z</time>
      </trkpt>
      <trkpt lat="34.13341" lon="77.0549">
        <ele>4155</ele>
        <time>2015-08-30T03:52:18Z</time>
      </trkpt>
      <trkpt lat="34.1335" lon="77.05492">
        <ele>4154.4</ele>
        <time>2015-08-30T03:52:54Z</time>
      </trkpt>
      <trkpt lat="34.13347" lon="77.05499">
        <ele>4155.8</ele>
        <time>2015-08-30T03:53:27Z</time>
      </trkpt>
      <trkpt lat="34.13345" lon="77.055">
        <ele>4156.2</ele>
        <time>2015-08-30T03:53:29Z</time>
      </trkpt>
      <trkpt lat="34.1334" lon="77.05504">
        <ele>4157.2</ele>
        <time>2015-08-30T03:53:39Z</time>
      </trkpt>
      <trkpt lat="34.13336" lon="77.05511">
        <ele>4158</ele>
        <time>2015-08-30T03:53:53Z</time>
      </trkpt>
      <trkpt lat="34.13334" lon="77.05514">
        <ele>4158.2</ele>
        <time>2015-08-30T03:53:58Z</time>
      </trkpt>
      <trkpt lat="34.13335" lon="77.05525">
        <ele>4159.2</ele>
        <time>2015-08-30T03:54:10Z</time>
      </trkpt>
      <trkpt lat="34.13329" lon="77.05526">
        <ele>4159.4</ele>
        <time>2015-08-30T03:54:12Z</time>
      </trkpt>
      <trkpt lat="34.13328" lon="77.05528">
        <ele>4159.6</ele>
        <time>2015-08-30T03:54:15Z</time>
      </trkpt>
      <trkpt lat="34.13324" lon="77.05533">
        <ele>4160.4</ele>
        <time>2015-08-30T03:54:25Z</time>
      </trkpt>
      <trkpt lat="34.13319" lon="77.05534">
        <ele>4161.4</ele>
        <time>2015-08-30T03:54:41Z</time>
      </trkpt>
      <trkpt lat="34.13309" lon="77.05551">
        <ele>4162.4</ele>
        <time>2015-08-30T03:55:00Z</time>
      </trkpt>
      <trkpt lat="34.13309" lon="77.05552">
        <ele>4162.4</ele>
        <time>2015-08-30T03:55:01Z</time>
      </trkpt>
      <trkpt lat="34.13306" lon="77.05557">
        <ele>4163.4</ele>
        <time>2015-08-30T03:55:12Z</time>
      </trkpt>
      <trkpt lat="34.13302" lon="77.05559">
        <ele>4164.4</ele>
        <time>2015-08-30T03:55:23Z</time>
      </trkpt>
      <trkpt lat="34.13304" lon="77.05566">
        <ele>4165.6</ele>
        <time>2015-08-30T03:55:38Z</time>
      </trkpt>
      <trkpt lat="34.13293" lon="77.05584">
        <ele>4166.4</ele>
        <time>2015-08-30T03:56:04Z</time>
      </trkpt>
      <trkpt lat="34.13293" lon="77.05585">
        <ele>4166.6</ele>
        <time>2015-08-30T03:56:06Z</time>
      </trkpt>
      <trkpt lat="34.13284" lon="77.05595">
        <ele>4167.6</ele>
        <time>2015-08-30T03:56:23Z</time>
      </trkpt>
      <trkpt lat="34.13279" lon="77.05601">
        <ele>4168.6</ele>
        <time>2015-08-30T03:56:37Z</time>
      </trkpt>
      <trkpt lat="34.13275" lon="77.05589">
        <ele>4169</ele>
        <time>2015-08-30T03:56:44Z</time>
      </trkpt>
      <trkpt lat="34.13274" lon="77.05589">
        <ele>4169.2</ele>
        <time>2015-08-30T03:56:47Z</time>
      </trkpt>
      <trkpt lat="34.13269" lon="77.05587">
        <ele>4169.6</ele>
        <time>2015-08-30T03:56:55Z</time>
      </trkpt>
      <trkpt lat="34.13263" lon="77.05606">
        <ele>4170.6</ele>
        <time>2015-08-30T03:57:10Z</time>
      </trkpt>
      <trkpt lat="34.13265" lon="77.05612">
        <ele>4170.6</ele>
        <time>2015-08-30T03:57:14Z</time>
      </trkpt>
      <trkpt lat="34.13268" lon="77.05622">
        <ele>4171.4</ele>
        <time>2015-08-30T03:57:26Z</time>
      </trkpt>
      <trkpt lat="34.13269" lon="77.05623">
        <ele>4171.8</ele>
        <time>2015-08-30T03:57:29Z</time>
      </trkpt>
      <trkpt lat="34.13261" lon="77.05635">
        <ele>4171.8</ele>
        <time>2015-08-30T03:57:57Z</time>
      </trkpt>
      <trkpt lat="34.13255" lon="77.05654">
        <ele>4172.6</ele>
        <time>2015-08-30T03:58:22Z</time>
      </trkpt>
      <trkpt lat="34.13253" lon="77.05658">
        <ele>4172.8</ele>
        <time>2015-08-30T03:58:27Z</time>
      </trkpt>
      <trkpt lat="34.13253" lon="77.05666">
        <ele>4172.6</ele>
        <time>2015-08-30T03:58:34Z</time>
      </trkpt>
      <trkpt lat="34.13253" lon="77.0567">
        <ele>4172.6</ele>
        <time>2015-08-30T03:58:37Z</time>
      </trkpt>
      <trkpt lat="34.13244" lon="77.05689">
        <ele>4172.8</ele>
        <time>2015-08-30T03:59:02Z</time>
      </trkpt>
      <trkpt lat="34.13239" lon="77.05703">
        <ele>4171.8</ele>
        <time>2015-08-30T03:59:16Z</time>
      </trkpt>
      <trkpt lat="34.13233" lon="77.05723">
        <ele>4171</ele>
        <time>2015-08-30T03:59:36Z</time>
      </trkpt>
      <trkpt lat="34.1323" lon="77.05731">
        <ele>4171.2</ele>
        <time>2015-08-30T03:59:43Z</time>
      </trkpt>
      <trkpt lat="34.13235" lon="77.05735">
        <ele>4170.6</ele>
        <time>2015-08-30T04:00:07Z</time>
      </trkpt>
      <trkpt lat="34.13235" lon="77.05736">
        <ele>4170.6</ele>
        <time>2015-08-30T04:00:08Z</time>
      </trkpt>
      <trkpt lat="34.13235" lon="77.05738">
        <ele>4170.4</ele>
        <time>2015-08-30T04:00:10Z</time>
      </trkpt>
      <trkpt lat="34.13233" lon="77.05747">
        <ele>4170.4</ele>
        <time>2015-08-30T04:00:21Z</time>
      </trkpt>
      <trkpt lat="34.13231" lon="77.05756">
        <ele>4169.6</ele>
        <time>2015-08-30T04:00:32Z</time>
      </trkpt>
      <trkpt lat="34.13221" lon="77.05776">
        <ele>4170.2</ele>
        <time>2015-08-30T04:00:52Z</time>
      </trkpt>
      <trkpt lat="34.13213" lon="77.05795">
        <ele>4169.8</ele>
        <time>2015-08-30T04:01:14Z</time>
      </trkpt>
      <trkpt lat="34.13209" lon="77.05811">
        <ele>4168.6</ele>
        <time>2015-08-30T04:01:26Z</time>
      </trkpt>
      <trkpt lat="34.13206" lon="77.05835">
        <ele>4168.4</ele>
        <time>2015-08-30T04:01:42Z</time>
      </trkpt>
      <trkpt lat="34.13198" lon="77.05855">
        <ele>4168.4</ele>
        <time>2015-08-30T04:01:59Z</time>
      </trkpt>
      <trkpt lat="34.13194" lon="77.05878">
        <ele>4169</ele>
        <time>2015-08-30T04:02:15Z</time>
      </trkpt>
      <trkpt lat="34.13191" lon="77.059">
        <ele>4168.8</ele>
        <time>2015-08-30T04:02:32Z</time>
      </trkpt>
      <trkpt lat="34.13186" lon="77.05908">
        <ele>4167.2</ele>
        <time>2015-08-30T04:02:49Z</time>
      </trkpt>
      <trkpt lat="34.13184" lon="77.05908">
        <ele>4166</ele>
        <time>2015-08-30T04:02:54Z</time>
      </trkpt>
      <trkpt lat="34.1318" lon="77.05909">
        <ele>4165</ele>
        <time>2015-08-30T04:03:00Z</time>
      </trkpt>
      <trkpt lat="34.13175" lon="77.05909">
        <ele>4163.8</ele>
        <time>2015-08-30T04:03:07Z</time>
      </trkpt>
      <trkpt lat="34.13172" lon="77.05908">
        <ele>4162.8</ele>
        <time>2015-08-30T04:03:12Z</time>
      </trkpt>
      <trkpt lat="34.13169" lon="77.05909">
        <ele>4161.6</ele>
        <time>2015-08-30T04:03:18Z</time>
      </trkpt>
      <trkpt lat="34.13164" lon="77.05909">
        <ele>4160.6</ele>
        <time>2015-08-30T04:03:27Z</time>
      </trkpt>
      <trkpt lat="34.13158" lon="77.05908">
        <ele>4159.4</ele>
        <time>2015-08-30T04:03:36Z</time>
      </trkpt>
      <trkpt lat="34.13153" lon="77.0591">
        <ele>4158.2</ele>
        <time>2015-08-30T04:03:41Z</time>
      </trkpt>
      <trkpt lat="34.1315" lon="77.05912">
        <ele>4158</ele>
        <time>2015-08-30T04:03:43Z</time>
      </trkpt>
      <trkpt lat="34.13146" lon="77.05916">
        <ele>4157.2</ele>
        <time>2015-08-30T04:03:49Z</time>
      </trkpt>
      <trkpt lat="34.13154" lon="77.05926">
        <ele>4157.4</ele>
        <time>2015-08-30T04:04:04Z</time>
      </trkpt>
      <trkpt lat="34.13155" lon="77.05932">
        <ele>4158.2</ele>
        <time>2015-08-30T04:04:11Z</time>
      </trkpt>
      <trkpt lat="34.13157" lon="77.05953">
        <ele>4158.6</ele>
        <time>2015-08-30T04:04:30Z</time>
      </trkpt>
      <trkpt lat="34.13164" lon="77.0597">
        <ele>4158</ele>
        <time>2015-08-30T04:04:54Z</time>
      </trkpt>
      <trkpt lat="34.1317" lon="77.05971">
        <ele>4157.6</ele>
        <time>2015-08-30T04:06:07Z</time>
      </trkpt>
      <trkpt lat="34.13163" lon="77.05975">
        <ele>4157</ele>
        <time>2015-08-30T04:06:20Z</time>
      </trkpt>
      <trkpt lat="34.13165" lon="77.05982">
        <ele>4156.8</ele>
        <time>2015-08-30T04:06:25Z</time>
      </trkpt>
      <trkpt lat="34.13166" lon="77.06004">
        <ele>4156.8</ele>
        <time>2015-08-30T04:06:46Z</time>
      </trkpt>
      <trkpt lat="34.13169" lon="77.0602">
        <ele>4156</ele>
        <time>2015-08-30T04:07:01Z</time>
      </trkpt>
      <trkpt lat="34.13165" lon="77.06041">
        <ele>4155.8</ele>
        <time>2015-08-30T04:07:19Z</time>
      </trkpt>
      <trkpt lat="34.13163" lon="77.06057">
        <ele>4155</ele>
        <time>2015-08-30T04:07:31Z</time>
      </trkpt>
      <trkpt lat="34.13157" lon="77.06065">
        <ele>4153.8</ele>
        <time>2015-08-30T04:07:41Z</time>
      </trkpt>
      <trkpt lat="34.13153" lon="77.06081">
        <ele>4152.8</ele>
        <time>2015-08-30T04:07:56Z</time>
      </trkpt>
      <trkpt lat="34.13151" lon="77.06092">
        <ele>4151.8</ele>
        <time>2015-08-30T04:08:05Z</time>
      </trkpt>
      <trkpt lat="34.13144" lon="77.06105">
        <ele>4151</ele>
        <time>2015-08-30T04:08:27Z</time>
      </trkpt>
      <trkpt lat="34.13146" lon="77.06109">
        <ele>4150.6</ele>
        <time>2015-08-30T04:08:39Z</time>
      </trkpt>
      <trkpt lat="34.13146" lon="77.06108">
        <ele>4151.2</ele>
        <time>2015-08-30T04:09:30Z</time>
      </trkpt>
      <trkpt lat="34.13142" lon="77.06109">
        <ele>4151.2</ele>
        <time>2015-08-30T04:09:54Z</time>
      </trkpt>
      <trkpt lat="34.13139" lon="77.06119">
        <ele>4150.2</ele>
        <time>2015-08-30T04:10:07Z</time>
      </trkpt>
      <trkpt lat="34.13137" lon="77.06125">
        <ele>4149.6</ele>
        <time>2015-08-30T04:10:13Z</time>
      </trkpt>
      <trkpt lat="34.13136" lon="77.06128">
        <ele>4148.6</ele>
        <time>2015-08-30T04:10:19Z</time>
      </trkpt>
      <trkpt lat="34.13129" lon="77.06142">
        <ele>4147.6</ele>
        <time>2015-08-30T04:10:36Z</time>
      </trkpt>
      <trkpt lat="34.13128" lon="77.06144">
        <ele>4147.4</ele>
        <time>2015-08-30T04:10:40Z</time>
      </trkpt>
      <trkpt lat="34.13126" lon="77.06151">
        <ele>4146.4</ele>
        <time>2015-08-30T04:10:57Z</time>
      </trkpt>
      <trkpt lat="34.13122" lon="77.06157">
        <ele>4145.4</ele>
        <time>2015-08-30T04:11:16Z</time>
      </trkpt>
      <trkpt lat="34.1312" lon="77.06164">
        <ele>4144.8</ele>
        <time>2015-08-30T04:11:26Z</time>
      </trkpt>
      <trkpt lat="34.13119" lon="77.06169">
        <ele>4144.2</ele>
        <time>2015-08-30T04:11:30Z</time>
      </trkpt>
      <trkpt lat="34.13115" lon="77.06179">
        <ele>4143.2</ele>
        <time>2015-08-30T04:11:38Z</time>
      </trkpt>
      <trkpt lat="34.13102" lon="77.06195">
        <ele>4143.4</ele>
        <time>2015-08-30T04:11:54Z</time>
      </trkpt>
      <trkpt lat="34.13095" lon="77.06209">
        <ele>4142.2</ele>
        <time>2015-08-30T04:12:06Z</time>
      </trkpt>
      <trkpt lat="34.13089" lon="77.06216">
        <ele>4141.2</ele>
        <time>2015-08-30T04:12:14Z</time>
      </trkpt>
      <trkpt lat="34.13085" lon="77.06227">
        <ele>4139.8</ele>
        <time>2015-08-30T04:12:23Z</time>
      </trkpt>
      <trkpt lat="34.13081" lon="77.06232">
        <ele>4138.8</ele>
        <time>2015-08-30T04:12:28Z</time>
      </trkpt>
      <trkpt lat="34.13074" lon="77.06238">
        <ele>4137.8</ele>
        <time>2015-08-30T04:12:37Z</time>
      </trkpt>
      <trkpt lat="34.13068" lon="77.06246">
        <ele>4136.6</ele>
        <time>2015-08-30T04:12:47Z</time>
      </trkpt>
      <trkpt lat="34.13064" lon="77.06254">
        <ele>4135.4</ele>
        <time>2015-08-30T04:12:54Z</time>
      </trkpt>
      <trkpt lat="34.1306" lon="77.06259">
        <ele>4134.4</ele>
        <time>2015-08-30T04:13:00Z</time>
      </trkpt>
      <trkpt lat="34.13057" lon="77.06264">
        <ele>4133.4</ele>
        <time>2015-08-30T04:13:06Z</time>
      </trkpt>
      <trkpt lat="34.1305" lon="77.06273">
        <ele>4132.4</ele>
        <time>2015-08-30T04:13:16Z</time>
      </trkpt>
      <trkpt lat="34.13046" lon="77.0628">
        <ele>4131.2</ele>
        <time>2015-08-30T04:13:22Z</time>
      </trkpt>
      <trkpt lat="34.13043" lon="77.0628">
        <ele>4130.2</ele>
        <time>2015-08-30T04:13:26Z</time>
      </trkpt>
      <trkpt lat="34.13036" lon="77.06293">
        <ele>4129.2</ele>
        <time>2015-08-30T04:13:40Z</time>
      </trkpt>
      <trkpt lat="34.13028" lon="77.06301">
        <ele>4128.2</ele>
        <time>2015-08-30T04:13:52Z</time>
      </trkpt>
      <trkpt lat="34.13021" lon="77.06307">
        <ele>4127</ele>
        <time>2015-08-30T04:14:01Z</time>
      </trkpt>
      <trkpt lat="34.13005" lon="77.06317">
        <ele>4126.2</ele>
        <time>2015-08-30T04:14:20Z</time>
      </trkpt>
      <trkpt lat="34.13003" lon="77.06318">
        <ele>4126</ele>
        <time>2015-08-30T04:14:23Z</time>
      </trkpt>
      <trkpt lat="34.12988" lon="77.06333">
        <ele>4125.4</ele>
        <time>2015-08-30T04:14:39Z</time>
      </trkpt>
      <trkpt lat="34.12985" lon="77.06338">
        <ele>4125</ele>
        <time>2015-08-30T04:14:45Z</time>
      </trkpt>
      <trkpt lat="34.12982" lon="77.06342">
        <ele>4124</ele>
        <time>2015-08-30T04:14:51Z</time>
      </trkpt>
      <trkpt lat="34.12969" lon="77.06357">
        <ele>4123.2</ele>
        <time>2015-08-30T04:15:08Z</time>
      </trkpt>
      <trkpt lat="34.12966" lon="77.06359">
        <ele>4122.8</ele>
        <time>2015-08-30T04:15:11Z</time>
      </trkpt>
      <trkpt lat="34.12954" lon="77.06376">
        <ele>4122.4</ele>
        <time>2015-08-30T04:15:26Z</time>
      </trkpt>
      <trkpt lat="34.1295" lon="77.06381">
        <ele>4121.8</ele>
        <time>2015-08-30T04:15:33Z</time>
      </trkpt>
      <trkpt lat="34.12939" lon="77.06389">
        <ele>4120.8</ele>
        <time>2015-08-30T04:15:46Z</time>
      </trkpt>
      <trkpt lat="34.12935" lon="77.06386">
        <ele>4119.6</ele>
        <time>2015-08-30T04:15:52Z</time>
      </trkpt>
      <trkpt lat="34.12928" lon="77.06388">
        <ele>4118.6</ele>
        <time>2015-08-30T04:16:00Z</time>
      </trkpt>
      <trkpt lat="34.1292" lon="77.06392">
        <ele>4117.6</ele>
        <time>2015-08-30T04:16:10Z</time>
      </trkpt>
      <trkpt lat="34.12914" lon="77.06396">
        <ele>4116.6</ele>
        <time>2015-08-30T04:16:15Z</time>
      </trkpt>
      <trkpt lat="34.12913" lon="77.06396">
        <ele>4116.4</ele>
        <time>2015-08-30T04:16:17Z</time>
      </trkpt>
      <trkpt lat="34.1291" lon="77.06399">
        <ele>4116.4</ele>
        <time>2015-08-30T04:16:19Z</time>
      </trkpt>
      <trkpt lat="34.12905" lon="77.06399">
        <ele>4116</ele>
        <time>2015-08-30T04:16:27Z</time>
      </trkpt>
      <trkpt lat="34.12902" lon="77.06399">
        <ele>4115.4</ele>
        <time>2015-08-30T04:16:31Z</time>
      </trkpt>
      <trkpt lat="34.12898" lon="77.06396">
        <ele>4114.4</ele>
        <time>2015-08-30T04:16:38Z</time>
      </trkpt>
      <trkpt lat="34.12892" lon="77.064">
        <ele>4113.2</ele>
        <time>2015-08-30T04:16:46Z</time>
      </trkpt>
      <trkpt lat="34.12888" lon="77.06404">
        <ele>4112.6</ele>
        <time>2015-08-30T04:16:50Z</time>
      </trkpt>
      <trkpt lat="34.12887" lon="77.06404">
        <ele>4112.2</ele>
        <time>2015-08-30T04:16:51Z</time>
      </trkpt>
      <trkpt lat="34.12887" lon="77.06403">
        <ele>4111.6</ele>
        <time>2015-08-30T04:16:54Z</time>
      </trkpt>
      <trkpt lat="34.12886" lon="77.06404">
        <ele>4111.2</ele>
        <time>2015-08-30T04:16:57Z</time>
      </trkpt>
      <trkpt lat="34.12893" lon="77.06403">
        <ele>4110</ele>
        <time>2015-08-30T04:17:05Z</time>
      </trkpt>
      <trkpt lat="34.12899" lon="77.06405">
        <ele>4109.2</ele>
        <time>2015-08-30T04:17:17Z</time>
      </trkpt>
      <trkpt lat="34.12898" lon="77.06406">
        <ele>4109</ele>
        <time>2015-08-30T04:17:19Z</time>
      </trkpt>
      <trkpt lat="34.12896" lon="77.0641">
        <ele>4108</ele>
        <time>2015-08-30T04:17:24Z</time>
      </trkpt>
      <trkpt lat="34.12893" lon="77.06416">
        <ele>4106.8</ele>
        <time>2015-08-30T04:17:30Z</time>
      </trkpt>
      <trkpt lat="34.12893" lon="77.06417">
        <ele>4106.4</ele>
        <time>2015-08-30T04:17:32Z</time>
      </trkpt>
      <trkpt lat="34.12893" lon="77.06421">
        <ele>4105.8</ele>
        <time>2015-08-30T04:17:35Z</time>
      </trkpt>
      <trkpt lat="34.12894" lon="77.06422">
        <ele>4105.6</ele>
        <time>2015-08-30T04:17:36Z</time>
      </trkpt>
      <trkpt lat="34.12894" lon="77.06423">
        <ele>4105.4</ele>
        <time>2015-08-30T04:17:37Z</time>
      </trkpt>
      <trkpt lat="34.12897" lon="77.06432">
        <ele>4105</ele>
        <time>2015-08-30T04:17:47Z</time>
      </trkpt>
      <trkpt lat="34.1291" lon="77.06434">
        <ele>4106.2</ele>
        <time>2015-08-30T04:18:01Z</time>
      </trkpt>
      <trkpt lat="34.12911" lon="77.06458">
        <ele>4106.6</ele>
        <time>2015-08-30T04:18:19Z</time>
      </trkpt>
      <trkpt lat="34.12909" lon="77.06464">
        <ele>4106.6</ele>
        <time>2015-08-30T04:18:23Z</time>
      </trkpt>
      <trkpt lat="34.12895" lon="77.06478">
        <ele>4106.2</ele>
        <time>2015-08-30T04:18:48Z</time>
      </trkpt>
      <trkpt lat="34.1289" lon="77.0649">
        <ele>4105.6</ele>
        <time>2015-08-30T04:19:00Z</time>
      </trkpt>
      <trkpt lat="34.12883" lon="77.06501">
        <ele>4104.6</ele>
        <time>2015-08-30T04:19:10Z</time>
      </trkpt>
      <trkpt lat="34.12879" lon="77.06505">
        <ele>4103.6</ele>
        <time>2015-08-30T04:19:18Z</time>
      </trkpt>
      <trkpt lat="34.12871" lon="77.06511">
        <ele>4102.4</ele>
        <time>2015-08-30T04:19:27Z</time>
      </trkpt>
      <trkpt lat="34.12865" lon="77.0652">
        <ele>4101.2</ele>
        <time>2015-08-30T04:19:36Z</time>
      </trkpt>
      <trkpt lat="34.1286" lon="77.06525">
        <ele>4100.2</ele>
        <time>2015-08-30T04:19:42Z</time>
      </trkpt>
      <trkpt lat="34.12854" lon="77.06527">
        <ele>4099.2</ele>
        <time>2015-08-30T04:19:50Z</time>
      </trkpt>
      <trkpt lat="34.12842" lon="77.06531">
        <ele>4098.2</ele>
        <time>2015-08-30T04:20:04Z</time>
      </trkpt>
      <trkpt lat="34.12832" lon="77.0654">
        <ele>4097.2</ele>
        <time>2015-08-30T04:20:13Z</time>
      </trkpt>
      <trkpt lat="34.1282" lon="77.06556">
        <ele>4096.4</ele>
        <time>2015-08-30T04:20:30Z</time>
      </trkpt>
      <trkpt lat="34.12816" lon="77.06563">
        <ele>4096</ele>
        <time>2015-08-30T04:20:36Z</time>
      </trkpt>
      <trkpt lat="34.12812" lon="77.06569">
        <ele>4095</ele>
        <time>2015-08-30T04:20:41Z</time>
      </trkpt>
      <trkpt lat="34.12803" lon="77.06571">
        <ele>4094</ele>
        <time>2015-08-30T04:20:50Z</time>
      </trkpt>
      <trkpt lat="34.12796" lon="77.06569">
        <ele>4092.8</ele>
        <time>2015-08-30T04:21:00Z</time>
      </trkpt>
      <trkpt lat="34.12792" lon="77.06569">
        <ele>4091.8</ele>
        <time>2015-08-30T04:21:09Z</time>
      </trkpt>
      <trkpt lat="34.12789" lon="77.06576">
        <ele>4091.4</ele>
        <time>2015-08-30T04:21:20Z</time>
      </trkpt>
      <trkpt lat="34.12785" lon="77.06584">
        <ele>4090.8</ele>
        <time>2015-08-30T04:21:27Z</time>
      </trkpt>
      <trkpt lat="34.12783" lon="77.06586">
        <ele>4090.6</ele>
        <time>2015-08-30T04:21:29Z</time>
      </trkpt>
      <trkpt lat="34.12779" lon="77.06592">
        <ele>4089.6</ele>
        <time>2015-08-30T04:21:40Z</time>
      </trkpt>
      <trkpt lat="34.12777" lon="77.06594">
        <ele>4088.6</ele>
        <time>2015-08-30T04:21:44Z</time>
      </trkpt>
      <trkpt lat="34.12774" lon="77.066">
        <ele>4088</ele>
        <time>2015-08-30T04:21:50Z</time>
      </trkpt>
      <trkpt lat="34.1277" lon="77.06607">
        <ele>4087.6</ele>
        <time>2015-08-30T04:21:56Z</time>
      </trkpt>
      <trkpt lat="34.12764" lon="77.06621">
        <ele>4086.6</ele>
        <time>2015-08-30T04:22:06Z</time>
      </trkpt>
      <trkpt lat="34.12758" lon="77.06631">
        <ele>4085.4</ele>
        <time>2015-08-30T04:22:15Z</time>
      </trkpt>
      <trkpt lat="34.12752" lon="77.06633">
        <ele>4084.4</ele>
        <time>2015-08-30T04:22:22Z</time>
      </trkpt>
      <trkpt lat="34.12749" lon="77.06637">
        <ele>4083.2</ele>
        <time>2015-08-30T04:22:27Z</time>
      </trkpt>
      <trkpt lat="34.12746" lon="77.06642">
        <ele>4082.2</ele>
        <time>2015-08-30T04:22:33Z</time>
      </trkpt>
      <trkpt lat="34.12744" lon="77.06645">
        <ele>4081</ele>
        <time>2015-08-30T04:22:39Z</time>
      </trkpt>
      <trkpt lat="34.12739" lon="77.06649">
        <ele>4080</ele>
        <time>2015-08-30T04:22:47Z</time>
      </trkpt>
      <trkpt lat="34.1273" lon="77.06652">
        <ele>4079</ele>
        <time>2015-08-30T04:22:56Z</time>
      </trkpt>
      <trkpt lat="34.12729" lon="77.06655">
        <ele>4077.8</ele>
        <time>2015-08-30T04:23:03Z</time>
      </trkpt>
      <trkpt lat="34.12725" lon="77.06657">
        <ele>4076.6</ele>
        <time>2015-08-30T04:23:08Z</time>
      </trkpt>
      <trkpt lat="34.12723" lon="77.0666">
        <ele>4076.2</ele>
        <time>2015-08-30T04:23:11Z</time>
      </trkpt>
      <trkpt lat="34.1272" lon="77.06664">
        <ele>4075.4</ele>
        <time>2015-08-30T04:23:15Z</time>
      </trkpt>
      <trkpt lat="34.12718" lon="77.06666">
        <ele>4074.2</ele>
        <time>2015-08-30T04:23:19Z</time>
      </trkpt>
      <trkpt lat="34.12714" lon="77.06674">
        <ele>4073.2</ele>
        <time>2015-08-30T04:23:24Z</time>
      </trkpt>
      <trkpt lat="34.1271" lon="77.0668">
        <ele>4072</ele>
        <time>2015-08-30T04:23:31Z</time>
      </trkpt>
      <trkpt lat="34.12707" lon="77.06684">
        <ele>4071</ele>
        <time>2015-08-30T04:23:38Z</time>
      </trkpt>
      <trkpt lat="34.12695" lon="77.06697">
        <ele>4069.8</ele>
        <time>2015-08-30T04:23:50Z</time>
      </trkpt>
      <trkpt lat="34.12693" lon="77.06705">
        <ele>4068.6</ele>
        <time>2015-08-30T04:23:57Z</time>
      </trkpt>
      <trkpt lat="34.12691" lon="77.06716">
        <ele>4067.6</ele>
        <time>2015-08-30T04:24:09Z</time>
      </trkpt>
      <trkpt lat="34.12689" lon="77.0673">
        <ele>4066.6</ele>
        <time>2015-08-30T04:24:25Z</time>
      </trkpt>
      <trkpt lat="34.12688" lon="77.0673">
        <ele>4066.4</ele>
        <time>2015-08-30T04:24:27Z</time>
      </trkpt>
      <trkpt lat="34.12682" lon="77.06748">
        <ele>4065.6</ele>
        <time>2015-08-30T04:24:36Z</time>
      </trkpt>
      <trkpt lat="34.12672" lon="77.06761">
        <ele>4065</ele>
        <time>2015-08-30T04:24:45Z</time>
      </trkpt>
      <trkpt lat="34.12662" lon="77.06769">
        <ele>4064.4</ele>
        <time>2015-08-30T04:24:51Z</time>
      </trkpt>
      <trkpt lat="34.12654" lon="77.06773">
        <ele>4063.4</ele>
        <time>2015-08-30T04:24:57Z</time>
      </trkpt>
      <trkpt lat="34.12653" lon="77.06774">
        <ele>4063.2</ele>
        <time>2015-08-30T04:24:58Z</time>
      </trkpt>
      <trkpt lat="34.12649" lon="77.06779">
        <ele>4062.2</ele>
        <time>2015-08-30T04:25:03Z</time>
      </trkpt>
      <trkpt lat="34.12646" lon="77.0678">
        <ele>4061</ele>
        <time>2015-08-30T04:25:07Z</time>
      </trkpt>
      <trkpt lat="34.12647" lon="77.06783">
        <ele>4061.6</ele>
        <time>2015-08-30T04:25:19Z</time>
      </trkpt>
      <trkpt lat="34.12646" lon="77.06783">
        <ele>4061.8</ele>
        <time>2015-08-30T04:25:20Z</time>
      </trkpt>
      <trkpt lat="34.12645" lon="77.06784">
        <ele>4062</ele>
        <time>2015-08-30T04:25:21Z</time>
      </trkpt>
      <trkpt lat="34.12644" lon="77.06784">
        <ele>4062.2</ele>
        <time>2015-08-30T04:25:22Z</time>
      </trkpt>
      <trkpt lat="34.12642" lon="77.0678">
        <ele>4062.4</ele>
        <time>2015-08-30T04:25:25Z</time>
      </trkpt>
      <trkpt lat="34.1266" lon="77.06779">
        <ele>4061.4</ele>
        <time>2015-08-30T04:25:42Z</time>
      </trkpt>
      <trkpt lat="34.12661" lon="77.06777">
        <ele>4061.4</ele>
        <time>2015-08-30T04:25:46Z</time>
      </trkpt>
      <trkpt lat="34.12662" lon="77.06774">
        <ele>4061</ele>
        <time>2015-08-30T04:25:51Z</time>
      </trkpt>
      <trkpt lat="34.12659" lon="77.068">
        <ele>4060.6</ele>
        <time>2015-08-30T04:26:04Z</time>
      </trkpt>
      <trkpt lat="34.12657" lon="77.06806">
        <ele>4060.6</ele>
        <time>2015-08-30T04:26:07Z</time>
      </trkpt>
      <trkpt lat="34.12647" lon="77.06814">
        <ele>4061.2</ele>
        <time>2015-08-30T04:26:17Z</time>
      </trkpt>
      <trkpt lat="34.12648" lon="77.06795">
        <ele>4060.8</ele>
        <time>2015-08-30T04:26:23Z</time>
      </trkpt>
      <trkpt lat="34.12649" lon="77.06789">
        <ele>4061</ele>
        <time>2015-08-30T04:26:27Z</time>
      </trkpt>
      <trkpt lat="34.1265" lon="77.06787">
        <ele>4061</ele>
        <time>2015-08-30T04:26:29Z</time>
      </trkpt>
      <trkpt lat="34.1265" lon="77.06792">
        <ele>4061.4</ele>
        <time>2015-08-30T04:28:12Z</time>
      </trkpt>
      <trkpt lat="34.12649" lon="77.06787">
        <ele>4061.4</ele>
        <time>2015-08-30T04:28:13Z</time>
      </trkpt>
      <trkpt lat="34.12649" lon="77.06796">
        <ele>4061.6</ele>
        <time>2015-08-30T04:28:33Z</time>
      </trkpt>
      <trkpt lat="34.12657" lon="77.06797">
        <ele>4061.6</ele>
        <time>2015-08-30T04:28:44Z</time>
      </trkpt>
      <trkpt lat="34.12659" lon="77.06799">
        <ele>4061.6</ele>
        <time>2015-08-30T04:28:47Z</time>
      </trkpt>
      <trkpt lat="34.1266" lon="77.06793">
        <ele>4061.8</ele>
        <time>2015-08-30T04:29:00Z</time>
      </trkpt>
      <trkpt lat="34.1265" lon="77.06791">
        <ele>4061.8</ele>
        <time>2015-08-30T04:29:49Z</time>
      </trkpt>
      <trkpt lat="34.12648" lon="77.06795">
        <ele>4061.8</ele>
        <time>2015-08-30T04:29:52Z</time>
      </trkpt>
      <trkpt lat="34.12647" lon="77.06801">
        <ele>4062</ele>
        <time>2015-08-30T04:30:10Z</time>
      </trkpt>
      <trkpt lat="34.12648" lon="77.06798">
        <ele>4062</ele>
        <time>2015-08-30T04:30:11Z</time>
      </trkpt>
      <trkpt lat="34.12648" lon="77.06798">
        <ele>4062</ele>
        <time>2015-08-30T04:30:12Z</time>
      </trkpt>
      <trkpt lat="34.12646" lon="77.06806">
        <ele>4062.6</ele>
        <time>2015-08-30T04:30:31Z</time>
      </trkpt>
      <trkpt lat="34.12646" lon="77.06811">
        <ele>4062.8</ele>
        <time>2015-08-30T04:30:42Z</time>
      </trkpt>
      <trkpt lat="34.12642" lon="77.06828">
        <ele>4063</ele>
        <time>2015-08-30T04:31:03Z</time>
      </trkpt>
      <trkpt lat="34.1264" lon="77.06829">
        <ele>4063.4</ele>
        <time>2015-08-30T04:31:08Z</time>
      </trkpt>
      <trkpt lat="34.12637" lon="77.06827">
        <ele>4063.4</ele>
        <time>2015-08-30T04:31:12Z</time>
      </trkpt>
      <trkpt lat="34.12634" lon="77.0683">
        <ele>4064</ele>
        <time>2015-08-30T04:31:21Z</time>
      </trkpt>
      <trkpt lat="34.12642" lon="77.06792">
        <ele>4065</ele>
        <time>2015-08-30T04:31:44Z</time>
      </trkpt>
      <trkpt lat="34.12642" lon="77.06793">
        <ele>4066</ele>
        <time>2015-08-30T04:32:11Z</time>
      </trkpt>
      <trkpt lat="34.12643" lon="77.06794">
        <ele>4066.2</ele>
        <time>2015-08-30T04:32:12Z</time>
      </trkpt>
      <trkpt lat="34.12646" lon="77.06792">
        <ele>4066.4</ele>
        <time>2015-08-30T04:32:15Z</time>
      </trkpt>
      <trkpt lat="34.12654" lon="77.06787">
        <ele>4066.2</ele>
        <time>2015-08-30T04:32:27Z</time>
      </trkpt>
      <trkpt lat="34.12655" lon="77.06786">
        <ele>4066.2</ele>
        <time>2015-08-30T04:32:29Z</time>
      </trkpt>
      <trkpt lat="34.12648" lon="77.0678">
        <ele>4066</ele>
        <time>2015-08-30T04:32:46Z</time>
      </trkpt>
      <trkpt lat="34.12655" lon="77.06769">
        <ele>4065.8</ele>
        <time>2015-08-30T04:32:55Z</time>
      </trkpt>
      <trkpt lat="34.12656" lon="77.06765">
        <ele>4065.8</ele>
        <time>2015-08-30T04:32:57Z</time>
      </trkpt>
      <trkpt lat="34.12657" lon="77.06764">
        <ele>4065.8</ele>
        <time>2015-08-30T04:33:11Z</time>
      </trkpt>
      <trkpt lat="34.12645" lon="77.06788">
        <ele>4065</ele>
        <time>2015-08-30T04:33:26Z</time>
      </trkpt>
      <trkpt lat="34.12639" lon="77.06798">
        <ele>4064.4</ele>
        <time>2015-08-30T04:33:32Z</time>
      </trkpt>
      <trkpt lat="34.12635" lon="77.06803">
        <ele>4064</ele>
        <time>2015-08-30T04:33:35Z</time>
      </trkpt>
      <trkpt lat="34.1263" lon="77.06811">
        <ele>4063.8</ele>
        <time>2015-08-30T04:33:38Z</time>
      </trkpt>
      <trkpt lat="34.12612" lon="77.06816">
        <ele>4063.2</ele>
        <time>2015-08-30T04:33:49Z</time>
      </trkpt>
      <trkpt lat="34.12611" lon="77.06816">
        <ele>4063</ele>
        <time>2015-08-30T04:33:51Z</time>
      </trkpt>
      <trkpt lat="34.12609" lon="77.06834">
        <ele>4062.4</ele>
        <time>2015-08-30T04:34:06Z</time>
      </trkpt>
      <trkpt lat="34.1261" lon="77.06837">
        <ele>4061.8</ele>
        <time>2015-08-30T04:34:13Z</time>
      </trkpt>
      <trkpt lat="34.1261" lon="77.06841">
        <ele>4061.2</ele>
        <time>2015-08-30T04:34:16Z</time>
      </trkpt>
      <trkpt lat="34.12591" lon="77.06851">
        <ele>4061.4</ele>
        <time>2015-08-30T04:34:28Z</time>
      </trkpt>
      <trkpt lat="34.12551" lon="77.06857">
        <ele>4061.2</ele>
        <time>2015-08-30T04:34:33Z</time>
      </trkpt>
      <trkpt lat="34.1255" lon="77.06861">
        <ele>4061.8</ele>
        <time>2015-08-30T04:34:38Z</time>
      </trkpt>
      <trkpt lat="34.12583" lon="77.06882">
        <ele>4062.8</ele>
        <time>2015-08-30T04:34:42Z</time>
      </trkpt>
      <trkpt lat="34.12582" lon="77.06884">
        <ele>4063</ele>
        <time>2015-08-30T04:34:43Z</time>
      </trkpt>
      <trkpt lat="34.12581" lon="77.06885">
        <ele>4063.2</ele>
        <time>2015-08-30T04:34:44Z</time>
      </trkpt>
      <trkpt lat="34.12582" lon="77.06887">
        <ele>4064</ele>
        <time>2015-08-30T04:34:49Z</time>
      </trkpt>
      <trkpt lat="34.1258" lon="77.06889">
        <ele>4064.4</ele>
        <time>2015-08-30T04:34:54Z</time>
      </trkpt>
      <trkpt lat="34.12576" lon="77.06886">
        <ele>4064.4</ele>
        <time>2015-08-30T04:34:59Z</time>
      </trkpt>
      <trkpt lat="34.12568" lon="77.06881">
        <ele>4064.2</ele>
        <time>2015-08-30T04:35:10Z</time>
      </trkpt>
      <trkpt lat="34.12565" lon="77.0688">
        <ele>4064.4</ele>
        <time>2015-08-30T04:35:12Z</time>
      </trkpt>
      <trkpt lat="34.12562" lon="77.06882">
        <ele>4064.8</ele>
        <time>2015-08-30T04:35:15Z</time>
      </trkpt>
      <trkpt lat="34.12555" lon="77.06891">
        <ele>4064.2</ele>
        <time>2015-08-30T04:35:22Z</time>
      </trkpt>
      <trkpt lat="34.12549" lon="77.06896">
        <ele>4063.4</ele>
        <time>2015-08-30T04:35:27Z</time>
      </trkpt>
      <trkpt lat="34.12545" lon="77.06898">
        <ele>4063.4</ele>
        <time>2015-08-30T04:35:31Z</time>
      </trkpt>
      <trkpt lat="34.12539" lon="77.06897">
        <ele>4062.8</ele>
        <time>2015-08-30T04:35:35Z</time>
      </trkpt>
      <trkpt lat="34.12538" lon="77.06897">
        <ele>4062.8</ele>
        <time>2015-08-30T04:35:37Z</time>
      </trkpt>
      <trkpt lat="34.12535" lon="77.06896">
        <ele>4062.8</ele>
        <time>2015-08-30T04:35:40Z</time>
      </trkpt>
      <trkpt lat="34.12533" lon="77.06895">
        <ele>4062.8</ele>
        <time>2015-08-30T04:35:42Z</time>
      </trkpt>
      <trkpt lat="34.12527" lon="77.06897">
        <ele>4063</ele>
        <time>2015-08-30T04:35:47Z</time>
      </trkpt>
      <trkpt lat="34.12529" lon="77.06895">
        <ele>4063</ele>
        <time>2015-08-30T04:35:49Z</time>
      </trkpt>
      <trkpt lat="34.12533" lon="77.06892">
        <ele>4063.4</ele>
        <time>2015-08-30T04:35:51Z</time>
      </trkpt>
      <trkpt lat="34.12538" lon="77.06889">
        <ele>4063.8</ele>
        <time>2015-08-30T04:35:54Z</time>
      </trkpt>
      <trkpt lat="34.12538" lon="77.06889">
        <ele>4064</ele>
        <time>2015-08-30T04:35:55Z</time>
      </trkpt>
      <trkpt lat="34.12537" lon="77.06889">
        <ele>4064.2</ele>
        <time>2015-08-30T04:35:57Z</time>
      </trkpt>
      <trkpt lat="34.12548" lon="77.06881">
        <ele>4064.4</ele>
        <time>2015-08-30T04:36:01Z</time>
      </trkpt>
      <trkpt lat="34.12552" lon="77.06876">
        <ele>4064.4</ele>
        <time>2015-08-30T04:36:09Z</time>
      </trkpt>
      <trkpt lat="34.12555" lon="77.06874">
        <ele>4063</ele>
        <time>2015-08-30T04:36:45Z</time>
      </trkpt>
      <trkpt lat="34.12549" lon="77.06878">
        <ele>4063</ele>
        <time>2015-08-30T04:36:53Z</time>
      </trkpt>
      <trkpt lat="34.12552" lon="77.06867">
        <ele>4063</ele>
        <time>2015-08-30T04:37:14Z</time>
      </trkpt>
      <trkpt lat="34.12551" lon="77.06865">
        <ele>4061.8</ele>
        <time>2015-08-30T04:37:19Z</time>
      </trkpt>
      <trkpt lat="34.12546" lon="77.06866">
        <ele>4061.2</ele>
        <time>2015-08-30T04:37:25Z</time>
      </trkpt>
      <trkpt lat="34.1254" lon="77.06866">
        <ele>4060.8</ele>
        <time>2015-08-30T04:37:31Z</time>
      </trkpt>
      <trkpt lat="34.12539" lon="77.06865">
        <ele>4060.6</ele>
        <time>2015-08-30T04:37:33Z</time>
      </trkpt>
      <trkpt lat="34.12536" lon="77.06866">
        <ele>4060.4</ele>
        <time>2015-08-30T04:37:37Z</time>
      </trkpt>
      <trkpt lat="34.12534" lon="77.06866">
        <ele>4060.4</ele>
        <time>2015-08-30T04:37:39Z</time>
      </trkpt>
      <trkpt lat="34.12531" lon="77.06866">
        <ele>4060.4</ele>
        <time>2015-08-30T04:37:43Z</time>
      </trkpt>
      <trkpt lat="34.12526" lon="77.06865">
        <ele>4060.2</ele>
        <time>2015-08-30T04:37:47Z</time>
      </trkpt>
      <trkpt lat="34.12525" lon="77.06864">
        <ele>4060.4</ele>
        <time>2015-08-30T04:37:49Z</time>
      </trkpt>
      <trkpt lat="34.12508" lon="77.06875">
        <ele>4060.6</ele>
        <time>2015-08-30T04:38:04Z</time>
      </trkpt>
      <trkpt lat="34.12504" lon="77.0688">
        <ele>4060.2</ele>
        <time>2015-08-30T04:38:07Z</time>
      </trkpt>
      <trkpt lat="34.12493" lon="77.06891">
        <ele>4059.8</ele>
        <time>2015-08-30T04:38:15Z</time>
      </trkpt>
      <trkpt lat="34.12481" lon="77.0691">
        <ele>4059.4</ele>
        <time>2015-08-30T04:38:23Z</time>
      </trkpt>
      <trkpt lat="34.12477" lon="77.0691">
        <ele>4058.6</ele>
        <time>2015-08-30T04:38:29Z</time>
      </trkpt>
      <trkpt lat="34.12473" lon="77.06918">
        <ele>4058.8</ele>
        <time>2015-08-30T04:38:42Z</time>
      </trkpt>
      <trkpt lat="34.12474" lon="77.0692">
        <ele>4058.8</ele>
        <time>2015-08-30T04:38:44Z</time>
      </trkpt>
      <trkpt lat="34.1247" lon="77.06921">
        <ele>4059.2</ele>
        <time>2015-08-30T04:38:47Z</time>
      </trkpt>
      <trkpt lat="34.12469" lon="77.06923">
        <ele>4059.4</ele>
        <time>2015-08-30T04:38:49Z</time>
      </trkpt>
      <trkpt lat="34.12467" lon="77.06924">
        <ele>4059.4</ele>
        <time>2015-08-30T04:38:52Z</time>
      </trkpt>
      <trkpt lat="34.12462" lon="77.06926">
        <ele>4059.4</ele>
        <time>2015-08-30T04:38:57Z</time>
      </trkpt>
      <trkpt lat="34.1246" lon="77.06924">
        <ele>4059.4</ele>
        <time>2015-08-30T04:39:00Z</time>
      </trkpt>
      <trkpt lat="34.12459" lon="77.06923">
        <ele>4059.4</ele>
        <time>2015-08-30T04:39:02Z</time>
      </trkpt>
      <trkpt lat="34.12458" lon="77.06922">
        <ele>4059.4</ele>
        <time>2015-08-30T04:39:04Z</time>
      </trkpt>
      <trkpt lat="34.12458" lon="77.06916">
        <ele>4059.2</ele>
        <time>2015-08-30T04:39:08Z</time>
      </trkpt>
      <trkpt lat="34.12451" lon="77.06921">
        <ele>4059</ele>
        <time>2015-08-30T04:39:13Z</time>
      </trkpt>
      <trkpt lat="34.12444" lon="77.06925">
        <ele>4058.6</ele>
        <time>2015-08-30T04:39:17Z</time>
      </trkpt>
      <trkpt lat="34.12443" lon="77.06924">
        <ele>4058.4</ele>
        <time>2015-08-30T04:39:19Z</time>
      </trkpt>
      <trkpt lat="34.12439" lon="77.06926">
        <ele>4058</ele>
        <time>2015-08-30T04:39:22Z</time>
      </trkpt>
      <trkpt lat="34.12436" lon="77.06927">
        <ele>4057.8</ele>
        <time>2015-08-30T04:39:24Z</time>
      </trkpt>
      <trkpt lat="34.12435" lon="77.06929">
        <ele>4057.6</ele>
        <time>2015-08-30T04:39:25Z</time>
      </trkpt>
      <trkpt lat="34.12434" lon="77.06929">
        <ele>4057.6</ele>
        <time>2015-08-30T04:39:27Z</time>
      </trkpt>
      <trkpt lat="34.12433" lon="77.06928">
        <ele>4057.2</ele>
        <time>2015-08-30T04:39:30Z</time>
      </trkpt>
      <trkpt lat="34.12431" lon="77.06947">
        <ele>4056.8</ele>
        <time>2015-08-30T04:39:52Z</time>
      </trkpt>
      <trkpt lat="34.12428" lon="77.06949">
        <ele>4056.6</ele>
        <time>2015-08-30T04:39:54Z</time>
      </trkpt>
      <trkpt lat="34.12416" lon="77.06953">
        <ele>4055.4</ele>
        <time>2015-08-30T04:40:05Z</time>
      </trkpt>
      <trkpt lat="34.12412" lon="77.06959">
        <ele>4054.4</ele>
        <time>2015-08-30T04:40:12Z</time>
      </trkpt>
      <trkpt lat="34.12407" lon="77.06961">
        <ele>4053.2</ele>
        <time>2015-08-30T04:40:17Z</time>
      </trkpt>
      <trkpt lat="34.12404" lon="77.06962">
        <ele>4052.8</ele>
        <time>2015-08-30T04:40:20Z</time>
      </trkpt>
      <trkpt lat="34.12401" lon="77.06962">
        <ele>4052.6</ele>
        <time>2015-08-30T04:40:22Z</time>
      </trkpt>
      <trkpt lat="34.12389" lon="77.0697">
        <ele>4052.2</ele>
        <time>2015-08-30T04:40:29Z</time>
      </trkpt>
      <trkpt lat="34.12386" lon="77.06971">
        <ele>4051.8</ele>
        <time>2015-08-30T04:40:33Z</time>
      </trkpt>
      <trkpt lat="34.12381" lon="77.06977">
        <ele>4051.8</ele>
        <time>2015-08-30T04:40:37Z</time>
      </trkpt>
      <trkpt lat="34.12377" lon="77.0698">
        <ele>4051.2</ele>
        <time>2015-08-30T04:40:43Z</time>
      </trkpt>
      <trkpt lat="34.12374" lon="77.06981">
        <ele>4050.2</ele>
        <time>2015-08-30T04:40:48Z</time>
      </trkpt>
      <trkpt lat="34.12371" lon="77.06982">
        <ele>4050</ele>
        <time>2015-08-30T04:40:50Z</time>
      </trkpt>
      <trkpt lat="34.12369" lon="77.06982">
        <ele>4050</ele>
        <time>2015-08-30T04:40:52Z</time>
      </trkpt>
      <trkpt lat="34.12367" lon="77.06983">
        <ele>4050.2</ele>
        <time>2015-08-30T04:40:54Z</time>
      </trkpt>
      <trkpt lat="34.12364" lon="77.06986">
        <ele>4050.4</ele>
        <time>2015-08-30T04:40:56Z</time>
      </trkpt>
      <trkpt lat="34.12359" lon="77.06991">
        <ele>4050.8</ele>
        <time>2015-08-30T04:41:03Z</time>
      </trkpt>
      <trkpt lat="34.12352" lon="77.06994">
        <ele>4050.8</ele>
        <time>2015-08-30T04:41:12Z</time>
      </trkpt>
      <trkpt lat="34.12351" lon="77.06992">
        <ele>4050.8</ele>
        <time>2015-08-30T04:41:14Z</time>
      </trkpt>
      <trkpt lat="34.12336" lon="77.0701">
        <ele>4050</ele>
        <time>2015-08-30T04:41:21Z</time>
      </trkpt>
      <trkpt lat="34.12329" lon="77.07017">
        <ele>4049.6</ele>
        <time>2015-08-30T04:41:25Z</time>
      </trkpt>
      <trkpt lat="34.12318" lon="77.07019">
        <ele>4049.8</ele>
        <time>2015-08-30T04:41:33Z</time>
      </trkpt>
      <trkpt lat="34.12317" lon="77.07019">
        <ele>4049.8</ele>
        <time>2015-08-30T04:41:35Z</time>
      </trkpt>
      <trkpt lat="34.1231" lon="77.07018">
        <ele>4049.2</ele>
        <time>2015-08-30T04:41:42Z</time>
      </trkpt>
      <trkpt lat="34.12306" lon="77.07018">
        <ele>4048.4</ele>
        <time>2015-08-30T04:41:46Z</time>
      </trkpt>
      <trkpt lat="34.12306" lon="77.07018">
        <ele>4048.2</ele>
        <time>2015-08-30T04:41:50Z</time>
      </trkpt>
      <trkpt lat="34.12295" lon="77.07033">
        <ele>4047.2</ele>
        <time>2015-08-30T04:42:11Z</time>
      </trkpt>
      <trkpt lat="34.12294" lon="77.07033">
        <ele>4047</ele>
        <time>2015-08-30T04:42:13Z</time>
      </trkpt>
      <trkpt lat="34.1229" lon="77.07033">
        <ele>4047</ele>
        <time>2015-08-30T04:42:18Z</time>
      </trkpt>
      <trkpt lat="34.12281" lon="77.0704">
        <ele>4046.4</ele>
        <time>2015-08-30T04:42:30Z</time>
      </trkpt>
      <trkpt lat="34.12279" lon="77.07043">
        <ele>4046.2</ele>
        <time>2015-08-30T04:42:33Z</time>
      </trkpt>
      <trkpt lat="34.12274" lon="77.07047">
        <ele>4045.4</ele>
        <time>2015-08-30T04:42:39Z</time>
      </trkpt>
      <trkpt lat="34.1227" lon="77.0705">
        <ele>4045.2</ele>
        <time>2015-08-30T04:42:43Z</time>
      </trkpt>
      <trkpt lat="34.12267" lon="77.0705">
        <ele>4045</ele>
        <time>2015-08-30T04:42:45Z</time>
      </trkpt>
      <trkpt lat="34.12266" lon="77.07051">
        <ele>4045</ele>
        <time>2015-08-30T04:42:46Z</time>
      </trkpt>
      <trkpt lat="34.12249" lon="77.07069">
        <ele>4044</ele>
        <time>2015-08-30T04:42:55Z</time>
      </trkpt>
      <trkpt lat="34.1224" lon="77.07073">
        <ele>4043</ele>
        <time>2015-08-30T04:43:04Z</time>
      </trkpt>
      <trkpt lat="34.12227" lon="77.07078">
        <ele>4041.8</ele>
        <time>2015-08-30T04:43:15Z</time>
      </trkpt>
      <trkpt lat="34.12223" lon="77.0708">
        <ele>4041.4</ele>
        <time>2015-08-30T04:43:18Z</time>
      </trkpt>
      <trkpt lat="34.1222" lon="77.07081">
        <ele>4040.8</ele>
        <time>2015-08-30T04:43:23Z</time>
      </trkpt>
      <trkpt lat="34.12217" lon="77.07091">
        <ele>4039.6</ele>
        <time>2015-08-30T04:43:33Z</time>
      </trkpt>
      <trkpt lat="34.12215" lon="77.0709">
        <ele>4039.6</ele>
        <time>2015-08-30T04:43:35Z</time>
      </trkpt>
      <trkpt lat="34.1221" lon="77.0709">
        <ele>4038.6</ele>
        <time>2015-08-30T04:43:40Z</time>
      </trkpt>
      <trkpt lat="34.12207" lon="77.07089">
        <ele>4038.4</ele>
        <time>2015-08-30T04:43:43Z</time>
      </trkpt>
      <trkpt lat="34.12197" lon="77.07091">
        <ele>4037.6</ele>
        <time>2015-08-30T04:43:49Z</time>
      </trkpt>
      <trkpt lat="34.12193" lon="77.07091">
        <ele>4036.8</ele>
        <time>2015-08-30T04:43:55Z</time>
      </trkpt>
      <trkpt lat="34.12193" lon="77.07094">
        <ele>4036.4</ele>
        <time>2015-08-30T04:43:58Z</time>
      </trkpt>
      <trkpt lat="34.1219" lon="77.07095">
        <ele>4035.8</ele>
        <time>2015-08-30T04:44:00Z</time>
      </trkpt>
      <trkpt lat="34.1219" lon="77.07095">
        <ele>4035.4</ele>
        <time>2015-08-30T04:44:02Z</time>
      </trkpt>
      <trkpt lat="34.1219" lon="77.07093">
        <ele>4035.2</ele>
        <time>2015-08-30T04:44:03Z</time>
      </trkpt>
      <trkpt lat="34.12187" lon="77.0709">
        <ele>4034.2</ele>
        <time>2015-08-30T04:44:08Z</time>
      </trkpt>
      <trkpt lat="34.12185" lon="77.07091">
        <ele>4033.6</ele>
        <time>2015-08-30T04:44:10Z</time>
      </trkpt>
      <trkpt lat="34.12184" lon="77.07093">
        <ele>4033.2</ele>
        <time>2015-08-30T04:44:12Z</time>
      </trkpt>
      <trkpt lat="34.12182" lon="77.07093">
        <ele>4033</ele>
        <time>2015-08-30T04:44:14Z</time>
      </trkpt>
      <trkpt lat="34.12181" lon="77.07094">
        <ele>4033</ele>
        <time>2015-08-30T04:44:17Z</time>
      </trkpt>
      <trkpt lat="34.12171" lon="77.071">
        <ele>4032.2</ele>
        <time>2015-08-30T04:44:30Z</time>
      </trkpt>
      <trkpt lat="34.12167" lon="77.07103">
        <ele>4032</ele>
        <time>2015-08-30T04:44:32Z</time>
      </trkpt>
      <trkpt lat="34.12162" lon="77.07109">
        <ele>4030.8</ele>
        <time>2015-08-30T04:44:35Z</time>
      </trkpt>
      <trkpt lat="34.12154" lon="77.07102">
        <ele>4029.8</ele>
        <time>2015-08-30T04:44:45Z</time>
      </trkpt>
      <trkpt lat="34.12154" lon="77.07102">
        <ele>4029.8</ele>
        <time>2015-08-30T04:44:46Z</time>
      </trkpt>
      <trkpt lat="34.12152" lon="77.07103">
        <ele>4029.8</ele>
        <time>2015-08-30T04:44:48Z</time>
      </trkpt>
      <trkpt lat="34.1216" lon="77.07107">
        <ele>4028.6</ele>
        <time>2015-08-30T04:44:55Z</time>
      </trkpt>
      <trkpt lat="34.12157" lon="77.07107">
        <ele>4027.6</ele>
        <time>2015-08-30T04:45:01Z</time>
      </trkpt>
      <trkpt lat="34.12147" lon="77.07115">
        <ele>4026.8</ele>
        <time>2015-08-30T04:45:04Z</time>
      </trkpt>
      <trkpt lat="34.12142" lon="77.07118">
        <ele>4026.6</ele>
        <time>2015-08-30T04:45:05Z</time>
      </trkpt>
      <trkpt lat="34.1214" lon="77.0712">
        <ele>4026.4</ele>
        <time>2015-08-30T04:45:06Z</time>
      </trkpt>
      <trkpt lat="34.12133" lon="77.07125">
        <ele>4026</ele>
        <time>2015-08-30T04:45:08Z</time>
      </trkpt>
      <trkpt lat="34.1213" lon="77.07126">
        <ele>4025.6</ele>
        <time>2015-08-30T04:45:10Z</time>
      </trkpt>
      <trkpt lat="34.12122" lon="77.07135">
        <ele>4025.4</ele>
        <time>2015-08-30T04:45:12Z</time>
      </trkpt>
      <trkpt lat="34.1211" lon="77.07143">
        <ele>4024.4</ele>
        <time>2015-08-30T04:45:18Z</time>
      </trkpt>
      <trkpt lat="34.12106" lon="77.07145">
        <ele>4023.2</ele>
        <time>2015-08-30T04:45:24Z</time>
      </trkpt>
      <trkpt lat="34.12107" lon="77.07137">
        <ele>4022.4</ele>
        <time>2015-08-30T04:45:31Z</time>
      </trkpt>
      <trkpt lat="34.12107" lon="77.07135">
        <ele>4022</ele>
        <time>2015-08-30T04:45:33Z</time>
      </trkpt>
      <trkpt lat="34.12105" lon="77.07135">
        <ele>4021</ele>
        <time>2015-08-30T04:45:39Z</time>
      </trkpt>
      <trkpt lat="34.12103" lon="77.07138">
        <ele>4020</ele>
        <time>2015-08-30T04:45:44Z</time>
      </trkpt>
      <trkpt lat="34.12101" lon="77.07141">
        <ele>4018.8</ele>
        <time>2015-08-30T04:45:49Z</time>
      </trkpt>
      <trkpt lat="34.12101" lon="77.07145">
        <ele>4017.6</ele>
        <time>2015-08-30T04:45:55Z</time>
      </trkpt>
      <trkpt lat="34.12101" lon="77.07148">
        <ele>4017</ele>
        <time>2015-08-30T04:45:57Z</time>
      </trkpt>
      <trkpt lat="34.12103" lon="77.07149">
        <ele>4016.6</ele>
        <time>2015-08-30T04:45:59Z</time>
      </trkpt>
      <trkpt lat="34.12102" lon="77.07153">
        <ele>4015.4</ele>
        <time>2015-08-30T04:46:03Z</time>
      </trkpt>
      <trkpt lat="34.12105" lon="77.07154">
        <ele>4015</ele>
        <time>2015-08-30T04:46:05Z</time>
      </trkpt>
      <trkpt lat="34.12106" lon="77.07154">
        <ele>4014.4</ele>
        <time>2015-08-30T04:46:08Z</time>
      </trkpt>
      <trkpt lat="34.12109" lon="77.0715">
        <ele>4014</ele>
        <time>2015-08-30T04:46:25Z</time>
      </trkpt>
      <trkpt lat="34.12109" lon="77.07152">
        <ele>4014</ele>
        <time>2015-08-30T04:46:27Z</time>
      </trkpt>
      <trkpt lat="34.12112" lon="77.07154">
        <ele>4014.2</ele>
        <time>2015-08-30T04:46:30Z</time>
      </trkpt>
      <trkpt lat="34.12111" lon="77.07158">
        <ele>4014.2</ele>
        <time>2015-08-30T04:46:36Z</time>
      </trkpt>
      <trkpt lat="34.12106" lon="77.07158">
        <ele>4014.2</ele>
        <time>2015-08-30T04:46:44Z</time>
      </trkpt>
      <trkpt lat="34.12102" lon="77.07161">
        <ele>4014.2</ele>
        <time>2015-08-30T04:46:47Z</time>
      </trkpt>
      <trkpt lat="34.12092" lon="77.07168">
        <ele>4013.8</ele>
        <time>2015-08-30T04:46:54Z</time>
      </trkpt>
      <trkpt lat="34.12089" lon="77.07169">
        <ele>4013.6</ele>
        <time>2015-08-30T04:46:56Z</time>
      </trkpt>
      <trkpt lat="34.12087" lon="77.07171">
        <ele>4013.4</ele>
        <time>2015-08-30T04:46:58Z</time>
      </trkpt>
      <trkpt lat="34.12084" lon="77.07173">
        <ele>4013.4</ele>
        <time>2015-08-30T04:47:02Z</time>
      </trkpt>
      <trkpt lat="34.1207" lon="77.07188">
        <ele>4013.2</ele>
        <time>2015-08-30T04:47:10Z</time>
      </trkpt>
      <trkpt lat="34.12061" lon="77.07207">
        <ele>4012.8</ele>
        <time>2015-08-30T04:47:22Z</time>
      </trkpt>
      <trkpt lat="34.12067" lon="77.07215">
        <ele>4012.6</ele>
        <time>2015-08-30T04:47:27Z</time>
      </trkpt>
      <trkpt lat="34.12068" lon="77.07217">
        <ele>4012.6</ele>
        <time>2015-08-30T04:47:29Z</time>
      </trkpt>
      <trkpt lat="34.12066" lon="77.07221">
        <ele>4012.4</ele>
        <time>2015-08-30T04:47:35Z</time>
      </trkpt>
      <trkpt lat="34.12064" lon="77.07223">
        <ele>4012.2</ele>
        <time>2015-08-30T04:47:37Z</time>
      </trkpt>
      <trkpt lat="34.12064" lon="77.07225">
        <ele>4012.2</ele>
        <time>2015-08-30T04:47:39Z</time>
      </trkpt>
      <trkpt lat="34.12061" lon="77.07233">
        <ele>4012.4</ele>
        <time>2015-08-30T04:47:46Z</time>
      </trkpt>
      <trkpt lat="34.12055" lon="77.07246">
        <ele>4011.4</ele>
        <time>2015-08-30T04:48:01Z</time>
      </trkpt>
      <trkpt lat="34.12057" lon="77.07248">
        <ele>4011.2</ele>
        <time>2015-08-30T04:48:02Z</time>
      </trkpt>
      <trkpt lat="34.12055" lon="77.0725">
        <ele>4011.2</ele>
        <time>2015-08-30T04:48:04Z</time>
      </trkpt>
      <trkpt lat="34.12049" lon="77.07267">
        <ele>4011</ele>
        <time>2015-08-30T04:48:26Z</time>
      </trkpt>
      <trkpt lat="34.12042" lon="77.07279">
        <ele>4010.4</ele>
        <time>2015-08-30T04:48:37Z</time>
      </trkpt>
      <trkpt lat="34.12041" lon="77.0728">
        <ele>4010.2</ele>
        <time>2015-08-30T04:48:39Z</time>
      </trkpt>
      <trkpt lat="34.12037" lon="77.07296">
        <ele>4010</ele>
        <time>2015-08-30T04:48:51Z</time>
      </trkpt>
      <trkpt lat="34.12035" lon="77.07307">
        <ele>4009.2</ele>
        <time>2015-08-30T04:49:01Z</time>
      </trkpt>
      <trkpt lat="34.12048" lon="77.07326">
        <ele>4008.6</ele>
        <time>2015-08-30T04:49:12Z</time>
      </trkpt>
      <trkpt lat="34.12053" lon="77.0733">
        <ele>4008.6</ele>
        <time>2015-08-30T04:49:13Z</time>
      </trkpt>
      <trkpt lat="34.1207" lon="77.0735">
        <ele>4008.2</ele>
        <time>2015-08-30T04:49:25Z</time>
      </trkpt>
      <trkpt lat="34.1207" lon="77.07351">
        <ele>4008.2</ele>
        <time>2015-08-30T04:49:26Z</time>
      </trkpt>
      <trkpt lat="34.12055" lon="77.07345">
        <ele>4008.4</ele>
        <time>2015-08-30T04:49:29Z</time>
      </trkpt>
      <trkpt lat="34.12049" lon="77.07344">
        <ele>4008.8</ele>
        <time>2015-08-30T04:49:31Z</time>
      </trkpt>
      <trkpt lat="34.12046" lon="77.07345">
        <ele>4009</ele>
        <time>2015-08-30T04:49:33Z</time>
      </trkpt>
      <trkpt lat="34.12029" lon="77.07349">
        <ele>4010.2</ele>
        <time>2015-08-30T04:49:47Z</time>
      </trkpt>
      <trkpt lat="34.12026" lon="77.07352">
        <ele>4010.8</ele>
        <time>2015-08-30T04:49:55Z</time>
      </trkpt>
      <trkpt lat="34.12024" lon="77.07354">
        <ele>4011.2</ele>
        <time>2015-08-30T04:50:00Z</time>
      </trkpt>
      <trkpt lat="34.12025" lon="77.07359">
        <ele>4012</ele>
        <time>2015-08-30T04:50:05Z</time>
      </trkpt>
      <trkpt lat="34.12025" lon="77.07362">
        <ele>4012</ele>
        <time>2015-08-30T04:50:07Z</time>
      </trkpt>
      <trkpt lat="34.12028" lon="77.07368">
        <ele>4012.2</ele>
        <time>2015-08-30T04:50:11Z</time>
      </trkpt>
      <trkpt lat="34.1203" lon="77.07374">
        <ele>4012.2</ele>
        <time>2015-08-30T04:50:16Z</time>
      </trkpt>
      <trkpt lat="34.12031" lon="77.07377">
        <ele>4012.4</ele>
        <time>2015-08-30T04:50:18Z</time>
      </trkpt>
      <trkpt lat="34.12031" lon="77.07379">
        <ele>4012.2</ele>
        <time>2015-08-30T04:50:21Z</time>
      </trkpt>
      <trkpt lat="34.12029" lon="77.07385">
        <ele>4011.4</ele>
        <time>2015-08-30T04:50:29Z</time>
      </trkpt>
      <trkpt lat="34.12028" lon="77.07386">
        <ele>4011.2</ele>
        <time>2015-08-30T04:50:30Z</time>
      </trkpt>
      <trkpt lat="34.12026" lon="77.07388">
        <ele>4011</ele>
        <time>2015-08-30T04:50:32Z</time>
      </trkpt>
      <trkpt lat="34.12017" lon="77.07394">
        <ele>4010.2</ele>
        <time>2015-08-30T04:50:42Z</time>
      </trkpt>
      <trkpt lat="34.1202" lon="77.07397">
        <ele>4009.8</ele>
        <time>2015-08-30T04:50:44Z</time>
      </trkpt>
      <trkpt lat="34.12019" lon="77.07398">
        <ele>4009.2</ele>
        <time>2015-08-30T04:50:48Z</time>
      </trkpt>
      <trkpt lat="34.12017" lon="77.07394">
        <ele>4008.6</ele>
        <time>2015-08-30T04:50:52Z</time>
      </trkpt>
      <trkpt lat="34.12016" lon="77.07393">
        <ele>4008.4</ele>
        <time>2015-08-30T04:50:54Z</time>
      </trkpt>
      <trkpt lat="34.12019" lon="77.07388">
        <ele>4008.2</ele>
        <time>2015-08-30T04:50:57Z</time>
      </trkpt>
      <trkpt lat="34.12019" lon="77.07387">
        <ele>4008</ele>
        <time>2015-08-30T04:50:58Z</time>
      </trkpt>
      <trkpt lat="34.12018" lon="77.07387">
        <ele>4007.8</ele>
        <time>2015-08-30T04:50:59Z</time>
      </trkpt>
      <trkpt lat="34.12002" lon="77.07397">
        <ele>4008.2</ele>
        <time>2015-08-30T04:51:26Z</time>
      </trkpt>
      <trkpt lat="34.12002" lon="77.07396">
        <ele>4007.8</ele>
        <time>2015-08-30T04:51:28Z</time>
      </trkpt>
      <trkpt lat="34.11995" lon="77.07393">
        <ele>4007</ele>
        <time>2015-08-30T04:51:35Z</time>
      </trkpt>
      <trkpt lat="34.11978" lon="77.07402">
        <ele>4006.8</ele>
        <time>2015-08-30T04:51:48Z</time>
      </trkpt>
      <trkpt lat="34.11972" lon="77.07409">
        <ele>4006.2</ele>
        <time>2015-08-30T04:51:52Z</time>
      </trkpt>
      <trkpt lat="34.11972" lon="77.07412">
        <ele>4006</ele>
        <time>2015-08-30T04:51:54Z</time>
      </trkpt>
      <trkpt lat="34.11972" lon="77.07415">
        <ele>4006</ele>
        <time>2015-08-30T04:51:55Z</time>
      </trkpt>
      <trkpt lat="34.11973" lon="77.07425">
        <ele>4005.6</ele>
        <time>2015-08-30T04:52:00Z</time>
      </trkpt>
      <trkpt lat="34.11967" lon="77.07423">
        <ele>4004.8</ele>
        <time>2015-08-30T04:52:05Z</time>
      </trkpt>
      <trkpt lat="34.11963" lon="77.07423">
        <ele>4004.8</ele>
        <time>2015-08-30T04:52:08Z</time>
      </trkpt>
      <trkpt lat="34.11957" lon="77.07427">
        <ele>4004.6</ele>
        <time>2015-08-30T04:52:14Z</time>
      </trkpt>
      <trkpt lat="34.11954" lon="77.07429">
        <ele>4004.6</ele>
        <time>2015-08-30T04:52:17Z</time>
      </trkpt>
      <trkpt lat="34.1195" lon="77.07431">
        <ele>4003.8</ele>
        <time>2015-08-30T04:52:22Z</time>
      </trkpt>
      <trkpt lat="34.11949" lon="77.0743">
        <ele>4003.8</ele>
        <time>2015-08-30T04:52:24Z</time>
      </trkpt>
      <trkpt lat="34.11947" lon="77.07433">
        <ele>4003.6</ele>
        <time>2015-08-30T04:52:27Z</time>
      </trkpt>
      <trkpt lat="34.11948" lon="77.07434">
        <ele>4003.6</ele>
        <time>2015-08-30T04:52:29Z</time>
      </trkpt>
      <trkpt lat="34.11945" lon="77.07441">
        <ele>4003</ele>
        <time>2015-08-30T04:52:35Z</time>
      </trkpt>
      <trkpt lat="34.11943" lon="77.07443">
        <ele>4002.8</ele>
        <time>2015-08-30T04:52:37Z</time>
      </trkpt>
      <trkpt lat="34.11942" lon="77.07448">
        <ele>4002.6</ele>
        <time>2015-08-30T04:52:42Z</time>
      </trkpt>
      <trkpt lat="34.11944" lon="77.07442">
        <ele>4002.4</ele>
        <time>2015-08-30T04:53:11Z</time>
      </trkpt>
      <trkpt lat="34.11948" lon="77.07441">
        <ele>4001.8</ele>
        <time>2015-08-30T04:53:34Z</time>
      </trkpt>
      <trkpt lat="34.11949" lon="77.07452">
        <ele>4001.8</ele>
        <time>2015-08-30T04:53:42Z</time>
      </trkpt>
      <trkpt lat="34.11953" lon="77.07452">
        <ele>4001.6</ele>
        <time>2015-08-30T04:54:19Z</time>
      </trkpt>
      <trkpt lat="34.11952" lon="77.07451">
        <ele>4001.6</ele>
        <time>2015-08-30T04:54:21Z</time>
      </trkpt>
      <trkpt lat="34.11948" lon="77.07449">
        <ele>4001.4</ele>
        <time>2015-08-30T04:55:22Z</time>
      </trkpt>
      <trkpt lat="34.11948" lon="77.07438">
        <ele>4001.2</ele>
        <time>2015-08-30T04:56:03Z</time>
      </trkpt>
      <trkpt lat="34.11953" lon="77.0745">
        <ele>4001.6</ele>
        <time>2015-08-30T04:56:50Z</time>
      </trkpt>
      <trkpt lat="34.11956" lon="77.07461">
        <ele>4001.2</ele>
        <time>2015-08-30T04:57:14Z</time>
      </trkpt>
      <trkpt lat="34.11953" lon="77.07461">
        <ele>4001.2</ele>
        <time>2015-08-30T04:57:17Z</time>
      </trkpt>
      <trkpt lat="34.11949" lon="77.07462">
        <ele>4000.8</ele>
        <time>2015-08-30T04:57:22Z</time>
      </trkpt>
      <trkpt lat="34.11948" lon="77.07463">
        <ele>4000.8</ele>
        <time>2015-08-30T04:57:24Z</time>
      </trkpt>
      <trkpt lat="34.11939" lon="77.07468">
        <ele>4000.4</ele>
        <time>2015-08-30T04:57:32Z</time>
      </trkpt>
      <trkpt lat="34.11935" lon="77.07486">
        <ele>3999.6</ele>
        <time>2015-08-30T04:57:48Z</time>
      </trkpt>
      <trkpt lat="34.11924" lon="77.0749">
        <ele>3999.2</ele>
        <time>2015-08-30T04:57:55Z</time>
      </trkpt>
      <trkpt lat="34.11914" lon="77.0749">
        <ele>3999</ele>
        <time>2015-08-30T04:57:58Z</time>
      </trkpt>
      <trkpt lat="34.11913" lon="77.07494">
        <ele>3998.6</ele>
        <time>2015-08-30T04:58:00Z</time>
      </trkpt>
      <trkpt lat="34.11913" lon="77.07496">
        <ele>3998.4</ele>
        <time>2015-08-30T04:58:01Z</time>
      </trkpt>
      <trkpt lat="34.11926" lon="77.07519">
        <ele>3998.2</ele>
        <time>2015-08-30T04:58:18Z</time>
      </trkpt>
      <trkpt lat="34.11922" lon="77.07525">
        <ele>3997.6</ele>
        <time>2015-08-30T04:58:27Z</time>
      </trkpt>
      <trkpt lat="34.11918" lon="77.07528">
        <ele>3997.2</ele>
        <time>2015-08-30T04:58:31Z</time>
      </trkpt>
      <trkpt lat="34.11916" lon="77.07534">
        <ele>3996.6</ele>
        <time>2015-08-30T04:58:40Z</time>
      </trkpt>
      <trkpt lat="34.11916" lon="77.07535">
        <ele>3996.6</ele>
        <time>2015-08-30T04:58:41Z</time>
      </trkpt>
      <trkpt lat="34.11911" lon="77.0754">
        <ele>3996</ele>
        <time>2015-08-30T04:58:51Z</time>
      </trkpt>
      <trkpt lat="34.11908" lon="77.0754">
        <ele>3995.8</ele>
        <time>2015-08-30T04:58:53Z</time>
      </trkpt>
      <trkpt lat="34.11907" lon="77.07541">
        <ele>3995.6</ele>
        <time>2015-08-30T04:58:57Z</time>
      </trkpt>
      <trkpt lat="34.11902" lon="77.07542">
        <ele>3995.6</ele>
        <time>2015-08-30T04:59:05Z</time>
      </trkpt>
      <trkpt lat="34.11903" lon="77.07542">
        <ele>3995.6</ele>
        <time>2015-08-30T04:59:07Z</time>
      </trkpt>
      <trkpt lat="34.11903" lon="77.07547">
        <ele>3995.6</ele>
        <time>2015-08-30T04:59:10Z</time>
      </trkpt>
      <trkpt lat="34.11906" lon="77.07555">
        <ele>3995.6</ele>
        <time>2015-08-30T04:59:17Z</time>
      </trkpt>
      <trkpt lat="34.11904" lon="77.07561">
        <ele>3994.6</ele>
        <time>2015-08-30T04:59:37Z</time>
      </trkpt>
      <trkpt lat="34.11899" lon="77.0756">
        <ele>3994.2</ele>
        <time>2015-08-30T05:00:13Z</time>
      </trkpt>
      <trkpt lat="34.11899" lon="77.07561">
        <ele>3994.2</ele>
        <time>2015-08-30T05:00:14Z</time>
      </trkpt>
      <trkpt lat="34.11892" lon="77.07555">
        <ele>3993.6</ele>
        <time>2015-08-30T05:01:01Z</time>
      </trkpt>
      <trkpt lat="34.11895" lon="77.0758">
        <ele>3993.8</ele>
        <time>2015-08-30T05:01:10Z</time>
      </trkpt>
      <trkpt lat="34.11897" lon="77.0758">
        <ele>3993.6</ele>
        <time>2015-08-30T05:01:20Z</time>
      </trkpt>
      <trkpt lat="34.11895" lon="77.07566">
        <ele>3993.4</ele>
        <time>2015-08-30T05:01:35Z</time>
      </trkpt>
      <trkpt lat="34.11898" lon="77.07572">
        <ele>3993.2</ele>
        <time>2015-08-30T05:01:39Z</time>
      </trkpt>
      <trkpt lat="34.11899" lon="77.07576">
        <ele>3992.4</ele>
        <time>2015-08-30T05:01:54Z</time>
      </trkpt>
      <trkpt lat="34.11899" lon="77.07577">
        <ele>3992.8</ele>
        <time>2015-08-30T05:02:31Z</time>
      </trkpt>
      <trkpt lat="34.11902" lon="77.07576">
        <ele>3992.8</ele>
        <time>2015-08-30T05:02:33Z</time>
      </trkpt>
      <trkpt lat="34.11909" lon="77.07579">
        <ele>3993.2</ele>
        <time>2015-08-30T05:02:53Z</time>
      </trkpt>
      <trkpt lat="34.11911" lon="77.07582">
        <ele>3993.2</ele>
        <time>2015-08-30T05:02:55Z</time>
      </trkpt>
      <trkpt lat="34.11913" lon="77.07585">
        <ele>3993</ele>
        <time>2015-08-30T05:02:58Z</time>
      </trkpt>
      <trkpt lat="34.1191" lon="77.07589">
        <ele>3992.8</ele>
        <time>2015-08-30T05:03:01Z</time>
      </trkpt>
      <trkpt lat="34.11902" lon="77.07587">
        <ele>3992.6</ele>
        <time>2015-08-30T05:03:04Z</time>
      </trkpt>
      <trkpt lat="34.11896" lon="77.0759">
        <ele>3992.2</ele>
        <time>2015-08-30T05:03:09Z</time>
      </trkpt>
      <trkpt lat="34.11896" lon="77.07592">
        <ele>3992.2</ele>
        <time>2015-08-30T05:03:12Z</time>
      </trkpt>
      <trkpt lat="34.11898" lon="77.07595">
        <ele>3992.4</ele>
        <time>2015-08-30T05:03:15Z</time>
      </trkpt>
      <trkpt lat="34.11892" lon="77.07597">
        <ele>3991.4</ele>
        <time>2015-08-30T05:03:25Z</time>
      </trkpt>
      <trkpt lat="34.11891" lon="77.07597">
        <ele>3991.4</ele>
        <time>2015-08-30T05:03:26Z</time>
      </trkpt>
      <trkpt lat="34.11887" lon="77.07599">
        <ele>3991.6</ele>
        <time>2015-08-30T05:03:31Z</time>
      </trkpt>
      <trkpt lat="34.11886" lon="77.07603">
        <ele>3991.4</ele>
        <time>2015-08-30T05:03:34Z</time>
      </trkpt>
      <trkpt lat="34.1188" lon="77.07611">
        <ele>3991.2</ele>
        <time>2015-08-30T05:03:48Z</time>
      </trkpt>
      <trkpt lat="34.11878" lon="77.07612">
        <ele>3991.2</ele>
        <time>2015-08-30T05:03:51Z</time>
      </trkpt>
      <trkpt lat="34.11876" lon="77.07617">
        <ele>3991</ele>
        <time>2015-08-30T05:03:59Z</time>
      </trkpt>
      <trkpt lat="34.11871" lon="77.0762">
        <ele>3990.4</ele>
        <time>2015-08-30T05:04:05Z</time>
      </trkpt>
      <trkpt lat="34.11863" lon="77.07636">
        <ele>3989.4</ele>
        <time>2015-08-30T05:04:28Z</time>
      </trkpt>
      <trkpt lat="34.11856" lon="77.07643">
        <ele>3988.6</ele>
        <time>2015-08-30T05:04:41Z</time>
      </trkpt>
      <trkpt lat="34.11855" lon="77.07644">
        <ele>3988.6</ele>
        <time>2015-08-30T05:04:43Z</time>
      </trkpt>
      <trkpt lat="34.11848" lon="77.07647">
        <ele>3988.4</ele>
        <time>2015-08-30T05:04:51Z</time>
      </trkpt>
      <trkpt lat="34.11847" lon="77.07647">
        <ele>3988.4</ele>
        <time>2015-08-30T05:04:52Z</time>
      </trkpt>
      <trkpt lat="34.11844" lon="77.0765">
        <ele>3988</ele>
        <time>2015-08-30T05:04:56Z</time>
      </trkpt>
      <trkpt lat="34.11839" lon="77.07653">
        <ele>3987.4</ele>
        <time>2015-08-30T05:05:02Z</time>
      </trkpt>
      <trkpt lat="34.11837" lon="77.07654">
        <ele>3987.4</ele>
        <time>2015-08-30T05:05:03Z</time>
      </trkpt>
      <trkpt lat="34.11832" lon="77.07659">
        <ele>3987.4</ele>
        <time>2015-08-30T05:05:09Z</time>
      </trkpt>
      <trkpt lat="34.11827" lon="77.07662">
        <ele>3987.4</ele>
        <time>2015-08-30T05:05:14Z</time>
      </trkpt>
      <trkpt lat="34.11826" lon="77.07662">
        <ele>3987.4</ele>
        <time>2015-08-30T05:05:16Z</time>
      </trkpt>
      <trkpt lat="34.11824" lon="77.07663">
        <ele>3987.2</ele>
        <time>2015-08-30T05:05:18Z</time>
      </trkpt>
      <trkpt lat="34.11823" lon="77.07664">
        <ele>3987.2</ele>
        <time>2015-08-30T05:05:20Z</time>
      </trkpt>
      <trkpt lat="34.11821" lon="77.07666">
        <ele>3986.8</ele>
        <time>2015-08-30T05:05:24Z</time>
      </trkpt>
      <trkpt lat="34.1182" lon="77.07669">
        <ele>3986.4</ele>
        <time>2015-08-30T05:05:27Z</time>
      </trkpt>
      <trkpt lat="34.11815" lon="77.0768">
        <ele>3986</ele>
        <time>2015-08-30T05:05:36Z</time>
      </trkpt>
      <trkpt lat="34.11814" lon="77.0768">
        <ele>3986.2</ele>
        <time>2015-08-30T05:05:38Z</time>
      </trkpt>
      <trkpt lat="34.11812" lon="77.07687">
        <ele>3985.2</ele>
        <time>2015-08-30T05:05:50Z</time>
      </trkpt>
      <trkpt lat="34.11808" lon="77.07693">
        <ele>3984.8</ele>
        <time>2015-08-30T05:05:59Z</time>
      </trkpt>
      <trkpt lat="34.118" lon="77.07704">
        <ele>3984.2</ele>
        <time>2015-08-30T05:06:13Z</time>
      </trkpt>
      <trkpt lat="34.11799" lon="77.07704">
        <ele>3984.2</ele>
        <time>2015-08-30T05:06:14Z</time>
      </trkpt>
      <trkpt lat="34.11791" lon="77.07714">
        <ele>3984</ele>
        <time>2015-08-30T05:06:26Z</time>
      </trkpt>
      <trkpt lat="34.11789" lon="77.07715">
        <ele>3983.8</ele>
        <time>2015-08-30T05:06:28Z</time>
      </trkpt>
      <trkpt lat="34.11788" lon="77.07718">
        <ele>3983.6</ele>
        <time>2015-08-30T05:06:33Z</time>
      </trkpt>
      <trkpt lat="34.11778" lon="77.07718">
        <ele>3983.8</ele>
        <time>2015-08-30T05:06:38Z</time>
      </trkpt>
      <trkpt lat="34.11779" lon="77.07721">
        <ele>3983.8</ele>
        <time>2015-08-30T05:06:43Z</time>
      </trkpt>
      <trkpt lat="34.11782" lon="77.07726">
        <ele>3984.2</ele>
        <time>2015-08-30T05:06:47Z</time>
      </trkpt>
      <trkpt lat="34.11786" lon="77.07729">
        <ele>3984.8</ele>
        <time>2015-08-30T05:06:49Z</time>
      </trkpt>
      <trkpt lat="34.11788" lon="77.0773">
        <ele>3985.2</ele>
        <time>2015-08-30T05:06:51Z</time>
      </trkpt>
      <trkpt lat="34.11787" lon="77.0773">
        <ele>3985.4</ele>
        <time>2015-08-30T05:06:52Z</time>
      </trkpt>
      <trkpt lat="34.11787" lon="77.07733">
        <ele>3986.4</ele>
        <time>2015-08-30T05:06:59Z</time>
      </trkpt>
      <trkpt lat="34.1179" lon="77.07738">
        <ele>3986.8</ele>
        <time>2015-08-30T05:07:02Z</time>
      </trkpt>
      <trkpt lat="34.11791" lon="77.07742">
        <ele>3987.2</ele>
        <time>2015-08-30T05:07:05Z</time>
      </trkpt>
      <trkpt lat="34.1179" lon="77.07743">
        <ele>3987.4</ele>
        <time>2015-08-30T05:07:07Z</time>
      </trkpt>
      <trkpt lat="34.11791" lon="77.07748">
        <ele>3988.6</ele>
        <time>2015-08-30T05:07:19Z</time>
      </trkpt>
      <trkpt lat="34.11788" lon="77.07749">
        <ele>3989.6</ele>
        <time>2015-08-30T05:07:25Z</time>
      </trkpt>
      <trkpt lat="34.11778" lon="77.07762">
        <ele>3988.8</ele>
        <time>2015-08-30T05:07:41Z</time>
      </trkpt>
      <trkpt lat="34.1178" lon="77.07764">
        <ele>3988.8</ele>
        <time>2015-08-30T05:07:45Z</time>
      </trkpt>
      <trkpt lat="34.11785" lon="77.07772">
        <ele>3989</ele>
        <time>2015-08-30T05:07:50Z</time>
      </trkpt>
      <trkpt lat="34.11786" lon="77.07775">
        <ele>3989</ele>
        <time>2015-08-30T05:07:53Z</time>
      </trkpt>
      <trkpt lat="34.11789" lon="77.07782">
        <ele>3988.6</ele>
        <time>2015-08-30T05:08:00Z</time>
      </trkpt>
      <trkpt lat="34.11788" lon="77.07782">
        <ele>3988.4</ele>
        <time>2015-08-30T05:08:01Z</time>
      </trkpt>
      <trkpt lat="34.11777" lon="77.07791">
        <ele>3987.8</ele>
        <time>2015-08-30T05:08:10Z</time>
      </trkpt>
      <trkpt lat="34.11771" lon="77.07798">
        <ele>3987.8</ele>
        <time>2015-08-30T05:08:20Z</time>
      </trkpt>
      <trkpt lat="34.1177" lon="77.07804">
        <ele>3987.8</ele>
        <time>2015-08-30T05:08:27Z</time>
      </trkpt>
      <trkpt lat="34.11768" lon="77.07807">
        <ele>3987.8</ele>
        <time>2015-08-30T05:08:30Z</time>
      </trkpt>
      <trkpt lat="34.11765" lon="77.07814">
        <ele>3987.6</ele>
        <time>2015-08-30T05:08:37Z</time>
      </trkpt>
      <trkpt lat="34.11766" lon="77.07836">
        <ele>3986.8</ele>
        <time>2015-08-30T05:08:53Z</time>
      </trkpt>
      <trkpt lat="34.11765" lon="77.07842">
        <ele>3987</ele>
        <time>2015-08-30T05:08:58Z</time>
      </trkpt>
      <trkpt lat="34.11768" lon="77.0785">
        <ele>3987.2</ele>
        <time>2015-08-30T05:09:07Z</time>
      </trkpt>
      <trkpt lat="34.11769" lon="77.07854">
        <ele>3987.2</ele>
        <time>2015-08-30T05:09:11Z</time>
      </trkpt>
      <trkpt lat="34.11768" lon="77.07858">
        <ele>3987</ele>
        <time>2015-08-30T05:09:14Z</time>
      </trkpt>
      <trkpt lat="34.11763" lon="77.07864">
        <ele>3987</ele>
        <time>2015-08-30T05:09:19Z</time>
      </trkpt>
      <trkpt lat="34.1176" lon="77.07887">
        <ele>3987.2</ele>
        <time>2015-08-30T05:09:34Z</time>
      </trkpt>
      <trkpt lat="34.11756" lon="77.07902">
        <ele>3986.6</ele>
        <time>2015-08-30T05:09:45Z</time>
      </trkpt>
      <trkpt lat="34.11754" lon="77.0791">
        <ele>3987.2</ele>
        <time>2015-08-30T05:09:52Z</time>
      </trkpt>
      <trkpt lat="34.11753" lon="77.07917">
        <ele>3987.4</ele>
        <time>2015-08-30T05:10:00Z</time>
      </trkpt>
      <trkpt lat="34.11749" lon="77.07922">
        <ele>3987.6</ele>
        <time>2015-08-30T05:10:06Z</time>
      </trkpt>
      <trkpt lat="34.11753" lon="77.07929">
        <ele>3987.8</ele>
        <time>2015-08-30T05:10:10Z</time>
      </trkpt>
      <trkpt lat="34.11748" lon="77.07948">
        <ele>3987</ele>
        <time>2015-08-30T05:10:31Z</time>
      </trkpt>
      <trkpt lat="34.11747" lon="77.07964">
        <ele>3986.8</ele>
        <time>2015-08-30T05:10:44Z</time>
      </trkpt>
      <trkpt lat="34.11752" lon="77.0797">
        <ele>3987.2</ele>
        <time>2015-08-30T05:10:49Z</time>
      </trkpt>
      <trkpt lat="34.11752" lon="77.07973">
        <ele>3987.2</ele>
        <time>2015-08-30T05:10:51Z</time>
      </trkpt>
      <trkpt lat="34.11752" lon="77.07977">
        <ele>3987.2</ele>
        <time>2015-08-30T05:10:54Z</time>
      </trkpt>
      <trkpt lat="34.1175" lon="77.0798">
        <ele>3986.4</ele>
        <time>2015-08-30T05:10:59Z</time>
      </trkpt>
      <trkpt lat="34.11751" lon="77.07984">
        <ele>3986.4</ele>
        <time>2015-08-30T05:11:02Z</time>
      </trkpt>
      <trkpt lat="34.11753" lon="77.08006">
        <ele>3987</ele>
        <time>2015-08-30T05:11:15Z</time>
      </trkpt>
      <trkpt lat="34.11749" lon="77.08018">
        <ele>3986.4</ele>
        <time>2015-08-30T05:11:26Z</time>
      </trkpt>
      <trkpt lat="34.11747" lon="77.08021">
        <ele>3986.2</ele>
        <time>2015-08-30T05:11:30Z</time>
      </trkpt>
      <trkpt lat="34.11751" lon="77.08042">
        <ele>3986.8</ele>
        <time>2015-08-30T05:11:48Z</time>
      </trkpt>
      <trkpt lat="34.11751" lon="77.08044">
        <ele>3986.8</ele>
        <time>2015-08-30T05:11:50Z</time>
      </trkpt>
      <trkpt lat="34.11742" lon="77.08064">
        <ele>3986.8</ele>
        <time>2015-08-30T05:12:08Z</time>
      </trkpt>
      <trkpt lat="34.1174" lon="77.08076">
        <ele>3986.6</ele>
        <time>2015-08-30T05:12:17Z</time>
      </trkpt>
      <trkpt lat="34.1173" lon="77.08076">
        <ele>3986.4</ele>
        <time>2015-08-30T05:12:23Z</time>
      </trkpt>
      <trkpt lat="34.11724" lon="77.08085">
        <ele>3986.6</ele>
        <time>2015-08-30T05:12:33Z</time>
      </trkpt>
      <trkpt lat="34.11725" lon="77.08088">
        <ele>3986.8</ele>
        <time>2015-08-30T05:12:35Z</time>
      </trkpt>
      <trkpt lat="34.11723" lon="77.08093">
        <ele>3986.2</ele>
        <time>2015-08-30T05:12:40Z</time>
      </trkpt>
      <trkpt lat="34.11723" lon="77.08098">
        <ele>3986</ele>
        <time>2015-08-30T05:12:44Z</time>
      </trkpt>
      <trkpt lat="34.11718" lon="77.08103">
        <ele>3986.6</ele>
        <time>2015-08-30T05:12:52Z</time>
      </trkpt>
      <trkpt lat="34.11717" lon="77.08104">
        <ele>3986.6</ele>
        <time>2015-08-30T05:12:54Z</time>
      </trkpt>
      <trkpt lat="34.11718" lon="77.08108">
        <ele>3986.4</ele>
        <time>2015-08-30T05:13:06Z</time>
      </trkpt>
      <trkpt lat="34.11708" lon="77.0813">
        <ele>3985.4</ele>
        <time>2015-08-30T05:13:21Z</time>
      </trkpt>
      <trkpt lat="34.1171" lon="77.08131">
        <ele>3985.4</ele>
        <time>2015-08-30T05:13:23Z</time>
      </trkpt>
      <trkpt lat="34.11708" lon="77.08139">
        <ele>3985.4</ele>
        <time>2015-08-30T05:13:32Z</time>
      </trkpt>
      <trkpt lat="34.11703" lon="77.08158">
        <ele>3985.2</ele>
        <time>2015-08-30T05:13:48Z</time>
      </trkpt>
      <trkpt lat="34.11699" lon="77.08163">
        <ele>3984.4</ele>
        <time>2015-08-30T05:13:58Z</time>
      </trkpt>
      <trkpt lat="34.11697" lon="77.08172">
        <ele>3983.6</ele>
        <time>2015-08-30T05:14:14Z</time>
      </trkpt>
      <trkpt lat="34.11692" lon="77.08182">
        <ele>3983.6</ele>
        <time>2015-08-30T05:14:19Z</time>
      </trkpt>
      <trkpt lat="34.11687" lon="77.08204">
        <ele>3984.2</ele>
        <time>2015-08-30T05:14:33Z</time>
      </trkpt>
      <trkpt lat="34.11687" lon="77.08208">
        <ele>3984.4</ele>
        <time>2015-08-30T05:14:36Z</time>
      </trkpt>
      <trkpt lat="34.11679" lon="77.08196">
        <ele>3985.4</ele>
        <time>2015-08-30T05:15:00Z</time>
      </trkpt>
      <trkpt lat="34.11682" lon="77.08193">
        <ele>3985.4</ele>
        <time>2015-08-30T05:15:05Z</time>
      </trkpt>
      <trkpt lat="34.1169" lon="77.08192">
        <ele>3984.4</ele>
        <time>2015-08-30T05:15:12Z</time>
      </trkpt>
      <trkpt lat="34.11691" lon="77.08214">
        <ele>3984.2</ele>
        <time>2015-08-30T05:15:18Z</time>
      </trkpt>
      <trkpt lat="34.11687" lon="77.08217">
        <ele>3984</ele>
        <time>2015-08-30T05:15:21Z</time>
      </trkpt>
      <trkpt lat="34.11686" lon="77.08219">
        <ele>3984</ele>
        <time>2015-08-30T05:15:23Z</time>
      </trkpt>
      <trkpt lat="34.11688" lon="77.08227">
        <ele>3983.8</ele>
        <time>2015-08-30T05:15:29Z</time>
      </trkpt>
      <trkpt lat="34.11689" lon="77.08231">
        <ele>3983.8</ele>
        <time>2015-08-30T05:15:32Z</time>
      </trkpt>
      <trkpt lat="34.11689" lon="77.08235">
        <ele>3984</ele>
        <time>2015-08-30T05:15:35Z</time>
      </trkpt>
      <trkpt lat="34.11685" lon="77.08235">
        <ele>3984.2</ele>
        <time>2015-08-30T05:15:37Z</time>
      </trkpt>
      <trkpt lat="34.11677" lon="77.08249">
        <ele>3984.2</ele>
        <time>2015-08-30T05:15:49Z</time>
      </trkpt>
      <trkpt lat="34.11675" lon="77.08249">
        <ele>3984.2</ele>
        <time>2015-08-30T05:15:53Z</time>
      </trkpt>
      <trkpt lat="34.1167" lon="77.08248">
        <ele>3984.2</ele>
        <time>2015-08-30T05:15:59Z</time>
      </trkpt>
      <trkpt lat="34.11672" lon="77.08255">
        <ele>3983.8</ele>
        <time>2015-08-30T05:16:04Z</time>
      </trkpt>
      <trkpt lat="34.11667" lon="77.08263">
        <ele>3983.6</ele>
        <time>2015-08-30T05:16:07Z</time>
      </trkpt>
      <trkpt lat="34.11664" lon="77.0826">
        <ele>3984</ele>
        <time>2015-08-30T05:16:13Z</time>
      </trkpt>
      <trkpt lat="34.11665" lon="77.08267">
        <ele>3983.6</ele>
        <time>2015-08-30T05:16:20Z</time>
      </trkpt>
      <trkpt lat="34.11664" lon="77.08272">
        <ele>3983.4</ele>
        <time>2015-08-30T05:16:23Z</time>
      </trkpt>
      <trkpt lat="34.11665" lon="77.08281">
        <ele>3983.4</ele>
        <time>2015-08-30T05:16:26Z</time>
      </trkpt>
      <trkpt lat="34.11661" lon="77.08287">
        <ele>3983.2</ele>
        <time>2015-08-30T05:16:33Z</time>
      </trkpt>
      <trkpt lat="34.11657" lon="77.08293">
        <ele>3982.4</ele>
        <time>2015-08-30T05:16:44Z</time>
      </trkpt>
      <trkpt lat="34.11656" lon="77.08295">
        <ele>3982.2</ele>
        <time>2015-08-30T05:16:45Z</time>
      </trkpt>
      <trkpt lat="34.11656" lon="77.08314">
        <ele>3982.2</ele>
        <time>2015-08-30T05:17:06Z</time>
      </trkpt>
      <trkpt lat="34.11655" lon="77.08314">
        <ele>3982</ele>
        <time>2015-08-30T05:17:07Z</time>
      </trkpt>
      <trkpt lat="34.11648" lon="77.0832">
        <ele>3981.2</ele>
        <time>2015-08-30T05:17:14Z</time>
      </trkpt>
      <trkpt lat="34.11644" lon="77.08331">
        <ele>3980.8</ele>
        <time>2015-08-30T05:17:22Z</time>
      </trkpt>
      <trkpt lat="34.11646" lon="77.08341">
        <ele>3981</ele>
        <time>2015-08-30T05:17:31Z</time>
      </trkpt>
      <trkpt lat="34.11639" lon="77.08343">
        <ele>3980.8</ele>
        <time>2015-08-30T05:17:37Z</time>
      </trkpt>
      <trkpt lat="34.11622" lon="77.08355">
        <ele>3980.8</ele>
        <time>2015-08-30T05:17:55Z</time>
      </trkpt>
      <trkpt lat="34.11622" lon="77.08355">
        <ele>3980.8</ele>
        <time>2015-08-30T05:17:56Z</time>
      </trkpt>
      <trkpt lat="34.11609" lon="77.08362">
        <ele>3981</ele>
        <time>2015-08-30T05:18:08Z</time>
      </trkpt>
      <trkpt lat="34.11609" lon="77.08363">
        <ele>3981</ele>
        <time>2015-08-30T05:18:10Z</time>
      </trkpt>
      <trkpt lat="34.11608" lon="77.08374">
        <ele>3981.2</ele>
        <time>2015-08-30T05:18:17Z</time>
      </trkpt>
      <trkpt lat="34.11609" lon="77.08376">
        <ele>3981.2</ele>
        <time>2015-08-30T05:18:19Z</time>
      </trkpt>
      <trkpt lat="34.11611" lon="77.08379">
        <ele>3981.2</ele>
        <time>2015-08-30T05:18:21Z</time>
      </trkpt>
      <trkpt lat="34.11619" lon="77.08386">
        <ele>3981</ele>
        <time>2015-08-30T05:18:29Z</time>
      </trkpt>
      <trkpt lat="34.11617" lon="77.08408">
        <ele>3980.6</ele>
        <time>2015-08-30T05:18:47Z</time>
      </trkpt>
      <trkpt lat="34.11614" lon="77.08413">
        <ele>3980.6</ele>
        <time>2015-08-30T05:18:53Z</time>
      </trkpt>
      <trkpt lat="34.1161" lon="77.08423">
        <ele>3981</ele>
        <time>2015-08-30T05:19:02Z</time>
      </trkpt>
      <trkpt lat="34.11606" lon="77.0845">
        <ele>3980.4</ele>
        <time>2015-08-30T05:19:21Z</time>
      </trkpt>
      <trkpt lat="34.11604" lon="77.08451">
        <ele>3980.4</ele>
        <time>2015-08-30T05:19:23Z</time>
      </trkpt>
      <trkpt lat="34.11598" lon="77.0846">
        <ele>3980.4</ele>
        <time>2015-08-30T05:19:30Z</time>
      </trkpt>
      <trkpt lat="34.11594" lon="77.0846">
        <ele>3980.2</ele>
        <time>2015-08-30T05:19:32Z</time>
      </trkpt>
      <trkpt lat="34.11585" lon="77.08465">
        <ele>3980.4</ele>
        <time>2015-08-30T05:19:43Z</time>
      </trkpt>
      <trkpt lat="34.1158" lon="77.08465">
        <ele>3980.4</ele>
        <time>2015-08-30T05:19:46Z</time>
      </trkpt>
      <trkpt lat="34.11587" lon="77.08475">
        <ele>3980.4</ele>
        <time>2015-08-30T05:19:49Z</time>
      </trkpt>
      <trkpt lat="34.11578" lon="77.0848">
        <ele>3980.4</ele>
        <time>2015-08-30T05:19:57Z</time>
      </trkpt>
      <trkpt lat="34.11575" lon="77.08489">
        <ele>3980.2</ele>
        <time>2015-08-30T05:20:04Z</time>
      </trkpt>
      <trkpt lat="34.11572" lon="77.08489">
        <ele>3980</ele>
        <time>2015-08-30T05:20:07Z</time>
      </trkpt>
      <trkpt lat="34.11569" lon="77.08492">
        <ele>3980</ele>
        <time>2015-08-30T05:20:11Z</time>
      </trkpt>
      <trkpt lat="34.11567" lon="77.08497">
        <ele>3980</ele>
        <time>2015-08-30T05:20:16Z</time>
      </trkpt>
      <trkpt lat="34.11558" lon="77.08512">
        <ele>3980</ele>
        <time>2015-08-30T05:20:33Z</time>
      </trkpt>
      <trkpt lat="34.11562" lon="77.08518">
        <ele>3979.8</ele>
        <time>2015-08-30T05:20:38Z</time>
      </trkpt>
      <trkpt lat="34.11565" lon="77.08527">
        <ele>3979.6</ele>
        <time>2015-08-30T05:20:44Z</time>
      </trkpt>
      <trkpt lat="34.11563" lon="77.08528">
        <ele>3979.8</ele>
        <time>2015-08-30T05:20:46Z</time>
      </trkpt>
      <trkpt lat="34.11558" lon="77.08538">
        <ele>3979.8</ele>
        <time>2015-08-30T05:20:56Z</time>
      </trkpt>
      <trkpt lat="34.11553" lon="77.08543">
        <ele>3980.2</ele>
        <time>2015-08-30T05:21:03Z</time>
      </trkpt>
      <trkpt lat="34.11553" lon="77.08547">
        <ele>3980.2</ele>
        <time>2015-08-30T05:21:06Z</time>
      </trkpt>
      <trkpt lat="34.11552" lon="77.0855">
        <ele>3980.2</ele>
        <time>2015-08-30T05:21:09Z</time>
      </trkpt>
      <trkpt lat="34.11554" lon="77.08564">
        <ele>3980</ele>
        <time>2015-08-30T05:21:21Z</time>
      </trkpt>
      <trkpt lat="34.11563" lon="77.08583">
        <ele>3980.2</ele>
        <time>2015-08-30T05:21:33Z</time>
      </trkpt>
      <trkpt lat="34.1156" lon="77.08585">
        <ele>3980.2</ele>
        <time>2015-08-30T05:21:35Z</time>
      </trkpt>
      <trkpt lat="34.11559" lon="77.08588">
        <ele>3980.2</ele>
        <time>2015-08-30T05:21:37Z</time>
      </trkpt>
      <trkpt lat="34.11562" lon="77.08596">
        <ele>3980</ele>
        <time>2015-08-30T05:21:45Z</time>
      </trkpt>
      <trkpt lat="34.11562" lon="77.08602">
        <ele>3980.2</ele>
        <time>2015-08-30T05:21:58Z</time>
      </trkpt>
      <trkpt lat="34.11561" lon="77.08606">
        <ele>3980.6</ele>
        <time>2015-08-30T05:22:01Z</time>
      </trkpt>
      <trkpt lat="34.11565" lon="77.08625">
        <ele>3980.2</ele>
        <time>2015-08-30T05:22:17Z</time>
      </trkpt>
      <trkpt lat="34.1157" lon="77.08646">
        <ele>3980</ele>
        <time>2015-08-30T05:22:41Z</time>
      </trkpt>
      <trkpt lat="34.11567" lon="77.08648">
        <ele>3980</ele>
        <time>2015-08-30T05:22:43Z</time>
      </trkpt>
      <trkpt lat="34.11565" lon="77.08651">
        <ele>3980</ele>
        <time>2015-08-30T05:22:45Z</time>
      </trkpt>
      <trkpt lat="34.11566" lon="77.08651">
        <ele>3980</ele>
        <time>2015-08-30T05:22:48Z</time>
      </trkpt>
      <trkpt lat="34.11568" lon="77.08664">
        <ele>3980.2</ele>
        <time>2015-08-30T05:22:55Z</time>
      </trkpt>
      <trkpt lat="34.11567" lon="77.08672">
        <ele>3980.4</ele>
        <time>2015-08-30T05:23:01Z</time>
      </trkpt>
      <trkpt lat="34.11565" lon="77.08677">
        <ele>3980.6</ele>
        <time>2015-08-30T05:23:05Z</time>
      </trkpt>
      <trkpt lat="34.11564" lon="77.0868">
        <ele>3980.6</ele>
        <time>2015-08-30T05:23:07Z</time>
      </trkpt>
      <trkpt lat="34.1156" lon="77.08682">
        <ele>3980.4</ele>
        <time>2015-08-30T05:23:11Z</time>
      </trkpt>
      <trkpt lat="34.11559" lon="77.08683">
        <ele>3980</ele>
        <time>2015-08-30T05:23:14Z</time>
      </trkpt>
      <trkpt lat="34.1156" lon="77.08688">
        <ele>3979.8</ele>
        <time>2015-08-30T05:23:17Z</time>
      </trkpt>
      <trkpt lat="34.1156" lon="77.08695">
        <ele>3979.6</ele>
        <time>2015-08-30T05:23:21Z</time>
      </trkpt>
      <trkpt lat="34.11561" lon="77.08698">
        <ele>3979.4</ele>
        <time>2015-08-30T05:23:23Z</time>
      </trkpt>
      <trkpt lat="34.1156" lon="77.08705">
        <ele>3979.2</ele>
        <time>2015-08-30T05:23:28Z</time>
      </trkpt>
      <trkpt lat="34.11559" lon="77.08707">
        <ele>3979</ele>
        <time>2015-08-30T05:23:31Z</time>
      </trkpt>
      <trkpt lat="34.11558" lon="77.08715">
        <ele>3979</ele>
        <time>2015-08-30T05:23:36Z</time>
      </trkpt>
      <trkpt lat="34.11555" lon="77.08717">
        <ele>3979</ele>
        <time>2015-08-30T05:23:38Z</time>
      </trkpt>
      <trkpt lat="34.11548" lon="77.08733">
        <ele>3979.8</ele>
        <time>2015-08-30T05:23:58Z</time>
      </trkpt>
      <trkpt lat="34.1155" lon="77.08737">
        <ele>3979.8</ele>
        <time>2015-08-30T05:24:01Z</time>
      </trkpt>
      <trkpt lat="34.1155" lon="77.08741">
        <ele>3979.6</ele>
        <time>2015-08-30T05:24:04Z</time>
      </trkpt>
      <trkpt lat="34.11549" lon="77.08762">
        <ele>3979.8</ele>
        <time>2015-08-30T05:24:22Z</time>
      </trkpt>
      <trkpt lat="34.1155" lon="77.08769">
        <ele>3979.6</ele>
        <time>2015-08-30T05:24:26Z</time>
      </trkpt>
      <trkpt lat="34.11548" lon="77.08772">
        <ele>3979.6</ele>
        <time>2015-08-30T05:24:31Z</time>
      </trkpt>
      <trkpt lat="34.11548" lon="77.08774">
        <ele>3979.6</ele>
        <time>2015-08-30T05:24:33Z</time>
      </trkpt>
      <trkpt lat="34.11548" lon="77.08782">
        <ele>3979.6</ele>
        <time>2015-08-30T05:24:44Z</time>
      </trkpt>
      <trkpt lat="34.11551" lon="77.08788">
        <ele>3979.8</ele>
        <time>2015-08-30T05:24:48Z</time>
      </trkpt>
      <trkpt lat="34.11553" lon="77.08802">
        <ele>3979.6</ele>
        <time>2015-08-30T05:25:02Z</time>
      </trkpt>
      <trkpt lat="34.11558" lon="77.0881">
        <ele>3979.4</ele>
        <time>2015-08-30T05:25:09Z</time>
      </trkpt>
      <trkpt lat="34.1156" lon="77.08822">
        <ele>3979.4</ele>
        <time>2015-08-30T05:25:24Z</time>
      </trkpt>
      <trkpt lat="34.1156" lon="77.08824">
        <ele>3979.4</ele>
        <time>2015-08-30T05:25:26Z</time>
      </trkpt>
      <trkpt lat="34.11554" lon="77.08835">
        <ele>3979</ele>
        <time>2015-08-30T05:25:32Z</time>
      </trkpt>
      <trkpt lat="34.11554" lon="77.08839">
        <ele>3978.6</ele>
        <time>2015-08-30T05:25:35Z</time>
      </trkpt>
      <trkpt lat="34.11555" lon="77.0884">
        <ele>3978.2</ele>
        <time>2015-08-30T05:25:37Z</time>
      </trkpt>
      <trkpt lat="34.11555" lon="77.08841">
        <ele>3978.2</ele>
        <time>2015-08-30T05:25:38Z</time>
      </trkpt>
      <trkpt lat="34.11555" lon="77.08842">
        <ele>3978</ele>
        <time>2015-08-30T05:25:42Z</time>
      </trkpt>
      <trkpt lat="34.11559" lon="77.08846">
        <ele>3978.8</ele>
        <time>2015-08-30T05:25:54Z</time>
      </trkpt>
      <trkpt lat="34.11562" lon="77.08843">
        <ele>3978.8</ele>
        <time>2015-08-30T05:26:00Z</time>
      </trkpt>
      <trkpt lat="34.11561" lon="77.08841">
        <ele>3979.2</ele>
        <time>2015-08-30T05:26:05Z</time>
      </trkpt>
      <trkpt lat="34.11563" lon="77.0883">
        <ele>3979.2</ele>
        <time>2015-08-30T05:26:16Z</time>
      </trkpt>
      <trkpt lat="34.11562" lon="77.08823">
        <ele>3979.2</ele>
        <time>2015-08-30T05:26:24Z</time>
      </trkpt>
      <trkpt lat="34.11557" lon="77.08838">
        <ele>3979.2</ele>
        <time>2015-08-30T05:26:57Z</time>
      </trkpt>
      <trkpt lat="34.11563" lon="77.08836">
        <ele>3978.6</ele>
        <time>2015-08-30T05:27:41Z</time>
      </trkpt>
      <trkpt lat="34.11561" lon="77.08835">
        <ele>3978.4</ele>
        <time>2015-08-30T05:27:56Z</time>
      </trkpt>
      <trkpt lat="34.11558" lon="77.08837">
        <ele>3978.4</ele>
        <time>2015-08-30T05:28:59Z</time>
      </trkpt>
      <trkpt lat="34.11556" lon="77.08839">
        <ele>3978.2</ele>
        <time>2015-08-30T05:29:17Z</time>
      </trkpt>
      <trkpt lat="34.11561" lon="77.08839">
        <ele>3978.2</ele>
        <time>2015-08-30T05:29:30Z</time>
      </trkpt>
      <trkpt lat="34.1156" lon="77.08837">
        <ele>3978</ele>
        <time>2015-08-30T05:29:43Z</time>
      </trkpt>
      <trkpt lat="34.11553" lon="77.08834">
        <ele>3977.2</ele>
        <time>2015-08-30T05:30:09Z</time>
      </trkpt>
      <trkpt lat="34.11551" lon="77.08835">
        <ele>3977.2</ele>
        <time>2015-08-30T05:30:14Z</time>
      </trkpt>
      <trkpt lat="34.11574" lon="77.08838">
        <ele>3977.2</ele>
        <time>2015-08-30T05:30:19Z</time>
      </trkpt>
      <trkpt lat="34.11577" lon="77.08839">
        <ele>3977.2</ele>
        <time>2015-08-30T05:30:20Z</time>
      </trkpt>
      <trkpt lat="34.11584" lon="77.0884">
        <ele>3977.2</ele>
        <time>2015-08-30T05:30:24Z</time>
      </trkpt>
      <trkpt lat="34.11566" lon="77.08841">
        <ele>3976.4</ele>
        <time>2015-08-30T05:30:52Z</time>
      </trkpt>
      <trkpt lat="34.11556" lon="77.08836">
        <ele>3976.2</ele>
        <time>2015-08-30T05:30:58Z</time>
      </trkpt>
      <trkpt lat="34.1155" lon="77.08831">
        <ele>3975.8</ele>
        <time>2015-08-30T05:31:43Z</time>
      </trkpt>
      <trkpt lat="34.11548" lon="77.08828">
        <ele>3976</ele>
        <time>2015-08-30T05:32:42Z</time>
      </trkpt>
      <trkpt lat="34.11554" lon="77.08829">
        <ele>3976.2</ele>
        <time>2015-08-30T05:33:26Z</time>
      </trkpt>
      <trkpt lat="34.11557" lon="77.08833">
        <ele>3976.4</ele>
        <time>2015-08-30T05:33:28Z</time>
      </trkpt>
      <trkpt lat="34.11553" lon="77.08825">
        <ele>3976</ele>
        <time>2015-08-30T05:33:45Z</time>
      </trkpt>
      <trkpt lat="34.11565" lon="77.08824">
        <ele>3976.4</ele>
        <time>2015-08-30T05:34:01Z</time>
      </trkpt>
      <trkpt lat="34.11557" lon="77.08832">
        <ele>3976</ele>
        <time>2015-08-30T05:34:41Z</time>
      </trkpt>
      <trkpt lat="34.11557" lon="77.08837">
        <ele>3975.8</ele>
        <time>2015-08-30T05:35:19Z</time>
      </trkpt>
      <trkpt lat="34.11551" lon="77.08836">
        <ele>3977.4</ele>
        <time>2015-08-30T05:35:38Z</time>
      </trkpt>
      <trkpt lat="34.11553" lon="77.0883">
        <ele>3976.2</ele>
        <time>2015-08-30T05:36:06Z</time>
      </trkpt>
      <trkpt lat="34.11546" lon="77.08834">
        <ele>3977.2</ele>
        <time>2015-08-30T05:36:50Z</time>
      </trkpt>
      <trkpt lat="34.11549" lon="77.08838">
        <ele>3977.4</ele>
        <time>2015-08-30T05:36:52Z</time>
      </trkpt>
      <trkpt lat="34.11555" lon="77.08832">
        <ele>3976.2</ele>
        <time>2015-08-30T05:37:06Z</time>
      </trkpt>
      <trkpt lat="34.1155" lon="77.08827">
        <ele>3975.8</ele>
        <time>2015-08-30T05:37:23Z</time>
      </trkpt>
      <trkpt lat="34.1155" lon="77.08828">
        <ele>3976</ele>
        <time>2015-08-30T05:37:27Z</time>
      </trkpt>
      <trkpt lat="34.1155" lon="77.08835">
        <ele>3976.8</ele>
        <time>2015-08-30T05:37:30Z</time>
      </trkpt>
      <trkpt lat="34.1155" lon="77.08838">
        <ele>3977</ele>
        <time>2015-08-30T05:37:32Z</time>
      </trkpt>
      <trkpt lat="34.11554" lon="77.08844">
        <ele>3976.4</ele>
        <time>2015-08-30T05:38:04Z</time>
      </trkpt>
      <trkpt lat="34.11558" lon="77.08848">
        <ele>3977.2</ele>
        <time>2015-08-30T05:38:09Z</time>
      </trkpt>
      <trkpt lat="34.11554" lon="77.08862">
        <ele>3976.2</ele>
        <time>2015-08-30T05:38:31Z</time>
      </trkpt>
      <trkpt lat="34.11554" lon="77.08866">
        <ele>3975</ele>
        <time>2015-08-30T05:38:36Z</time>
      </trkpt>
      <trkpt lat="34.11551" lon="77.08866">
        <ele>3974</ele>
        <time>2015-08-30T05:38:41Z</time>
      </trkpt>
      <trkpt lat="34.11552" lon="77.08864">
        <ele>3973.2</ele>
        <time>2015-08-30T05:38:45Z</time>
      </trkpt>
      <trkpt lat="34.11552" lon="77.08862">
        <ele>3973</ele>
        <time>2015-08-30T05:38:47Z</time>
      </trkpt>
      <trkpt lat="34.11551" lon="77.08862">
        <ele>3972.8</ele>
        <time>2015-08-30T05:38:48Z</time>
      </trkpt>
      <trkpt lat="34.1155" lon="77.08861">
        <ele>3972.6</ele>
        <time>2015-08-30T05:38:50Z</time>
      </trkpt>
      <trkpt lat="34.11549" lon="77.0886">
        <ele>3971.8</ele>
        <time>2015-08-30T05:39:05Z</time>
      </trkpt>
      <trkpt lat="34.1155" lon="77.08862">
        <ele>3970.8</ele>
        <time>2015-08-30T05:39:11Z</time>
      </trkpt>
      <trkpt lat="34.11552" lon="77.08865">
        <ele>3971.6</ele>
        <time>2015-08-30T05:39:23Z</time>
      </trkpt>
      <trkpt lat="34.11551" lon="77.08874">
        <ele>3971.4</ele>
        <time>2015-08-30T05:39:31Z</time>
      </trkpt>
      <trkpt lat="34.11547" lon="77.08871">
        <ele>3969.8</ele>
        <time>2015-08-30T05:39:46Z</time>
      </trkpt>
      <trkpt lat="34.11546" lon="77.0887">
        <ele>3969.8</ele>
        <time>2015-08-30T05:39:47Z</time>
      </trkpt>
      <trkpt lat="34.11551" lon="77.08865">
        <ele>3971.2</ele>
        <time>2015-08-30T05:40:00Z</time>
      </trkpt>
      <trkpt lat="34.11552" lon="77.08863">
        <ele>3971.6</ele>
        <time>2015-08-30T05:40:02Z</time>
      </trkpt>
      <trkpt lat="34.11553" lon="77.08862">
        <ele>3972.2</ele>
        <time>2015-08-30T05:40:04Z</time>
      </trkpt>
      <trkpt lat="34.11563" lon="77.08876">
        <ele>3972</ele>
        <time>2015-08-30T05:40:21Z</time>
      </trkpt>
      <trkpt lat="34.11542" lon="77.08905">
        <ele>3972.8</ele>
        <time>2015-08-30T05:40:54Z</time>
      </trkpt>
      <trkpt lat="34.11556" lon="77.08887">
        <ele>3972.6</ele>
        <time>2015-08-30T05:40:56Z</time>
      </trkpt>
      <trkpt lat="34.11562" lon="77.08869">
        <ele>3972.8</ele>
        <time>2015-08-30T05:40:59Z</time>
      </trkpt>
      <trkpt lat="34.11562" lon="77.08867">
        <ele>3972.6</ele>
        <time>2015-08-30T05:41:01Z</time>
      </trkpt>
      <trkpt lat="34.11562" lon="77.08866">
        <ele>3972.6</ele>
        <time>2015-08-30T05:41:05Z</time>
      </trkpt>
      <trkpt lat="34.11559" lon="77.08862">
        <ele>3972.4</ele>
        <time>2015-08-30T05:41:08Z</time>
      </trkpt>
      <trkpt lat="34.11563" lon="77.08864">
        <ele>3972.4</ele>
        <time>2015-08-30T05:41:11Z</time>
      </trkpt>
      <trkpt lat="34.11559" lon="77.08867">
        <ele>3972.2</ele>
        <time>2015-08-30T05:41:18Z</time>
      </trkpt>
      <trkpt lat="34.11555" lon="77.08872">
        <ele>3971.4</ele>
        <time>2015-08-30T05:41:23Z</time>
      </trkpt>
      <trkpt lat="34.11556" lon="77.08872">
        <ele>3971</ele>
        <time>2015-08-30T05:41:26Z</time>
      </trkpt>
      <trkpt lat="34.11548" lon="77.08877">
        <ele>3970.6</ele>
        <time>2015-08-30T05:42:02Z</time>
      </trkpt>
      <trkpt lat="34.1155" lon="77.08879">
        <ele>3970</ele>
        <time>2015-08-30T05:42:09Z</time>
      </trkpt>
      <trkpt lat="34.1155" lon="77.08884">
        <ele>3969.8</ele>
        <time>2015-08-30T05:42:20Z</time>
      </trkpt>
      <trkpt lat="34.11559" lon="77.08881">
        <ele>3969</ele>
        <time>2015-08-30T05:42:52Z</time>
      </trkpt>
      <trkpt lat="34.11557" lon="77.08886">
        <ele>3968.8</ele>
        <time>2015-08-30T05:43:19Z</time>
      </trkpt>
      <trkpt lat="34.11556" lon="77.08879">
        <ele>3970</ele>
        <time>2015-08-30T05:43:28Z</time>
      </trkpt>
      <trkpt lat="34.11551" lon="77.08873">
        <ele>3969.8</ele>
        <time>2015-08-30T05:43:48Z</time>
      </trkpt>
      <trkpt lat="34.11552" lon="77.08872">
        <ele>3969.6</ele>
        <time>2015-08-30T05:43:52Z</time>
      </trkpt>
      <trkpt lat="34.11569" lon="77.08841">
        <ele>3969.8</ele>
        <time>2015-08-30T05:44:26Z</time>
      </trkpt>
      <trkpt lat="34.11571" lon="77.08848">
        <ele>3969.6</ele>
        <time>2015-08-30T05:44:29Z</time>
      </trkpt>
      <trkpt lat="34.11567" lon="77.08854">
        <ele>3969.2</ele>
        <time>2015-08-30T05:44:32Z</time>
      </trkpt>
      <trkpt lat="34.11565" lon="77.08861">
        <ele>3969</ele>
        <time>2015-08-30T05:44:34Z</time>
      </trkpt>
      <trkpt lat="34.11564" lon="77.08861">
        <ele>3969</ele>
        <time>2015-08-30T05:44:35Z</time>
      </trkpt>
      <trkpt lat="34.11558" lon="77.08869">
        <ele>3967.8</ele>
        <time>2015-08-30T05:44:45Z</time>
      </trkpt>
      <trkpt lat="34.11566" lon="77.08871">
        <ele>3967.8</ele>
        <time>2015-08-30T05:44:50Z</time>
      </trkpt>
      <trkpt lat="34.11559" lon="77.08888">
        <ele>3967</ele>
        <time>2015-08-30T05:45:39Z</time>
      </trkpt>
      <trkpt lat="34.11557" lon="77.08892">
        <ele>3966.8</ele>
        <time>2015-08-30T05:45:41Z</time>
      </trkpt>
      <trkpt lat="34.11564" lon="77.08887">
        <ele>3966.2</ele>
        <time>2015-08-30T05:46:16Z</time>
      </trkpt>
      <trkpt lat="34.11564" lon="77.08878">
        <ele>3966.2</ele>
        <time>2015-08-30T05:46:56Z</time>
      </trkpt>
      <trkpt lat="34.11569" lon="77.08878">
        <ele>3965.8</ele>
        <time>2015-08-30T05:47:03Z</time>
      </trkpt>
      <trkpt lat="34.11566" lon="77.0888">
        <ele>3965.6</ele>
        <time>2015-08-30T05:47:08Z</time>
      </trkpt>
      <trkpt lat="34.11563" lon="77.08878">
        <ele>3965.2</ele>
        <time>2015-08-30T05:47:58Z</time>
      </trkpt>
      <trkpt lat="34.11569" lon="77.08877">
        <ele>3965.2</ele>
        <time>2015-08-30T05:48:55Z</time>
      </trkpt>
      <trkpt lat="34.11573" lon="77.08881">
        <ele>3964.8</ele>
        <time>2015-08-30T05:49:16Z</time>
      </trkpt>
      <trkpt lat="34.11566" lon="77.08885">
        <ele>3964.8</ele>
        <time>2015-08-30T05:49:59Z</time>
      </trkpt>
      <trkpt lat="34.11566" lon="77.08883">
        <ele>3964.6</ele>
        <time>2015-08-30T05:50:00Z</time>
      </trkpt>
      <trkpt lat="34.11571" lon="77.08863">
        <ele>3964.4</ele>
        <time>2015-08-30T05:50:23Z</time>
      </trkpt>
      <trkpt lat="34.11572" lon="77.0886">
        <ele>3964.4</ele>
        <time>2015-08-30T05:50:24Z</time>
      </trkpt>
      <trkpt lat="34.11574" lon="77.08854">
        <ele>3964.8</ele>
        <time>2015-08-30T05:50:28Z</time>
      </trkpt>
      <trkpt lat="34.11575" lon="77.0886">
        <ele>3965</ele>
        <time>2015-08-30T05:50:36Z</time>
      </trkpt>
      <trkpt lat="34.1157" lon="77.08867">
        <ele>3965</ele>
        <time>2015-08-30T05:50:39Z</time>
      </trkpt>
      <trkpt lat="34.11574" lon="77.08867">
        <ele>3964.8</ele>
        <time>2015-08-30T05:50:44Z</time>
      </trkpt>
      <trkpt lat="34.11563" lon="77.08875">
        <ele>3965</ele>
        <time>2015-08-30T05:50:52Z</time>
      </trkpt>
      <trkpt lat="34.11552" lon="77.08886">
        <ele>3965</ele>
        <time>2015-08-30T05:51:10Z</time>
      </trkpt>
      <trkpt lat="34.11567" lon="77.08874">
        <ele>3965</ele>
        <time>2015-08-30T05:51:32Z</time>
      </trkpt>
      <trkpt lat="34.11561" lon="77.08879">
        <ele>3964.2</ele>
        <time>2015-08-30T05:52:04Z</time>
      </trkpt>
      <trkpt lat="34.11546" lon="77.08902">
        <ele>3964.6</ele>
        <time>2015-08-30T05:52:26Z</time>
      </trkpt>
      <trkpt lat="34.11549" lon="77.08895">
        <ele>3964.6</ele>
        <time>2015-08-30T05:52:28Z</time>
      </trkpt>
      <trkpt lat="34.11554" lon="77.0888">
        <ele>3964.8</ele>
        <time>2015-08-30T05:52:36Z</time>
      </trkpt>
      <trkpt lat="34.11557" lon="77.08877">
        <ele>3964.6</ele>
        <time>2015-08-30T05:52:39Z</time>
      </trkpt>
      <trkpt lat="34.1155" lon="77.08885">
        <ele>3964.6</ele>
        <time>2015-08-30T05:52:48Z</time>
      </trkpt>
      <trkpt lat="34.11538" lon="77.08892">
        <ele>3964.6</ele>
        <time>2015-08-30T05:53:08Z</time>
      </trkpt>
      <trkpt lat="34.11534" lon="77.08895">
        <ele>3964.6</ele>
        <time>2015-08-30T05:53:14Z</time>
      </trkpt>
      <trkpt lat="34.11552" lon="77.08878">
        <ele>3964.2</ele>
        <time>2015-08-30T05:53:33Z</time>
      </trkpt>
      <trkpt lat="34.11557" lon="77.08873">
        <ele>3964.6</ele>
        <time>2015-08-30T05:53:37Z</time>
      </trkpt>
      <trkpt lat="34.11563" lon="77.08873">
        <ele>3964.6</ele>
        <time>2015-08-30T05:53:40Z</time>
      </trkpt>
      <trkpt lat="34.11574" lon="77.08876">
        <ele>3964.6</ele>
        <time>2015-08-30T05:54:40Z</time>
      </trkpt>
      <trkpt lat="34.11572" lon="77.08878">
        <ele>3964.4</ele>
        <time>2015-08-30T05:54:44Z</time>
      </trkpt>
      <trkpt lat="34.11564" lon="77.08883">
        <ele>3963.8</ele>
        <time>2015-08-30T05:54:54Z</time>
      </trkpt>
      <trkpt lat="34.11506" lon="77.08973">
        <ele>3964.4</ele>
        <time>2015-08-30T05:57:15Z</time>
      </trkpt>
      <trkpt lat="34.11508" lon="77.08971">
        <ele>3964.4</ele>
        <time>2015-08-30T05:57:18Z</time>
      </trkpt>
      <trkpt lat="34.11513" lon="77.08967">
        <ele>3964.4</ele>
        <time>2015-08-30T05:57:23Z</time>
      </trkpt>
      <trkpt lat="34.11514" lon="77.08967">
        <ele>3964.4</ele>
        <time>2015-08-30T05:57:25Z</time>
      </trkpt>
      <trkpt lat="34.11522" lon="77.08962">
        <ele>3963.8</ele>
        <time>2015-08-30T05:57:40Z</time>
      </trkpt>
      <trkpt lat="34.11571" lon="77.0886">
        <ele>3962.8</ele>
        <time>2015-08-30T05:58:15Z</time>
      </trkpt>
      <trkpt lat="34.1156" lon="77.0889">
        <ele>3962.4</ele>
        <time>2015-08-30T05:58:52Z</time>
      </trkpt>
      <trkpt lat="34.11565" lon="77.08883">
        <ele>3962.2</ele>
        <time>2015-08-30T05:58:56Z</time>
      </trkpt>
      <trkpt lat="34.11573" lon="77.08871">
        <ele>3962.2</ele>
        <time>2015-08-30T05:59:07Z</time>
      </trkpt>
      <trkpt lat="34.11565" lon="77.08881">
        <ele>3962</ele>
        <time>2015-08-30T05:59:33Z</time>
      </trkpt>
      <trkpt lat="34.11561" lon="77.08884">
        <ele>3961.6</ele>
        <time>2015-08-30T05:59:56Z</time>
      </trkpt>
      <trkpt lat="34.11568" lon="77.08872">
        <ele>3962</ele>
        <time>2015-08-30T06:02:36Z</time>
      </trkpt>
      <trkpt lat="34.11617" lon="77.08858">
        <ele>3962.2</ele>
        <time>2015-08-30T06:05:37Z</time>
      </trkpt>
      <trkpt lat="34.11559" lon="77.08872">
        <ele>3962.6</ele>
        <time>2015-08-30T06:06:43Z</time>
      </trkpt>
      <trkpt lat="34.11568" lon="77.08875">
        <ele>3962.8</ele>
        <time>2015-08-30T06:06:57Z</time>
      </trkpt>
      <trkpt lat="34.11563" lon="77.08888">
        <ele>3961.6</ele>
        <time>2015-08-30T06:08:30Z</time>
      </trkpt>
      <trkpt lat="34.11555" lon="77.08887">
        <ele>3961.6</ele>
        <time>2015-08-30T06:08:36Z</time>
      </trkpt>
      <trkpt lat="34.11564" lon="77.08885">
        <ele>3960.8</ele>
        <time>2015-08-30T06:09:08Z</time>
      </trkpt>
      <trkpt lat="34.11579" lon="77.0887">
        <ele>3960.6</ele>
        <time>2015-08-30T06:09:16Z</time>
      </trkpt>
      <trkpt lat="34.11578" lon="77.08874">
        <ele>3961.2</ele>
        <time>2015-08-30T06:09:52Z</time>
      </trkpt>
      <trkpt lat="34.11564" lon="77.08884">
        <ele>3960.8</ele>
        <time>2015-08-30T06:10:14Z</time>
      </trkpt>
      <trkpt lat="34.11563" lon="77.08884">
        <ele>3960.8</ele>
        <time>2015-08-30T06:10:16Z</time>
      </trkpt>
      <trkpt lat="34.11563" lon="77.08886">
        <ele>3960.8</ele>
        <time>2015-08-30T06:10:23Z</time>
      </trkpt>
      <trkpt lat="34.1157" lon="77.08883">
        <ele>3960.6</ele>
        <time>2015-08-30T06:10:39Z</time>
      </trkpt>
      <trkpt lat="34.11563" lon="77.08883">
        <ele>3961</ele>
        <time>2015-08-30T06:15:52Z</time>
      </trkpt>
      <trkpt lat="34.11562" lon="77.08887">
        <ele>3960.4</ele>
        <time>2015-08-30T06:17:14Z</time>
      </trkpt>
      <trkpt lat="34.11554" lon="77.08888">
        <ele>3960.8</ele>
        <time>2015-08-30T06:17:21Z</time>
      </trkpt>
      <trkpt lat="34.11554" lon="77.08881">
        <ele>3961.4</ele>
        <time>2015-08-30T06:17:39Z</time>
      </trkpt>
      <trkpt lat="34.11554" lon="77.08878">
        <ele>3961.4</ele>
        <time>2015-08-30T06:17:42Z</time>
      </trkpt>
      <trkpt lat="34.11558" lon="77.0888">
        <ele>3961.6</ele>
        <time>2015-08-30T06:17:52Z</time>
      </trkpt>
      <trkpt lat="34.11567" lon="77.08876">
        <ele>3961.2</ele>
        <time>2015-08-30T06:18:43Z</time>
      </trkpt>
      <trkpt lat="34.11574" lon="77.08881">
        <ele>3961.6</ele>
        <time>2015-08-30T06:19:23Z</time>
      </trkpt>
      <trkpt lat="34.11575" lon="77.08878">
        <ele>3961.6</ele>
        <time>2015-08-30T06:19:26Z</time>
      </trkpt>
      <trkpt lat="34.11568" lon="77.08882">
        <ele>3961.4</ele>
        <time>2015-08-30T06:19:59Z</time>
      </trkpt>
      <trkpt lat="34.11564" lon="77.08879">
        <ele>3961.2</ele>
        <time>2015-08-30T06:20:17Z</time>
      </trkpt>
      <trkpt lat="34.11557" lon="77.08883">
        <ele>3961</ele>
        <time>2015-08-30T06:20:36Z</time>
      </trkpt>
      <trkpt lat="34.11574" lon="77.08881">
        <ele>3961.2</ele>
        <time>2015-08-30T06:20:56Z</time>
      </trkpt>
      <trkpt lat="34.11572" lon="77.08883">
        <ele>3961</ele>
        <time>2015-08-30T06:20:59Z</time>
      </trkpt>
      <trkpt lat="34.11571" lon="77.08881">
        <ele>3960.6</ele>
        <time>2015-08-30T06:21:04Z</time>
      </trkpt>
      <trkpt lat="34.11566" lon="77.08879">
        <ele>3961</ele>
        <time>2015-08-30T06:22:00Z</time>
      </trkpt>
      <trkpt lat="34.1157" lon="77.08876">
        <ele>3961</ele>
        <time>2015-08-30T06:22:18Z</time>
      </trkpt>
      <trkpt lat="34.11559" lon="77.08892">
        <ele>3961</ele>
        <time>2015-08-30T06:22:48Z</time>
      </trkpt>
      <trkpt lat="34.11562" lon="77.08896">
        <ele>3960.6</ele>
        <time>2015-08-30T06:22:55Z</time>
      </trkpt>
      <trkpt lat="34.11538" lon="77.08887">
        <ele>3960.2</ele>
        <time>2015-08-30T06:23:49Z</time>
      </trkpt>
      <trkpt lat="34.11543" lon="77.08889">
        <ele>3960.2</ele>
        <time>2015-08-30T06:23:52Z</time>
      </trkpt>
      <trkpt lat="34.11544" lon="77.08894">
        <ele>3960.2</ele>
        <time>2015-08-30T06:23:55Z</time>
      </trkpt>
      <trkpt lat="34.11559" lon="77.08889">
        <ele>3960.6</ele>
        <time>2015-08-30T06:24:03Z</time>
      </trkpt>
      <trkpt lat="34.11566" lon="77.08873">
        <ele>3960.4</ele>
        <time>2015-08-30T06:24:48Z</time>
      </trkpt>
      <trkpt lat="34.11557" lon="77.08887">
        <ele>3960.6</ele>
        <time>2015-08-30T06:25:21Z</time>
      </trkpt>
      <trkpt lat="34.11579" lon="77.08856">
        <ele>3960.8</ele>
        <time>2015-08-30T06:30:29Z</time>
      </trkpt>
      <trkpt lat="34.11573" lon="77.08882">
        <ele>3960.2</ele>
        <time>2015-08-30T06:30:43Z</time>
      </trkpt>
      <trkpt lat="34.11566" lon="77.08887">
        <ele>3960.2</ele>
        <time>2015-08-30T06:30:44Z</time>
      </trkpt>
      <trkpt lat="34.11539" lon="77.08868">
        <ele>3960.4</ele>
        <time>2015-08-30T06:31:15Z</time>
      </trkpt>
      <trkpt lat="34.11546" lon="77.08871">
        <ele>3960.4</ele>
        <time>2015-08-30T06:31:20Z</time>
      </trkpt>
      <trkpt lat="34.11548" lon="77.08893">
        <ele>3963.4</ele>
        <time>2015-08-30T06:32:46Z</time>
      </trkpt>
      <trkpt lat="34.11588" lon="77.08868">
        <ele>3961.8</ele>
        <time>2015-08-30T06:39:30Z</time>
      </trkpt>
      <trkpt lat="34.11583" lon="77.08863">
        <ele>3961.6</ele>
        <time>2015-08-30T06:39:33Z</time>
      </trkpt>
      <trkpt lat="34.11594" lon="77.08853">
        <ele>3961.6</ele>
        <time>2015-08-30T06:39:35Z</time>
      </trkpt>
      <trkpt lat="34.11595" lon="77.08851">
        <ele>3961.6</ele>
        <time>2015-08-30T06:39:37Z</time>
      </trkpt>
      <trkpt lat="34.11585" lon="77.08857">
        <ele>3962.4</ele>
        <time>2015-08-30T06:39:47Z</time>
      </trkpt>
      <trkpt lat="34.11597" lon="77.08824">
        <ele>3960.6</ele>
        <time>2015-08-30T06:40:38Z</time>
      </trkpt>
      <trkpt lat="34.11603" lon="77.0882">
        <ele>3960.4</ele>
        <time>2015-08-30T06:40:40Z</time>
      </trkpt>
      <trkpt lat="34.11624" lon="77.08837">
        <ele>3959.6</ele>
        <time>2015-08-30T06:41:15Z</time>
      </trkpt>
      <trkpt lat="34.11589" lon="77.08834">
        <ele>3958.6</ele>
        <time>2015-08-30T06:41:42Z</time>
      </trkpt>
      <trkpt lat="34.11578" lon="77.08845">
        <ele>3958.6</ele>
        <time>2015-08-30T06:41:52Z</time>
      </trkpt>
      <trkpt lat="34.11531" lon="77.0889">
        <ele>3959.4</ele>
        <time>2015-08-30T06:45:18Z</time>
      </trkpt>
      <trkpt lat="34.11531" lon="77.08887">
        <ele>3959.8</ele>
        <time>2015-08-30T06:45:28Z</time>
      </trkpt>
      <trkpt lat="34.11541" lon="77.08882">
        <ele>3959.4</ele>
        <time>2015-08-30T06:46:23Z</time>
      </trkpt>
      <trkpt lat="34.11558" lon="77.08883">
        <ele>3958.4</ele>
        <time>2015-08-30T06:46:27Z</time>
      </trkpt>
      <trkpt lat="34.1156" lon="77.08882">
        <ele>3958.4</ele>
        <time>2015-08-30T06:46:55Z</time>
      </trkpt>
      <trkpt lat="34.1156" lon="77.08882">
        <ele>3958.4</ele>
        <time>2015-08-30T06:46:56Z</time>
      </trkpt>
      <trkpt lat="34.11559" lon="77.08885">
        <ele>3959.2</ele>
        <time>2015-08-30T06:47:05Z</time>
      </trkpt>
      <trkpt lat="34.11557" lon="77.08879">
        <ele>3958.8</ele>
        <time>2015-08-30T06:47:22Z</time>
      </trkpt>
      <trkpt lat="34.11561" lon="77.08878">
        <ele>3958.6</ele>
        <time>2015-08-30T06:47:36Z</time>
      </trkpt>
      <trkpt lat="34.11561" lon="77.08877">
        <ele>3958.6</ele>
        <time>2015-08-30T06:47:38Z</time>
      </trkpt>
      <trkpt lat="34.11552" lon="77.08878">
        <ele>3958.8</ele>
        <time>2015-08-30T06:47:42Z</time>
      </trkpt>
      <trkpt lat="34.11551" lon="77.08877">
        <ele>3959</ele>
        <time>2015-08-30T06:47:44Z</time>
      </trkpt>
      <trkpt lat="34.11553" lon="77.08882">
        <ele>3959.6</ele>
        <time>2015-08-30T06:47:50Z</time>
      </trkpt>
      <trkpt lat="34.11558" lon="77.08879">
        <ele>3960.8</ele>
        <time>2015-08-30T06:48:16Z</time>
      </trkpt>
      <trkpt lat="34.11568" lon="77.0888">
        <ele>3961.8</ele>
        <time>2015-08-30T06:48:23Z</time>
      </trkpt>
      <trkpt lat="34.11565" lon="77.08871">
        <ele>3962.4</ele>
        <time>2015-08-30T06:48:34Z</time>
      </trkpt>
      <trkpt lat="34.11577" lon="77.08883">
        <ele>3962.6</ele>
        <time>2015-08-30T06:48:46Z</time>
      </trkpt>
      <trkpt lat="34.11551" lon="77.08886">
        <ele>3962.8</ele>
        <time>2015-08-30T06:49:03Z</time>
      </trkpt>
      <trkpt lat="34.11554" lon="77.08878">
        <ele>3961.4</ele>
        <time>2015-08-30T06:49:49Z</time>
      </trkpt>
      <trkpt lat="34.11562" lon="77.08874">
        <ele>3961.6</ele>
        <time>2015-08-30T06:49:51Z</time>
      </trkpt>
      <trkpt lat="34.11563" lon="77.08875">
        <ele>3961.6</ele>
        <time>2015-08-30T06:49:52Z</time>
      </trkpt>
      <trkpt lat="34.11565" lon="77.08875">
        <ele>3961.6</ele>
        <time>2015-08-30T06:49:53Z</time>
      </trkpt>
      <trkpt lat="34.11568" lon="77.08876">
        <ele>3961.8</ele>
        <time>2015-08-30T06:49:54Z</time>
      </trkpt>
      <trkpt lat="34.1159" lon="77.08857">
        <ele>3961.8</ele>
        <time>2015-08-30T06:50:14Z</time>
      </trkpt>
      <trkpt lat="34.11578" lon="77.08878">
        <ele>3962</ele>
        <time>2015-08-30T06:50:22Z</time>
      </trkpt>
      <trkpt lat="34.1157" lon="77.0889">
        <ele>3962</ele>
        <time>2015-08-30T06:50:24Z</time>
      </trkpt>
      <trkpt lat="34.11562" lon="77.08884">
        <ele>3961.8</ele>
        <time>2015-08-30T06:50:29Z</time>
      </trkpt>
      <trkpt lat="34.11556" lon="77.0886">
        <ele>3962.4</ele>
        <time>2015-08-30T06:51:26Z</time>
      </trkpt>
      <trkpt lat="34.11566" lon="77.08871">
        <ele>3962.8</ele>
        <time>2015-08-30T06:51:40Z</time>
      </trkpt>
      <trkpt lat="34.11568" lon="77.08871">
        <ele>3962.8</ele>
        <time>2015-08-30T06:51:45Z</time>
      </trkpt>
      <trkpt lat="34.11651" lon="77.08795">
        <ele>3962.4</ele>
        <time>2015-08-30T06:52:59Z</time>
      </trkpt>
      <trkpt lat="34.11642" lon="77.08806">
        <ele>3962.4</ele>
        <time>2015-08-30T06:53:03Z</time>
      </trkpt>
      <trkpt lat="34.11647" lon="77.08797">
        <ele>3962.4</ele>
        <time>2015-08-30T06:53:06Z</time>
      </trkpt>
      <trkpt lat="34.11573" lon="77.08876">
        <ele>3962</ele>
        <time>2015-08-30T06:53:10Z</time>
      </trkpt>
      <trkpt lat="34.11568" lon="77.08876">
        <ele>3961.8</ele>
        <time>2015-08-30T06:53:15Z</time>
      </trkpt>
      <trkpt lat="34.11567" lon="77.08876">
        <ele>3961.8</ele>
        <time>2015-08-30T06:53:18Z</time>
      </trkpt>
      <trkpt lat="34.11564" lon="77.08878">
        <ele>3962</ele>
        <time>2015-08-30T06:53:22Z</time>
      </trkpt>
      <trkpt lat="34.11561" lon="77.08881">
        <ele>3962.4</ele>
        <time>2015-08-30T06:53:27Z</time>
      </trkpt>
      <trkpt lat="34.11557" lon="77.08882">
        <ele>3962.4</ele>
        <time>2015-08-30T06:53:30Z</time>
      </trkpt>
      <trkpt lat="34.11556" lon="77.08884">
        <ele>3962.4</ele>
        <time>2015-08-30T06:53:33Z</time>
      </trkpt>
      <trkpt lat="34.1156" lon="77.08885">
        <ele>3962.2</ele>
        <time>2015-08-30T06:53:36Z</time>
      </trkpt>
      <trkpt lat="34.11562" lon="77.08878">
        <ele>3962.8</ele>
        <time>2015-08-30T06:54:09Z</time>
      </trkpt>
      <trkpt lat="34.11564" lon="77.08877">
        <ele>3962.8</ele>
        <time>2015-08-30T06:54:11Z</time>
      </trkpt>
      <trkpt lat="34.1156" lon="77.08872">
        <ele>3962.4</ele>
        <time>2015-08-30T06:54:27Z</time>
      </trkpt>
      <trkpt lat="34.11569" lon="77.08878">
        <ele>3961.6</ele>
        <time>2015-08-30T06:54:35Z</time>
      </trkpt>
      <trkpt lat="34.1157" lon="77.08879">
        <ele>3961.6</ele>
        <time>2015-08-30T06:54:36Z</time>
      </trkpt>
      <trkpt lat="34.1157" lon="77.08877">
        <ele>3960.6</ele>
        <time>2015-08-30T06:54:41Z</time>
      </trkpt>
      <trkpt lat="34.11561" lon="77.08859">
        <ele>3960.6</ele>
        <time>2015-08-30T06:55:07Z</time>
      </trkpt>
      <trkpt lat="34.11556" lon="77.08857">
        <ele>3960.2</ele>
        <time>2015-08-30T06:55:21Z</time>
      </trkpt>
      <trkpt lat="34.11557" lon="77.08871">
        <ele>3960.6</ele>
        <time>2015-08-30T06:56:16Z</time>
      </trkpt>
      <trkpt lat="34.11565" lon="77.08851">
        <ele>3961.2</ele>
        <time>2015-08-30T06:56:24Z</time>
      </trkpt>
      <trkpt lat="34.11559" lon="77.08858">
        <ele>3961.2</ele>
        <time>2015-08-30T06:56:26Z</time>
      </trkpt>
      <trkpt lat="34.11557" lon="77.08866">
        <ele>3961</ele>
        <time>2015-08-30T06:56:32Z</time>
      </trkpt>
      <trkpt lat="34.11555" lon="77.08877">
        <ele>3961.6</ele>
        <time>2015-08-30T06:57:27Z</time>
      </trkpt>
      <trkpt lat="34.1155" lon="77.08872">
        <ele>3961</ele>
        <time>2015-08-30T06:57:47Z</time>
      </trkpt>
      <trkpt lat="34.11553" lon="77.08866">
        <ele>3961</ele>
        <time>2015-08-30T06:58:18Z</time>
      </trkpt>
      <trkpt lat="34.11554" lon="77.08867">
        <ele>3961</ele>
        <time>2015-08-30T06:58:20Z</time>
      </trkpt>
      <trkpt lat="34.11552" lon="77.08871">
        <ele>3960.6</ele>
        <time>2015-08-30T06:58:30Z</time>
      </trkpt>
      <trkpt lat="34.11552" lon="77.08874">
        <ele>3961.2</ele>
        <time>2015-08-30T06:58:42Z</time>
      </trkpt>
      <trkpt lat="34.11563" lon="77.08877">
        <ele>3961.2</ele>
        <time>2015-08-30T06:59:00Z</time>
      </trkpt>
      <trkpt lat="34.11564" lon="77.08875">
        <ele>3961.2</ele>
        <time>2015-08-30T06:59:04Z</time>
      </trkpt>
      <trkpt lat="34.11557" lon="77.08863">
        <ele>3960.6</ele>
        <time>2015-08-30T06:59:17Z</time>
      </trkpt>
      <trkpt lat="34.1156" lon="77.08865">
        <ele>3960.2</ele>
        <time>2015-08-30T06:59:20Z</time>
      </trkpt>
      <trkpt lat="34.11563" lon="77.08868">
        <ele>3959.8</ele>
        <time>2015-08-30T06:59:22Z</time>
      </trkpt>
      <trkpt lat="34.11568" lon="77.08869">
        <ele>3959.8</ele>
        <time>2015-08-30T06:59:24Z</time>
      </trkpt>
      <trkpt lat="34.11571" lon="77.08866">
        <ele>3959.6</ele>
        <time>2015-08-30T06:59:26Z</time>
      </trkpt>
      <trkpt lat="34.11577" lon="77.08866">
        <ele>3959.6</ele>
        <time>2015-08-30T06:59:29Z</time>
      </trkpt>
      <trkpt lat="34.11573" lon="77.08876">
        <ele>3959</ele>
        <time>2015-08-30T06:59:32Z</time>
      </trkpt>
      <trkpt lat="34.11572" lon="77.08876">
        <ele>3958.6</ele>
        <time>2015-08-30T06:59:33Z</time>
      </trkpt>
      <trkpt lat="34.11573" lon="77.08876">
        <ele>3958.2</ele>
        <time>2015-08-30T06:59:34Z</time>
      </trkpt>
      <trkpt lat="34.1157" lon="77.08876">
        <ele>3958.8</ele>
        <time>2015-08-30T06:59:53Z</time>
      </trkpt>
      <trkpt lat="34.11568" lon="77.08876">
        <ele>3959</ele>
        <time>2015-08-30T06:59:55Z</time>
      </trkpt>
      <trkpt lat="34.11565" lon="77.08877">
        <ele>3958.6</ele>
        <time>2015-08-30T06:59:57Z</time>
      </trkpt>
      <trkpt lat="34.11564" lon="77.08876">
        <ele>3958.4</ele>
        <time>2015-08-30T06:59:59Z</time>
      </trkpt>
      <trkpt lat="34.11556" lon="77.0887">
        <ele>3959.2</ele>
        <time>2015-08-30T07:00:11Z</time>
      </trkpt>
      <trkpt lat="34.11553" lon="77.08869">
        <ele>3958.8</ele>
        <time>2015-08-30T07:00:15Z</time>
      </trkpt>
      <trkpt lat="34.11548" lon="77.08868">
        <ele>3958.8</ele>
        <time>2015-08-30T07:00:18Z</time>
      </trkpt>
      <trkpt lat="34.11544" lon="77.08867">
        <ele>3959.2</ele>
        <time>2015-08-30T07:00:22Z</time>
      </trkpt>
      <trkpt lat="34.11543" lon="77.08868">
        <ele>3959.8</ele>
        <time>2015-08-30T07:00:28Z</time>
      </trkpt>
      <trkpt lat="34.11542" lon="77.08867">
        <ele>3960.8</ele>
        <time>2015-08-30T07:00:37Z</time>
      </trkpt>
      <trkpt lat="34.11547" lon="77.0887">
        <ele>3961.8</ele>
        <time>2015-08-30T07:00:44Z</time>
      </trkpt>
      <trkpt lat="34.11548" lon="77.08869">
        <ele>3962.4</ele>
        <time>2015-08-30T07:00:49Z</time>
      </trkpt>
      <trkpt lat="34.11548" lon="77.08867">
        <ele>3962.8</ele>
        <time>2015-08-30T07:00:52Z</time>
      </trkpt>
      <trkpt lat="34.11551" lon="77.08867">
        <ele>3964</ele>
        <time>2015-08-30T07:01:00Z</time>
      </trkpt>
      <trkpt lat="34.11553" lon="77.08869">
        <ele>3965</ele>
        <time>2015-08-30T07:01:05Z</time>
      </trkpt>
      <trkpt lat="34.11559" lon="77.08867">
        <ele>3965.4</ele>
        <time>2015-08-30T07:01:11Z</time>
      </trkpt>
      <trkpt lat="34.11559" lon="77.08869">
        <ele>3965.6</ele>
        <time>2015-08-30T07:01:13Z</time>
      </trkpt>
      <trkpt lat="34.11561" lon="77.08873">
        <ele>3966</ele>
        <time>2015-08-30T07:01:16Z</time>
      </trkpt>
      <trkpt lat="34.11561" lon="77.08874">
        <ele>3966.2</ele>
        <time>2015-08-30T07:01:17Z</time>
      </trkpt>
      <trkpt lat="34.11565" lon="77.08875">
        <ele>3966.6</ele>
        <time>2015-08-30T07:01:20Z</time>
      </trkpt>
      <trkpt lat="34.11568" lon="77.08879">
        <ele>3966.6</ele>
        <time>2015-08-30T07:01:26Z</time>
      </trkpt>
      <trkpt lat="34.11568" lon="77.08886">
        <ele>3965</ele>
        <time>2015-08-30T07:01:39Z</time>
      </trkpt>
      <trkpt lat="34.11582" lon="77.089">
        <ele>3965</ele>
        <time>2015-08-30T07:01:57Z</time>
      </trkpt>
      <trkpt lat="34.1159" lon="77.089">
        <ele>3964.8</ele>
        <time>2015-08-30T07:02:03Z</time>
      </trkpt>
      <trkpt lat="34.11596" lon="77.08897">
        <ele>3964.8</ele>
        <time>2015-08-30T07:02:06Z</time>
      </trkpt>
      <trkpt lat="34.11605" lon="77.08903">
        <ele>3964</ele>
        <time>2015-08-30T07:02:18Z</time>
      </trkpt>
      <trkpt lat="34.11607" lon="77.08907">
        <ele>3964.4</ele>
        <time>2015-08-30T07:02:22Z</time>
      </trkpt>
      <trkpt lat="34.11619" lon="77.08912">
        <ele>3964.6</ele>
        <time>2015-08-30T07:02:26Z</time>
      </trkpt>
      <trkpt lat="34.11621" lon="77.08912">
        <ele>3964.6</ele>
        <time>2015-08-30T07:02:28Z</time>
      </trkpt>
      <trkpt lat="34.11633" lon="77.08915">
        <ele>3964.2</ele>
        <time>2015-08-30T07:02:56Z</time>
      </trkpt>
      <trkpt lat="34.11628" lon="77.08908">
        <ele>3964.2</ele>
        <time>2015-08-30T07:03:04Z</time>
      </trkpt>
      <trkpt lat="34.11624" lon="77.08905">
        <ele>3964.6</ele>
        <time>2015-08-30T07:03:13Z</time>
      </trkpt>
      <trkpt lat="34.11635" lon="77.08911">
        <ele>3964.4</ele>
        <time>2015-08-30T07:03:16Z</time>
      </trkpt>
      <trkpt lat="34.11637" lon="77.08914">
        <ele>3964</ele>
        <time>2015-08-30T07:03:26Z</time>
      </trkpt>
      <trkpt lat="34.11637" lon="77.08917">
        <ele>3962.8</ele>
        <time>2015-08-30T07:03:37Z</time>
      </trkpt>
      <trkpt lat="34.11644" lon="77.08914">
        <ele>3962.8</ele>
        <time>2015-08-30T07:03:56Z</time>
      </trkpt>
      <trkpt lat="34.11658" lon="77.08921">
        <ele>3965.8</ele>
        <time>2015-08-30T07:04:36Z</time>
      </trkpt>
      <trkpt lat="34.11666" lon="77.08919">
        <ele>3966</ele>
        <time>2015-08-30T07:04:40Z</time>
      </trkpt>
      <trkpt lat="34.11667" lon="77.08918">
        <ele>3966.2</ele>
        <time>2015-08-30T07:04:42Z</time>
      </trkpt>
      <trkpt lat="34.11664" lon="77.08921">
        <ele>3966.8</ele>
        <time>2015-08-30T07:04:45Z</time>
      </trkpt>
      <trkpt lat="34.11664" lon="77.08918">
        <ele>3967.2</ele>
        <time>2015-08-30T07:04:51Z</time>
      </trkpt>
      <trkpt lat="34.11659" lon="77.08918">
        <ele>3968.2</ele>
        <time>2015-08-30T07:05:02Z</time>
      </trkpt>
      <trkpt lat="34.11661" lon="77.08917">
        <ele>3968.8</ele>
        <time>2015-08-30T07:05:10Z</time>
      </trkpt>
      <trkpt lat="34.11656" lon="77.08922">
        <ele>3969.2</ele>
        <time>2015-08-30T07:05:20Z</time>
      </trkpt>
      <trkpt lat="34.11654" lon="77.08913">
        <ele>3970.2</ele>
        <time>2015-08-30T07:05:29Z</time>
      </trkpt>
      <trkpt lat="34.11654" lon="77.08912">
        <ele>3970.4</ele>
        <time>2015-08-30T07:05:30Z</time>
      </trkpt>
      <trkpt lat="34.11636" lon="77.08927">
        <ele>3971.4</ele>
        <time>2015-08-30T07:05:36Z</time>
      </trkpt>
      <trkpt lat="34.11632" lon="77.0893">
        <ele>3971.4</ele>
        <time>2015-08-30T07:05:37Z</time>
      </trkpt>
      <trkpt lat="34.11616" lon="77.08944">
        <ele>3971.2</ele>
        <time>2015-08-30T07:05:43Z</time>
      </trkpt>
      <trkpt lat="34.11596" lon="77.08949">
        <ele>3971.4</ele>
        <time>2015-08-30T07:05:51Z</time>
      </trkpt>
      <trkpt lat="34.11597" lon="77.08949">
        <ele>3972.4</ele>
        <time>2015-08-30T07:06:03Z</time>
      </trkpt>
      <trkpt lat="34.11597" lon="77.08939">
        <ele>3972.2</ele>
        <time>2015-08-30T07:06:07Z</time>
      </trkpt>
      <trkpt lat="34.11601" lon="77.08936">
        <ele>3972</ele>
        <time>2015-08-30T07:06:09Z</time>
      </trkpt>
      <trkpt lat="34.1159" lon="77.08926">
        <ele>3973.4</ele>
        <time>2015-08-30T07:06:30Z</time>
      </trkpt>
      <trkpt lat="34.11588" lon="77.08927">
        <ele>3973.4</ele>
        <time>2015-08-30T07:06:31Z</time>
      </trkpt>
      <trkpt lat="34.11582" lon="77.08937">
        <ele>3973.8</ele>
        <time>2015-08-30T07:06:47Z</time>
      </trkpt>
      <trkpt lat="34.11582" lon="77.08944">
        <ele>3974.6</ele>
        <time>2015-08-30T07:07:12Z</time>
      </trkpt>
      <trkpt lat="34.11567" lon="77.08958">
        <ele>3974.8</ele>
        <time>2015-08-30T07:07:19Z</time>
      </trkpt>
      <trkpt lat="34.11558" lon="77.0896">
        <ele>3975.4</ele>
        <time>2015-08-30T07:07:29Z</time>
      </trkpt>
      <trkpt lat="34.11557" lon="77.08966">
        <ele>3975.6</ele>
        <time>2015-08-30T07:07:35Z</time>
      </trkpt>
      <trkpt lat="34.11551" lon="77.08967">
        <ele>3975.4</ele>
        <time>2015-08-30T07:07:45Z</time>
      </trkpt>
      <trkpt lat="34.11553" lon="77.08966">
        <ele>3975.2</ele>
        <time>2015-08-30T07:08:06Z</time>
      </trkpt>
      <trkpt lat="34.11546" lon="77.08971">
        <ele>3975.2</ele>
        <time>2015-08-30T07:08:12Z</time>
      </trkpt>
      <trkpt lat="34.11542" lon="77.08972">
        <ele>3975.4</ele>
        <time>2015-08-30T07:08:15Z</time>
      </trkpt>
      <trkpt lat="34.11543" lon="77.08972">
        <ele>3975.4</ele>
        <time>2015-08-30T07:08:17Z</time>
      </trkpt>
      <trkpt lat="34.11548" lon="77.08971">
        <ele>3974.8</ele>
        <time>2015-08-30T07:08:21Z</time>
      </trkpt>
      <trkpt lat="34.11548" lon="77.0897">
        <ele>3975.2</ele>
        <time>2015-08-30T07:08:34Z</time>
      </trkpt>
      <trkpt lat="34.11544" lon="77.08972">
        <ele>3975.4</ele>
        <time>2015-08-30T07:08:56Z</time>
      </trkpt>
      <trkpt lat="34.11541" lon="77.08976">
        <ele>3975.4</ele>
        <time>2015-08-30T07:08:59Z</time>
      </trkpt>
      <trkpt lat="34.11536" lon="77.08981">
        <ele>3975.4</ele>
        <time>2015-08-30T07:09:02Z</time>
      </trkpt>
      <trkpt lat="34.1152" lon="77.08994">
        <ele>3975.2</ele>
        <time>2015-08-30T07:09:15Z</time>
      </trkpt>
      <trkpt lat="34.11508" lon="77.09">
        <ele>3974.6</ele>
        <time>2015-08-30T07:09:27Z</time>
      </trkpt>
      <trkpt lat="34.11507" lon="77.09">
        <ele>3974.4</ele>
        <time>2015-08-30T07:09:28Z</time>
      </trkpt>
      <trkpt lat="34.11494" lon="77.09006">
        <ele>3974</ele>
        <time>2015-08-30T07:09:40Z</time>
      </trkpt>
      <trkpt lat="34.11487" lon="77.09005">
        <ele>3973.4</ele>
        <time>2015-08-30T07:09:53Z</time>
      </trkpt>
      <trkpt lat="34.11482" lon="77.09006">
        <ele>3973</ele>
        <time>2015-08-30T07:09:57Z</time>
      </trkpt>
      <trkpt lat="34.1148" lon="77.09006">
        <ele>3972.6</ele>
        <time>2015-08-30T07:09:59Z</time>
      </trkpt>
      <trkpt lat="34.11477" lon="77.09007">
        <ele>3972.4</ele>
        <time>2015-08-30T07:10:01Z</time>
      </trkpt>
      <trkpt lat="34.11471" lon="77.0901">
        <ele>3971.8</ele>
        <time>2015-08-30T07:10:05Z</time>
      </trkpt>
      <trkpt lat="34.11464" lon="77.09016">
        <ele>3971.2</ele>
        <time>2015-08-30T07:10:11Z</time>
      </trkpt>
      <trkpt lat="34.11453" lon="77.09022">
        <ele>3970</ele>
        <time>2015-08-30T07:10:17Z</time>
      </trkpt>
      <trkpt lat="34.11453" lon="77.09023">
        <ele>3969.8</ele>
        <time>2015-08-30T07:10:18Z</time>
      </trkpt>
      <trkpt lat="34.11448" lon="77.09026">
        <ele>3969</ele>
        <time>2015-08-30T07:10:23Z</time>
      </trkpt>
      <trkpt lat="34.11449" lon="77.09027">
        <ele>3968</ele>
        <time>2015-08-30T07:10:27Z</time>
      </trkpt>
      <trkpt lat="34.11446" lon="77.09027">
        <ele>3966.8</ele>
        <time>2015-08-30T07:10:35Z</time>
      </trkpt>
      <trkpt lat="34.11437" lon="77.09032">
        <ele>3965.8</ele>
        <time>2015-08-30T07:10:42Z</time>
      </trkpt>
      <trkpt lat="34.11436" lon="77.09034">
        <ele>3965.6</ele>
        <time>2015-08-30T07:10:43Z</time>
      </trkpt>
      <trkpt lat="34.11431" lon="77.09039">
        <ele>3965.2</ele>
        <time>2015-08-30T07:10:49Z</time>
      </trkpt>
      <trkpt lat="34.11428" lon="77.09044">
        <ele>3965.4</ele>
        <time>2015-08-30T07:10:58Z</time>
      </trkpt>
      <trkpt lat="34.11427" lon="77.09046">
        <ele>3965.4</ele>
        <time>2015-08-30T07:11:00Z</time>
      </trkpt>
      <trkpt lat="34.11425" lon="77.09047">
        <ele>3965.2</ele>
        <time>2015-08-30T07:11:02Z</time>
      </trkpt>
      <trkpt lat="34.11419" lon="77.09055">
        <ele>3964.6</ele>
        <time>2015-08-30T07:11:10Z</time>
      </trkpt>
      <trkpt lat="34.11404" lon="77.09068">
        <ele>3963.8</ele>
        <time>2015-08-30T07:11:19Z</time>
      </trkpt>
      <trkpt lat="34.11404" lon="77.09069">
        <ele>3963.6</ele>
        <time>2015-08-30T07:11:20Z</time>
      </trkpt>
      <trkpt lat="34.11405" lon="77.09074">
        <ele>3962.8</ele>
        <time>2015-08-30T07:11:25Z</time>
      </trkpt>
      <trkpt lat="34.11406" lon="77.09075">
        <ele>3962.4</ele>
        <time>2015-08-30T07:11:27Z</time>
      </trkpt>
      <trkpt lat="34.11405" lon="77.0908">
        <ele>3961.2</ele>
        <time>2015-08-30T07:11:34Z</time>
      </trkpt>
      <trkpt lat="34.11403" lon="77.09082">
        <ele>3961</ele>
        <time>2015-08-30T07:11:36Z</time>
      </trkpt>
      <trkpt lat="34.11399" lon="77.09085">
        <ele>3960.2</ele>
        <time>2015-08-30T07:11:40Z</time>
      </trkpt>
      <trkpt lat="34.11395" lon="77.09089">
        <ele>3959</ele>
        <time>2015-08-30T07:11:45Z</time>
      </trkpt>
      <trkpt lat="34.11392" lon="77.09095">
        <ele>3959</ele>
        <time>2015-08-30T07:11:51Z</time>
      </trkpt>
      <trkpt lat="34.11382" lon="77.09103">
        <ele>3958</ele>
        <time>2015-08-30T07:11:59Z</time>
      </trkpt>
      <trkpt lat="34.11391" lon="77.09107">
        <ele>3958</ele>
        <time>2015-08-30T07:12:00Z</time>
      </trkpt>
      <trkpt lat="34.11393" lon="77.09113">
        <ele>3957.6</ele>
        <time>2015-08-30T07:12:03Z</time>
      </trkpt>
      <trkpt lat="34.11391" lon="77.0912">
        <ele>3957.4</ele>
        <time>2015-08-30T07:12:08Z</time>
      </trkpt>
      <trkpt lat="34.11387" lon="77.09126">
        <ele>3957</ele>
        <time>2015-08-30T07:12:13Z</time>
      </trkpt>
      <trkpt lat="34.11377" lon="77.09143">
        <ele>3956.4</ele>
        <time>2015-08-30T07:12:28Z</time>
      </trkpt>
      <trkpt lat="34.11384" lon="77.0916">
        <ele>3956</ele>
        <time>2015-08-30T07:12:39Z</time>
      </trkpt>
      <trkpt lat="34.11387" lon="77.09162">
        <ele>3955.8</ele>
        <time>2015-08-30T07:12:40Z</time>
      </trkpt>
      <trkpt lat="34.11384" lon="77.09175">
        <ele>3955.2</ele>
        <time>2015-08-30T07:12:51Z</time>
      </trkpt>
      <trkpt lat="34.11384" lon="77.09177">
        <ele>3954.8</ele>
        <time>2015-08-30T07:12:56Z</time>
      </trkpt>
      <trkpt lat="34.11383" lon="77.0918">
        <ele>3954.4</ele>
        <time>2015-08-30T07:12:58Z</time>
      </trkpt>
      <trkpt lat="34.11393" lon="77.09186">
        <ele>3954.2</ele>
        <time>2015-08-30T07:13:02Z</time>
      </trkpt>
      <trkpt lat="34.11384" lon="77.09195">
        <ele>3953.8</ele>
        <time>2015-08-30T07:13:11Z</time>
      </trkpt>
      <trkpt lat="34.1138" lon="77.09204">
        <ele>3953.6</ele>
        <time>2015-08-30T07:13:20Z</time>
      </trkpt>
      <trkpt lat="34.11379" lon="77.09208">
        <ele>3953.4</ele>
        <time>2015-08-30T07:13:33Z</time>
      </trkpt>
      <trkpt lat="34.11377" lon="77.09215">
        <ele>3953.4</ele>
        <time>2015-08-30T07:13:46Z</time>
      </trkpt>
      <trkpt lat="34.11368" lon="77.09234">
        <ele>3953.2</ele>
        <time>2015-08-30T07:14:04Z</time>
      </trkpt>
      <trkpt lat="34.11371" lon="77.09243">
        <ele>3953.4</ele>
        <time>2015-08-30T07:14:12Z</time>
      </trkpt>
      <trkpt lat="34.1137" lon="77.09249">
        <ele>3953.4</ele>
        <time>2015-08-30T07:14:24Z</time>
      </trkpt>
      <trkpt lat="34.11367" lon="77.09257">
        <ele>3953.4</ele>
        <time>2015-08-30T07:14:29Z</time>
      </trkpt>
      <trkpt lat="34.11368" lon="77.09277">
        <ele>3952.6</ele>
        <time>2015-08-30T07:14:45Z</time>
      </trkpt>
      <trkpt lat="34.1137" lon="77.09283">
        <ele>3952.4</ele>
        <time>2015-08-30T07:14:50Z</time>
      </trkpt>
      <trkpt lat="34.1136" lon="77.09289">
        <ele>3952</ele>
        <time>2015-08-30T07:15:00Z</time>
      </trkpt>
      <trkpt lat="34.11358" lon="77.09296">
        <ele>3951.6</ele>
        <time>2015-08-30T07:15:06Z</time>
      </trkpt>
      <trkpt lat="34.11361" lon="77.09298">
        <ele>3951.4</ele>
        <time>2015-08-30T07:15:08Z</time>
      </trkpt>
      <trkpt lat="34.11365" lon="77.09302">
        <ele>3950.4</ele>
        <time>2015-08-30T07:15:13Z</time>
      </trkpt>
      <trkpt lat="34.11366" lon="77.09304">
        <ele>3950.4</ele>
        <time>2015-08-30T07:15:14Z</time>
      </trkpt>
      <trkpt lat="34.11373" lon="77.09318">
        <ele>3949.8</ele>
        <time>2015-08-30T07:15:25Z</time>
      </trkpt>
      <trkpt lat="34.11371" lon="77.0933">
        <ele>3949.8</ele>
        <time>2015-08-30T07:15:35Z</time>
      </trkpt>
      <trkpt lat="34.11367" lon="77.09336">
        <ele>3950.2</ele>
        <time>2015-08-30T07:15:42Z</time>
      </trkpt>
      <trkpt lat="34.11369" lon="77.09357">
        <ele>3951.4</ele>
        <time>2015-08-30T07:16:00Z</time>
      </trkpt>
      <trkpt lat="34.11368" lon="77.09359">
        <ele>3951.6</ele>
        <time>2015-08-30T07:16:01Z</time>
      </trkpt>
      <trkpt lat="34.11366" lon="77.09368">
        <ele>3952.2</ele>
        <time>2015-08-30T07:16:09Z</time>
      </trkpt>
      <trkpt lat="34.11364" lon="77.09372">
        <ele>3952.2</ele>
        <time>2015-08-30T07:16:13Z</time>
      </trkpt>
      <trkpt lat="34.11364" lon="77.09376">
        <ele>3952.2</ele>
        <time>2015-08-30T07:16:16Z</time>
      </trkpt>
      <trkpt lat="34.11354" lon="77.09383">
        <ele>3952</ele>
        <time>2015-08-30T07:16:23Z</time>
      </trkpt>
      <trkpt lat="34.1135" lon="77.09389">
        <ele>3952</ele>
        <time>2015-08-30T07:16:28Z</time>
      </trkpt>
      <trkpt lat="34.1135" lon="77.09391">
        <ele>3952.2</ele>
        <time>2015-08-30T07:16:31Z</time>
      </trkpt>
      <trkpt lat="34.1135" lon="77.09393">
        <ele>3952.4</ele>
        <time>2015-08-30T07:16:33Z</time>
      </trkpt>
      <trkpt lat="34.11353" lon="77.09397">
        <ele>3952.6</ele>
        <time>2015-08-30T07:16:36Z</time>
      </trkpt>
      <trkpt lat="34.11353" lon="77.09407">
        <ele>3953.4</ele>
        <time>2015-08-30T07:16:45Z</time>
      </trkpt>
      <trkpt lat="34.11355" lon="77.09411">
        <ele>3953.6</ele>
        <time>2015-08-30T07:16:48Z</time>
      </trkpt>
      <trkpt lat="34.11357" lon="77.09423">
        <ele>3954.2</ele>
        <time>2015-08-30T07:17:10Z</time>
      </trkpt>
      <trkpt lat="34.11363" lon="77.09431">
        <ele>3954.6</ele>
        <time>2015-08-30T07:17:19Z</time>
      </trkpt>
      <trkpt lat="34.11378" lon="77.09442">
        <ele>3953.6</ele>
        <time>2015-08-30T07:17:34Z</time>
      </trkpt>
      <trkpt lat="34.11381" lon="77.09443">
        <ele>3953.4</ele>
        <time>2015-08-30T07:17:36Z</time>
      </trkpt>
      <trkpt lat="34.11386" lon="77.09442">
        <ele>3953.2</ele>
        <time>2015-08-30T07:17:39Z</time>
      </trkpt>
      <trkpt lat="34.11388" lon="77.0945">
        <ele>3953</ele>
        <time>2015-08-30T07:17:44Z</time>
      </trkpt>
      <trkpt lat="34.11383" lon="77.0945">
        <ele>3953</ele>
        <time>2015-08-30T07:17:52Z</time>
      </trkpt>
      <trkpt lat="34.11381" lon="77.09449">
        <ele>3952.6</ele>
        <time>2015-08-30T07:17:58Z</time>
      </trkpt>
      <trkpt lat="34.11369" lon="77.09463">
        <ele>3951.6</ele>
        <time>2015-08-30T07:18:16Z</time>
      </trkpt>
      <trkpt lat="34.11368" lon="77.09476">
        <ele>3951.2</ele>
        <time>2015-08-30T07:18:30Z</time>
      </trkpt>
      <trkpt lat="34.11366" lon="77.09481">
        <ele>3951.2</ele>
        <time>2015-08-30T07:18:33Z</time>
      </trkpt>
      <trkpt lat="34.11362" lon="77.0949">
        <ele>3951.8</ele>
        <time>2015-08-30T07:18:41Z</time>
      </trkpt>
      <trkpt lat="34.11367" lon="77.09502">
        <ele>3952</ele>
        <time>2015-08-30T07:18:51Z</time>
      </trkpt>
      <trkpt lat="34.11365" lon="77.09504">
        <ele>3952</ele>
        <time>2015-08-30T07:18:54Z</time>
      </trkpt>
      <trkpt lat="34.11363" lon="77.09515">
        <ele>3952</ele>
        <time>2015-08-30T07:19:04Z</time>
      </trkpt>
      <trkpt lat="34.11355" lon="77.09528">
        <ele>3952.2</ele>
        <time>2015-08-30T07:19:18Z</time>
      </trkpt>
      <trkpt lat="34.1135" lon="77.0953">
        <ele>3952</ele>
        <time>2015-08-30T07:19:21Z</time>
      </trkpt>
      <trkpt lat="34.11339" lon="77.09537">
        <ele>3952</ele>
        <time>2015-08-30T07:19:31Z</time>
      </trkpt>
      <trkpt lat="34.11336" lon="77.09541">
        <ele>3952</ele>
        <time>2015-08-30T07:19:35Z</time>
      </trkpt>
      <trkpt lat="34.11334" lon="77.09549">
        <ele>3951.4</ele>
        <time>2015-08-30T07:19:43Z</time>
      </trkpt>
      <trkpt lat="34.11339" lon="77.09553">
        <ele>3951.2</ele>
        <time>2015-08-30T07:19:46Z</time>
      </trkpt>
      <trkpt lat="34.11349" lon="77.09567">
        <ele>3950.4</ele>
        <time>2015-08-30T07:19:57Z</time>
      </trkpt>
      <trkpt lat="34.11352" lon="77.0957">
        <ele>3949.2</ele>
        <time>2015-08-30T07:20:01Z</time>
      </trkpt>
      <trkpt lat="34.11353" lon="77.09572">
        <ele>3949</ele>
        <time>2015-08-30T07:20:02Z</time>
      </trkpt>
      <trkpt lat="34.1136" lon="77.0958">
        <ele>3948.2</ele>
        <time>2015-08-30T07:20:09Z</time>
      </trkpt>
      <trkpt lat="34.11361" lon="77.09585">
        <ele>3947.6</ele>
        <time>2015-08-30T07:20:13Z</time>
      </trkpt>
      <trkpt lat="34.11355" lon="77.09588">
        <ele>3947.2</ele>
        <time>2015-08-30T07:20:22Z</time>
      </trkpt>
      <trkpt lat="34.11342" lon="77.09604">
        <ele>3947.4</ele>
        <time>2015-08-30T07:20:34Z</time>
      </trkpt>
      <trkpt lat="34.1134" lon="77.09605">
        <ele>3946.2</ele>
        <time>2015-08-30T07:20:39Z</time>
      </trkpt>
      <trkpt lat="34.11335" lon="77.09606">
        <ele>3947.2</ele>
        <time>2015-08-30T07:20:47Z</time>
      </trkpt>
      <trkpt lat="34.11326" lon="77.09618">
        <ele>3946.2</ele>
        <time>2015-08-30T07:21:11Z</time>
      </trkpt>
      <trkpt lat="34.11323" lon="77.09619">
        <ele>3946</ele>
        <time>2015-08-30T07:21:14Z</time>
      </trkpt>
      <trkpt lat="34.1132" lon="77.09628">
        <ele>3945.8</ele>
        <time>2015-08-30T07:21:27Z</time>
      </trkpt>
      <trkpt lat="34.11306" lon="77.09636">
        <ele>3945.6</ele>
        <time>2015-08-30T07:21:30Z</time>
      </trkpt>
      <trkpt lat="34.11305" lon="77.09637">
        <ele>3945.6</ele>
        <time>2015-08-30T07:21:32Z</time>
      </trkpt>
      <trkpt lat="34.11288" lon="77.09651">
        <ele>3945.2</ele>
        <time>2015-08-30T07:21:46Z</time>
      </trkpt>
      <trkpt lat="34.11281" lon="77.09641">
        <ele>3945.4</ele>
        <time>2015-08-30T07:22:18Z</time>
      </trkpt>
      <trkpt lat="34.11296" lon="77.09654">
        <ele>3945.4</ele>
        <time>2015-08-30T07:22:30Z</time>
      </trkpt>
      <trkpt lat="34.11298" lon="77.09656">
        <ele>3945.2</ele>
        <time>2015-08-30T07:22:32Z</time>
      </trkpt>
      <trkpt lat="34.11296" lon="77.09657">
        <ele>3944.8</ele>
        <time>2015-08-30T07:22:35Z</time>
      </trkpt>
      <trkpt lat="34.11293" lon="77.09658">
        <ele>3944.8</ele>
        <time>2015-08-30T07:22:38Z</time>
      </trkpt>
      <trkpt lat="34.1129" lon="77.09657">
        <ele>3945</ele>
        <time>2015-08-30T07:22:42Z</time>
      </trkpt>
      <trkpt lat="34.11283" lon="77.09659">
        <ele>3945</ele>
        <time>2015-08-30T07:22:45Z</time>
      </trkpt>
      <trkpt lat="34.1127" lon="77.0967">
        <ele>3945.2</ele>
        <time>2015-08-30T07:23:06Z</time>
      </trkpt>
      <trkpt lat="34.1127" lon="77.09674">
        <ele>3945.4</ele>
        <time>2015-08-30T07:23:09Z</time>
      </trkpt>
      <trkpt lat="34.11272" lon="77.09676">
        <ele>3945.2</ele>
        <time>2015-08-30T07:23:11Z</time>
      </trkpt>
      <trkpt lat="34.11274" lon="77.09678">
        <ele>3945</ele>
        <time>2015-08-30T07:23:13Z</time>
      </trkpt>
      <trkpt lat="34.11274" lon="77.09686">
        <ele>3944.8</ele>
        <time>2015-08-30T07:23:18Z</time>
      </trkpt>
      <trkpt lat="34.11265" lon="77.09706">
        <ele>3945.2</ele>
        <time>2015-08-30T07:23:36Z</time>
      </trkpt>
      <trkpt lat="34.11266" lon="77.09707">
        <ele>3945.2</ele>
        <time>2015-08-30T07:23:37Z</time>
      </trkpt>
      <trkpt lat="34.11269" lon="77.09713">
        <ele>3945.6</ele>
        <time>2015-08-30T07:23:42Z</time>
      </trkpt>
      <trkpt lat="34.1127" lon="77.0972">
        <ele>3946.4</ele>
        <time>2015-08-30T07:23:47Z</time>
      </trkpt>
      <trkpt lat="34.11262" lon="77.0973">
        <ele>3945.8</ele>
        <time>2015-08-30T07:23:59Z</time>
      </trkpt>
      <trkpt lat="34.11259" lon="77.09733">
        <ele>3945.8</ele>
        <time>2015-08-30T07:24:01Z</time>
      </trkpt>
      <trkpt lat="34.11255" lon="77.09741">
        <ele>3946.2</ele>
        <time>2015-08-30T07:24:07Z</time>
      </trkpt>
      <trkpt lat="34.11254" lon="77.09759">
        <ele>3945.2</ele>
        <time>2015-08-30T07:24:20Z</time>
      </trkpt>
      <trkpt lat="34.1125" lon="77.0978">
        <ele>3944.8</ele>
        <time>2015-08-30T07:24:36Z</time>
      </trkpt>
      <trkpt lat="34.11249" lon="77.09782">
        <ele>3944.4</ele>
        <time>2015-08-30T07:24:39Z</time>
      </trkpt>
      <trkpt lat="34.11249" lon="77.09784">
        <ele>3944.2</ele>
        <time>2015-08-30T07:24:42Z</time>
      </trkpt>
      <trkpt lat="34.11246" lon="77.09803">
        <ele>3943</ele>
        <time>2015-08-30T07:24:58Z</time>
      </trkpt>
      <trkpt lat="34.11249" lon="77.09816">
        <ele>3942.8</ele>
        <time>2015-08-30T07:25:08Z</time>
      </trkpt>
      <trkpt lat="34.11249" lon="77.09825">
        <ele>3942.6</ele>
        <time>2015-08-30T07:25:14Z</time>
      </trkpt>
      <trkpt lat="34.11241" lon="77.09838">
        <ele>3943</ele>
        <time>2015-08-30T07:25:36Z</time>
      </trkpt>
      <trkpt lat="34.11238" lon="77.0984">
        <ele>3943.2</ele>
        <time>2015-08-30T07:25:38Z</time>
      </trkpt>
      <trkpt lat="34.11239" lon="77.09845">
        <ele>3943.4</ele>
        <time>2015-08-30T07:25:41Z</time>
      </trkpt>
      <trkpt lat="34.11242" lon="77.09847">
        <ele>3943.6</ele>
        <time>2015-08-30T07:25:43Z</time>
      </trkpt>
      <trkpt lat="34.1124" lon="77.09853">
        <ele>3943.8</ele>
        <time>2015-08-30T07:25:50Z</time>
      </trkpt>
      <trkpt lat="34.11241" lon="77.09863">
        <ele>3944</ele>
        <time>2015-08-30T07:26:12Z</time>
      </trkpt>
      <trkpt lat="34.11229" lon="77.09872">
        <ele>3944.4</ele>
        <time>2015-08-30T07:26:19Z</time>
      </trkpt>
      <trkpt lat="34.1122" lon="77.09876">
        <ele>3944.4</ele>
        <time>2015-08-30T07:26:24Z</time>
      </trkpt>
      <trkpt lat="34.11217" lon="77.09882">
        <ele>3944.4</ele>
        <time>2015-08-30T07:26:28Z</time>
      </trkpt>
      <trkpt lat="34.11205" lon="77.09897">
        <ele>3944.6</ele>
        <time>2015-08-30T07:26:39Z</time>
      </trkpt>
      <trkpt lat="34.11207" lon="77.09916">
        <ele>3944.8</ele>
        <time>2015-08-30T07:26:57Z</time>
      </trkpt>
      <trkpt lat="34.11209" lon="77.09918">
        <ele>3944.8</ele>
        <time>2015-08-30T07:26:59Z</time>
      </trkpt>
      <trkpt lat="34.11204" lon="77.09922">
        <ele>3944.4</ele>
        <time>2015-08-30T07:27:14Z</time>
      </trkpt>
      <trkpt lat="34.11199" lon="77.09923">
        <ele>3944.4</ele>
        <time>2015-08-30T07:27:17Z</time>
      </trkpt>
      <trkpt lat="34.11199" lon="77.09927">
        <ele>3944.2</ele>
        <time>2015-08-30T07:27:19Z</time>
      </trkpt>
      <trkpt lat="34.11194" lon="77.09932">
        <ele>3944</ele>
        <time>2015-08-30T07:27:23Z</time>
      </trkpt>
      <trkpt lat="34.11185" lon="77.09939">
        <ele>3944</ele>
        <time>2015-08-30T07:27:27Z</time>
      </trkpt>
      <trkpt lat="34.11174" lon="77.09947">
        <ele>3944.2</ele>
        <time>2015-08-30T07:27:35Z</time>
      </trkpt>
      <trkpt lat="34.11168" lon="77.09953">
        <ele>3944.6</ele>
        <time>2015-08-30T07:27:42Z</time>
      </trkpt>
      <trkpt lat="34.11166" lon="77.09956">
        <ele>3944.6</ele>
        <time>2015-08-30T07:27:45Z</time>
      </trkpt>
      <trkpt lat="34.11157" lon="77.09963">
        <ele>3943.8</ele>
        <time>2015-08-30T07:27:57Z</time>
      </trkpt>
      <trkpt lat="34.11145" lon="77.09982">
        <ele>3945</ele>
        <time>2015-08-30T07:28:10Z</time>
      </trkpt>
      <trkpt lat="34.11143" lon="77.09983">
        <ele>3945.2</ele>
        <time>2015-08-30T07:28:12Z</time>
      </trkpt>
      <trkpt lat="34.11137" lon="77.09989">
        <ele>3945.2</ele>
        <time>2015-08-30T07:28:24Z</time>
      </trkpt>
      <trkpt lat="34.11143" lon="77.09997">
        <ele>3945.4</ele>
        <time>2015-08-30T07:28:28Z</time>
      </trkpt>
      <trkpt lat="34.11141" lon="77.10006">
        <ele>3945.2</ele>
        <time>2015-08-30T07:28:33Z</time>
      </trkpt>
      <trkpt lat="34.11137" lon="77.10009">
        <ele>3945.2</ele>
        <time>2015-08-30T07:28:35Z</time>
      </trkpt>
      <trkpt lat="34.11126" lon="77.10011">
        <ele>3945.2</ele>
        <time>2015-08-30T07:28:44Z</time>
      </trkpt>
      <trkpt lat="34.11123" lon="77.10024">
        <ele>3945.4</ele>
        <time>2015-08-30T07:28:54Z</time>
      </trkpt>
      <trkpt lat="34.11128" lon="77.10031">
        <ele>3945.8</ele>
        <time>2015-08-30T07:28:59Z</time>
      </trkpt>
      <trkpt lat="34.11126" lon="77.10037">
        <ele>3946.2</ele>
        <time>2015-08-30T07:29:05Z</time>
      </trkpt>
      <trkpt lat="34.11123" lon="77.10039">
        <ele>3946.2</ele>
        <time>2015-08-30T07:29:07Z</time>
      </trkpt>
      <trkpt lat="34.11105" lon="77.10049">
        <ele>3946.6</ele>
        <time>2015-08-30T07:29:13Z</time>
      </trkpt>
      <trkpt lat="34.11087" lon="77.10059">
        <ele>3947</ele>
        <time>2015-08-30T07:29:22Z</time>
      </trkpt>
      <trkpt lat="34.11071" lon="77.10069">
        <ele>3946.8</ele>
        <time>2015-08-30T07:29:32Z</time>
      </trkpt>
      <trkpt lat="34.11053" lon="77.10078">
        <ele>3946.8</ele>
        <time>2015-08-30T07:29:43Z</time>
      </trkpt>
      <trkpt lat="34.11045" lon="77.10093">
        <ele>3946.4</ele>
        <time>2015-08-30T07:30:00Z</time>
      </trkpt>
      <trkpt lat="34.1105" lon="77.10099">
        <ele>3946</ele>
        <time>2015-08-30T07:30:04Z</time>
      </trkpt>
      <trkpt lat="34.11047" lon="77.10101">
        <ele>3945.6</ele>
        <time>2015-08-30T07:30:06Z</time>
      </trkpt>
      <trkpt lat="34.1105" lon="77.10106">
        <ele>3945.2</ele>
        <time>2015-08-30T07:30:10Z</time>
      </trkpt>
      <trkpt lat="34.11046" lon="77.10112">
        <ele>3944</ele>
        <time>2015-08-30T07:30:17Z</time>
      </trkpt>
      <trkpt lat="34.11055" lon="77.10124">
        <ele>3943</ele>
        <time>2015-08-30T07:30:24Z</time>
      </trkpt>
      <trkpt lat="34.11062" lon="77.10128">
        <ele>3942.6</ele>
        <time>2015-08-30T07:30:27Z</time>
      </trkpt>
      <trkpt lat="34.11068" lon="77.10132">
        <ele>3941.8</ele>
        <time>2015-08-30T07:30:31Z</time>
      </trkpt>
      <trkpt lat="34.11073" lon="77.10139">
        <ele>3941.2</ele>
        <time>2015-08-30T07:30:36Z</time>
      </trkpt>
      <trkpt lat="34.11076" lon="77.10142">
        <ele>3940.8</ele>
        <time>2015-08-30T07:30:39Z</time>
      </trkpt>
      <trkpt lat="34.11076" lon="77.10149">
        <ele>3939.6</ele>
        <time>2015-08-30T07:30:46Z</time>
      </trkpt>
      <trkpt lat="34.11066" lon="77.10158">
        <ele>3938.6</ele>
        <time>2015-08-30T07:30:56Z</time>
      </trkpt>
      <trkpt lat="34.11066" lon="77.1016">
        <ele>3938.4</ele>
        <time>2015-08-30T07:30:57Z</time>
      </trkpt>
      <trkpt lat="34.11068" lon="77.10162">
        <ele>3938</ele>
        <time>2015-08-30T07:30:59Z</time>
      </trkpt>
      <trkpt lat="34.11068" lon="77.10164">
        <ele>3937.4</ele>
        <time>2015-08-30T07:31:01Z</time>
      </trkpt>
      <trkpt lat="34.11067" lon="77.10165">
        <ele>3937.2</ele>
        <time>2015-08-30T07:31:02Z</time>
      </trkpt>
      <trkpt lat="34.1106" lon="77.10167">
        <ele>3936.8</ele>
        <time>2015-08-30T07:31:07Z</time>
      </trkpt>
      <trkpt lat="34.11058" lon="77.10169">
        <ele>3936.4</ele>
        <time>2015-08-30T07:31:10Z</time>
      </trkpt>
      <trkpt lat="34.11064" lon="77.10172">
        <ele>3935.6</ele>
        <time>2015-08-30T07:31:16Z</time>
      </trkpt>
      <trkpt lat="34.11064" lon="77.10173">
        <ele>3935.4</ele>
        <time>2015-08-30T07:31:18Z</time>
      </trkpt>
      <trkpt lat="34.11042" lon="77.10173">
        <ele>3935.4</ele>
        <time>2015-08-30T07:31:29Z</time>
      </trkpt>
      <trkpt lat="34.11039" lon="77.10173">
        <ele>3935.4</ele>
        <time>2015-08-30T07:31:30Z</time>
      </trkpt>
      <trkpt lat="34.1102" lon="77.10176">
        <ele>3935.2</ele>
        <time>2015-08-30T07:31:36Z</time>
      </trkpt>
      <trkpt lat="34.11004" lon="77.10191">
        <ele>3935.2</ele>
        <time>2015-08-30T07:31:46Z</time>
      </trkpt>
      <trkpt lat="34.10991" lon="77.10203">
        <ele>3934.6</ele>
        <time>2015-08-30T07:31:56Z</time>
      </trkpt>
      <trkpt lat="34.11005" lon="77.10219">
        <ele>3934.2</ele>
        <time>2015-08-30T07:32:07Z</time>
      </trkpt>
      <trkpt lat="34.11003" lon="77.10221">
        <ele>3934.2</ele>
        <time>2015-08-30T07:32:09Z</time>
      </trkpt>
      <trkpt lat="34.11002" lon="77.10229">
        <ele>3934.2</ele>
        <time>2015-08-30T07:32:16Z</time>
      </trkpt>
      <trkpt lat="34.10984" lon="77.10233">
        <ele>3934</ele>
        <time>2015-08-30T07:32:33Z</time>
      </trkpt>
      <trkpt lat="34.10984" lon="77.10235">
        <ele>3934.2</ele>
        <time>2015-08-30T07:32:37Z</time>
      </trkpt>
      <trkpt lat="34.10991" lon="77.10244">
        <ele>3934.4</ele>
        <time>2015-08-30T07:32:43Z</time>
      </trkpt>
      <trkpt lat="34.10975" lon="77.10246">
        <ele>3933.8</ele>
        <time>2015-08-30T07:32:53Z</time>
      </trkpt>
      <trkpt lat="34.10974" lon="77.10251">
        <ele>3933.2</ele>
        <time>2015-08-30T07:32:59Z</time>
      </trkpt>
      <trkpt lat="34.10978" lon="77.10256">
        <ele>3932</ele>
        <time>2015-08-30T07:33:06Z</time>
      </trkpt>
      <trkpt lat="34.10981" lon="77.10262">
        <ele>3931</ele>
        <time>2015-08-30T07:33:15Z</time>
      </trkpt>
      <trkpt lat="34.10984" lon="77.10286">
        <ele>3930</ele>
        <time>2015-08-30T07:33:24Z</time>
      </trkpt>
      <trkpt lat="34.10979" lon="77.10307">
        <ele>3930.2</ele>
        <time>2015-08-30T07:33:38Z</time>
      </trkpt>
      <trkpt lat="34.10975" lon="77.10318">
        <ele>3930.6</ele>
        <time>2015-08-30T07:33:45Z</time>
      </trkpt>
      <trkpt lat="34.10974" lon="77.10319">
        <ele>3930.6</ele>
        <time>2015-08-30T07:33:47Z</time>
      </trkpt>
      <trkpt lat="34.10971" lon="77.1032">
        <ele>3930.6</ele>
        <time>2015-08-30T07:33:50Z</time>
      </trkpt>
      <trkpt lat="34.10977" lon="77.10322">
        <ele>3929</ele>
        <time>2015-08-30T07:34:01Z</time>
      </trkpt>
      <trkpt lat="34.10979" lon="77.10323">
        <ele>3928.8</ele>
        <time>2015-08-30T07:34:02Z</time>
      </trkpt>
      <trkpt lat="34.10978" lon="77.10325">
        <ele>3928.4</ele>
        <time>2015-08-30T07:34:04Z</time>
      </trkpt>
      <trkpt lat="34.10978" lon="77.10328">
        <ele>3928</ele>
        <time>2015-08-30T07:34:07Z</time>
      </trkpt>
      <trkpt lat="34.10984" lon="77.10331">
        <ele>3927</ele>
        <time>2015-08-30T07:34:12Z</time>
      </trkpt>
      <trkpt lat="34.10983" lon="77.10332">
        <ele>3925.8</ele>
        <time>2015-08-30T07:34:19Z</time>
      </trkpt>
      <trkpt lat="34.10987" lon="77.10334">
        <ele>3925.2</ele>
        <time>2015-08-30T07:34:22Z</time>
      </trkpt>
      <trkpt lat="34.10986" lon="77.10333">
        <ele>3925</ele>
        <time>2015-08-30T07:34:24Z</time>
      </trkpt>
      <trkpt lat="34.10986" lon="77.10332">
        <ele>3924.8</ele>
        <time>2015-08-30T07:34:25Z</time>
      </trkpt>
      <trkpt lat="34.10984" lon="77.10339">
        <ele>3923.8</ele>
        <time>2015-08-30T07:34:33Z</time>
      </trkpt>
      <trkpt lat="34.10984" lon="77.10342">
        <ele>3922.6</ele>
        <time>2015-08-30T07:34:39Z</time>
      </trkpt>
      <trkpt lat="34.10984" lon="77.10346">
        <ele>3921.4</ele>
        <time>2015-08-30T07:34:45Z</time>
      </trkpt>
      <trkpt lat="34.10987" lon="77.10347">
        <ele>3920.4</ele>
        <time>2015-08-30T07:34:49Z</time>
      </trkpt>
      <trkpt lat="34.10987" lon="77.10348">
        <ele>3920.2</ele>
        <time>2015-08-30T07:34:50Z</time>
      </trkpt>
      <trkpt lat="34.10994" lon="77.10352">
        <ele>3920</ele>
        <time>2015-08-30T07:34:54Z</time>
      </trkpt>
      <trkpt lat="34.10989" lon="77.10353">
        <ele>3919.4</ele>
        <time>2015-08-30T07:35:02Z</time>
      </trkpt>
      <trkpt lat="34.10983" lon="77.1035">
        <ele>3918.2</ele>
        <time>2015-08-30T07:35:11Z</time>
      </trkpt>
      <trkpt lat="34.10979" lon="77.10355">
        <ele>3917.2</ele>
        <time>2015-08-30T07:35:21Z</time>
      </trkpt>
      <trkpt lat="34.10979" lon="77.1036">
        <ele>3916.2</ele>
        <time>2015-08-30T07:35:29Z</time>
      </trkpt>
      <trkpt lat="34.10976" lon="77.10356">
        <ele>3915.8</ele>
        <time>2015-08-30T07:35:33Z</time>
      </trkpt>
      <trkpt lat="34.10969" lon="77.10358">
        <ele>3915.2</ele>
        <time>2015-08-30T07:35:37Z</time>
      </trkpt>
      <trkpt lat="34.10969" lon="77.10356">
        <ele>3915.2</ele>
        <time>2015-08-30T07:35:38Z</time>
      </trkpt>
      <trkpt lat="34.1096" lon="77.10357">
        <ele>3914.2</ele>
        <time>2015-08-30T07:35:47Z</time>
      </trkpt>
      <trkpt lat="34.10953" lon="77.10362">
        <ele>3913.2</ele>
        <time>2015-08-30T07:35:52Z</time>
      </trkpt>
      <trkpt lat="34.10952" lon="77.10364">
        <ele>3913.2</ele>
        <time>2015-08-30T07:35:53Z</time>
      </trkpt>
      <trkpt lat="34.1094" lon="77.10371">
        <ele>3912.2</ele>
        <time>2015-08-30T07:36:02Z</time>
      </trkpt>
      <trkpt lat="34.10924" lon="77.10382">
        <ele>3912.6</ele>
        <time>2015-08-30T07:36:12Z</time>
      </trkpt>
      <trkpt lat="34.10904" lon="77.10395">
        <ele>3912.6</ele>
        <time>2015-08-30T07:36:25Z</time>
      </trkpt>
      <trkpt lat="34.10887" lon="77.10401">
        <ele>3912.8</ele>
        <time>2015-08-30T07:36:37Z</time>
      </trkpt>
      <trkpt lat="34.1087" lon="77.10396">
        <ele>3912.8</ele>
        <time>2015-08-30T07:36:49Z</time>
      </trkpt>
      <trkpt lat="34.10854" lon="77.104">
        <ele>3912.2</ele>
        <time>2015-08-30T07:37:01Z</time>
      </trkpt>
      <trkpt lat="34.10852" lon="77.10399">
        <ele>3911.8</ele>
        <time>2015-08-30T07:37:04Z</time>
      </trkpt>
      <trkpt lat="34.10839" lon="77.10398">
        <ele>3911.4</ele>
        <time>2015-08-30T07:37:08Z</time>
      </trkpt>
      <trkpt lat="34.10837" lon="77.10399">
        <ele>3911</ele>
        <time>2015-08-30T07:37:11Z</time>
      </trkpt>
      <trkpt lat="34.1082" lon="77.10411">
        <ele>3910.4</ele>
        <time>2015-08-30T07:37:25Z</time>
      </trkpt>
      <trkpt lat="34.10816" lon="77.10414">
        <ele>3910</ele>
        <time>2015-08-30T07:37:27Z</time>
      </trkpt>
      <trkpt lat="34.10815" lon="77.10429">
        <ele>3909.8</ele>
        <time>2015-08-30T07:37:35Z</time>
      </trkpt>
      <trkpt lat="34.10813" lon="77.10434">
        <ele>3909.8</ele>
        <time>2015-08-30T07:37:43Z</time>
      </trkpt>
      <trkpt lat="34.10822" lon="77.10446">
        <ele>3909.6</ele>
        <time>2015-08-30T07:37:49Z</time>
      </trkpt>
      <trkpt lat="34.10826" lon="77.10456">
        <ele>3909</ele>
        <time>2015-08-30T07:37:55Z</time>
      </trkpt>
      <trkpt lat="34.10823" lon="77.1046">
        <ele>3908.2</ele>
        <time>2015-08-30T07:37:59Z</time>
      </trkpt>
      <trkpt lat="34.10821" lon="77.10462">
        <ele>3907.8</ele>
        <time>2015-08-30T07:38:01Z</time>
      </trkpt>
      <trkpt lat="34.10814" lon="77.10466">
        <ele>3906.8</ele>
        <time>2015-08-30T07:38:06Z</time>
      </trkpt>
      <trkpt lat="34.10812" lon="77.10467">
        <ele>3906.8</ele>
        <time>2015-08-30T07:38:08Z</time>
      </trkpt>
      <trkpt lat="34.10797" lon="77.10464">
        <ele>3905.8</ele>
        <time>2015-08-30T07:38:16Z</time>
      </trkpt>
      <trkpt lat="34.10785" lon="77.10469">
        <ele>3904.8</ele>
        <time>2015-08-30T07:38:26Z</time>
      </trkpt>
      <trkpt lat="34.10786" lon="77.10471">
        <ele>3904.6</ele>
        <time>2015-08-30T07:38:27Z</time>
      </trkpt>
      <trkpt lat="34.10785" lon="77.10475">
        <ele>3903.8</ele>
        <time>2015-08-30T07:38:32Z</time>
      </trkpt>
      <trkpt lat="34.10785" lon="77.10475">
        <ele>3903.6</ele>
        <time>2015-08-30T07:38:33Z</time>
      </trkpt>
      <trkpt lat="34.10787" lon="77.10477">
        <ele>3902.6</ele>
        <time>2015-08-30T07:38:37Z</time>
      </trkpt>
      <trkpt lat="34.10793" lon="77.10481">
        <ele>3901.4</ele>
        <time>2015-08-30T07:38:45Z</time>
      </trkpt>
      <trkpt lat="34.10789" lon="77.10487">
        <ele>3900.4</ele>
        <time>2015-08-30T07:38:53Z</time>
      </trkpt>
      <trkpt lat="34.10794" lon="77.10488">
        <ele>3899.2</ele>
        <time>2015-08-30T07:38:58Z</time>
      </trkpt>
      <trkpt lat="34.10783" lon="77.10494">
        <ele>3898.2</ele>
        <time>2015-08-30T07:39:07Z</time>
      </trkpt>
      <trkpt lat="34.10771" lon="77.10508">
        <ele>3897.2</ele>
        <time>2015-08-30T07:39:13Z</time>
      </trkpt>
      <trkpt lat="34.10771" lon="77.10512">
        <ele>3896</ele>
        <time>2015-08-30T07:39:17Z</time>
      </trkpt>
      <trkpt lat="34.10772" lon="77.10513">
        <ele>3895.8</ele>
        <time>2015-08-30T07:39:18Z</time>
      </trkpt>
      <trkpt lat="34.10773" lon="77.10519">
        <ele>3895</ele>
        <time>2015-08-30T07:39:23Z</time>
      </trkpt>
      <trkpt lat="34.10759" lon="77.10539">
        <ele>3894</ele>
        <time>2015-08-30T07:39:32Z</time>
      </trkpt>
      <trkpt lat="34.10758" lon="77.10544">
        <ele>3893</ele>
        <time>2015-08-30T07:39:36Z</time>
      </trkpt>
      <trkpt lat="34.10756" lon="77.10552">
        <ele>3892.2</ele>
        <time>2015-08-30T07:39:41Z</time>
      </trkpt>
      <trkpt lat="34.10754" lon="77.10554">
        <ele>3892.2</ele>
        <time>2015-08-30T07:39:44Z</time>
      </trkpt>
      <trkpt lat="34.10753" lon="77.10557">
        <ele>3892</ele>
        <time>2015-08-30T07:39:46Z</time>
      </trkpt>
      <trkpt lat="34.10748" lon="77.10568">
        <ele>3890.8</ele>
        <time>2015-08-30T07:40:00Z</time>
      </trkpt>
      <trkpt lat="34.10746" lon="77.10578">
        <ele>3891</ele>
        <time>2015-08-30T07:40:07Z</time>
      </trkpt>
      <trkpt lat="34.10732" lon="77.10579">
        <ele>3890.6</ele>
        <time>2015-08-30T07:40:12Z</time>
      </trkpt>
      <trkpt lat="34.10714" lon="77.10582">
        <ele>3890.6</ele>
        <time>2015-08-30T07:40:20Z</time>
      </trkpt>
      <trkpt lat="34.10713" lon="77.10584">
        <ele>3892</ele>
        <time>2015-08-30T07:40:23Z</time>
      </trkpt>
      <trkpt lat="34.10704" lon="77.10602">
        <ele>3892.8</ele>
        <time>2015-08-30T07:40:42Z</time>
      </trkpt>
      <trkpt lat="34.10703" lon="77.10604">
        <ele>3892.8</ele>
        <time>2015-08-30T07:40:43Z</time>
      </trkpt>
      <trkpt lat="34.1069" lon="77.10619">
        <ele>3891.4</ele>
        <time>2015-08-30T07:40:57Z</time>
      </trkpt>
      <trkpt lat="34.10679" lon="77.10625">
        <ele>3891</ele>
        <time>2015-08-30T07:41:05Z</time>
      </trkpt>
      <trkpt lat="34.10674" lon="77.10649">
        <ele>3890.2</ele>
        <time>2015-08-30T07:41:19Z</time>
      </trkpt>
      <trkpt lat="34.10672" lon="77.10653">
        <ele>3890</ele>
        <time>2015-08-30T07:41:23Z</time>
      </trkpt>
      <trkpt lat="34.10673" lon="77.10674">
        <ele>3889</ele>
        <time>2015-08-30T07:41:37Z</time>
      </trkpt>
      <trkpt lat="34.10673" lon="77.10695">
        <ele>3888.8</ele>
        <time>2015-08-30T07:41:52Z</time>
      </trkpt>
      <trkpt lat="34.1066" lon="77.1071">
        <ele>3888.4</ele>
        <time>2015-08-30T07:42:10Z</time>
      </trkpt>
      <trkpt lat="34.10675" lon="77.10728">
        <ele>3888.2</ele>
        <time>2015-08-30T07:42:22Z</time>
      </trkpt>
      <trkpt lat="34.10677" lon="77.1073">
        <ele>3888</ele>
        <time>2015-08-30T07:42:26Z</time>
      </trkpt>
      <trkpt lat="34.10674" lon="77.10733">
        <ele>3888</ele>
        <time>2015-08-30T07:42:32Z</time>
      </trkpt>
      <trkpt lat="34.10671" lon="77.10729">
        <ele>3888.6</ele>
        <time>2015-08-30T07:42:37Z</time>
      </trkpt>
      <trkpt lat="34.10663" lon="77.10734">
        <ele>3888.8</ele>
        <time>2015-08-30T07:42:40Z</time>
      </trkpt>
      <trkpt lat="34.10666" lon="77.10738">
        <ele>3889</ele>
        <time>2015-08-30T07:42:43Z</time>
      </trkpt>
      <trkpt lat="34.10668" lon="77.10739">
        <ele>3889</ele>
        <time>2015-08-30T07:42:44Z</time>
      </trkpt>
      <trkpt lat="34.10667" lon="77.10741">
        <ele>3889.2</ele>
        <time>2015-08-30T07:42:46Z</time>
      </trkpt>
      <trkpt lat="34.10664" lon="77.10745">
        <ele>3890</ele>
        <time>2015-08-30T07:42:52Z</time>
      </trkpt>
      <trkpt lat="34.1066" lon="77.10747">
        <ele>3890</ele>
        <time>2015-08-30T07:42:54Z</time>
      </trkpt>
      <trkpt lat="34.10657" lon="77.1075">
        <ele>3890.2</ele>
        <time>2015-08-30T07:42:57Z</time>
      </trkpt>
      <trkpt lat="34.10655" lon="77.10751">
        <ele>3890.4</ele>
        <time>2015-08-30T07:43:00Z</time>
      </trkpt>
      <trkpt lat="34.10648" lon="77.10752">
        <ele>3891</ele>
        <time>2015-08-30T07:43:06Z</time>
      </trkpt>
      <trkpt lat="34.10647" lon="77.10752">
        <ele>3891</ele>
        <time>2015-08-30T07:43:07Z</time>
      </trkpt>
      <trkpt lat="34.10647" lon="77.10753">
        <ele>3891.2</ele>
        <time>2015-08-30T07:43:08Z</time>
      </trkpt>
      <trkpt lat="34.10643" lon="77.10764">
        <ele>3891.8</ele>
        <time>2015-08-30T07:43:19Z</time>
      </trkpt>
      <trkpt lat="34.10644" lon="77.10767">
        <ele>3891.6</ele>
        <time>2015-08-30T07:43:22Z</time>
      </trkpt>
      <trkpt lat="34.1064" lon="77.10773">
        <ele>3891.2</ele>
        <time>2015-08-30T07:43:29Z</time>
      </trkpt>
      <trkpt lat="34.10638" lon="77.10775">
        <ele>3891.2</ele>
        <time>2015-08-30T07:43:31Z</time>
      </trkpt>
      <trkpt lat="34.10634" lon="77.10784">
        <ele>3891</ele>
        <time>2015-08-30T07:43:40Z</time>
      </trkpt>
      <trkpt lat="34.10633" lon="77.10786">
        <ele>3891</ele>
        <time>2015-08-30T07:43:43Z</time>
      </trkpt>
      <trkpt lat="34.10631" lon="77.10794">
        <ele>3891.4</ele>
        <time>2015-08-30T07:43:48Z</time>
      </trkpt>
      <trkpt lat="34.10633" lon="77.10797">
        <ele>3892.2</ele>
        <time>2015-08-30T07:43:52Z</time>
      </trkpt>
      <trkpt lat="34.10632" lon="77.10807">
        <ele>3892.8</ele>
        <time>2015-08-30T07:44:02Z</time>
      </trkpt>
      <trkpt lat="34.1063" lon="77.1081">
        <ele>3892.8</ele>
        <time>2015-08-30T07:44:05Z</time>
      </trkpt>
      <trkpt lat="34.10629" lon="77.10814">
        <ele>3893</ele>
        <time>2015-08-30T07:44:09Z</time>
      </trkpt>
      <trkpt lat="34.10629" lon="77.10815">
        <ele>3893.2</ele>
        <time>2015-08-30T07:44:10Z</time>
      </trkpt>
      <trkpt lat="34.1063" lon="77.10816">
        <ele>3893.2</ele>
        <time>2015-08-30T07:44:11Z</time>
      </trkpt>
      <trkpt lat="34.1063" lon="77.1082">
        <ele>3893.4</ele>
        <time>2015-08-30T07:44:16Z</time>
      </trkpt>
      <trkpt lat="34.10631" lon="77.10822">
        <ele>3893.4</ele>
        <time>2015-08-30T07:44:18Z</time>
      </trkpt>
      <trkpt lat="34.10629" lon="77.10829">
        <ele>3893.4</ele>
        <time>2015-08-30T07:44:25Z</time>
      </trkpt>
      <trkpt lat="34.10626" lon="77.10834">
        <ele>3892.8</ele>
        <time>2015-08-30T07:44:30Z</time>
      </trkpt>
      <trkpt lat="34.10622" lon="77.10836">
        <ele>3892.8</ele>
        <time>2015-08-30T07:44:34Z</time>
      </trkpt>
      <trkpt lat="34.10623" lon="77.10843">
        <ele>3892.2</ele>
        <time>2015-08-30T07:44:41Z</time>
      </trkpt>
      <trkpt lat="34.10623" lon="77.10849">
        <ele>3891.6</ele>
        <time>2015-08-30T07:44:47Z</time>
      </trkpt>
      <trkpt lat="34.10619" lon="77.10853">
        <ele>3892</ele>
        <time>2015-08-30T07:44:52Z</time>
      </trkpt>
      <trkpt lat="34.10606" lon="77.10868">
        <ele>3892</ele>
        <time>2015-08-30T07:45:08Z</time>
      </trkpt>
      <trkpt lat="34.10603" lon="77.10868">
        <ele>3892</ele>
        <time>2015-08-30T07:45:12Z</time>
      </trkpt>
      <trkpt lat="34.10598" lon="77.10871">
        <ele>3892.4</ele>
        <time>2015-08-30T07:45:16Z</time>
      </trkpt>
      <trkpt lat="34.10579" lon="77.10874">
        <ele>3893</ele>
        <time>2015-08-30T07:45:25Z</time>
      </trkpt>
      <trkpt lat="34.10579" lon="77.10876">
        <ele>3893.2</ele>
        <time>2015-08-30T07:45:27Z</time>
      </trkpt>
      <trkpt lat="34.10579" lon="77.10882">
        <ele>3893.6</ele>
        <time>2015-08-30T07:45:32Z</time>
      </trkpt>
      <trkpt lat="34.10581" lon="77.10886">
        <ele>3894</ele>
        <time>2015-08-30T07:45:35Z</time>
      </trkpt>
      <trkpt lat="34.1058" lon="77.10887">
        <ele>3894.2</ele>
        <time>2015-08-30T07:45:36Z</time>
      </trkpt>
      <trkpt lat="34.10587" lon="77.10904">
        <ele>3894.2</ele>
        <time>2015-08-30T07:45:52Z</time>
      </trkpt>
      <trkpt lat="34.10586" lon="77.10908">
        <ele>3894</ele>
        <time>2015-08-30T07:45:56Z</time>
      </trkpt>
      <trkpt lat="34.10583" lon="77.10921">
        <ele>3894.6</ele>
        <time>2015-08-30T07:46:07Z</time>
      </trkpt>
      <trkpt lat="34.10588" lon="77.10927">
        <ele>3894.4</ele>
        <time>2015-08-30T07:46:16Z</time>
      </trkpt>
      <trkpt lat="34.10593" lon="77.10933">
        <ele>3893.2</ele>
        <time>2015-08-30T07:46:22Z</time>
      </trkpt>
      <trkpt lat="34.10594" lon="77.10941">
        <ele>3893</ele>
        <time>2015-08-30T07:46:27Z</time>
      </trkpt>
      <trkpt lat="34.10594" lon="77.10947">
        <ele>3892.2</ele>
        <time>2015-08-30T07:46:33Z</time>
      </trkpt>
      <trkpt lat="34.10592" lon="77.10951">
        <ele>3892</ele>
        <time>2015-08-30T07:46:35Z</time>
      </trkpt>
      <trkpt lat="34.10592" lon="77.10953">
        <ele>3891.8</ele>
        <time>2015-08-30T07:46:36Z</time>
      </trkpt>
      <trkpt lat="34.1059" lon="77.10958">
        <ele>3891</ele>
        <time>2015-08-30T07:46:40Z</time>
      </trkpt>
      <trkpt lat="34.10589" lon="77.10959">
        <ele>3890.8</ele>
        <time>2015-08-30T07:46:41Z</time>
      </trkpt>
      <trkpt lat="34.10583" lon="77.10965">
        <ele>3889.8</ele>
        <time>2015-08-30T07:46:47Z</time>
      </trkpt>
      <trkpt lat="34.10583" lon="77.10966">
        <ele>3889.8</ele>
        <time>2015-08-30T07:46:48Z</time>
      </trkpt>
      <trkpt lat="34.10581" lon="77.10968">
        <ele>3889</ele>
        <time>2015-08-30T07:46:51Z</time>
      </trkpt>
      <trkpt lat="34.10582" lon="77.10969">
        <ele>3888.8</ele>
        <time>2015-08-30T07:46:52Z</time>
      </trkpt>
      <trkpt lat="34.10581" lon="77.1097">
        <ele>3887.6</ele>
        <time>2015-08-30T07:46:57Z</time>
      </trkpt>
      <trkpt lat="34.10579" lon="77.10977">
        <ele>3886.4</ele>
        <time>2015-08-30T07:47:02Z</time>
      </trkpt>
      <trkpt lat="34.10579" lon="77.1098">
        <ele>3886</ele>
        <time>2015-08-30T07:47:04Z</time>
      </trkpt>
      <trkpt lat="34.10579" lon="77.10982">
        <ele>3885.4</ele>
        <time>2015-08-30T07:47:07Z</time>
      </trkpt>
      <trkpt lat="34.10579" lon="77.10988">
        <ele>3884.4</ele>
        <time>2015-08-30T07:47:15Z</time>
      </trkpt>
      <trkpt lat="34.10576" lon="77.10989">
        <ele>3883.2</ele>
        <time>2015-08-30T07:47:21Z</time>
      </trkpt>
      <trkpt lat="34.10569" lon="77.10993">
        <ele>3882</ele>
        <time>2015-08-30T07:47:27Z</time>
      </trkpt>
      <trkpt lat="34.10562" lon="77.11005">
        <ele>3881.4</ele>
        <time>2015-08-30T07:47:36Z</time>
      </trkpt>
      <trkpt lat="34.10553" lon="77.11014">
        <ele>3880.8</ele>
        <time>2015-08-30T07:47:42Z</time>
      </trkpt>
      <trkpt lat="34.10547" lon="77.11013">
        <ele>3880</ele>
        <time>2015-08-30T07:47:47Z</time>
      </trkpt>
      <trkpt lat="34.10545" lon="77.11013">
        <ele>3879.8</ele>
        <time>2015-08-30T07:47:48Z</time>
      </trkpt>
      <trkpt lat="34.10542" lon="77.11013">
        <ele>3879.6</ele>
        <time>2015-08-30T07:47:50Z</time>
      </trkpt>
      <trkpt lat="34.10537" lon="77.11013">
        <ele>3878.6</ele>
        <time>2015-08-30T07:47:57Z</time>
      </trkpt>
      <trkpt lat="34.10533" lon="77.11013">
        <ele>3877.6</ele>
        <time>2015-08-30T07:48:02Z</time>
      </trkpt>
      <trkpt lat="34.10533" lon="77.11013">
        <ele>3877.2</ele>
        <time>2015-08-30T07:48:04Z</time>
      </trkpt>
      <trkpt lat="34.10534" lon="77.11013">
        <ele>3876.6</ele>
        <time>2015-08-30T07:48:06Z</time>
      </trkpt>
      <trkpt lat="34.10541" lon="77.11014">
        <ele>3875.4</ele>
        <time>2015-08-30T07:48:11Z</time>
      </trkpt>
      <trkpt lat="34.10547" lon="77.1102">
        <ele>3874.4</ele>
        <time>2015-08-30T07:48:18Z</time>
      </trkpt>
      <trkpt lat="34.10549" lon="77.11027">
        <ele>3873.4</ele>
        <time>2015-08-30T07:48:23Z</time>
      </trkpt>
      <trkpt lat="34.10554" lon="77.11028">
        <ele>3873.2</ele>
        <time>2015-08-30T07:48:24Z</time>
      </trkpt>
      <trkpt lat="34.10563" lon="77.11036">
        <ele>3872.4</ele>
        <time>2015-08-30T07:48:29Z</time>
      </trkpt>
      <trkpt lat="34.10576" lon="77.11047">
        <ele>3871.2</ele>
        <time>2015-08-30T07:48:38Z</time>
      </trkpt>
      <trkpt lat="34.10578" lon="77.11051">
        <ele>3870.4</ele>
        <time>2015-08-30T07:48:42Z</time>
      </trkpt>
      <trkpt lat="34.1058" lon="77.11052">
        <ele>3870.2</ele>
        <time>2015-08-30T07:48:44Z</time>
      </trkpt>
      <trkpt lat="34.10583" lon="77.11056">
        <ele>3869.4</ele>
        <time>2015-08-30T07:48:50Z</time>
      </trkpt>
      <trkpt lat="34.10583" lon="77.11056">
        <ele>3869.2</ele>
        <time>2015-08-30T07:48:51Z</time>
      </trkpt>
      <trkpt lat="34.10585" lon="77.11061">
        <ele>3868.2</ele>
        <time>2015-08-30T07:48:57Z</time>
      </trkpt>
      <trkpt lat="34.10587" lon="77.11057">
        <ele>3867.8</ele>
        <time>2015-08-30T07:49:01Z</time>
      </trkpt>
      <trkpt lat="34.10587" lon="77.11061">
        <ele>3867.4</ele>
        <time>2015-08-30T07:49:06Z</time>
      </trkpt>
      <trkpt lat="34.10592" lon="77.11064">
        <ele>3867</ele>
        <time>2015-08-30T07:49:08Z</time>
      </trkpt>
      <trkpt lat="34.10589" lon="77.11065">
        <ele>3866.8</ele>
        <time>2015-08-30T07:49:10Z</time>
      </trkpt>
      <trkpt lat="34.10574" lon="77.11075">
        <ele>3866.6</ele>
        <time>2015-08-30T07:49:24Z</time>
      </trkpt>
      <trkpt lat="34.10558" lon="77.11089">
        <ele>3866.8</ele>
        <time>2015-08-30T07:49:35Z</time>
      </trkpt>
      <trkpt lat="34.10538" lon="77.111">
        <ele>3867.6</ele>
        <time>2015-08-30T07:49:55Z</time>
      </trkpt>
      <trkpt lat="34.10538" lon="77.11099">
        <ele>3867.2</ele>
        <time>2015-08-30T07:50:00Z</time>
      </trkpt>
      <trkpt lat="34.10539" lon="77.11103">
        <ele>3867.2</ele>
        <time>2015-08-30T07:50:03Z</time>
      </trkpt>
      <trkpt lat="34.10536" lon="77.1111">
        <ele>3868.4</ele>
        <time>2015-08-30T07:50:08Z</time>
      </trkpt>
      <trkpt lat="34.10531" lon="77.1111">
        <ele>3868.8</ele>
        <time>2015-08-30T07:50:12Z</time>
      </trkpt>
      <trkpt lat="34.10525" lon="77.1111">
        <ele>3868.8</ele>
        <time>2015-08-30T07:50:17Z</time>
      </trkpt>
      <trkpt lat="34.10517" lon="77.11103">
        <ele>3869.2</ele>
        <time>2015-08-30T07:50:25Z</time>
      </trkpt>
      <trkpt lat="34.10515" lon="77.11101">
        <ele>3869.4</ele>
        <time>2015-08-30T07:50:27Z</time>
      </trkpt>
      <trkpt lat="34.10506" lon="77.111">
        <ele>3870.2</ele>
        <time>2015-08-30T07:50:34Z</time>
      </trkpt>
      <trkpt lat="34.10504" lon="77.11103">
        <ele>3870.4</ele>
        <time>2015-08-30T07:50:37Z</time>
      </trkpt>
      <trkpt lat="34.10503" lon="77.11103">
        <ele>3870.6</ele>
        <time>2015-08-30T07:50:38Z</time>
      </trkpt>
      <trkpt lat="34.10493" lon="77.11113">
        <ele>3870.6</ele>
        <time>2015-08-30T07:50:48Z</time>
      </trkpt>
      <trkpt lat="34.10488" lon="77.11118">
        <ele>3870.6</ele>
        <time>2015-08-30T07:51:02Z</time>
      </trkpt>
      <trkpt lat="34.10489" lon="77.11119">
        <ele>3870.4</ele>
        <time>2015-08-30T07:51:03Z</time>
      </trkpt>
      <trkpt lat="34.10488" lon="77.11112">
        <ele>3870</ele>
        <time>2015-08-30T07:51:10Z</time>
      </trkpt>
      <trkpt lat="34.10483" lon="77.11122">
        <ele>3870.6</ele>
        <time>2015-08-30T07:51:24Z</time>
      </trkpt>
      <trkpt lat="34.10486" lon="77.11128">
        <ele>3870.4</ele>
        <time>2015-08-30T07:51:38Z</time>
      </trkpt>
      <trkpt lat="34.10481" lon="77.11137">
        <ele>3869.8</ele>
        <time>2015-08-30T07:51:46Z</time>
      </trkpt>
      <trkpt lat="34.10479" lon="77.11141">
        <ele>3869.4</ele>
        <time>2015-08-30T07:51:49Z</time>
      </trkpt>
      <trkpt lat="34.10473" lon="77.11159">
        <ele>3868.4</ele>
        <time>2015-08-30T07:52:00Z</time>
      </trkpt>
      <trkpt lat="34.10475" lon="77.11168">
        <ele>3867.4</ele>
        <time>2015-08-30T07:52:05Z</time>
      </trkpt>
      <trkpt lat="34.10463" lon="77.11184">
        <ele>3868.4</ele>
        <time>2015-08-30T07:52:19Z</time>
      </trkpt>
      <trkpt lat="34.1046" lon="77.11185">
        <ele>3868.4</ele>
        <time>2015-08-30T07:52:21Z</time>
      </trkpt>
      <trkpt lat="34.10453" lon="77.11199">
        <ele>3867.2</ele>
        <time>2015-08-30T07:52:31Z</time>
      </trkpt>
      <trkpt lat="34.10452" lon="77.11206">
        <ele>3866</ele>
        <time>2015-08-30T07:52:35Z</time>
      </trkpt>
      <trkpt lat="34.10447" lon="77.11222">
        <ele>3865</ele>
        <time>2015-08-30T07:52:47Z</time>
      </trkpt>
      <trkpt lat="34.10441" lon="77.11237">
        <ele>3864</ele>
        <time>2015-08-30T07:52:59Z</time>
      </trkpt>
      <trkpt lat="34.10437" lon="77.11252">
        <ele>3863.2</ele>
        <time>2015-08-30T07:53:09Z</time>
      </trkpt>
      <trkpt lat="34.10437" lon="77.11254">
        <ele>3863</ele>
        <time>2015-08-30T07:53:10Z</time>
      </trkpt>
      <trkpt lat="34.10432" lon="77.11268">
        <ele>3862.4</ele>
        <time>2015-08-30T07:53:20Z</time>
      </trkpt>
      <trkpt lat="34.10431" lon="77.11273">
        <ele>3862</ele>
        <time>2015-08-30T07:53:24Z</time>
      </trkpt>
      <trkpt lat="34.1042" lon="77.1129">
        <ele>3861.4</ele>
        <time>2015-08-30T07:53:41Z</time>
      </trkpt>
      <trkpt lat="34.10416" lon="77.11296">
        <ele>3861</ele>
        <time>2015-08-30T07:53:47Z</time>
      </trkpt>
      <trkpt lat="34.10404" lon="77.11297">
        <ele>3861</ele>
        <time>2015-08-30T07:54:08Z</time>
      </trkpt>
      <trkpt lat="34.10393" lon="77.1129">
        <ele>3861.6</ele>
        <time>2015-08-30T07:54:19Z</time>
      </trkpt>
      <trkpt lat="34.10385" lon="77.11289">
        <ele>3861.8</ele>
        <time>2015-08-30T07:54:26Z</time>
      </trkpt>
      <trkpt lat="34.10367" lon="77.11297">
        <ele>3861.2</ele>
        <time>2015-08-30T07:54:39Z</time>
      </trkpt>
      <trkpt lat="34.10357" lon="77.11316">
        <ele>3859.8</ele>
        <time>2015-08-30T07:54:49Z</time>
      </trkpt>
      <trkpt lat="34.10345" lon="77.11322">
        <ele>3858.8</ele>
        <time>2015-08-30T07:54:59Z</time>
      </trkpt>
      <trkpt lat="34.10338" lon="77.11336">
        <ele>3857.6</ele>
        <time>2015-08-30T07:55:11Z</time>
      </trkpt>
      <trkpt lat="34.10339" lon="77.11337">
        <ele>3857.4</ele>
        <time>2015-08-30T07:55:12Z</time>
      </trkpt>
      <trkpt lat="34.10332" lon="77.11342">
        <ele>3856.4</ele>
        <time>2015-08-30T07:55:19Z</time>
      </trkpt>
      <trkpt lat="34.10331" lon="77.11343">
        <ele>3856.4</ele>
        <time>2015-08-30T07:55:20Z</time>
      </trkpt>
      <trkpt lat="34.10326" lon="77.11349">
        <ele>3855.4</ele>
        <time>2015-08-30T07:55:31Z</time>
      </trkpt>
      <trkpt lat="34.10322" lon="77.11356">
        <ele>3854.4</ele>
        <time>2015-08-30T07:55:39Z</time>
      </trkpt>
      <trkpt lat="34.10312" lon="77.11372">
        <ele>3853.6</ele>
        <time>2015-08-30T07:55:51Z</time>
      </trkpt>
      <trkpt lat="34.10308" lon="77.11373">
        <ele>3853.4</ele>
        <time>2015-08-30T07:55:54Z</time>
      </trkpt>
      <trkpt lat="34.10306" lon="77.11374">
        <ele>3853.2</ele>
        <time>2015-08-30T07:55:57Z</time>
      </trkpt>
      <trkpt lat="34.10301" lon="77.11379">
        <ele>3852</ele>
        <time>2015-08-30T07:56:03Z</time>
      </trkpt>
      <trkpt lat="34.10293" lon="77.11397">
        <ele>3851</ele>
        <time>2015-08-30T07:56:18Z</time>
      </trkpt>
      <trkpt lat="34.10295" lon="77.11401">
        <ele>3851.2</ele>
        <time>2015-08-30T07:56:22Z</time>
      </trkpt>
      <trkpt lat="34.10293" lon="77.114">
        <ele>3851</ele>
        <time>2015-08-30T07:56:26Z</time>
      </trkpt>
      <trkpt lat="34.10291" lon="77.11402">
        <ele>3850</ele>
        <time>2015-08-30T07:56:30Z</time>
      </trkpt>
      <trkpt lat="34.10287" lon="77.11405">
        <ele>3848.8</ele>
        <time>2015-08-30T07:56:36Z</time>
      </trkpt>
      <trkpt lat="34.10287" lon="77.11407">
        <ele>3847.6</ele>
        <time>2015-08-30T07:56:45Z</time>
      </trkpt>
      <trkpt lat="34.10291" lon="77.11407">
        <ele>3846.6</ele>
        <time>2015-08-30T07:56:50Z</time>
      </trkpt>
      <trkpt lat="34.10291" lon="77.11407">
        <ele>3846.2</ele>
        <time>2015-08-30T07:56:51Z</time>
      </trkpt>
      <trkpt lat="34.10295" lon="77.11405">
        <ele>3845.2</ele>
        <time>2015-08-30T07:56:55Z</time>
      </trkpt>
      <trkpt lat="34.10284" lon="77.11422">
        <ele>3844.2</ele>
        <time>2015-08-30T07:57:05Z</time>
      </trkpt>
      <trkpt lat="34.10282" lon="77.11431">
        <ele>3843.4</ele>
        <time>2015-08-30T07:57:11Z</time>
      </trkpt>
      <trkpt lat="34.10282" lon="77.11432">
        <ele>3843.2</ele>
        <time>2015-08-30T07:57:12Z</time>
      </trkpt>
      <trkpt lat="34.10282" lon="77.11438">
        <ele>3842.6</ele>
        <time>2015-08-30T07:57:16Z</time>
      </trkpt>
      <trkpt lat="34.10282" lon="77.11443">
        <ele>3842.2</ele>
        <time>2015-08-30T07:57:20Z</time>
      </trkpt>
      <trkpt lat="34.10282" lon="77.11448">
        <ele>3842</ele>
        <time>2015-08-30T07:57:23Z</time>
      </trkpt>
      <trkpt lat="34.1029" lon="77.11459">
        <ele>3841.6</ele>
        <time>2015-08-30T07:57:31Z</time>
      </trkpt>
      <trkpt lat="34.1029" lon="77.11461">
        <ele>3841</ele>
        <time>2015-08-30T07:57:34Z</time>
      </trkpt>
      <trkpt lat="34.10294" lon="77.11464">
        <ele>3840.6</ele>
        <time>2015-08-30T07:57:48Z</time>
      </trkpt>
      <trkpt lat="34.10292" lon="77.11457">
        <ele>3841.2</ele>
        <time>2015-08-30T07:58:06Z</time>
      </trkpt>
      <trkpt lat="34.10286" lon="77.11459">
        <ele>3841.6</ele>
        <time>2015-08-30T07:58:22Z</time>
      </trkpt>
      <trkpt lat="34.1029" lon="77.11464">
        <ele>3840.4</ele>
        <time>2015-08-30T07:58:27Z</time>
      </trkpt>
      <trkpt lat="34.10295" lon="77.11465">
        <ele>3840</ele>
        <time>2015-08-30T07:58:29Z</time>
      </trkpt>
      <trkpt lat="34.10294" lon="77.11471">
        <ele>3839</ele>
        <time>2015-08-30T07:58:34Z</time>
      </trkpt>
      <trkpt lat="34.10293" lon="77.11473">
        <ele>3838.8</ele>
        <time>2015-08-30T07:58:35Z</time>
      </trkpt>
      <trkpt lat="34.10291" lon="77.11481">
        <ele>3838</ele>
        <time>2015-08-30T07:58:42Z</time>
      </trkpt>
      <trkpt lat="34.10289" lon="77.11485">
        <ele>3837.8</ele>
        <time>2015-08-30T07:58:45Z</time>
      </trkpt>
      <trkpt lat="34.10287" lon="77.11489">
        <ele>3837.2</ele>
        <time>2015-08-30T07:58:49Z</time>
      </trkpt>
      <trkpt lat="34.10289" lon="77.11495">
        <ele>3837</ele>
        <time>2015-08-30T07:58:54Z</time>
      </trkpt>
      <trkpt lat="34.1029" lon="77.11501">
        <ele>3836</ele>
        <time>2015-08-30T07:58:57Z</time>
      </trkpt>
      <trkpt lat="34.10291" lon="77.11504">
        <ele>3835.8</ele>
        <time>2015-08-30T07:58:58Z</time>
      </trkpt>
      <trkpt lat="34.10293" lon="77.11511">
        <ele>3834.4</ele>
        <time>2015-08-30T07:59:04Z</time>
      </trkpt>
      <trkpt lat="34.10295" lon="77.11513">
        <ele>3833.8</ele>
        <time>2015-08-30T07:59:09Z</time>
      </trkpt>
      <trkpt lat="34.10289" lon="77.1152">
        <ele>3833.6</ele>
        <time>2015-08-30T07:59:15Z</time>
      </trkpt>
      <trkpt lat="34.10288" lon="77.1152">
        <ele>3833.4</ele>
        <time>2015-08-30T07:59:16Z</time>
      </trkpt>
      <trkpt lat="34.10286" lon="77.11522">
        <ele>3832.2</ele>
        <time>2015-08-30T07:59:21Z</time>
      </trkpt>
      <trkpt lat="34.10282" lon="77.11533">
        <ele>3831.2</ele>
        <time>2015-08-30T07:59:31Z</time>
      </trkpt>
      <trkpt lat="34.10282" lon="77.11533">
        <ele>3830.2</ele>
        <time>2015-08-30T07:59:36Z</time>
      </trkpt>
      <trkpt lat="34.10282" lon="77.11529">
        <ele>3830</ele>
        <time>2015-08-30T07:59:37Z</time>
      </trkpt>
      <trkpt lat="34.10283" lon="77.11531">
        <ele>3829</ele>
        <time>2015-08-30T07:59:43Z</time>
      </trkpt>
      <trkpt lat="34.10288" lon="77.11538">
        <ele>3827.8</ele>
        <time>2015-08-30T07:59:55Z</time>
      </trkpt>
      <trkpt lat="34.10288" lon="77.1154">
        <ele>3827.4</ele>
        <time>2015-08-30T07:59:57Z</time>
      </trkpt>
      <trkpt lat="34.10288" lon="77.11543">
        <ele>3826.8</ele>
        <time>2015-08-30T08:00:01Z</time>
      </trkpt>
      <trkpt lat="34.10296" lon="77.1155">
        <ele>3825.8</ele>
        <time>2015-08-30T08:00:08Z</time>
      </trkpt>
      <trkpt lat="34.10294" lon="77.1156">
        <ele>3825.2</ele>
        <time>2015-08-30T08:00:12Z</time>
      </trkpt>
      <trkpt lat="34.10293" lon="77.11569">
        <ele>3824.8</ele>
        <time>2015-08-30T08:00:21Z</time>
      </trkpt>
      <trkpt lat="34.10286" lon="77.11576">
        <ele>3824.2</ele>
        <time>2015-08-30T08:00:26Z</time>
      </trkpt>
      <trkpt lat="34.10287" lon="77.11581">
        <ele>3823.6</ele>
        <time>2015-08-30T08:00:30Z</time>
      </trkpt>
      <trkpt lat="34.10289" lon="77.11595">
        <ele>3822.6</ele>
        <time>2015-08-30T08:00:37Z</time>
      </trkpt>
      <trkpt lat="34.10288" lon="77.11596">
        <ele>3822.4</ele>
        <time>2015-08-30T08:00:38Z</time>
      </trkpt>
      <trkpt lat="34.10291" lon="77.11603">
        <ele>3822.2</ele>
        <time>2015-08-30T08:00:43Z</time>
      </trkpt>
      <trkpt lat="34.10293" lon="77.11607">
        <ele>3822</ele>
        <time>2015-08-30T08:00:47Z</time>
      </trkpt>
      <trkpt lat="34.10295" lon="77.1161">
        <ele>3821.6</ele>
        <time>2015-08-30T08:00:51Z</time>
      </trkpt>
      <trkpt lat="34.10293" lon="77.11612">
        <ele>3821.4</ele>
        <time>2015-08-30T08:00:53Z</time>
      </trkpt>
      <trkpt lat="34.1029" lon="77.1162">
        <ele>3821</ele>
        <time>2015-08-30T08:00:58Z</time>
      </trkpt>
      <trkpt lat="34.1029" lon="77.11632">
        <ele>3820.4</ele>
        <time>2015-08-30T08:01:10Z</time>
      </trkpt>
      <trkpt lat="34.10289" lon="77.11639">
        <ele>3819.6</ele>
        <time>2015-08-30T08:01:15Z</time>
      </trkpt>
      <trkpt lat="34.10289" lon="77.11642">
        <ele>3819.4</ele>
        <time>2015-08-30T08:01:17Z</time>
      </trkpt>
      <trkpt lat="34.1029" lon="77.11645">
        <ele>3819</ele>
        <time>2015-08-30T08:01:20Z</time>
      </trkpt>
      <trkpt lat="34.10289" lon="77.11651">
        <ele>3818.2</ele>
        <time>2015-08-30T08:01:25Z</time>
      </trkpt>
      <trkpt lat="34.10288" lon="77.11654">
        <ele>3817.6</ele>
        <time>2015-08-30T08:01:28Z</time>
      </trkpt>
      <trkpt lat="34.10287" lon="77.11656">
        <ele>3817.2</ele>
        <time>2015-08-30T08:01:30Z</time>
      </trkpt>
      <trkpt lat="34.10288" lon="77.11658">
        <ele>3817</ele>
        <time>2015-08-30T08:01:32Z</time>
      </trkpt>
      <trkpt lat="34.10291" lon="77.11662">
        <ele>3816</ele>
        <time>2015-08-30T08:01:36Z</time>
      </trkpt>
      <trkpt lat="34.10291" lon="77.11667">
        <ele>3814.8</ele>
        <time>2015-08-30T08:01:42Z</time>
      </trkpt>
      <trkpt lat="34.1029" lon="77.11672">
        <ele>3813.6</ele>
        <time>2015-08-30T08:01:47Z</time>
      </trkpt>
      <trkpt lat="34.10291" lon="77.11676">
        <ele>3812.4</ele>
        <time>2015-08-30T08:01:52Z</time>
      </trkpt>
      <trkpt lat="34.10291" lon="77.11681">
        <ele>3811.4</ele>
        <time>2015-08-30T08:01:58Z</time>
      </trkpt>
      <trkpt lat="34.10291" lon="77.11683">
        <ele>3810.4</ele>
        <time>2015-08-30T08:02:02Z</time>
      </trkpt>
      <trkpt lat="34.1029" lon="77.1169">
        <ele>3809.2</ele>
        <time>2015-08-30T08:02:08Z</time>
      </trkpt>
      <trkpt lat="34.1029" lon="77.11693">
        <ele>3808.8</ele>
        <time>2015-08-30T08:02:10Z</time>
      </trkpt>
      <trkpt lat="34.10291" lon="77.11693">
        <ele>3808.2</ele>
        <time>2015-08-30T08:02:12Z</time>
      </trkpt>
      <trkpt lat="34.1029" lon="77.11694">
        <ele>3808</ele>
        <time>2015-08-30T08:02:13Z</time>
      </trkpt>
      <trkpt lat="34.10288" lon="77.11698">
        <ele>3807</ele>
        <time>2015-08-30T08:02:20Z</time>
      </trkpt>
      <trkpt lat="34.10286" lon="77.11702">
        <ele>3805.8</ele>
        <time>2015-08-30T08:02:26Z</time>
      </trkpt>
      <trkpt lat="34.10284" lon="77.11706">
        <ele>3804.8</ele>
        <time>2015-08-30T08:02:31Z</time>
      </trkpt>
      <trkpt lat="34.10285" lon="77.1171">
        <ele>3803.6</ele>
        <time>2015-08-30T08:02:37Z</time>
      </trkpt>
      <trkpt lat="34.10286" lon="77.11719">
        <ele>3802.6</ele>
        <time>2015-08-30T08:02:42Z</time>
      </trkpt>
      <trkpt lat="34.10284" lon="77.11722">
        <ele>3802</ele>
        <time>2015-08-30T08:02:45Z</time>
      </trkpt>
      <trkpt lat="34.10283" lon="77.11726">
        <ele>3801.4</ele>
        <time>2015-08-30T08:02:47Z</time>
      </trkpt>
      <trkpt lat="34.10284" lon="77.11732">
        <ele>3800.6</ele>
        <time>2015-08-30T08:02:52Z</time>
      </trkpt>
      <trkpt lat="34.10284" lon="77.11733">
        <ele>3800.4</ele>
        <time>2015-08-30T08:02:53Z</time>
      </trkpt>
      <trkpt lat="34.10283" lon="77.11736">
        <ele>3799.2</ele>
        <time>2015-08-30T08:03:00Z</time>
      </trkpt>
      <trkpt lat="34.10283" lon="77.11742">
        <ele>3798.2</ele>
        <time>2015-08-30T08:03:05Z</time>
      </trkpt>
      <trkpt lat="34.10282" lon="77.11749">
        <ele>3797</ele>
        <time>2015-08-30T08:03:10Z</time>
      </trkpt>
      <trkpt lat="34.10279" lon="77.11754">
        <ele>3796</ele>
        <time>2015-08-30T08:03:14Z</time>
      </trkpt>
      <trkpt lat="34.10279" lon="77.11754">
        <ele>3796</ele>
        <time>2015-08-30T08:03:15Z</time>
      </trkpt>
      <trkpt lat="34.10279" lon="77.11754">
        <ele>3795.8</ele>
        <time>2015-08-30T08:03:16Z</time>
      </trkpt>
      <trkpt lat="34.10278" lon="77.11756">
        <ele>3794.8</ele>
        <time>2015-08-30T08:03:19Z</time>
      </trkpt>
      <trkpt lat="34.10276" lon="77.11759">
        <ele>3794</ele>
        <time>2015-08-30T08:03:23Z</time>
      </trkpt>
      <trkpt lat="34.10276" lon="77.11758">
        <ele>3793.8</ele>
        <time>2015-08-30T08:03:24Z</time>
      </trkpt>
      <trkpt lat="34.10275" lon="77.1176">
        <ele>3793.4</ele>
        <time>2015-08-30T08:03:26Z</time>
      </trkpt>
      <trkpt lat="34.10274" lon="77.11764">
        <ele>3792.8</ele>
        <time>2015-08-30T08:03:29Z</time>
      </trkpt>
      <trkpt lat="34.10272" lon="77.11769">
        <ele>3791.6</ele>
        <time>2015-08-30T08:03:34Z</time>
      </trkpt>
      <trkpt lat="34.10273" lon="77.11775">
        <ele>3791</ele>
        <time>2015-08-30T08:03:38Z</time>
      </trkpt>
      <trkpt lat="34.10272" lon="77.11779">
        <ele>3790.6</ele>
        <time>2015-08-30T08:03:40Z</time>
      </trkpt>
      <trkpt lat="34.10272" lon="77.1178">
        <ele>3790.4</ele>
        <time>2015-08-30T08:03:41Z</time>
      </trkpt>
      <trkpt lat="34.10268" lon="77.11784">
        <ele>3789.4</ele>
        <time>2015-08-30T08:03:45Z</time>
      </trkpt>
      <trkpt lat="34.10267" lon="77.11785">
        <ele>3789.2</ele>
        <time>2015-08-30T08:03:46Z</time>
      </trkpt>
      <trkpt lat="34.10264" lon="77.11791">
        <ele>3788.4</ele>
        <time>2015-08-30T08:03:51Z</time>
      </trkpt>
      <trkpt lat="34.10258" lon="77.11798">
        <ele>3787.2</ele>
        <time>2015-08-30T08:03:58Z</time>
      </trkpt>
      <trkpt lat="34.10255" lon="77.11804">
        <ele>3786.6</ele>
        <time>2015-08-30T08:04:04Z</time>
      </trkpt>
      <trkpt lat="34.1026" lon="77.11806">
        <ele>3786</ele>
        <time>2015-08-30T08:04:06Z</time>
      </trkpt>
      <trkpt lat="34.1026" lon="77.11816">
        <ele>3785.6</ele>
        <time>2015-08-30T08:04:11Z</time>
      </trkpt>
      <trkpt lat="34.1026" lon="77.11822">
        <ele>3785.4</ele>
        <time>2015-08-30T08:04:16Z</time>
      </trkpt>
      <trkpt lat="34.10266" lon="77.11829">
        <ele>3785.2</ele>
        <time>2015-08-30T08:04:23Z</time>
      </trkpt>
      <trkpt lat="34.10266" lon="77.11831">
        <ele>3785</ele>
        <time>2015-08-30T08:04:24Z</time>
      </trkpt>
      <trkpt lat="34.10266" lon="77.11833">
        <ele>3785</ele>
        <time>2015-08-30T08:04:26Z</time>
      </trkpt>
      <trkpt lat="34.10249" lon="77.11844">
        <ele>3784.4</ele>
        <time>2015-08-30T08:04:57Z</time>
      </trkpt>
      <trkpt lat="34.10247" lon="77.11848">
        <ele>3784</ele>
        <time>2015-08-30T08:05:03Z</time>
      </trkpt>
      <trkpt lat="34.10244" lon="77.11858">
        <ele>3783.6</ele>
        <time>2015-08-30T08:05:13Z</time>
      </trkpt>
      <trkpt lat="34.10245" lon="77.11871">
        <ele>3783.2</ele>
        <time>2015-08-30T08:05:31Z</time>
      </trkpt>
      <trkpt lat="34.10244" lon="77.11876">
        <ele>3783</ele>
        <time>2015-08-30T08:05:39Z</time>
      </trkpt>
      <trkpt lat="34.10242" lon="77.11885">
        <ele>3782.4</ele>
        <time>2015-08-30T08:05:51Z</time>
      </trkpt>
      <trkpt lat="34.1024" lon="77.11887">
        <ele>3782.4</ele>
        <time>2015-08-30T08:05:55Z</time>
      </trkpt>
      <trkpt lat="34.10236" lon="77.11886">
        <ele>3782.4</ele>
        <time>2015-08-30T08:06:02Z</time>
      </trkpt>
      <trkpt lat="34.10236" lon="77.11881">
        <ele>3782.4</ele>
        <time>2015-08-30T08:06:04Z</time>
      </trkpt>
      <trkpt lat="34.10235" lon="77.11877">
        <ele>3782.2</ele>
        <time>2015-08-30T08:06:07Z</time>
      </trkpt>
      <trkpt lat="34.10236" lon="77.11883">
        <ele>3782</ele>
        <time>2015-08-30T08:06:11Z</time>
      </trkpt>
      <trkpt lat="34.10239" lon="77.11889">
        <ele>3781.8</ele>
        <time>2015-08-30T08:06:19Z</time>
      </trkpt>
      <trkpt lat="34.1024" lon="77.11895">
        <ele>3782</ele>
        <time>2015-08-30T08:06:25Z</time>
      </trkpt>
      <trkpt lat="34.10242" lon="77.11899">
        <ele>3781.8</ele>
        <time>2015-08-30T08:06:29Z</time>
      </trkpt>
      <trkpt lat="34.10247" lon="77.11904">
        <ele>3781.8</ele>
        <time>2015-08-30T08:06:35Z</time>
      </trkpt>
      <trkpt lat="34.10243" lon="77.11901">
        <ele>3781.4</ele>
        <time>2015-08-30T08:06:45Z</time>
      </trkpt>
      <trkpt lat="34.10239" lon="77.11902">
        <ele>3781.6</ele>
        <time>2015-08-30T08:06:49Z</time>
      </trkpt>
      <trkpt lat="34.10233" lon="77.11903">
        <ele>3781.2</ele>
        <time>2015-08-30T08:07:29Z</time>
      </trkpt>
      <trkpt lat="34.10233" lon="77.11903">
        <ele>3781</ele>
        <time>2015-08-30T08:07:33Z</time>
      </trkpt>
      <trkpt lat="34.10239" lon="77.11903">
        <ele>3781</ele>
        <time>2015-08-30T08:07:38Z</time>
      </trkpt>
      <trkpt lat="34.10246" lon="77.11902">
        <ele>3780.6</ele>
        <time>2015-08-30T08:08:47Z</time>
      </trkpt>
      <trkpt lat="34.1025" lon="77.11905">
        <ele>3780</ele>
        <time>2015-08-30T08:09:39Z</time>
      </trkpt>
      <trkpt lat="34.10242" lon="77.11904">
        <ele>3780.2</ele>
        <time>2015-08-30T08:09:49Z</time>
      </trkpt>
      <trkpt lat="34.10237" lon="77.11909">
        <ele>3780</ele>
        <time>2015-08-30T08:10:04Z</time>
      </trkpt>
      <trkpt lat="34.10232" lon="77.11917">
        <ele>3780</ele>
        <time>2015-08-30T08:10:10Z</time>
      </trkpt>
      <trkpt lat="34.10229" lon="77.11921">
        <ele>3779.6</ele>
        <time>2015-08-30T08:10:16Z</time>
      </trkpt>
      <trkpt lat="34.1023" lon="77.11921">
        <ele>3779.6</ele>
        <time>2015-08-30T08:10:24Z</time>
      </trkpt>
      <trkpt lat="34.10223" lon="77.11922">
        <ele>3778.8</ele>
        <time>2015-08-30T08:10:38Z</time>
      </trkpt>
      <trkpt lat="34.1022" lon="77.11929">
        <ele>3778.6</ele>
        <time>2015-08-30T08:10:43Z</time>
      </trkpt>
      <trkpt lat="34.10206" lon="77.11938">
        <ele>3779.4</ele>
        <time>2015-08-30T08:10:54Z</time>
      </trkpt>
      <trkpt lat="34.10202" lon="77.11944">
        <ele>3780</ele>
        <time>2015-08-30T08:10:59Z</time>
      </trkpt>
      <trkpt lat="34.10202" lon="77.11965">
        <ele>3780.2</ele>
        <time>2015-08-30T08:11:19Z</time>
      </trkpt>
      <trkpt lat="34.10202" lon="77.11969">
        <ele>3780.2</ele>
        <time>2015-08-30T08:11:22Z</time>
      </trkpt>
      <trkpt lat="34.10206" lon="77.11989">
        <ele>3780.4</ele>
        <time>2015-08-30T08:11:45Z</time>
      </trkpt>
      <trkpt lat="34.10204" lon="77.11991">
        <ele>3780.2</ele>
        <time>2015-08-30T08:11:47Z</time>
      </trkpt>
      <trkpt lat="34.10207" lon="77.11994">
        <ele>3780</ele>
        <time>2015-08-30T08:11:49Z</time>
      </trkpt>
      <trkpt lat="34.10207" lon="77.12015">
        <ele>3779.4</ele>
        <time>2015-08-30T08:12:06Z</time>
      </trkpt>
      <trkpt lat="34.10213" lon="77.12018">
        <ele>3778.8</ele>
        <time>2015-08-30T08:12:14Z</time>
      </trkpt>
      <trkpt lat="34.10216" lon="77.12018">
        <ele>3778.2</ele>
        <time>2015-08-30T08:12:17Z</time>
      </trkpt>
      <trkpt lat="34.10222" lon="77.12024">
        <ele>3777.8</ele>
        <time>2015-08-30T08:12:25Z</time>
      </trkpt>
      <trkpt lat="34.10219" lon="77.12029">
        <ele>3777.4</ele>
        <time>2015-08-30T08:12:34Z</time>
      </trkpt>
      <trkpt lat="34.10227" lon="77.1203">
        <ele>3777.2</ele>
        <time>2015-08-30T08:12:37Z</time>
      </trkpt>
      <trkpt lat="34.10228" lon="77.12033">
        <ele>3776.8</ele>
        <time>2015-08-30T08:12:48Z</time>
      </trkpt>
      <trkpt lat="34.10232" lon="77.12034">
        <ele>3778</ele>
        <time>2015-08-30T08:13:24Z</time>
      </trkpt>
      <trkpt lat="34.10231" lon="77.12048">
        <ele>3777.8</ele>
        <time>2015-08-30T08:13:54Z</time>
      </trkpt>
      <trkpt lat="34.10234" lon="77.12054">
        <ele>3778</ele>
        <time>2015-08-30T08:14:48Z</time>
      </trkpt>
      <trkpt lat="34.10228" lon="77.12049">
        <ele>3778</ele>
        <time>2015-08-30T08:14:55Z</time>
      </trkpt>
      <trkpt lat="34.10226" lon="77.12049">
        <ele>3778.4</ele>
        <time>2015-08-30T08:14:58Z</time>
      </trkpt>
      <trkpt lat="34.10223" lon="77.12044">
        <ele>3778.6</ele>
        <time>2015-08-30T08:15:07Z</time>
      </trkpt>
      <trkpt lat="34.10222" lon="77.12042">
        <ele>3778.6</ele>
        <time>2015-08-30T08:15:09Z</time>
      </trkpt>
      <trkpt lat="34.10221" lon="77.1204">
        <ele>3778.4</ele>
        <time>2015-08-30T08:15:12Z</time>
      </trkpt>
      <trkpt lat="34.10223" lon="77.12036">
        <ele>3778.4</ele>
        <time>2015-08-30T08:15:44Z</time>
      </trkpt>
      <trkpt lat="34.10226" lon="77.12034">
        <ele>3778.8</ele>
        <time>2015-08-30T08:15:51Z</time>
      </trkpt>
      <trkpt lat="34.10228" lon="77.12037">
        <ele>3777.8</ele>
        <time>2015-08-30T08:16:11Z</time>
      </trkpt>
      <trkpt lat="34.10228" lon="77.12035">
        <ele>3777.8</ele>
        <time>2015-08-30T08:16:14Z</time>
      </trkpt>
      <trkpt lat="34.10229" lon="77.12038">
        <ele>3778.4</ele>
        <time>2015-08-30T08:16:27Z</time>
      </trkpt>
      <trkpt lat="34.10231" lon="77.1204">
        <ele>3777.8</ele>
        <time>2015-08-30T08:16:43Z</time>
      </trkpt>
      <trkpt lat="34.10231" lon="77.12037">
        <ele>3777.8</ele>
        <time>2015-08-30T08:16:45Z</time>
      </trkpt>
      <trkpt lat="34.10228" lon="77.12027">
        <ele>3777.4</ele>
        <time>2015-08-30T08:17:00Z</time>
      </trkpt>
      <trkpt lat="34.10234" lon="77.12029">
        <ele>3776.8</ele>
        <time>2015-08-30T08:17:34Z</time>
      </trkpt>
      <trkpt lat="34.10239" lon="77.12031">
        <ele>3777.2</ele>
        <time>2015-08-30T08:17:45Z</time>
      </trkpt>
      <trkpt lat="34.10239" lon="77.12033">
        <ele>3776.8</ele>
        <time>2015-08-30T08:17:52Z</time>
      </trkpt>
      <trkpt lat="34.10231" lon="77.12035">
        <ele>3776.6</ele>
        <time>2015-08-30T08:17:57Z</time>
      </trkpt>
      <trkpt lat="34.10226" lon="77.12035">
        <ele>3776.6</ele>
        <time>2015-08-30T08:18:02Z</time>
      </trkpt>
      <trkpt lat="34.10225" lon="77.12035">
        <ele>3776.4</ele>
        <time>2015-08-30T08:18:08Z</time>
      </trkpt>
      <trkpt lat="34.10226" lon="77.12032">
        <ele>3776.4</ele>
        <time>2015-08-30T08:18:12Z</time>
      </trkpt>
      <trkpt lat="34.10224" lon="77.12031">
        <ele>3776.4</ele>
        <time>2015-08-30T08:18:16Z</time>
      </trkpt>
      <trkpt lat="34.10221" lon="77.1203">
        <ele>3776.4</ele>
        <time>2015-08-30T08:18:18Z</time>
      </trkpt>
      <trkpt lat="34.1022" lon="77.1203">
        <ele>3776.4</ele>
        <time>2015-08-30T08:18:20Z</time>
      </trkpt>
      <trkpt lat="34.10222" lon="77.12032">
        <ele>3776</ele>
        <time>2015-08-30T08:18:26Z</time>
      </trkpt>
      <trkpt lat="34.10225" lon="77.12036">
        <ele>3775.6</ele>
        <time>2015-08-30T08:18:30Z</time>
      </trkpt>
      <trkpt lat="34.10226" lon="77.12043">
        <ele>3774.8</ele>
        <time>2015-08-30T08:19:05Z</time>
      </trkpt>
      <trkpt lat="34.10223" lon="77.1203">
        <ele>3775</ele>
        <time>2015-08-30T08:19:26Z</time>
      </trkpt>
      <trkpt lat="34.10223" lon="77.12031">
        <ele>3775</ele>
        <time>2015-08-30T08:19:28Z</time>
      </trkpt>
      <trkpt lat="34.10223" lon="77.12036">
        <ele>3775.2</ele>
        <time>2015-08-30T08:19:31Z</time>
      </trkpt>
      <trkpt lat="34.10222" lon="77.12036">
        <ele>3775.4</ele>
        <time>2015-08-30T08:19:33Z</time>
      </trkpt>
      <trkpt lat="34.10224" lon="77.12035">
        <ele>3775.4</ele>
        <time>2015-08-30T08:19:36Z</time>
      </trkpt>
      <trkpt lat="34.10223" lon="77.1203">
        <ele>3775.2</ele>
        <time>2015-08-30T08:19:41Z</time>
      </trkpt>
      <trkpt lat="34.10227" lon="77.12039">
        <ele>3774.8</ele>
        <time>2015-08-30T08:20:18Z</time>
      </trkpt>
      <trkpt lat="34.10226" lon="77.12039">
        <ele>3774.6</ele>
        <time>2015-08-30T08:20:23Z</time>
      </trkpt>
      <trkpt lat="34.10224" lon="77.12037">
        <ele>3775</ele>
        <time>2015-08-30T08:21:05Z</time>
      </trkpt>
      <trkpt lat="34.10223" lon="77.12034">
        <ele>3775</ele>
        <time>2015-08-30T08:21:16Z</time>
      </trkpt>
      <trkpt lat="34.10226" lon="77.12036">
        <ele>3775</ele>
        <time>2015-08-30T08:21:21Z</time>
      </trkpt>
      <trkpt lat="34.10227" lon="77.12037">
        <ele>3818.2</ele>
        <time>2015-08-30T08:21:26Z</time>
      </trkpt>
      <trkpt lat="34.10227" lon="77.12037">
        <ele>3775</ele>
        <time>2015-08-30T08:21:30Z</time>
      </trkpt>
      <trkpt lat="34.10226" lon="77.12036">
        <ele>3774.8</ele>
        <time>2015-08-30T08:21:44Z</time>
      </trkpt>
      <trkpt lat="34.10227" lon="77.12036">
        <ele>3818</ele>
        <time>2015-08-30T08:21:48Z</time>
      </trkpt>
      <trkpt lat="34.10226" lon="77.12036">
        <ele>3774.8</ele>
        <time>2015-08-30T08:21:49Z</time>
      </trkpt>
      <trkpt lat="34.10229" lon="77.12036">
        <ele>3774.8</ele>
        <time>2015-08-30T08:22:12Z</time>
      </trkpt>
      <trkpt lat="34.1023" lon="77.12032">
        <ele>3774.8</ele>
        <time>2015-08-30T08:22:35Z</time>
      </trkpt>
      <trkpt lat="34.10226" lon="77.12034">
        <ele>3774.8</ele>
        <time>2015-08-30T08:22:44Z</time>
      </trkpt>
      <trkpt lat="34.10224" lon="77.12038">
        <ele>3774.6</ele>
        <time>2015-08-30T08:23:27Z</time>
      </trkpt>
      <trkpt lat="34.10222" lon="77.12039">
        <ele>3774.8</ele>
        <time>2015-08-30T08:23:38Z</time>
      </trkpt>
      <trkpt lat="34.10223" lon="77.12036">
        <ele>3774.8</ele>
        <time>2015-08-30T08:23:52Z</time>
      </trkpt>
      <trkpt lat="34.10224" lon="77.12035">
        <ele>3775</ele>
        <time>2015-08-30T08:23:54Z</time>
      </trkpt>
      <trkpt lat="34.10228" lon="77.12041">
        <ele>3775.2</ele>
        <time>2015-08-30T08:24:43Z</time>
      </trkpt>
      <trkpt lat="34.10227" lon="77.12043">
        <ele>3775.4</ele>
        <time>2015-08-30T08:25:00Z</time>
      </trkpt>
      <trkpt lat="34.10224" lon="77.12037">
        <ele>3775.6</ele>
        <time>2015-08-30T08:25:34Z</time>
      </trkpt>
      <trkpt lat="34.10224" lon="77.12037">
        <ele>3775.6</ele>
        <time>2015-08-30T08:25:36Z</time>
      </trkpt>
      <trkpt lat="34.10223" lon="77.12036">
        <ele>3775.6</ele>
        <time>2015-08-30T08:25:39Z</time>
      </trkpt>
      <trkpt lat="34.10229" lon="77.12042">
        <ele>3775.4</ele>
        <time>2015-08-30T08:26:34Z</time>
      </trkpt>
      <trkpt lat="34.10227" lon="77.12038">
        <ele>3775.4</ele>
        <time>2015-08-30T08:26:53Z</time>
      </trkpt>
      <trkpt lat="34.10227" lon="77.12047">
        <ele>3775.4</ele>
        <time>2015-08-30T08:27:12Z</time>
      </trkpt>
      <trkpt lat="34.10227" lon="77.12032">
        <ele>3774.8</ele>
        <time>2015-08-30T08:27:45Z</time>
      </trkpt>
      <trkpt lat="34.10222" lon="77.12034">
        <ele>3775</ele>
        <time>2015-08-30T08:28:07Z</time>
      </trkpt>
      <trkpt lat="34.10227" lon="77.12036">
        <ele>3774.6</ele>
        <time>2015-08-30T08:29:04Z</time>
      </trkpt>
      <trkpt lat="34.10224" lon="77.12039">
        <ele>3774.2</ele>
        <time>2015-08-30T08:29:16Z</time>
      </trkpt>
      <trkpt lat="34.10224" lon="77.12032">
        <ele>3774.2</ele>
        <time>2015-08-30T08:29:34Z</time>
      </trkpt>
      <trkpt lat="34.10232" lon="77.12035">
        <ele>3775.4</ele>
        <time>2015-08-30T08:29:45Z</time>
      </trkpt>
      <trkpt lat="34.10232" lon="77.12039">
        <ele>3775</ele>
        <time>2015-08-30T08:29:51Z</time>
      </trkpt>
      <trkpt lat="34.10226" lon="77.12034">
        <ele>3774.8</ele>
        <time>2015-08-30T08:30:02Z</time>
      </trkpt>
      <trkpt lat="34.10225" lon="77.12032">
        <ele>3774.8</ele>
        <time>2015-08-30T08:30:04Z</time>
      </trkpt>
      <trkpt lat="34.10219" lon="77.12029">
        <ele>3774.6</ele>
        <time>2015-08-30T08:30:10Z</time>
      </trkpt>
      <trkpt lat="34.10217" lon="77.12027">
        <ele>3774.8</ele>
        <time>2015-08-30T08:30:12Z</time>
      </trkpt>
      <trkpt lat="34.10217" lon="77.12028">
        <ele>3774.8</ele>
        <time>2015-08-30T08:30:14Z</time>
      </trkpt>
      <trkpt lat="34.10215" lon="77.12032">
        <ele>3774.8</ele>
        <time>2015-08-30T08:30:19Z</time>
      </trkpt>
      <trkpt lat="34.1023" lon="77.12052">
        <ele>3773.8</ele>
        <time>2015-08-30T08:30:44Z</time>
      </trkpt>
      <trkpt lat="34.1023" lon="77.12052">
        <ele>3773.8</ele>
        <time>2015-08-30T08:30:46Z</time>
      </trkpt>
      <trkpt lat="34.10233" lon="77.12045">
        <ele>3774.8</ele>
        <time>2015-08-30T08:30:52Z</time>
      </trkpt>
      <trkpt lat="34.10236" lon="77.12037">
        <ele>3774.2</ele>
        <time>2015-08-30T08:31:00Z</time>
      </trkpt>
      <trkpt lat="34.10239" lon="77.12036">
        <ele>3774.4</ele>
        <time>2015-08-30T08:31:03Z</time>
      </trkpt>
      <trkpt lat="34.10245" lon="77.12032">
        <ele>3775</ele>
        <time>2015-08-30T08:31:12Z</time>
      </trkpt>
      <trkpt lat="34.1024" lon="77.12025">
        <ele>3774.2</ele>
        <time>2015-08-30T08:31:43Z</time>
      </trkpt>
      <trkpt lat="34.10239" lon="77.12024">
        <ele>3774</ele>
        <time>2015-08-30T08:31:55Z</time>
      </trkpt>
      <trkpt lat="34.10228" lon="77.12028">
        <ele>3774.4</ele>
        <time>2015-08-30T08:32:54Z</time>
      </trkpt>
      <trkpt lat="34.10229" lon="77.12026">
        <ele>3775.4</ele>
        <time>2015-08-30T08:33:03Z</time>
      </trkpt>
      <trkpt lat="34.10227" lon="77.1203">
        <ele>3775.4</ele>
        <time>2015-08-30T08:33:05Z</time>
      </trkpt>
      <trkpt lat="34.10231" lon="77.12034">
        <ele>3774.6</ele>
        <time>2015-08-30T08:33:46Z</time>
      </trkpt>
      <trkpt lat="34.10224" lon="77.12034">
        <ele>3774.4</ele>
        <time>2015-08-30T08:34:18Z</time>
      </trkpt>
      <trkpt lat="34.1023" lon="77.12035">
        <ele>3774.4</ele>
        <time>2015-08-30T08:34:29Z</time>
      </trkpt>
      <trkpt lat="34.10226" lon="77.12041">
        <ele>3773.8</ele>
        <time>2015-08-30T08:34:43Z</time>
      </trkpt>
      <trkpt lat="34.10231" lon="77.12028">
        <ele>3774.4</ele>
        <time>2015-08-30T08:35:00Z</time>
      </trkpt>
      <trkpt lat="34.10233" lon="77.12041">
        <ele>3774</ele>
        <time>2015-08-30T08:35:14Z</time>
      </trkpt>
      <trkpt lat="34.10223" lon="77.12025">
        <ele>3773.8</ele>
        <time>2015-08-30T08:35:57Z</time>
      </trkpt>
      <trkpt lat="34.10223" lon="77.12031">
        <ele>3773.2</ele>
        <time>2015-08-30T08:36:18Z</time>
      </trkpt>
      <trkpt lat="34.10221" lon="77.12036">
        <ele>3773.2</ele>
        <time>2015-08-30T08:36:19Z</time>
      </trkpt>
      <trkpt lat="34.10222" lon="77.12037">
        <ele>3773.2</ele>
        <time>2015-08-30T08:36:22Z</time>
      </trkpt>
      <trkpt lat="34.10223" lon="77.12035">
        <ele>3773.6</ele>
        <time>2015-08-30T08:36:34Z</time>
      </trkpt>
      <trkpt lat="34.10234" lon="77.1204">
        <ele>3773.8</ele>
        <time>2015-08-30T08:37:03Z</time>
      </trkpt>
      <trkpt lat="34.10235" lon="77.12036">
        <ele>3774</ele>
        <time>2015-08-30T08:37:07Z</time>
      </trkpt>
      <trkpt lat="34.10231" lon="77.12037">
        <ele>3774.2</ele>
        <time>2015-08-30T08:37:39Z</time>
      </trkpt>
      <trkpt lat="34.10229" lon="77.1203">
        <ele>3774</ele>
        <time>2015-08-30T08:37:44Z</time>
      </trkpt>
      <trkpt lat="34.10224" lon="77.12035">
        <ele>3774</ele>
        <time>2015-08-30T08:37:46Z</time>
      </trkpt>
      <trkpt lat="34.10223" lon="77.12038">
        <ele>3773.8</ele>
        <time>2015-08-30T08:37:49Z</time>
      </trkpt>
      <trkpt lat="34.10221" lon="77.12033">
        <ele>3774.2</ele>
        <time>2015-08-30T08:37:55Z</time>
      </trkpt>
      <trkpt lat="34.10213" lon="77.12037">
        <ele>3773.4</ele>
        <time>2015-08-30T08:38:24Z</time>
      </trkpt>
      <trkpt lat="34.10216" lon="77.12033">
        <ele>3773.6</ele>
        <time>2015-08-30T08:38:28Z</time>
      </trkpt>
      <trkpt lat="34.10224" lon="77.12032">
        <ele>3773.6</ele>
        <time>2015-08-30T08:38:38Z</time>
      </trkpt>
      <trkpt lat="34.10227" lon="77.12035">
        <ele>3773.6</ele>
        <time>2015-08-30T08:38:41Z</time>
      </trkpt>
      <trkpt lat="34.10227" lon="77.1203">
        <ele>3773.6</ele>
        <time>2015-08-30T08:38:48Z</time>
      </trkpt>
      <trkpt lat="34.10226" lon="77.12035">
        <ele>3773.6</ele>
        <time>2015-08-30T08:38:56Z</time>
      </trkpt>
      <trkpt lat="34.1023" lon="77.12035">
        <ele>3773.4</ele>
        <time>2015-08-30T08:39:16Z</time>
      </trkpt>
      <trkpt lat="34.10219" lon="77.12041">
        <ele>3773.4</ele>
        <time>2015-08-30T08:39:36Z</time>
      </trkpt>
      <trkpt lat="34.10226" lon="77.12035">
        <ele>3773.6</ele>
        <time>2015-08-30T08:40:24Z</time>
      </trkpt>
      <trkpt lat="34.10215" lon="77.12042">
        <ele>3773.4</ele>
        <time>2015-08-30T08:40:39Z</time>
      </trkpt>
      <trkpt lat="34.10213" lon="77.12045">
        <ele>3773.4</ele>
        <time>2015-08-30T08:40:46Z</time>
      </trkpt>
      <trkpt lat="34.10215" lon="77.12034">
        <ele>3773</ele>
        <time>2015-08-30T08:41:04Z</time>
      </trkpt>
      <trkpt lat="34.10216" lon="77.12034">
        <ele>3773</ele>
        <time>2015-08-30T08:41:06Z</time>
      </trkpt>
      <trkpt lat="34.10217" lon="77.12029">
        <ele>3772.8</ele>
        <time>2015-08-30T08:41:16Z</time>
      </trkpt>
      <trkpt lat="34.10217" lon="77.12029">
        <ele>3772.6</ele>
        <time>2015-08-30T08:41:17Z</time>
      </trkpt>
      <trkpt lat="34.10218" lon="77.12028">
        <ele>3772.6</ele>
        <time>2015-08-30T08:41:18Z</time>
      </trkpt>
      <trkpt lat="34.10207" lon="77.12025">
        <ele>3772</ele>
        <time>2015-08-30T08:41:42Z</time>
      </trkpt>
      <trkpt lat="34.10217" lon="77.1204">
        <ele>3772</ele>
        <time>2015-08-30T08:42:15Z</time>
      </trkpt>
      <trkpt lat="34.10223" lon="77.1203">
        <ele>3772</ele>
        <time>2015-08-30T08:42:42Z</time>
      </trkpt>
      <trkpt lat="34.10201" lon="77.12019">
        <ele>3772</ele>
        <time>2015-08-30T08:44:50Z</time>
      </trkpt>
      <trkpt lat="34.10192" lon="77.12021">
        <ele>3772</ele>
        <time>2015-08-30T08:44:56Z</time>
      </trkpt>
      <trkpt lat="34.10208" lon="77.1203">
        <ele>3772</ele>
        <time>2015-08-30T08:45:20Z</time>
      </trkpt>
      <trkpt lat="34.10215" lon="77.12036">
        <ele>3772.2</ele>
        <time>2015-08-30T08:45:24Z</time>
      </trkpt>
      <trkpt lat="34.10222" lon="77.12035">
        <ele>3772.2</ele>
        <time>2015-08-30T08:45:27Z</time>
      </trkpt>
      <trkpt lat="34.10223" lon="77.12033">
        <ele>3772</ele>
        <time>2015-08-30T08:45:29Z</time>
      </trkpt>
      <trkpt lat="34.10222" lon="77.12039">
        <ele>3771.6</ele>
        <time>2015-08-30T08:45:33Z</time>
      </trkpt>
      <trkpt lat="34.10226" lon="77.1203">
        <ele>3771</ele>
        <time>2015-08-30T08:45:46Z</time>
      </trkpt>
      <trkpt lat="34.10227" lon="77.12027">
        <ele>3771.2</ele>
        <time>2015-08-30T08:45:49Z</time>
      </trkpt>
      <trkpt lat="34.10233" lon="77.12029">
        <ele>3772</ele>
        <time>2015-08-30T08:45:55Z</time>
      </trkpt>
      <trkpt lat="34.10227" lon="77.12032">
        <ele>3771.8</ele>
        <time>2015-08-30T08:45:57Z</time>
      </trkpt>
      <trkpt lat="34.1023" lon="77.12037">
        <ele>3771.6</ele>
        <time>2015-08-30T08:46:09Z</time>
      </trkpt>
      <trkpt lat="34.10231" lon="77.12035">
        <ele>3771.6</ele>
        <time>2015-08-30T08:46:12Z</time>
      </trkpt>
      <trkpt lat="34.10223" lon="77.12023">
        <ele>3771.8</ele>
        <time>2015-08-30T08:46:27Z</time>
      </trkpt>
      <trkpt lat="34.10219" lon="77.12019">
        <ele>3771.6</ele>
        <time>2015-08-30T08:46:31Z</time>
      </trkpt>
      <trkpt lat="34.10221" lon="77.1202">
        <ele>3771.4</ele>
        <time>2015-08-30T08:46:38Z</time>
      </trkpt>
      <trkpt lat="34.1022" lon="77.1202">
        <ele>3771.4</ele>
        <time>2015-08-30T08:46:40Z</time>
      </trkpt>
      <trkpt lat="34.10214" lon="77.12015">
        <ele>3772.6</ele>
        <time>2015-08-30T08:47:05Z</time>
      </trkpt>
      <trkpt lat="34.10214" lon="77.12017">
        <ele>3772.8</ele>
        <time>2015-08-30T08:47:06Z</time>
      </trkpt>
      <trkpt lat="34.10214" lon="77.12017">
        <ele>3773</ele>
        <time>2015-08-30T08:47:08Z</time>
      </trkpt>
      <trkpt lat="34.10219" lon="77.12033">
        <ele>3772.6</ele>
        <time>2015-08-30T08:47:21Z</time>
      </trkpt>
      <trkpt lat="34.10221" lon="77.12035">
        <ele>3772.4</ele>
        <time>2015-08-30T08:47:23Z</time>
      </trkpt>
      <trkpt lat="34.10221" lon="77.1204">
        <ele>3772.8</ele>
        <time>2015-08-30T08:47:28Z</time>
      </trkpt>
      <trkpt lat="34.10221" lon="77.12045">
        <ele>3772.4</ele>
        <time>2015-08-30T08:47:33Z</time>
      </trkpt>
      <trkpt lat="34.10226" lon="77.1205">
        <ele>3771.6</ele>
        <time>2015-08-30T08:47:38Z</time>
      </trkpt>
      <trkpt lat="34.10227" lon="77.12051">
        <ele>3771.6</ele>
        <time>2015-08-30T08:47:39Z</time>
      </trkpt>
      <trkpt lat="34.10229" lon="77.12053">
        <ele>3771.4</ele>
        <time>2015-08-30T08:47:41Z</time>
      </trkpt>
      <trkpt lat="34.10222" lon="77.12059">
        <ele>3770.8</ele>
        <time>2015-08-30T08:47:50Z</time>
      </trkpt>
      <trkpt lat="34.10218" lon="77.12065">
        <ele>3771</ele>
        <time>2015-08-30T08:47:55Z</time>
      </trkpt>
      <trkpt lat="34.10221" lon="77.12074">
        <ele>3770.6</ele>
        <time>2015-08-30T08:48:20Z</time>
      </trkpt>
      <trkpt lat="34.10212" lon="77.1209">
        <ele>3770.8</ele>
        <time>2015-08-30T08:49:02Z</time>
      </trkpt>
      <trkpt lat="34.10207" lon="77.12095">
        <ele>3771.4</ele>
        <time>2015-08-30T08:49:09Z</time>
      </trkpt>
      <trkpt lat="34.10197" lon="77.12093">
        <ele>3771.6</ele>
        <time>2015-08-30T08:49:26Z</time>
      </trkpt>
      <trkpt lat="34.10202" lon="77.12099">
        <ele>3772.6</ele>
        <time>2015-08-30T08:49:40Z</time>
      </trkpt>
      <trkpt lat="34.10203" lon="77.12096">
        <ele>3772.8</ele>
        <time>2015-08-30T08:49:44Z</time>
      </trkpt>
      <trkpt lat="34.10204" lon="77.12093">
        <ele>3773.6</ele>
        <time>2015-08-30T08:49:50Z</time>
      </trkpt>
      <trkpt lat="34.10203" lon="77.12095">
        <ele>3774.6</ele>
        <time>2015-08-30T08:49:58Z</time>
      </trkpt>
      <trkpt lat="34.102" lon="77.12106">
        <ele>3775.8</ele>
        <time>2015-08-30T08:50:07Z</time>
      </trkpt>
      <trkpt lat="34.102" lon="77.12107">
        <ele>3775.8</ele>
        <time>2015-08-30T08:50:08Z</time>
      </trkpt>
      <trkpt lat="34.10199" lon="77.12109">
        <ele>3776</ele>
        <time>2015-08-30T08:50:10Z</time>
      </trkpt>
      <trkpt lat="34.10199" lon="77.12117">
        <ele>3776.8</ele>
        <time>2015-08-30T08:50:22Z</time>
      </trkpt>
      <trkpt lat="34.10206" lon="77.12119">
        <ele>3778</ele>
        <time>2015-08-30T08:50:36Z</time>
      </trkpt>
      <trkpt lat="34.10208" lon="77.12119">
        <ele>3778.4</ele>
        <time>2015-08-30T08:50:41Z</time>
      </trkpt>
      <trkpt lat="34.10211" lon="77.12118">
        <ele>3779</ele>
        <time>2015-08-30T08:50:45Z</time>
      </trkpt>
      <trkpt lat="34.10213" lon="77.12119">
        <ele>3779.2</ele>
        <time>2015-08-30T08:50:47Z</time>
      </trkpt>
      <trkpt lat="34.10213" lon="77.12121">
        <ele>3779.2</ele>
        <time>2015-08-30T08:50:49Z</time>
      </trkpt>
      <trkpt lat="34.10214" lon="77.12124">
        <ele>3779.8</ele>
        <time>2015-08-30T08:51:06Z</time>
      </trkpt>
      <trkpt lat="34.10216" lon="77.1212">
        <ele>3780</ele>
        <time>2015-08-30T08:51:10Z</time>
      </trkpt>
      <trkpt lat="34.1022" lon="77.12115">
        <ele>3781</ele>
        <time>2015-08-30T08:51:23Z</time>
      </trkpt>
      <trkpt lat="34.10221" lon="77.12112">
        <ele>3782.2</ele>
        <time>2015-08-30T08:51:36Z</time>
      </trkpt>
      <trkpt lat="34.1022" lon="77.12117">
        <ele>3783.2</ele>
        <time>2015-08-30T08:51:47Z</time>
      </trkpt>
      <trkpt lat="34.10216" lon="77.12122">
        <ele>3784.2</ele>
        <time>2015-08-30T08:51:55Z</time>
      </trkpt>
      <trkpt lat="34.10213" lon="77.1212">
        <ele>3785.4</ele>
        <time>2015-08-30T08:52:08Z</time>
      </trkpt>
      <trkpt lat="34.1021" lon="77.12118">
        <ele>3786.4</ele>
        <time>2015-08-30T08:52:16Z</time>
      </trkpt>
      <trkpt lat="34.10208" lon="77.12116">
        <ele>3787.4</ele>
        <time>2015-08-30T08:52:24Z</time>
      </trkpt>
      <trkpt lat="34.10204" lon="77.12119">
        <ele>3788.4</ele>
        <time>2015-08-30T08:52:34Z</time>
      </trkpt>
      <trkpt lat="34.10203" lon="77.1212">
        <ele>3789.4</ele>
        <time>2015-08-30T08:52:53Z</time>
      </trkpt>
      <trkpt lat="34.10202" lon="77.12121">
        <ele>3790.6</ele>
        <time>2015-08-30T08:53:04Z</time>
      </trkpt>
      <trkpt lat="34.10198" lon="77.12126">
        <ele>3791.6</ele>
        <time>2015-08-30T08:53:13Z</time>
      </trkpt>
      <trkpt lat="34.10197" lon="77.12129">
        <ele>3792.6</ele>
        <time>2015-08-30T08:53:22Z</time>
      </trkpt>
      <trkpt lat="34.10197" lon="77.12131">
        <ele>3793.6</ele>
        <time>2015-08-30T08:53:32Z</time>
      </trkpt>
      <trkpt lat="34.10194" lon="77.12131">
        <ele>3794.6</ele>
        <time>2015-08-30T08:53:41Z</time>
      </trkpt>
      <trkpt lat="34.1019" lon="77.12134">
        <ele>3795.8</ele>
        <time>2015-08-30T08:53:51Z</time>
      </trkpt>
      <trkpt lat="34.10186" lon="77.12136">
        <ele>3796.4</ele>
        <time>2015-08-30T08:53:56Z</time>
      </trkpt>
      <trkpt lat="34.10185" lon="77.12135">
        <ele>3796.6</ele>
        <time>2015-08-30T08:53:58Z</time>
      </trkpt>
      <trkpt lat="34.10184" lon="77.12136">
        <ele>3796.8</ele>
        <time>2015-08-30T08:54:00Z</time>
      </trkpt>
      <trkpt lat="34.10181" lon="77.12135">
        <ele>3797.6</ele>
        <time>2015-08-30T08:54:08Z</time>
      </trkpt>
      <trkpt lat="34.10182" lon="77.12137">
        <ele>3797.8</ele>
        <time>2015-08-30T08:54:11Z</time>
      </trkpt>
      <trkpt lat="34.10178" lon="77.12144">
        <ele>3799</ele>
        <time>2015-08-30T08:54:28Z</time>
      </trkpt>
      <trkpt lat="34.10178" lon="77.12149">
        <ele>3799.4</ele>
        <time>2015-08-30T08:54:53Z</time>
      </trkpt>
      <trkpt lat="34.10172" lon="77.12151">
        <ele>3800</ele>
        <time>2015-08-30T08:54:58Z</time>
      </trkpt>
      <trkpt lat="34.10172" lon="77.12154">
        <ele>3800.2</ele>
        <time>2015-08-30T08:55:00Z</time>
      </trkpt>
      <trkpt lat="34.10172" lon="77.12159">
        <ele>3801</ele>
        <time>2015-08-30T08:55:09Z</time>
      </trkpt>
      <trkpt lat="34.1018" lon="77.12167">
        <ele>3802</ele>
        <time>2015-08-30T08:55:23Z</time>
      </trkpt>
      <trkpt lat="34.10181" lon="77.12167">
        <ele>3803</ele>
        <time>2015-08-30T08:55:43Z</time>
      </trkpt>
      <trkpt lat="34.10193" lon="77.12162">
        <ele>3804.2</ele>
        <time>2015-08-30T08:56:00Z</time>
      </trkpt>
      <trkpt lat="34.10197" lon="77.12166">
        <ele>3805.2</ele>
        <time>2015-08-30T08:56:16Z</time>
      </trkpt>
      <trkpt lat="34.10199" lon="77.12167">
        <ele>3806.2</ele>
        <time>2015-08-30T08:56:29Z</time>
      </trkpt>
      <trkpt lat="34.10201" lon="77.12171">
        <ele>3807.2</ele>
        <time>2015-08-30T08:56:45Z</time>
      </trkpt>
      <trkpt lat="34.10222" lon="77.12164">
        <ele>3808</ele>
        <time>2015-08-30T08:57:00Z</time>
      </trkpt>
      <trkpt lat="34.10223" lon="77.12165">
        <ele>3808.4</ele>
        <time>2015-08-30T08:57:02Z</time>
      </trkpt>
      <trkpt lat="34.10223" lon="77.12166">
        <ele>3809.4</ele>
        <time>2015-08-30T08:57:09Z</time>
      </trkpt>
      <trkpt lat="34.10223" lon="77.12166">
        <ele>3809.4</ele>
        <time>2015-08-30T08:57:10Z</time>
      </trkpt>
      <trkpt lat="34.10223" lon="77.1217">
        <ele>3810.4</ele>
        <time>2015-08-30T08:57:19Z</time>
      </trkpt>
      <trkpt lat="34.10214" lon="77.12181">
        <ele>3811.4</ele>
        <time>2015-08-30T08:57:34Z</time>
      </trkpt>
      <trkpt lat="34.1022" lon="77.12182">
        <ele>3812.6</ele>
        <time>2015-08-30T08:57:51Z</time>
      </trkpt>
      <trkpt lat="34.10222" lon="77.12182">
        <ele>3813.6</ele>
        <time>2015-08-30T08:57:58Z</time>
      </trkpt>
      <trkpt lat="34.10225" lon="77.12181">
        <ele>3814.6</ele>
        <time>2015-08-30T08:58:08Z</time>
      </trkpt>
      <trkpt lat="34.1022" lon="77.12176">
        <ele>3815.6</ele>
        <time>2015-08-30T08:58:17Z</time>
      </trkpt>
      <trkpt lat="34.10219" lon="77.12176">
        <ele>3815.6</ele>
        <time>2015-08-30T08:58:18Z</time>
      </trkpt>
      <trkpt lat="34.1021" lon="77.12181">
        <ele>3816.6</ele>
        <time>2015-08-30T08:58:30Z</time>
      </trkpt>
      <trkpt lat="34.10211" lon="77.1219">
        <ele>3817.6</ele>
        <time>2015-08-30T08:58:42Z</time>
      </trkpt>
      <trkpt lat="34.10215" lon="77.12191">
        <ele>3818</ele>
        <time>2015-08-30T08:58:49Z</time>
      </trkpt>
      <trkpt lat="34.10219" lon="77.12197">
        <ele>3818.6</ele>
        <time>2015-08-30T08:58:56Z</time>
      </trkpt>
      <trkpt lat="34.10229" lon="77.12203">
        <ele>3819.6</ele>
        <time>2015-08-30T08:59:08Z</time>
      </trkpt>
      <trkpt lat="34.10231" lon="77.12203">
        <ele>3819.8</ele>
        <time>2015-08-30T08:59:10Z</time>
      </trkpt>
      <trkpt lat="34.10228" lon="77.12205">
        <ele>3819.8</ele>
        <time>2015-08-30T08:59:12Z</time>
      </trkpt>
      <trkpt lat="34.10229" lon="77.12204">
        <ele>3820</ele>
        <time>2015-08-30T08:59:15Z</time>
      </trkpt>
      <trkpt lat="34.10224" lon="77.12205">
        <ele>3820.2</ele>
        <time>2015-08-30T08:59:19Z</time>
      </trkpt>
      <trkpt lat="34.10223" lon="77.12204">
        <ele>3820.4</ele>
        <time>2015-08-30T08:59:21Z</time>
      </trkpt>
      <trkpt lat="34.10222" lon="77.12203">
        <ele>3820.8</ele>
        <time>2015-08-30T08:59:25Z</time>
      </trkpt>
      <trkpt lat="34.10222" lon="77.12203">
        <ele>3822</ele>
        <time>2015-08-30T08:59:36Z</time>
      </trkpt>
      <trkpt lat="34.10218" lon="77.12206">
        <ele>3823</ele>
        <time>2015-08-30T08:59:48Z</time>
      </trkpt>
      <trkpt lat="34.10218" lon="77.12211">
        <ele>3824</ele>
        <time>2015-08-30T09:00:00Z</time>
      </trkpt>
      <trkpt lat="34.10214" lon="77.12216">
        <ele>3825</ele>
        <time>2015-08-30T09:00:11Z</time>
      </trkpt>
      <trkpt lat="34.10212" lon="77.12216">
        <ele>3826</ele>
        <time>2015-08-30T09:00:23Z</time>
      </trkpt>
      <trkpt lat="34.10204" lon="77.12222">
        <ele>3827.2</ele>
        <time>2015-08-30T09:00:33Z</time>
      </trkpt>
      <trkpt lat="34.10202" lon="77.12221">
        <ele>3828.2</ele>
        <time>2015-08-30T09:00:42Z</time>
      </trkpt>
      <trkpt lat="34.102" lon="77.12219">
        <ele>3829.4</ele>
        <time>2015-08-30T09:00:48Z</time>
      </trkpt>
      <trkpt lat="34.10196" lon="77.12224">
        <ele>3830.2</ele>
        <time>2015-08-30T09:00:58Z</time>
      </trkpt>
      <trkpt lat="34.10194" lon="77.12229">
        <ele>3830.4</ele>
        <time>2015-08-30T09:01:03Z</time>
      </trkpt>
      <trkpt lat="34.10194" lon="77.12229">
        <ele>3830.4</ele>
        <time>2015-08-30T09:01:04Z</time>
      </trkpt>
      <trkpt lat="34.10197" lon="77.12232">
        <ele>3831.4</ele>
        <time>2015-08-30T09:01:16Z</time>
      </trkpt>
      <trkpt lat="34.10191" lon="77.12241">
        <ele>3832.6</ele>
        <time>2015-08-30T09:01:33Z</time>
      </trkpt>
      <trkpt lat="34.10188" lon="77.12242">
        <ele>3833.6</ele>
        <time>2015-08-30T09:01:44Z</time>
      </trkpt>
      <trkpt lat="34.10184" lon="77.12247">
        <ele>3834.8</ele>
        <time>2015-08-30T09:01:56Z</time>
      </trkpt>
      <trkpt lat="34.10196" lon="77.12255">
        <ele>3835.8</ele>
        <time>2015-08-30T09:02:24Z</time>
      </trkpt>
      <trkpt lat="34.102" lon="77.12258">
        <ele>3837</ele>
        <time>2015-08-30T09:02:39Z</time>
      </trkpt>
      <trkpt lat="34.10206" lon="77.12255">
        <ele>3837.2</ele>
        <time>2015-08-30T09:02:49Z</time>
      </trkpt>
      <trkpt lat="34.10205" lon="77.12253">
        <ele>3838.2</ele>
        <time>2015-08-30T09:02:58Z</time>
      </trkpt>
      <trkpt lat="34.10203" lon="77.12258">
        <ele>3839.2</ele>
        <time>2015-08-30T09:03:08Z</time>
      </trkpt>
      <trkpt lat="34.10202" lon="77.12267">
        <ele>3840.2</ele>
        <time>2015-08-30T09:03:22Z</time>
      </trkpt>
      <trkpt lat="34.10197" lon="77.12271">
        <ele>3841.2</ele>
        <time>2015-08-30T09:03:32Z</time>
      </trkpt>
      <trkpt lat="34.10196" lon="77.12273">
        <ele>3842.2</ele>
        <time>2015-08-30T09:03:46Z</time>
      </trkpt>
      <trkpt lat="34.1019" lon="77.12272">
        <ele>3842.8</ele>
        <time>2015-08-30T09:03:51Z</time>
      </trkpt>
      <trkpt lat="34.1019" lon="77.12274">
        <ele>3843</ele>
        <time>2015-08-30T09:03:53Z</time>
      </trkpt>
      <trkpt lat="34.1019" lon="77.12276">
        <ele>3843.4</ele>
        <time>2015-08-30T09:03:56Z</time>
      </trkpt>
      <trkpt lat="34.10188" lon="77.12281">
        <ele>3844.4</ele>
        <time>2015-08-30T09:04:08Z</time>
      </trkpt>
      <trkpt lat="34.10191" lon="77.12287">
        <ele>3845.4</ele>
        <time>2015-08-30T09:04:26Z</time>
      </trkpt>
      <trkpt lat="34.10194" lon="77.12293">
        <ele>3846.4</ele>
        <time>2015-08-30T09:04:37Z</time>
      </trkpt>
      <trkpt lat="34.10195" lon="77.12296">
        <ele>3846.4</ele>
        <time>2015-08-30T09:04:40Z</time>
      </trkpt>
      <trkpt lat="34.10202" lon="77.12304">
        <ele>3847.6</ele>
        <time>2015-08-30T09:04:58Z</time>
      </trkpt>
      <trkpt lat="34.10205" lon="77.12308">
        <ele>3848.6</ele>
        <time>2015-08-30T09:05:13Z</time>
      </trkpt>
      <trkpt lat="34.10205" lon="77.12303">
        <ele>3848.8</ele>
        <time>2015-08-30T09:05:19Z</time>
      </trkpt>
      <trkpt lat="34.10209" lon="77.12305">
        <ele>3849</ele>
        <time>2015-08-30T09:05:22Z</time>
      </trkpt>
      <trkpt lat="34.10209" lon="77.12301">
        <ele>3849.2</ele>
        <time>2015-08-30T09:05:26Z</time>
      </trkpt>
      <trkpt lat="34.10209" lon="77.12301">
        <ele>3849.6</ele>
        <time>2015-08-30T09:05:29Z</time>
      </trkpt>
      <trkpt lat="34.10215" lon="77.12304">
        <ele>3850.6</ele>
        <time>2015-08-30T09:05:43Z</time>
      </trkpt>
      <trkpt lat="34.10219" lon="77.123">
        <ele>3851.8</ele>
        <time>2015-08-30T09:05:57Z</time>
      </trkpt>
      <trkpt lat="34.10225" lon="77.12293">
        <ele>3852.8</ele>
        <time>2015-08-30T09:06:10Z</time>
      </trkpt>
      <trkpt lat="34.10232" lon="77.12295">
        <ele>3853.8</ele>
        <time>2015-08-30T09:06:24Z</time>
      </trkpt>
      <trkpt lat="34.10241" lon="77.12302">
        <ele>3855</ele>
        <time>2015-08-30T09:06:50Z</time>
      </trkpt>
      <trkpt lat="34.10248" lon="77.12305">
        <ele>3856</ele>
        <time>2015-08-30T09:07:03Z</time>
      </trkpt>
      <trkpt lat="34.10251" lon="77.12313">
        <ele>3857.2</ele>
        <time>2015-08-30T09:07:17Z</time>
      </trkpt>
      <trkpt lat="34.10253" lon="77.12314">
        <ele>3858</ele>
        <time>2015-08-30T09:07:23Z</time>
      </trkpt>
      <trkpt lat="34.10252" lon="77.12315">
        <ele>3858.2</ele>
        <time>2015-08-30T09:07:24Z</time>
      </trkpt>
      <trkpt lat="34.10245" lon="77.12325">
        <ele>3859</ele>
        <time>2015-08-30T09:07:36Z</time>
      </trkpt>
      <trkpt lat="34.10243" lon="77.12325">
        <ele>3859.2</ele>
        <time>2015-08-30T09:07:38Z</time>
      </trkpt>
      <trkpt lat="34.10242" lon="77.12326">
        <ele>3859.4</ele>
        <time>2015-08-30T09:07:39Z</time>
      </trkpt>
      <trkpt lat="34.1024" lon="77.12326">
        <ele>3859.6</ele>
        <time>2015-08-30T09:07:41Z</time>
      </trkpt>
      <trkpt lat="34.10241" lon="77.12325">
        <ele>3860.6</ele>
        <time>2015-08-30T09:07:49Z</time>
      </trkpt>
      <trkpt lat="34.10247" lon="77.12326">
        <ele>3861.4</ele>
        <time>2015-08-30T09:07:59Z</time>
      </trkpt>
      <trkpt lat="34.10252" lon="77.12326">
        <ele>3861.6</ele>
        <time>2015-08-30T09:08:02Z</time>
      </trkpt>
      <trkpt lat="34.1025" lon="77.12324">
        <ele>3862.6</ele>
        <time>2015-08-30T09:08:11Z</time>
      </trkpt>
      <trkpt lat="34.10252" lon="77.12325">
        <ele>3863.2</ele>
        <time>2015-08-30T09:08:16Z</time>
      </trkpt>
      <trkpt lat="34.10253" lon="77.1232">
        <ele>3863.6</ele>
        <time>2015-08-30T09:08:24Z</time>
      </trkpt>
      <trkpt lat="34.10256" lon="77.12312">
        <ele>3864.8</ele>
        <time>2015-08-30T09:08:38Z</time>
      </trkpt>
      <trkpt lat="34.10256" lon="77.12313">
        <ele>3865.8</ele>
        <time>2015-08-30T09:08:43Z</time>
      </trkpt>
      <trkpt lat="34.10256" lon="77.12315">
        <ele>3866.8</ele>
        <time>2015-08-30T09:08:50Z</time>
      </trkpt>
      <trkpt lat="34.10253" lon="77.12313">
        <ele>3868</ele>
        <time>2015-08-30T09:08:57Z</time>
      </trkpt>
      <trkpt lat="34.10249" lon="77.12325">
        <ele>3869</ele>
        <time>2015-08-30T09:09:07Z</time>
      </trkpt>
      <trkpt lat="34.10246" lon="77.12331">
        <ele>3869.6</ele>
        <time>2015-08-30T09:09:12Z</time>
      </trkpt>
      <trkpt lat="34.10244" lon="77.12331">
        <ele>3870.2</ele>
        <time>2015-08-30T09:09:15Z</time>
      </trkpt>
      <trkpt lat="34.1024" lon="77.12335">
        <ele>3871.2</ele>
        <time>2015-08-30T09:09:22Z</time>
      </trkpt>
      <trkpt lat="34.10236" lon="77.12345">
        <ele>3872.2</ele>
        <time>2015-08-30T09:09:31Z</time>
      </trkpt>
      <trkpt lat="34.10236" lon="77.12348">
        <ele>3873.4</ele>
        <time>2015-08-30T09:09:38Z</time>
      </trkpt>
      <trkpt lat="34.10235" lon="77.12348">
        <ele>3874.6</ele>
        <time>2015-08-30T09:09:49Z</time>
      </trkpt>
      <trkpt lat="34.10235" lon="77.12348">
        <ele>3874.8</ele>
        <time>2015-08-30T09:09:50Z</time>
      </trkpt>
      <trkpt lat="34.10233" lon="77.12354">
        <ele>3875.2</ele>
        <time>2015-08-30T09:09:54Z</time>
      </trkpt>
      <trkpt lat="34.10228" lon="77.12358">
        <ele>3875.4</ele>
        <time>2015-08-30T09:09:57Z</time>
      </trkpt>
      <trkpt lat="34.10226" lon="77.12361">
        <ele>3875.6</ele>
        <time>2015-08-30T09:09:59Z</time>
      </trkpt>
      <trkpt lat="34.10223" lon="77.12362">
        <ele>3876.2</ele>
        <time>2015-08-30T09:10:03Z</time>
      </trkpt>
      <trkpt lat="34.10223" lon="77.12362">
        <ele>3876.4</ele>
        <time>2015-08-30T09:10:07Z</time>
      </trkpt>
      <trkpt lat="34.10222" lon="77.12364">
        <ele>3876.6</ele>
        <time>2015-08-30T09:10:10Z</time>
      </trkpt>
      <trkpt lat="34.10218" lon="77.12376">
        <ele>3877</ele>
        <time>2015-08-30T09:10:17Z</time>
      </trkpt>
      <trkpt lat="34.10219" lon="77.12372">
        <ele>3877.2</ele>
        <time>2015-08-30T09:10:19Z</time>
      </trkpt>
      <trkpt lat="34.10224" lon="77.12362">
        <ele>3877.8</ele>
        <time>2015-08-30T09:10:23Z</time>
      </trkpt>
      <trkpt lat="34.10229" lon="77.12365">
        <ele>3878.8</ele>
        <time>2015-08-30T09:10:34Z</time>
      </trkpt>
      <trkpt lat="34.10231" lon="77.12384">
        <ele>3879.6</ele>
        <time>2015-08-30T09:10:44Z</time>
      </trkpt>
      <trkpt lat="34.10231" lon="77.12384">
        <ele>3880</ele>
        <time>2015-08-30T09:10:47Z</time>
      </trkpt>
      <trkpt lat="34.1023" lon="77.12382">
        <ele>3881</ele>
        <time>2015-08-30T09:10:56Z</time>
      </trkpt>
      <trkpt lat="34.10225" lon="77.12383">
        <ele>3881.6</ele>
        <time>2015-08-30T09:11:02Z</time>
      </trkpt>
      <trkpt lat="34.10223" lon="77.1238">
        <ele>3882</ele>
        <time>2015-08-30T09:11:06Z</time>
      </trkpt>
      <trkpt lat="34.10225" lon="77.12377">
        <ele>3882.2</ele>
        <time>2015-08-30T09:11:08Z</time>
      </trkpt>
      <trkpt lat="34.10225" lon="77.12376">
        <ele>3883.2</ele>
        <time>2015-08-30T09:11:15Z</time>
      </trkpt>
      <trkpt lat="34.10219" lon="77.12385">
        <ele>3884.2</ele>
        <time>2015-08-30T09:11:34Z</time>
      </trkpt>
      <trkpt lat="34.10218" lon="77.12387">
        <ele>3885.4</ele>
        <time>2015-08-30T09:11:44Z</time>
      </trkpt>
      <trkpt lat="34.10221" lon="77.12386">
        <ele>3886.4</ele>
        <time>2015-08-30T09:11:52Z</time>
      </trkpt>
      <trkpt lat="34.10226" lon="77.12389">
        <ele>3887.4</ele>
        <time>2015-08-30T09:12:04Z</time>
      </trkpt>
      <trkpt lat="34.10224" lon="77.12387">
        <ele>3888.6</ele>
        <time>2015-08-30T09:12:10Z</time>
      </trkpt>
      <trkpt lat="34.10224" lon="77.12386">
        <ele>3889.6</ele>
        <time>2015-08-30T09:12:32Z</time>
      </trkpt>
      <trkpt lat="34.10224" lon="77.12387">
        <ele>3889.6</ele>
        <time>2015-08-30T09:12:33Z</time>
      </trkpt>
      <trkpt lat="34.10219" lon="77.12391">
        <ele>3890.6</ele>
        <time>2015-08-30T09:12:39Z</time>
      </trkpt>
      <trkpt lat="34.10218" lon="77.12391">
        <ele>3890.8</ele>
        <time>2015-08-30T09:12:41Z</time>
      </trkpt>
      <trkpt lat="34.10217" lon="77.1239">
        <ele>3892</ele>
        <time>2015-08-30T09:12:50Z</time>
      </trkpt>
      <trkpt lat="34.10219" lon="77.12387">
        <ele>3893</ele>
        <time>2015-08-30T09:12:59Z</time>
      </trkpt>
      <trkpt lat="34.10214" lon="77.12394">
        <ele>3893.6</ele>
        <time>2015-08-30T09:13:06Z</time>
      </trkpt>
      <trkpt lat="34.10214" lon="77.12393">
        <ele>3894</ele>
        <time>2015-08-30T09:13:08Z</time>
      </trkpt>
      <trkpt lat="34.10215" lon="77.12392">
        <ele>3894.6</ele>
        <time>2015-08-30T09:13:12Z</time>
      </trkpt>
      <trkpt lat="34.10217" lon="77.12398">
        <ele>3895.2</ele>
        <time>2015-08-30T09:13:18Z</time>
      </trkpt>
      <trkpt lat="34.10218" lon="77.12402">
        <ele>3896.2</ele>
        <time>2015-08-30T09:13:28Z</time>
      </trkpt>
      <trkpt lat="34.10217" lon="77.12405">
        <ele>3897.2</ele>
        <time>2015-08-30T09:13:39Z</time>
      </trkpt>
      <trkpt lat="34.10207" lon="77.12407">
        <ele>3898</ele>
        <time>2015-08-30T09:13:47Z</time>
      </trkpt>
      <trkpt lat="34.10203" lon="77.12408">
        <ele>3898.2</ele>
        <time>2015-08-30T09:13:50Z</time>
      </trkpt>
      <trkpt lat="34.10203" lon="77.12409">
        <ele>3898.4</ele>
        <time>2015-08-30T09:13:51Z</time>
      </trkpt>
      <trkpt lat="34.10202" lon="77.1241">
        <ele>3898.6</ele>
        <time>2015-08-30T09:13:53Z</time>
      </trkpt>
      <trkpt lat="34.10201" lon="77.1241">
        <ele>3899.4</ele>
        <time>2015-08-30T09:13:59Z</time>
      </trkpt>
      <trkpt lat="34.10213" lon="77.12399">
        <ele>3900</ele>
        <time>2015-08-30T09:14:03Z</time>
      </trkpt>
      <trkpt lat="34.10214" lon="77.12399">
        <ele>3900</ele>
        <time>2015-08-30T09:14:05Z</time>
      </trkpt>
      <trkpt lat="34.10215" lon="77.12401">
        <ele>3900.2</ele>
        <time>2015-08-30T09:14:08Z</time>
      </trkpt>
      <trkpt lat="34.10215" lon="77.12402">
        <ele>3900.2</ele>
        <time>2015-08-30T09:14:10Z</time>
      </trkpt>
      <trkpt lat="34.10215" lon="77.12399">
        <ele>3900.4</ele>
        <time>2015-08-30T09:14:11Z</time>
      </trkpt>
      <trkpt lat="34.10219" lon="77.1239">
        <ele>3901.6</ele>
        <time>2015-08-30T09:14:16Z</time>
      </trkpt>
      <trkpt lat="34.10221" lon="77.12386">
        <ele>3901.8</ele>
        <time>2015-08-30T09:14:22Z</time>
      </trkpt>
      <trkpt lat="34.10221" lon="77.12386">
        <ele>3902.8</ele>
        <time>2015-08-30T09:14:28Z</time>
      </trkpt>
      <trkpt lat="34.1022" lon="77.12381">
        <ele>3903.8</ele>
        <time>2015-08-30T09:14:38Z</time>
      </trkpt>
      <trkpt lat="34.10221" lon="77.12379">
        <ele>3905</ele>
        <time>2015-08-30T09:14:43Z</time>
      </trkpt>
      <trkpt lat="34.10219" lon="77.12384">
        <ele>3905.8</ele>
        <time>2015-08-30T09:14:47Z</time>
      </trkpt>
      <trkpt lat="34.10216" lon="77.1239">
        <ele>3906</ele>
        <time>2015-08-30T09:14:48Z</time>
      </trkpt>
      <trkpt lat="34.10215" lon="77.12394">
        <ele>3906.2</ele>
        <time>2015-08-30T09:14:49Z</time>
      </trkpt>
      <trkpt lat="34.10212" lon="77.12401">
        <ele>3906.4</ele>
        <time>2015-08-30T09:14:51Z</time>
      </trkpt>
      <trkpt lat="34.1021" lon="77.12412">
        <ele>3907</ele>
        <time>2015-08-30T09:14:57Z</time>
      </trkpt>
      <trkpt lat="34.10211" lon="77.12413">
        <ele>3907</ele>
        <time>2015-08-30T09:14:58Z</time>
      </trkpt>
      <trkpt lat="34.10212" lon="77.12416">
        <ele>3907.8</ele>
        <time>2015-08-30T09:15:03Z</time>
      </trkpt>
      <trkpt lat="34.10211" lon="77.12426">
        <ele>3908</ele>
        <time>2015-08-30T09:15:10Z</time>
      </trkpt>
      <trkpt lat="34.10211" lon="77.12432">
        <ele>3908.2</ele>
        <time>2015-08-30T09:15:13Z</time>
      </trkpt>
      <trkpt lat="34.10211" lon="77.12434">
        <ele>3908.2</ele>
        <time>2015-08-30T09:15:15Z</time>
      </trkpt>
      <trkpt lat="34.10209" lon="77.12423">
        <ele>3908.4</ele>
        <time>2015-08-30T09:15:17Z</time>
      </trkpt>
      <trkpt lat="34.10208" lon="77.12421">
        <ele>3908.2</ele>
        <time>2015-08-30T09:15:19Z</time>
      </trkpt>
      <trkpt lat="34.10209" lon="77.12414">
        <ele>3908.6</ele>
        <time>2015-08-30T09:15:33Z</time>
      </trkpt>
      <trkpt lat="34.10208" lon="77.12415">
        <ele>3909.2</ele>
        <time>2015-08-30T09:15:35Z</time>
      </trkpt>
      <trkpt lat="34.10209" lon="77.12414">
        <ele>3910</ele>
        <time>2015-08-30T09:15:43Z</time>
      </trkpt>
      <trkpt lat="34.10205" lon="77.12418">
        <ele>3910.2</ele>
        <time>2015-08-30T09:15:46Z</time>
      </trkpt>
      <trkpt lat="34.10204" lon="77.12419">
        <ele>3910.4</ele>
        <time>2015-08-30T09:15:47Z</time>
      </trkpt>
      <trkpt lat="34.10204" lon="77.12416">
        <ele>3911.4</ele>
        <time>2015-08-30T09:15:53Z</time>
      </trkpt>
      <trkpt lat="34.10203" lon="77.12416">
        <ele>3911.6</ele>
        <time>2015-08-30T09:15:54Z</time>
      </trkpt>
      <trkpt lat="34.10198" lon="77.12419">
        <ele>3911.6</ele>
        <time>2015-08-30T09:15:58Z</time>
      </trkpt>
      <trkpt lat="34.10201" lon="77.12426">
        <ele>3911.8</ele>
        <time>2015-08-30T09:16:12Z</time>
      </trkpt>
      <trkpt lat="34.10203" lon="77.12428">
        <ele>3912.4</ele>
        <time>2015-08-30T09:16:31Z</time>
      </trkpt>
      <trkpt lat="34.10189" lon="77.1242">
        <ele>3913.4</ele>
        <time>2015-08-30T09:16:48Z</time>
      </trkpt>
      <trkpt lat="34.10188" lon="77.12421">
        <ele>3913.6</ele>
        <time>2015-08-30T09:16:49Z</time>
      </trkpt>
      <trkpt lat="34.10186" lon="77.12421">
        <ele>3913.8</ele>
        <time>2015-08-30T09:16:51Z</time>
      </trkpt>
      <trkpt lat="34.10184" lon="77.12425">
        <ele>3914.6</ele>
        <time>2015-08-30T09:16:55Z</time>
      </trkpt>
      <trkpt lat="34.10176" lon="77.12434">
        <ele>3915.6</ele>
        <time>2015-08-30T09:17:03Z</time>
      </trkpt>
      <trkpt lat="34.10175" lon="77.12437">
        <ele>3916</ele>
        <time>2015-08-30T09:17:06Z</time>
      </trkpt>
      <trkpt lat="34.10175" lon="77.12438">
        <ele>3916.2</ele>
        <time>2015-08-30T09:17:08Z</time>
      </trkpt>
      <trkpt lat="34.10172" lon="77.12435">
        <ele>3916.6</ele>
        <time>2015-08-30T09:17:12Z</time>
      </trkpt>
      <trkpt lat="34.10176" lon="77.12436">
        <ele>3917.2</ele>
        <time>2015-08-30T09:17:25Z</time>
      </trkpt>
      <trkpt lat="34.10177" lon="77.12433">
        <ele>3917.2</ele>
        <time>2015-08-30T09:17:27Z</time>
      </trkpt>
      <trkpt lat="34.10176" lon="77.12434">
        <ele>3917.4</ele>
        <time>2015-08-30T09:17:29Z</time>
      </trkpt>
      <trkpt lat="34.10174" lon="77.12435">
        <ele>3917.8</ele>
        <time>2015-08-30T09:17:32Z</time>
      </trkpt>
      <trkpt lat="34.10172" lon="77.12439">
        <ele>3918.2</ele>
        <time>2015-08-30T09:17:37Z</time>
      </trkpt>
      <trkpt lat="34.10175" lon="77.12442">
        <ele>3918.8</ele>
        <time>2015-08-30T09:17:43Z</time>
      </trkpt>
      <trkpt lat="34.10176" lon="77.12442">
        <ele>3919</ele>
        <time>2015-08-30T09:17:44Z</time>
      </trkpt>
      <trkpt lat="34.10173" lon="77.12445">
        <ele>3918.8</ele>
        <time>2015-08-30T09:17:50Z</time>
      </trkpt>
      <trkpt lat="34.1017" lon="77.12451">
        <ele>3919.6</ele>
        <time>2015-08-30T09:18:01Z</time>
      </trkpt>
      <trkpt lat="34.1017" lon="77.12453">
        <ele>3920</ele>
        <time>2015-08-30T09:18:04Z</time>
      </trkpt>
      <trkpt lat="34.1017" lon="77.12457">
        <ele>3920.2</ele>
        <time>2015-08-30T09:18:08Z</time>
      </trkpt>
      <trkpt lat="34.10166" lon="77.12456">
        <ele>3920.4</ele>
        <time>2015-08-30T09:18:13Z</time>
      </trkpt>
      <trkpt lat="34.10163" lon="77.12456">
        <ele>3921</ele>
        <time>2015-08-30T09:18:19Z</time>
      </trkpt>
      <trkpt lat="34.10161" lon="77.1246">
        <ele>3922.2</ele>
        <time>2015-08-30T09:18:26Z</time>
      </trkpt>
      <trkpt lat="34.1016" lon="77.12464">
        <ele>3923.2</ele>
        <time>2015-08-30T09:18:34Z</time>
      </trkpt>
      <trkpt lat="34.10161" lon="77.12468">
        <ele>3923.8</ele>
        <time>2015-08-30T09:18:38Z</time>
      </trkpt>
      <trkpt lat="34.10159" lon="77.12474">
        <ele>3924.2</ele>
        <time>2015-08-30T09:18:43Z</time>
      </trkpt>
      <trkpt lat="34.1016" lon="77.12474">
        <ele>3924.2</ele>
        <time>2015-08-30T09:18:44Z</time>
      </trkpt>
      <trkpt lat="34.10158" lon="77.12479">
        <ele>3925.4</ele>
        <time>2015-08-30T09:18:55Z</time>
      </trkpt>
      <trkpt lat="34.10158" lon="77.12479">
        <ele>3926.4</ele>
        <time>2015-08-30T09:19:02Z</time>
      </trkpt>
      <trkpt lat="34.10153" lon="77.12477">
        <ele>3926.8</ele>
        <time>2015-08-30T09:19:06Z</time>
      </trkpt>
      <trkpt lat="34.1015" lon="77.12478">
        <ele>3927</ele>
        <time>2015-08-30T09:19:09Z</time>
      </trkpt>
      <trkpt lat="34.10151" lon="77.12478">
        <ele>3927.6</ele>
        <time>2015-08-30T09:19:14Z</time>
      </trkpt>
      <trkpt lat="34.10147" lon="77.12484">
        <ele>3928.6</ele>
        <time>2015-08-30T09:19:24Z</time>
      </trkpt>
      <trkpt lat="34.10146" lon="77.12487">
        <ele>3929.6</ele>
        <time>2015-08-30T09:19:32Z</time>
      </trkpt>
      <trkpt lat="34.10145" lon="77.12491">
        <ele>3929.8</ele>
        <time>2015-08-30T09:19:35Z</time>
      </trkpt>
      <trkpt lat="34.10143" lon="77.12494">
        <ele>3930.6</ele>
        <time>2015-08-30T09:19:38Z</time>
      </trkpt>
      <trkpt lat="34.1014" lon="77.12495">
        <ele>3931</ele>
        <time>2015-08-30T09:19:41Z</time>
      </trkpt>
      <trkpt lat="34.10137" lon="77.12497">
        <ele>3931.6</ele>
        <time>2015-08-30T09:19:46Z</time>
      </trkpt>
      <trkpt lat="34.10135" lon="77.12499">
        <ele>3932.8</ele>
        <time>2015-08-30T09:19:59Z</time>
      </trkpt>
      <trkpt lat="34.10132" lon="77.12501">
        <ele>3933.8</ele>
        <time>2015-08-30T09:20:06Z</time>
      </trkpt>
      <trkpt lat="34.10131" lon="77.12498">
        <ele>3933.8</ele>
        <time>2015-08-30T09:20:07Z</time>
      </trkpt>
      <trkpt lat="34.10132" lon="77.12497">
        <ele>3933.8</ele>
        <time>2015-08-30T09:20:08Z</time>
      </trkpt>
      <trkpt lat="34.10131" lon="77.12497">
        <ele>3934</ele>
        <time>2015-08-30T09:20:10Z</time>
      </trkpt>
      <trkpt lat="34.1013" lon="77.12497">
        <ele>3934.8</ele>
        <time>2015-08-30T09:20:16Z</time>
      </trkpt>
      <trkpt lat="34.10123" lon="77.125">
        <ele>3936</ele>
        <time>2015-08-30T09:20:29Z</time>
      </trkpt>
      <trkpt lat="34.10113" lon="77.12504">
        <ele>3937</ele>
        <time>2015-08-30T09:20:40Z</time>
      </trkpt>
      <trkpt lat="34.10108" lon="77.12507">
        <ele>3938</ele>
        <time>2015-08-30T09:20:46Z</time>
      </trkpt>
      <trkpt lat="34.10103" lon="77.1251">
        <ele>3939</ele>
        <time>2015-08-30T09:20:54Z</time>
      </trkpt>
      <trkpt lat="34.10102" lon="77.12508">
        <ele>3940.2</ele>
        <time>2015-08-30T09:21:01Z</time>
      </trkpt>
      <trkpt lat="34.10101" lon="77.12505">
        <ele>3941.2</ele>
        <time>2015-08-30T09:21:11Z</time>
      </trkpt>
      <trkpt lat="34.10099" lon="77.12503">
        <ele>3942.2</ele>
        <time>2015-08-30T09:21:19Z</time>
      </trkpt>
      <trkpt lat="34.10099" lon="77.12503">
        <ele>3943.2</ele>
        <time>2015-08-30T09:21:26Z</time>
      </trkpt>
      <trkpt lat="34.10084" lon="77.125">
        <ele>3944.2</ele>
        <time>2015-08-30T09:21:35Z</time>
      </trkpt>
      <trkpt lat="34.10075" lon="77.12499">
        <ele>3945.4</ele>
        <time>2015-08-30T09:21:48Z</time>
      </trkpt>
      <trkpt lat="34.10069" lon="77.12495">
        <ele>3946.4</ele>
        <time>2015-08-30T09:21:57Z</time>
      </trkpt>
      <trkpt lat="34.10066" lon="77.12496">
        <ele>3946.8</ele>
        <time>2015-08-30T09:22:01Z</time>
      </trkpt>
      <trkpt lat="34.10066" lon="77.12493">
        <ele>3947.4</ele>
        <time>2015-08-30T09:22:04Z</time>
      </trkpt>
      <trkpt lat="34.1006" lon="77.12492">
        <ele>3948.6</ele>
        <time>2015-08-30T09:22:14Z</time>
      </trkpt>
      <trkpt lat="34.10057" lon="77.12491">
        <ele>3949.8</ele>
        <time>2015-08-30T09:22:22Z</time>
      </trkpt>
      <trkpt lat="34.1005" lon="77.12494">
        <ele>3950.8</ele>
        <time>2015-08-30T09:22:30Z</time>
      </trkpt>
      <trkpt lat="34.10051" lon="77.12492">
        <ele>3951</ele>
        <time>2015-08-30T09:22:32Z</time>
      </trkpt>
      <trkpt lat="34.10056" lon="77.12485">
        <ele>3951</ele>
        <time>2015-08-30T09:22:35Z</time>
      </trkpt>
      <trkpt lat="34.10057" lon="77.12485">
        <ele>3951.4</ele>
        <time>2015-08-30T09:22:41Z</time>
      </trkpt>
      <trkpt lat="34.10055" lon="77.12486">
        <ele>3951.4</ele>
        <time>2015-08-30T09:22:43Z</time>
      </trkpt>
      <trkpt lat="34.10052" lon="77.12488">
        <ele>3951.8</ele>
        <time>2015-08-30T09:22:49Z</time>
      </trkpt>
      <trkpt lat="34.1005" lon="77.1249">
        <ele>3950.4</ele>
        <time>2015-08-30T09:23:00Z</time>
      </trkpt>
      <trkpt lat="34.1005" lon="77.1249">
        <ele>3949.2</ele>
        <time>2015-08-30T09:23:03Z</time>
      </trkpt>
      <trkpt lat="34.10051" lon="77.12493">
        <ele>3949.2</ele>
        <time>2015-08-30T09:23:30Z</time>
      </trkpt>
      <trkpt lat="34.10051" lon="77.12498">
        <ele>3949.4</ele>
        <time>2015-08-30T09:23:35Z</time>
      </trkpt>
      <trkpt lat="34.10049" lon="77.12493">
        <ele>3949.2</ele>
        <time>2015-08-30T09:23:55Z</time>
      </trkpt>
      <trkpt lat="34.10051" lon="77.12494">
        <ele>3950.4</ele>
        <time>2015-08-30T09:24:00Z</time>
      </trkpt>
      <trkpt lat="34.10051" lon="77.1249">
        <ele>3950.4</ele>
        <time>2015-08-30T09:24:33Z</time>
      </trkpt>
      <trkpt lat="34.1005" lon="77.12489">
        <ele>3950.4</ele>
        <time>2015-08-30T09:24:34Z</time>
      </trkpt>
      <trkpt lat="34.1005" lon="77.12482">
        <ele>3950.6</ele>
        <time>2015-08-30T09:25:01Z</time>
      </trkpt>
      <trkpt lat="34.10047" lon="77.12484">
        <ele>3950.8</ele>
        <time>2015-08-30T09:25:05Z</time>
      </trkpt>
      <trkpt lat="34.10046" lon="77.12485">
        <ele>3950.8</ele>
        <time>2015-08-30T09:25:07Z</time>
      </trkpt>
      <trkpt lat="34.10038" lon="77.12489">
        <ele>3950.2</ele>
        <time>2015-08-30T09:25:17Z</time>
      </trkpt>
      <trkpt lat="34.10045" lon="77.12489">
        <ele>3951</ele>
        <time>2015-08-30T09:25:24Z</time>
      </trkpt>
      <trkpt lat="34.10048" lon="77.12489">
        <ele>3950.6</ele>
        <time>2015-08-30T09:25:26Z</time>
      </trkpt>
      <trkpt lat="34.1005" lon="77.12491">
        <ele>3950</ele>
        <time>2015-08-30T09:25:28Z</time>
      </trkpt>
      <trkpt lat="34.10051" lon="77.12491">
        <ele>3949.2</ele>
        <time>2015-08-30T09:25:31Z</time>
      </trkpt>
      <trkpt lat="34.1005" lon="77.12494">
        <ele>3949.4</ele>
        <time>2015-08-30T09:26:11Z</time>
      </trkpt>
      <trkpt lat="34.10056" lon="77.12487">
        <ele>3948.6</ele>
        <time>2015-08-30T09:26:42Z</time>
      </trkpt>
      <trkpt lat="34.10055" lon="77.12488">
        <ele>3950.4</ele>
        <time>2015-08-30T09:26:49Z</time>
      </trkpt>
      <trkpt lat="34.10039" lon="77.12499">
        <ele>3950</ele>
        <time>2015-08-30T09:27:11Z</time>
      </trkpt>
      <trkpt lat="34.1004" lon="77.12504">
        <ele>3951.4</ele>
        <time>2015-08-30T09:27:26Z</time>
      </trkpt>
      <trkpt lat="34.1004" lon="77.12511">
        <ele>3952.4</ele>
        <time>2015-08-30T09:27:40Z</time>
      </trkpt>
      <trkpt lat="34.10038" lon="77.12512">
        <ele>3952.8</ele>
        <time>2015-08-30T09:27:42Z</time>
      </trkpt>
      <trkpt lat="34.10033" lon="77.12516">
        <ele>3953.4</ele>
        <time>2015-08-30T09:27:48Z</time>
      </trkpt>
      <trkpt lat="34.10027" lon="77.12519">
        <ele>3954.6</ele>
        <time>2015-08-30T09:27:59Z</time>
      </trkpt>
      <trkpt lat="34.10026" lon="77.12521">
        <ele>3955.6</ele>
        <time>2015-08-30T09:28:10Z</time>
      </trkpt>
      <trkpt lat="34.10023" lon="77.12524">
        <ele>3956.6</ele>
        <time>2015-08-30T09:28:26Z</time>
      </trkpt>
      <trkpt lat="34.10022" lon="77.12523">
        <ele>3957.8</ele>
        <time>2015-08-30T09:28:42Z</time>
      </trkpt>
      <trkpt lat="34.10017" lon="77.12527">
        <ele>3958.8</ele>
        <time>2015-08-30T09:28:57Z</time>
      </trkpt>
      <trkpt lat="34.10009" lon="77.12528">
        <ele>3960</ele>
        <time>2015-08-30T09:29:09Z</time>
      </trkpt>
      <trkpt lat="34.10004" lon="77.12529">
        <ele>3961</ele>
        <time>2015-08-30T09:29:18Z</time>
      </trkpt>
      <trkpt lat="34.10004" lon="77.12529">
        <ele>3962</ele>
        <time>2015-08-30T09:29:31Z</time>
      </trkpt>
      <trkpt lat="34.10002" lon="77.12531">
        <ele>3962.6</ele>
        <time>2015-08-30T09:29:39Z</time>
      </trkpt>
      <trkpt lat="34.09999" lon="77.12533">
        <ele>3962.8</ele>
        <time>2015-08-30T09:29:42Z</time>
      </trkpt>
      <trkpt lat="34.09998" lon="77.12533">
        <ele>3963</ele>
        <time>2015-08-30T09:29:45Z</time>
      </trkpt>
      <trkpt lat="34.09991" lon="77.12539">
        <ele>3964</ele>
        <time>2015-08-30T09:30:00Z</time>
      </trkpt>
      <trkpt lat="34.09989" lon="77.12539">
        <ele>3964.4</ele>
        <time>2015-08-30T09:30:02Z</time>
      </trkpt>
      <trkpt lat="34.09986" lon="77.12545">
        <ele>3964.8</ele>
        <time>2015-08-30T09:30:04Z</time>
      </trkpt>
      <trkpt lat="34.09987" lon="77.12546">
        <ele>3965.2</ele>
        <time>2015-08-30T09:30:07Z</time>
      </trkpt>
      <trkpt lat="34.09984" lon="77.12537">
        <ele>3966.4</ele>
        <time>2015-08-30T09:30:19Z</time>
      </trkpt>
      <trkpt lat="34.0998" lon="77.12535">
        <ele>3966.6</ele>
        <time>2015-08-30T09:30:23Z</time>
      </trkpt>
      <trkpt lat="34.09973" lon="77.12539">
        <ele>3967.4</ele>
        <time>2015-08-30T09:30:33Z</time>
      </trkpt>
      <trkpt lat="34.09973" lon="77.12537">
        <ele>3968.4</ele>
        <time>2015-08-30T09:30:51Z</time>
      </trkpt>
      <trkpt lat="34.09976" lon="77.12531">
        <ele>3968.6</ele>
        <time>2015-08-30T09:30:56Z</time>
      </trkpt>
      <trkpt lat="34.09976" lon="77.12532">
        <ele>3968.8</ele>
        <time>2015-08-30T09:30:59Z</time>
      </trkpt>
      <trkpt lat="34.09981" lon="77.12536">
        <ele>3969</ele>
        <time>2015-08-30T09:31:04Z</time>
      </trkpt>
      <trkpt lat="34.09982" lon="77.12541">
        <ele>3969.6</ele>
        <time>2015-08-30T09:31:11Z</time>
      </trkpt>
      <trkpt lat="34.0998" lon="77.12547">
        <ele>3970.6</ele>
        <time>2015-08-30T09:31:33Z</time>
      </trkpt>
      <trkpt lat="34.09978" lon="77.12548">
        <ele>3971.6</ele>
        <time>2015-08-30T09:31:42Z</time>
      </trkpt>
      <trkpt lat="34.09979" lon="77.12553">
        <ele>3972.8</ele>
        <time>2015-08-30T09:31:52Z</time>
      </trkpt>
      <trkpt lat="34.09981" lon="77.12557">
        <ele>3974</ele>
        <time>2015-08-30T09:32:00Z</time>
      </trkpt>
      <trkpt lat="34.09986" lon="77.12562">
        <ele>3975</ele>
        <time>2015-08-30T09:32:13Z</time>
      </trkpt>
      <trkpt lat="34.09984" lon="77.12561">
        <ele>3976</ele>
        <time>2015-08-30T09:32:25Z</time>
      </trkpt>
      <trkpt lat="34.0999" lon="77.12566">
        <ele>3977.2</ele>
        <time>2015-08-30T09:32:36Z</time>
      </trkpt>
      <trkpt lat="34.09986" lon="77.12572">
        <ele>3978.2</ele>
        <time>2015-08-30T09:32:53Z</time>
      </trkpt>
      <trkpt lat="34.09989" lon="77.12578">
        <ele>3979.4</ele>
        <time>2015-08-30T09:33:05Z</time>
      </trkpt>
      <trkpt lat="34.0999" lon="77.12582">
        <ele>3980.4</ele>
        <time>2015-08-30T09:33:12Z</time>
      </trkpt>
      <trkpt lat="34.09993" lon="77.12588">
        <ele>3981.4</ele>
        <time>2015-08-30T09:33:29Z</time>
      </trkpt>
      <trkpt lat="34.09993" lon="77.12593">
        <ele>3982.4</ele>
        <time>2015-08-30T09:33:42Z</time>
      </trkpt>
      <trkpt lat="34.09994" lon="77.12596">
        <ele>3982.6</ele>
        <time>2015-08-30T09:33:46Z</time>
      </trkpt>
      <trkpt lat="34.09999" lon="77.126">
        <ele>3983.6</ele>
        <time>2015-08-30T09:33:57Z</time>
      </trkpt>
      <trkpt lat="34.10005" lon="77.12602">
        <ele>3984.6</ele>
        <time>2015-08-30T09:34:13Z</time>
      </trkpt>
      <trkpt lat="34.10009" lon="77.12603">
        <ele>3985.8</ele>
        <time>2015-08-30T09:34:29Z</time>
      </trkpt>
      <trkpt lat="34.10009" lon="77.12605">
        <ele>3986.8</ele>
        <time>2015-08-30T09:34:41Z</time>
      </trkpt>
      <trkpt lat="34.10008" lon="77.12606">
        <ele>3987.4</ele>
        <time>2015-08-30T09:34:45Z</time>
      </trkpt>
      <trkpt lat="34.10008" lon="77.12607">
        <ele>3987.8</ele>
        <time>2015-08-30T09:34:49Z</time>
      </trkpt>
      <trkpt lat="34.10011" lon="77.12602">
        <ele>3989</ele>
        <time>2015-08-30T09:34:58Z</time>
      </trkpt>
      <trkpt lat="34.10007" lon="77.12605">
        <ele>3990</ele>
        <time>2015-08-30T09:35:11Z</time>
      </trkpt>
      <trkpt lat="34.1" lon="77.12611">
        <ele>3991</ele>
        <time>2015-08-30T09:35:21Z</time>
      </trkpt>
      <trkpt lat="34.09997" lon="77.12613">
        <ele>3992.2</ele>
        <time>2015-08-30T09:35:29Z</time>
      </trkpt>
      <trkpt lat="34.09995" lon="77.12616">
        <ele>3992.4</ele>
        <time>2015-08-30T09:35:32Z</time>
      </trkpt>
      <trkpt lat="34.09995" lon="77.12612">
        <ele>3993</ele>
        <time>2015-08-30T09:35:45Z</time>
      </trkpt>
      <trkpt lat="34.09995" lon="77.12612">
        <ele>3993.2</ele>
        <time>2015-08-30T09:35:46Z</time>
      </trkpt>
      <trkpt lat="34.09994" lon="77.12611">
        <ele>3994.2</ele>
        <time>2015-08-30T09:35:56Z</time>
      </trkpt>
      <trkpt lat="34.09989" lon="77.12616">
        <ele>3994.6</ele>
        <time>2015-08-30T09:36:00Z</time>
      </trkpt>
      <trkpt lat="34.0999" lon="77.12621">
        <ele>3995.2</ele>
        <time>2015-08-30T09:36:12Z</time>
      </trkpt>
      <trkpt lat="34.09986" lon="77.12623">
        <ele>3996.4</ele>
        <time>2015-08-30T09:36:23Z</time>
      </trkpt>
      <trkpt lat="34.0998" lon="77.12623">
        <ele>3997.4</ele>
        <time>2015-08-30T09:36:31Z</time>
      </trkpt>
      <trkpt lat="34.09978" lon="77.12623">
        <ele>3998.4</ele>
        <time>2015-08-30T09:36:44Z</time>
      </trkpt>
      <trkpt lat="34.09973" lon="77.12624">
        <ele>3999.4</ele>
        <time>2015-08-30T09:36:53Z</time>
      </trkpt>
      <trkpt lat="34.09973" lon="77.12621">
        <ele>4000.4</ele>
        <time>2015-08-30T09:37:03Z</time>
      </trkpt>
      <trkpt lat="34.09969" lon="77.12624">
        <ele>4001</ele>
        <time>2015-08-30T09:37:12Z</time>
      </trkpt>
      <trkpt lat="34.09967" lon="77.1263">
        <ele>4001.6</ele>
        <time>2015-08-30T09:37:18Z</time>
      </trkpt>
      <trkpt lat="34.09964" lon="77.12637">
        <ele>4002.6</ele>
        <time>2015-08-30T09:37:33Z</time>
      </trkpt>
      <trkpt lat="34.09965" lon="77.12645">
        <ele>4003.6</ele>
        <time>2015-08-30T09:37:47Z</time>
      </trkpt>
      <trkpt lat="34.09964" lon="77.12647">
        <ele>4003.8</ele>
        <time>2015-08-30T09:37:50Z</time>
      </trkpt>
      <trkpt lat="34.0997" lon="77.12648">
        <ele>4004.4</ele>
        <time>2015-08-30T09:37:58Z</time>
      </trkpt>
      <trkpt lat="34.09972" lon="77.1265">
        <ele>4004.8</ele>
        <time>2015-08-30T09:38:03Z</time>
      </trkpt>
      <trkpt lat="34.09975" lon="77.12653">
        <ele>4005.8</ele>
        <time>2015-08-30T09:38:15Z</time>
      </trkpt>
      <trkpt lat="34.09979" lon="77.12659">
        <ele>4006.8</ele>
        <time>2015-08-30T09:38:28Z</time>
      </trkpt>
      <trkpt lat="34.09982" lon="77.12661">
        <ele>4008</ele>
        <time>2015-08-30T09:38:42Z</time>
      </trkpt>
      <trkpt lat="34.09987" lon="77.12667">
        <ele>4009</ele>
        <time>2015-08-30T09:38:57Z</time>
      </trkpt>
      <trkpt lat="34.09994" lon="77.12675">
        <ele>4010</ele>
        <time>2015-08-30T09:39:15Z</time>
      </trkpt>
      <trkpt lat="34.09998" lon="77.12675">
        <ele>4011</ele>
        <time>2015-08-30T09:39:28Z</time>
      </trkpt>
      <trkpt lat="34.10004" lon="77.12675">
        <ele>4012</ele>
        <time>2015-08-30T09:39:37Z</time>
      </trkpt>
      <trkpt lat="34.10004" lon="77.12676">
        <ele>4013.2</ele>
        <time>2015-08-30T09:39:43Z</time>
      </trkpt>
      <trkpt lat="34.10008" lon="77.12679">
        <ele>4014.2</ele>
        <time>2015-08-30T09:39:52Z</time>
      </trkpt>
      <trkpt lat="34.10015" lon="77.12681">
        <ele>4015.2</ele>
        <time>2015-08-30T09:40:01Z</time>
      </trkpt>
      <trkpt lat="34.10013" lon="77.12691">
        <ele>4016.2</ele>
        <time>2015-08-30T09:40:13Z</time>
      </trkpt>
      <trkpt lat="34.10011" lon="77.12696">
        <ele>4016.4</ele>
        <time>2015-08-30T09:40:18Z</time>
      </trkpt>
      <trkpt lat="34.10017" lon="77.12698">
        <ele>4017.4</ele>
        <time>2015-08-30T09:40:31Z</time>
      </trkpt>
      <trkpt lat="34.10016" lon="77.12704">
        <ele>4018.4</ele>
        <time>2015-08-30T09:40:42Z</time>
      </trkpt>
      <trkpt lat="34.10011" lon="77.12713">
        <ele>4019.4</ele>
        <time>2015-08-30T09:40:55Z</time>
      </trkpt>
      <trkpt lat="34.10012" lon="77.12719">
        <ele>4020.6</ele>
        <time>2015-08-30T09:41:06Z</time>
      </trkpt>
      <trkpt lat="34.10015" lon="77.12719">
        <ele>4020.8</ele>
        <time>2015-08-30T09:41:09Z</time>
      </trkpt>
      <trkpt lat="34.10024" lon="77.12721">
        <ele>4021.6</ele>
        <time>2015-08-30T09:41:17Z</time>
      </trkpt>
      <trkpt lat="34.10033" lon="77.12726">
        <ele>4022.2</ele>
        <time>2015-08-30T09:41:23Z</time>
      </trkpt>
      <trkpt lat="34.10033" lon="77.12729">
        <ele>4022.6</ele>
        <time>2015-08-30T09:41:27Z</time>
      </trkpt>
      <trkpt lat="34.10019" lon="77.12734">
        <ele>4023.8</ele>
        <time>2015-08-30T09:41:38Z</time>
      </trkpt>
      <trkpt lat="34.10012" lon="77.12735">
        <ele>4024.8</ele>
        <time>2015-08-30T09:41:50Z</time>
      </trkpt>
      <trkpt lat="34.10015" lon="77.12741">
        <ele>4025.8</ele>
        <time>2015-08-30T09:42:02Z</time>
      </trkpt>
      <trkpt lat="34.10018" lon="77.12746">
        <ele>4026.8</ele>
        <time>2015-08-30T09:42:15Z</time>
      </trkpt>
      <trkpt lat="34.1002" lon="77.12752">
        <ele>4027.6</ele>
        <time>2015-08-30T09:42:26Z</time>
      </trkpt>
      <trkpt lat="34.10021" lon="77.12753">
        <ele>4027.8</ele>
        <time>2015-08-30T09:42:28Z</time>
      </trkpt>
      <trkpt lat="34.10026" lon="77.12761">
        <ele>4029</ele>
        <time>2015-08-30T09:42:40Z</time>
      </trkpt>
      <trkpt lat="34.10026" lon="77.12766">
        <ele>4030</ele>
        <time>2015-08-30T09:42:53Z</time>
      </trkpt>
      <trkpt lat="34.1003" lon="77.12769">
        <ele>4030.6</ele>
        <time>2015-08-30T09:42:58Z</time>
      </trkpt>
      <trkpt lat="34.10033" lon="77.12769">
        <ele>4031</ele>
        <time>2015-08-30T09:43:01Z</time>
      </trkpt>
      <trkpt lat="34.10035" lon="77.12769">
        <ele>4031.2</ele>
        <time>2015-08-30T09:43:03Z</time>
      </trkpt>
      <trkpt lat="34.10041" lon="77.12773">
        <ele>4032.2</ele>
        <time>2015-08-30T09:43:16Z</time>
      </trkpt>
      <trkpt lat="34.10039" lon="77.12778">
        <ele>4033.4</ele>
        <time>2015-08-30T09:43:27Z</time>
      </trkpt>
      <trkpt lat="34.10037" lon="77.12782">
        <ele>4034.6</ele>
        <time>2015-08-30T09:43:40Z</time>
      </trkpt>
      <trkpt lat="34.10042" lon="77.12785">
        <ele>4035.6</ele>
        <time>2015-08-30T09:43:47Z</time>
      </trkpt>
      <trkpt lat="34.10045" lon="77.12792">
        <ele>4036.6</ele>
        <time>2015-08-30T09:43:58Z</time>
      </trkpt>
      <trkpt lat="34.10049" lon="77.12793">
        <ele>4037.8</ele>
        <time>2015-08-30T09:44:07Z</time>
      </trkpt>
      <trkpt lat="34.10051" lon="77.12792">
        <ele>4038.8</ele>
        <time>2015-08-30T09:44:17Z</time>
      </trkpt>
      <trkpt lat="34.10052" lon="77.12794">
        <ele>4039.8</ele>
        <time>2015-08-30T09:44:26Z</time>
      </trkpt>
      <trkpt lat="34.10051" lon="77.128">
        <ele>4040.8</ele>
        <time>2015-08-30T09:44:34Z</time>
      </trkpt>
      <trkpt lat="34.10052" lon="77.12801">
        <ele>4041</ele>
        <time>2015-08-30T09:44:35Z</time>
      </trkpt>
      <trkpt lat="34.10053" lon="77.12806">
        <ele>4042</ele>
        <time>2015-08-30T09:44:45Z</time>
      </trkpt>
      <trkpt lat="34.10055" lon="77.12811">
        <ele>4043</ele>
        <time>2015-08-30T09:44:57Z</time>
      </trkpt>
      <trkpt lat="34.10056" lon="77.12811">
        <ele>4044.2</ele>
        <time>2015-08-30T09:45:04Z</time>
      </trkpt>
      <trkpt lat="34.10058" lon="77.12811">
        <ele>4045.2</ele>
        <time>2015-08-30T09:45:23Z</time>
      </trkpt>
      <trkpt lat="34.10056" lon="77.1281">
        <ele>4046.2</ele>
        <time>2015-08-30T09:45:32Z</time>
      </trkpt>
      <trkpt lat="34.10055" lon="77.12816">
        <ele>4047.2</ele>
        <time>2015-08-30T09:45:42Z</time>
      </trkpt>
      <trkpt lat="34.10057" lon="77.12821">
        <ele>4048.2</ele>
        <time>2015-08-30T09:45:52Z</time>
      </trkpt>
      <trkpt lat="34.10052" lon="77.12825">
        <ele>4049.4</ele>
        <time>2015-08-30T09:46:02Z</time>
      </trkpt>
      <trkpt lat="34.10052" lon="77.12825">
        <ele>4049.4</ele>
        <time>2015-08-30T09:46:03Z</time>
      </trkpt>
      <trkpt lat="34.10055" lon="77.12828">
        <ele>4050.4</ele>
        <time>2015-08-30T09:46:11Z</time>
      </trkpt>
      <trkpt lat="34.10052" lon="77.12833">
        <ele>4051.2</ele>
        <time>2015-08-30T09:46:21Z</time>
      </trkpt>
      <trkpt lat="34.10054" lon="77.12834">
        <ele>4051.4</ele>
        <time>2015-08-30T09:46:23Z</time>
      </trkpt>
      <trkpt lat="34.10052" lon="77.12838">
        <ele>4052.6</ele>
        <time>2015-08-30T09:46:33Z</time>
      </trkpt>
      <trkpt lat="34.1005" lon="77.12839">
        <ele>4053.6</ele>
        <time>2015-08-30T09:46:42Z</time>
      </trkpt>
      <trkpt lat="34.10047" lon="77.12843">
        <ele>4054.6</ele>
        <time>2015-08-30T09:46:51Z</time>
      </trkpt>
      <trkpt lat="34.10049" lon="77.12845">
        <ele>4054.8</ele>
        <time>2015-08-30T09:46:52Z</time>
      </trkpt>
      <trkpt lat="34.10058" lon="77.12849">
        <ele>4055.8</ele>
        <time>2015-08-30T09:47:01Z</time>
      </trkpt>
      <trkpt lat="34.10065" lon="77.12854">
        <ele>4056.8</ele>
        <time>2015-08-30T09:47:15Z</time>
      </trkpt>
      <trkpt lat="34.1007" lon="77.12853">
        <ele>4058</ele>
        <time>2015-08-30T09:47:27Z</time>
      </trkpt>
      <trkpt lat="34.10072" lon="77.12851">
        <ele>4059</ele>
        <time>2015-08-30T09:47:40Z</time>
      </trkpt>
      <trkpt lat="34.10075" lon="77.12849">
        <ele>4060</ele>
        <time>2015-08-30T09:47:54Z</time>
      </trkpt>
      <trkpt lat="34.10081" lon="77.12847">
        <ele>4061.2</ele>
        <time>2015-08-30T09:48:10Z</time>
      </trkpt>
      <trkpt lat="34.10084" lon="77.12842">
        <ele>4061.8</ele>
        <time>2015-08-30T09:48:13Z</time>
      </trkpt>
      <trkpt lat="34.10085" lon="77.12842">
        <ele>4062.4</ele>
        <time>2015-08-30T09:48:15Z</time>
      </trkpt>
      <trkpt lat="34.10084" lon="77.12848">
        <ele>4063.4</ele>
        <time>2015-08-30T09:48:28Z</time>
      </trkpt>
      <trkpt lat="34.10082" lon="77.12853">
        <ele>4064.4</ele>
        <time>2015-08-30T09:48:35Z</time>
      </trkpt>
      <trkpt lat="34.10083" lon="77.12857">
        <ele>4065.4</ele>
        <time>2015-08-30T09:48:53Z</time>
      </trkpt>
      <trkpt lat="34.10086" lon="77.12857">
        <ele>4066.6</ele>
        <time>2015-08-30T09:49:04Z</time>
      </trkpt>
      <trkpt lat="34.1009" lon="77.1286">
        <ele>4067.6</ele>
        <time>2015-08-30T09:49:15Z</time>
      </trkpt>
      <trkpt lat="34.10089" lon="77.12862">
        <ele>4068.6</ele>
        <time>2015-08-30T09:49:21Z</time>
      </trkpt>
      <trkpt lat="34.1009" lon="77.12866">
        <ele>4069.8</ele>
        <time>2015-08-30T09:49:32Z</time>
      </trkpt>
      <trkpt lat="34.10091" lon="77.12868">
        <ele>4070.8</ele>
        <time>2015-08-30T09:49:41Z</time>
      </trkpt>
      <trkpt lat="34.10088" lon="77.1287">
        <ele>4071.8</ele>
        <time>2015-08-30T09:49:53Z</time>
      </trkpt>
      <trkpt lat="34.10096" lon="77.12875">
        <ele>4073</ele>
        <time>2015-08-30T09:50:11Z</time>
      </trkpt>
      <trkpt lat="34.10098" lon="77.12873">
        <ele>4074</ele>
        <time>2015-08-30T09:50:19Z</time>
      </trkpt>
      <trkpt lat="34.10102" lon="77.12874">
        <ele>4075.2</ele>
        <time>2015-08-30T09:50:31Z</time>
      </trkpt>
      <trkpt lat="34.10105" lon="77.12877">
        <ele>4076.2</ele>
        <time>2015-08-30T09:50:39Z</time>
      </trkpt>
      <trkpt lat="34.10107" lon="77.12877">
        <ele>4077.2</ele>
        <time>2015-08-30T09:50:47Z</time>
      </trkpt>
      <trkpt lat="34.1011" lon="77.12876">
        <ele>4078.4</ele>
        <time>2015-08-30T09:50:56Z</time>
      </trkpt>
      <trkpt lat="34.10111" lon="77.12878">
        <ele>4079.6</ele>
        <time>2015-08-30T09:50:59Z</time>
      </trkpt>
      <trkpt lat="34.10115" lon="77.1288">
        <ele>4079.4</ele>
        <time>2015-08-30T09:51:13Z</time>
      </trkpt>
      <trkpt lat="34.10118" lon="77.12875">
        <ele>4080.6</ele>
        <time>2015-08-30T09:51:18Z</time>
      </trkpt>
      <trkpt lat="34.10124" lon="77.12875">
        <ele>4081.8</ele>
        <time>2015-08-30T09:51:30Z</time>
      </trkpt>
      <trkpt lat="34.10126" lon="77.12879">
        <ele>4082.8</ele>
        <time>2015-08-30T09:51:38Z</time>
      </trkpt>
      <trkpt lat="34.10129" lon="77.1288">
        <ele>4084</ele>
        <time>2015-08-30T09:51:45Z</time>
      </trkpt>
      <trkpt lat="34.10138" lon="77.12874">
        <ele>4085</ele>
        <time>2015-08-30T09:52:05Z</time>
      </trkpt>
      <trkpt lat="34.10143" lon="77.1287">
        <ele>4086</ele>
        <time>2015-08-30T09:52:14Z</time>
      </trkpt>
      <trkpt lat="34.10145" lon="77.12874">
        <ele>4087.2</ele>
        <time>2015-08-30T09:52:24Z</time>
      </trkpt>
      <trkpt lat="34.1015" lon="77.12872">
        <ele>4088.2</ele>
        <time>2015-08-30T09:52:37Z</time>
      </trkpt>
      <trkpt lat="34.10153" lon="77.12868">
        <ele>4089.2</ele>
        <time>2015-08-30T09:52:49Z</time>
      </trkpt>
      <trkpt lat="34.10159" lon="77.12871">
        <ele>4090.2</ele>
        <time>2015-08-30T09:53:00Z</time>
      </trkpt>
      <trkpt lat="34.10161" lon="77.1287">
        <ele>4091.4</ele>
        <time>2015-08-30T09:53:06Z</time>
      </trkpt>
      <trkpt lat="34.10163" lon="77.12871">
        <ele>4092.4</ele>
        <time>2015-08-30T09:53:14Z</time>
      </trkpt>
      <trkpt lat="34.10168" lon="77.12868">
        <ele>4093.6</ele>
        <time>2015-08-30T09:53:30Z</time>
      </trkpt>
      <trkpt lat="34.10172" lon="77.12865">
        <ele>4094.8</ele>
        <time>2015-08-30T09:53:36Z</time>
      </trkpt>
      <trkpt lat="34.10177" lon="77.12865">
        <ele>4095.8</ele>
        <time>2015-08-30T09:53:50Z</time>
      </trkpt>
      <trkpt lat="34.10182" lon="77.12866">
        <ele>4097</ele>
        <time>2015-08-30T09:53:59Z</time>
      </trkpt>
      <trkpt lat="34.10189" lon="77.1286">
        <ele>4098.4</ele>
        <time>2015-08-30T09:54:17Z</time>
      </trkpt>
      <trkpt lat="34.1019" lon="77.12856">
        <ele>4099.6</ele>
        <time>2015-08-30T09:54:21Z</time>
      </trkpt>
      <trkpt lat="34.10184" lon="77.12857">
        <ele>4100.2</ele>
        <time>2015-08-30T09:54:50Z</time>
      </trkpt>
      <trkpt lat="34.102" lon="77.12852">
        <ele>4100.2</ele>
        <time>2015-08-30T09:55:16Z</time>
      </trkpt>
      <trkpt lat="34.10198" lon="77.12857">
        <ele>4100</ele>
        <time>2015-08-30T09:55:19Z</time>
      </trkpt>
      <trkpt lat="34.10201" lon="77.12863">
        <ele>4100.6</ele>
        <time>2015-08-30T09:55:35Z</time>
      </trkpt>
      <trkpt lat="34.10192" lon="77.12862">
        <ele>4100.8</ele>
        <time>2015-08-30T09:55:39Z</time>
      </trkpt>
      <trkpt lat="34.10189" lon="77.12864">
        <ele>4101</ele>
        <time>2015-08-30T09:55:42Z</time>
      </trkpt>
      <trkpt lat="34.10188" lon="77.12861">
        <ele>4101</ele>
        <time>2015-08-30T09:55:53Z</time>
      </trkpt>
      <trkpt lat="34.10195" lon="77.12854">
        <ele>4101.8</ele>
        <time>2015-08-30T09:56:07Z</time>
      </trkpt>
      <trkpt lat="34.10192" lon="77.12853">
        <ele>4100.8</ele>
        <time>2015-08-30T09:56:13Z</time>
      </trkpt>
      <trkpt lat="34.10199" lon="77.12859">
        <ele>4100.2</ele>
        <time>2015-08-30T09:56:31Z</time>
      </trkpt>
      <trkpt lat="34.10196" lon="77.12864">
        <ele>4101.2</ele>
        <time>2015-08-30T09:56:38Z</time>
      </trkpt>
      <trkpt lat="34.10198" lon="77.12867">
        <ele>4101.8</ele>
        <time>2015-08-30T09:56:40Z</time>
      </trkpt>
      <trkpt lat="34.10198" lon="77.12868">
        <ele>4102</ele>
        <time>2015-08-30T09:56:41Z</time>
      </trkpt>
      <trkpt lat="34.10197" lon="77.12871">
        <ele>4101.8</ele>
        <time>2015-08-30T09:56:44Z</time>
      </trkpt>
      <trkpt lat="34.10187" lon="77.12878">
        <ele>4102.6</ele>
        <time>2015-08-30T09:56:59Z</time>
      </trkpt>
      <trkpt lat="34.10186" lon="77.1288">
        <ele>4103</ele>
        <time>2015-08-30T09:57:01Z</time>
      </trkpt>
      <trkpt lat="34.10185" lon="77.12888">
        <ele>4104</ele>
        <time>2015-08-30T09:57:11Z</time>
      </trkpt>
      <trkpt lat="34.10186" lon="77.12895">
        <ele>4105</ele>
        <time>2015-08-30T09:57:18Z</time>
      </trkpt>
      <trkpt lat="34.10189" lon="77.12899">
        <ele>4106.2</ele>
        <time>2015-08-30T09:57:24Z</time>
      </trkpt>
      <trkpt lat="34.10188" lon="77.12902">
        <ele>4107.2</ele>
        <time>2015-08-30T09:57:29Z</time>
      </trkpt>
      <trkpt lat="34.10189" lon="77.12905">
        <ele>4108.4</ele>
        <time>2015-08-30T09:57:34Z</time>
      </trkpt>
      <trkpt lat="34.10184" lon="77.12905">
        <ele>4109.2</ele>
        <time>2015-08-30T09:57:39Z</time>
      </trkpt>
      <trkpt lat="34.10184" lon="77.12905">
        <ele>4109.6</ele>
        <time>2015-08-30T09:57:40Z</time>
      </trkpt>
      <trkpt lat="34.10183" lon="77.12906">
        <ele>4109.8</ele>
        <time>2015-08-30T09:57:41Z</time>
      </trkpt>
      <trkpt lat="34.10183" lon="77.12909">
        <ele>4110.6</ele>
        <time>2015-08-30T09:57:46Z</time>
      </trkpt>
      <trkpt lat="34.10181" lon="77.12914">
        <ele>4111.8</ele>
        <time>2015-08-30T09:57:53Z</time>
      </trkpt>
      <trkpt lat="34.10179" lon="77.12919">
        <ele>4112.8</ele>
        <time>2015-08-30T09:58:03Z</time>
      </trkpt>
      <trkpt lat="34.10181" lon="77.12925">
        <ele>4114</ele>
        <time>2015-08-30T09:58:12Z</time>
      </trkpt>
      <trkpt lat="34.10183" lon="77.12927">
        <ele>4115</ele>
        <time>2015-08-30T09:58:17Z</time>
      </trkpt>
      <trkpt lat="34.10184" lon="77.12931">
        <ele>4116</ele>
        <time>2015-08-30T09:58:23Z</time>
      </trkpt>
      <trkpt lat="34.10181" lon="77.12935">
        <ele>4117</ele>
        <time>2015-08-30T09:59:18Z</time>
      </trkpt>
      <trkpt lat="34.10184" lon="77.12932">
        <ele>4117.2</ele>
        <time>2015-08-30T09:59:50Z</time>
      </trkpt>
      <trkpt lat="34.10182" lon="77.12938">
        <ele>4118</ele>
        <time>2015-08-30T10:00:00Z</time>
      </trkpt>
      <trkpt lat="34.10178" lon="77.12938">
        <ele>4119.2</ele>
        <time>2015-08-30T10:00:04Z</time>
      </trkpt>
      <trkpt lat="34.10177" lon="77.12941">
        <ele>4119.6</ele>
        <time>2015-08-30T10:00:06Z</time>
      </trkpt>
      <trkpt lat="34.10176" lon="77.12942">
        <ele>4119.6</ele>
        <time>2015-08-30T10:00:08Z</time>
      </trkpt>
      <trkpt lat="34.10183" lon="77.12947">
        <ele>4120.2</ele>
        <time>2015-08-30T10:00:15Z</time>
      </trkpt>
      <trkpt lat="34.10181" lon="77.12949">
        <ele>4120.6</ele>
        <time>2015-08-30T10:00:19Z</time>
      </trkpt>
      <trkpt lat="34.10177" lon="77.1295">
        <ele>4120.6</ele>
        <time>2015-08-30T10:00:23Z</time>
      </trkpt>
      <trkpt lat="34.10177" lon="77.1295">
        <ele>4120.6</ele>
        <time>2015-08-30T10:00:25Z</time>
      </trkpt>
      <trkpt lat="34.10174" lon="77.12953">
        <ele>4120.6</ele>
        <time>2015-08-30T10:00:37Z</time>
      </trkpt>
      <trkpt lat="34.10175" lon="77.12953">
        <ele>4120.2</ele>
        <time>2015-08-30T10:00:39Z</time>
      </trkpt>
      <trkpt lat="34.10175" lon="77.12955">
        <ele>4120.4</ele>
        <time>2015-08-30T10:00:41Z</time>
      </trkpt>
      <trkpt lat="34.10178" lon="77.12954">
        <ele>4121.2</ele>
        <time>2015-08-30T10:00:45Z</time>
      </trkpt>
      <trkpt lat="34.10179" lon="77.12957">
        <ele>4122.6</ele>
        <time>2015-08-30T10:00:49Z</time>
      </trkpt>
      <trkpt lat="34.10175" lon="77.12963">
        <ele>4123.6</ele>
        <time>2015-08-30T10:00:57Z</time>
      </trkpt>
      <trkpt lat="34.10174" lon="77.12965">
        <ele>4123.6</ele>
        <time>2015-08-30T10:00:58Z</time>
      </trkpt>
      <trkpt lat="34.10172" lon="77.12969">
        <ele>4123.8</ele>
        <time>2015-08-30T10:01:01Z</time>
      </trkpt>
      <trkpt lat="34.10165" lon="77.12974">
        <ele>4123.8</ele>
        <time>2015-08-30T10:01:05Z</time>
      </trkpt>
      <trkpt lat="34.10161" lon="77.12976">
        <ele>4123.6</ele>
        <time>2015-08-30T10:01:09Z</time>
      </trkpt>
      <trkpt lat="34.10157" lon="77.12981">
        <ele>4123.2</ele>
        <time>2015-08-30T10:01:14Z</time>
      </trkpt>
      <trkpt lat="34.10158" lon="77.12987">
        <ele>4123.2</ele>
        <time>2015-08-30T10:01:20Z</time>
      </trkpt>
      <trkpt lat="34.10159" lon="77.12992">
        <ele>4124.2</ele>
        <time>2015-08-30T10:01:26Z</time>
      </trkpt>
      <trkpt lat="34.10159" lon="77.12995">
        <ele>4124.6</ele>
        <time>2015-08-30T10:01:30Z</time>
      </trkpt>
      <trkpt lat="34.10158" lon="77.12999">
        <ele>4124.8</ele>
        <time>2015-08-30T10:01:33Z</time>
      </trkpt>
      <trkpt lat="34.10155" lon="77.12998">
        <ele>4125.8</ele>
        <time>2015-08-30T10:01:40Z</time>
      </trkpt>
      <trkpt lat="34.10155" lon="77.12999">
        <ele>4126.2</ele>
        <time>2015-08-30T10:01:56Z</time>
      </trkpt>
      <trkpt lat="34.10157" lon="77.12999">
        <ele>4126</ele>
        <time>2015-08-30T10:02:12Z</time>
      </trkpt>
      <trkpt lat="34.1016" lon="77.12999">
        <ele>4126</ele>
        <time>2015-08-30T10:02:32Z</time>
      </trkpt>
      <trkpt lat="34.10161" lon="77.12999">
        <ele>4125.4</ele>
        <time>2015-08-30T10:02:34Z</time>
      </trkpt>
      <trkpt lat="34.10159" lon="77.12995">
        <ele>4125.4</ele>
        <time>2015-08-30T10:02:37Z</time>
      </trkpt>
      <trkpt lat="34.10159" lon="77.12993">
        <ele>4125.6</ele>
        <time>2015-08-30T10:02:39Z</time>
      </trkpt>
      <trkpt lat="34.10154" lon="77.12998">
        <ele>4126.8</ele>
        <time>2015-08-30T10:03:32Z</time>
      </trkpt>
      <trkpt lat="34.10154" lon="77.12999">
        <ele>4126.4</ele>
        <time>2015-08-30T10:03:53Z</time>
      </trkpt>
      <trkpt lat="34.10148" lon="77.13">
        <ele>4127.6</ele>
        <time>2015-08-30T10:04:00Z</time>
      </trkpt>
      <trkpt lat="34.10147" lon="77.13">
        <ele>4127.8</ele>
        <time>2015-08-30T10:04:02Z</time>
      </trkpt>
      <trkpt lat="34.10145" lon="77.13001">
        <ele>4126.8</ele>
        <time>2015-08-30T10:04:23Z</time>
      </trkpt>
      <trkpt lat="34.10142" lon="77.13006">
        <ele>4126.6</ele>
        <time>2015-08-30T10:04:27Z</time>
      </trkpt>
      <trkpt lat="34.10144" lon="77.1301">
        <ele>4125.8</ele>
        <time>2015-08-30T10:04:47Z</time>
      </trkpt>
      <trkpt lat="34.10148" lon="77.13004">
        <ele>4125.2</ele>
        <time>2015-08-30T10:04:55Z</time>
      </trkpt>
      <trkpt lat="34.10147" lon="77.13005">
        <ele>4126.8</ele>
        <time>2015-08-30T10:05:02Z</time>
      </trkpt>
      <trkpt lat="34.10146" lon="77.13006">
        <ele>4127.4</ele>
        <time>2015-08-30T10:05:25Z</time>
      </trkpt>
      <trkpt lat="34.10147" lon="77.13007">
        <ele>4127</ele>
        <time>2015-08-30T10:05:29Z</time>
      </trkpt>
      <trkpt lat="34.10147" lon="77.13012">
        <ele>4127.4</ele>
        <time>2015-08-30T10:05:43Z</time>
      </trkpt>
      <trkpt lat="34.1015" lon="77.13005">
        <ele>4126.2</ele>
        <time>2015-08-30T10:06:51Z</time>
      </trkpt>
      <trkpt lat="34.10149" lon="77.13003">
        <ele>4127.8</ele>
        <time>2015-08-30T10:07:00Z</time>
      </trkpt>
      <trkpt lat="34.1015" lon="77.13">
        <ele>4126.8</ele>
        <time>2015-08-30T10:07:22Z</time>
      </trkpt>
      <trkpt lat="34.10149" lon="77.13001">
        <ele>4125.6</ele>
        <time>2015-08-30T10:07:38Z</time>
      </trkpt>
      <trkpt lat="34.10146" lon="77.12997">
        <ele>4126.8</ele>
        <time>2015-08-30T10:07:42Z</time>
      </trkpt>
      <trkpt lat="34.10147" lon="77.12998">
        <ele>4126.8</ele>
        <time>2015-08-30T10:08:19Z</time>
      </trkpt>
      <trkpt lat="34.1015" lon="77.13008">
        <ele>4126.6</ele>
        <time>2015-08-30T10:08:53Z</time>
      </trkpt>
      <trkpt lat="34.10146" lon="77.13009">
        <ele>4128</ele>
        <time>2015-08-30T10:09:07Z</time>
      </trkpt>
      <trkpt lat="34.10148" lon="77.13005">
        <ele>4127</ele>
        <time>2015-08-30T10:09:51Z</time>
      </trkpt>
      <trkpt lat="34.10147" lon="77.13006">
        <ele>4126.4</ele>
        <time>2015-08-30T10:09:54Z</time>
      </trkpt>
      <trkpt lat="34.10148" lon="77.13006">
        <ele>4126</ele>
        <time>2015-08-30T10:09:58Z</time>
      </trkpt>
      <trkpt lat="34.10141" lon="77.13008">
        <ele>4127</ele>
        <time>2015-08-30T10:10:15Z</time>
      </trkpt>
      <trkpt lat="34.10145" lon="77.13004">
        <ele>4127.4</ele>
        <time>2015-08-30T10:11:16Z</time>
      </trkpt>
      <trkpt lat="34.10142" lon="77.13014">
        <ele>4126</ele>
        <time>2015-08-30T10:11:52Z</time>
      </trkpt>
      <trkpt lat="34.10145" lon="77.13021">
        <ele>4124.8</ele>
        <time>2015-08-30T10:11:57Z</time>
      </trkpt>
      <trkpt lat="34.10146" lon="77.13024">
        <ele>4124.4</ele>
        <time>2015-08-30T10:11:59Z</time>
      </trkpt>
      <trkpt lat="34.10149" lon="77.13035">
        <ele>4123.8</ele>
        <time>2015-08-30T10:12:07Z</time>
      </trkpt>
      <trkpt lat="34.10148" lon="77.13041">
        <ele>4122.8</ele>
        <time>2015-08-30T10:12:12Z</time>
      </trkpt>
      <trkpt lat="34.10146" lon="77.13047">
        <ele>4121.6</ele>
        <time>2015-08-30T10:12:17Z</time>
      </trkpt>
      <trkpt lat="34.10141" lon="77.13058">
        <ele>4120.6</ele>
        <time>2015-08-30T10:12:26Z</time>
      </trkpt>
      <trkpt lat="34.10146" lon="77.13074">
        <ele>4119.6</ele>
        <time>2015-08-30T10:12:36Z</time>
      </trkpt>
      <trkpt lat="34.10145" lon="77.13084">
        <ele>4118.4</ele>
        <time>2015-08-30T10:12:45Z</time>
      </trkpt>
      <trkpt lat="34.10145" lon="77.13094">
        <ele>4117.2</ele>
        <time>2015-08-30T10:12:53Z</time>
      </trkpt>
      <trkpt lat="34.10143" lon="77.13105">
        <ele>4116.8</ele>
        <time>2015-08-30T10:13:00Z</time>
      </trkpt>
      <trkpt lat="34.10152" lon="77.13112">
        <ele>4117</ele>
        <time>2015-08-30T10:13:05Z</time>
      </trkpt>
      <trkpt lat="34.10149" lon="77.13129">
        <ele>4116.2</ele>
        <time>2015-08-30T10:13:17Z</time>
      </trkpt>
      <trkpt lat="34.10148" lon="77.13149">
        <ele>4117.4</ele>
        <time>2015-08-30T10:13:35Z</time>
      </trkpt>
      <trkpt lat="34.1015" lon="77.13163">
        <ele>4116</ele>
        <time>2015-08-30T10:13:45Z</time>
      </trkpt>
      <trkpt lat="34.10156" lon="77.1317">
        <ele>4114.8</ele>
        <time>2015-08-30T10:13:50Z</time>
      </trkpt>
      <trkpt lat="34.10157" lon="77.13179">
        <ele>4113.6</ele>
        <time>2015-08-30T10:13:57Z</time>
      </trkpt>
      <trkpt lat="34.10155" lon="77.13185">
        <ele>4112.6</ele>
        <time>2015-08-30T10:14:02Z</time>
      </trkpt>
      <trkpt lat="34.10153" lon="77.13191">
        <ele>4111.4</ele>
        <time>2015-08-30T10:14:07Z</time>
      </trkpt>
      <trkpt lat="34.10151" lon="77.13195">
        <ele>4110.4</ele>
        <time>2015-08-30T10:14:11Z</time>
      </trkpt>
      <trkpt lat="34.10143" lon="77.13208">
        <ele>4109.2</ele>
        <time>2015-08-30T10:14:23Z</time>
      </trkpt>
      <trkpt lat="34.10141" lon="77.13217">
        <ele>4108.2</ele>
        <time>2015-08-30T10:14:29Z</time>
      </trkpt>
      <trkpt lat="34.1013" lon="77.13233">
        <ele>4107</ele>
        <time>2015-08-30T10:14:39Z</time>
      </trkpt>
      <trkpt lat="34.10135" lon="77.13242">
        <ele>4106</ele>
        <time>2015-08-30T10:14:44Z</time>
      </trkpt>
      <trkpt lat="34.10134" lon="77.13248">
        <ele>4105.6</ele>
        <time>2015-08-30T10:14:47Z</time>
      </trkpt>
      <trkpt lat="34.10134" lon="77.13267">
        <ele>4104.8</ele>
        <time>2015-08-30T10:15:02Z</time>
      </trkpt>
      <trkpt lat="34.10126" lon="77.13287">
        <ele>4104.2</ele>
        <time>2015-08-30T10:15:17Z</time>
      </trkpt>
      <trkpt lat="34.10125" lon="77.13289">
        <ele>4104.4</ele>
        <time>2015-08-30T10:15:19Z</time>
      </trkpt>
      <trkpt lat="34.10129" lon="77.13309">
        <ele>4104.4</ele>
        <time>2015-08-30T10:15:33Z</time>
      </trkpt>
      <trkpt lat="34.10129" lon="77.13319">
        <ele>4105.8</ele>
        <time>2015-08-30T10:15:42Z</time>
      </trkpt>
      <trkpt lat="34.10134" lon="77.13321">
        <ele>4106.2</ele>
        <time>2015-08-30T10:15:44Z</time>
      </trkpt>
      <trkpt lat="34.10133" lon="77.13327">
        <ele>4107</ele>
        <time>2015-08-30T10:15:48Z</time>
      </trkpt>
      <trkpt lat="34.10139" lon="77.13341">
        <ele>4108</ele>
        <time>2015-08-30T10:15:59Z</time>
      </trkpt>
      <trkpt lat="34.10133" lon="77.13357">
        <ele>4109</ele>
        <time>2015-08-30T10:16:11Z</time>
      </trkpt>
      <trkpt lat="34.10133" lon="77.13364">
        <ele>4110.2</ele>
        <time>2015-08-30T10:16:17Z</time>
      </trkpt>
      <trkpt lat="34.1013" lon="77.13372">
        <ele>4111.2</ele>
        <time>2015-08-30T10:16:23Z</time>
      </trkpt>
      <trkpt lat="34.10124" lon="77.13377">
        <ele>4110</ele>
        <time>2015-08-30T10:16:33Z</time>
      </trkpt>
      <trkpt lat="34.10124" lon="77.13377">
        <ele>4109.8</ele>
        <time>2015-08-30T10:16:34Z</time>
      </trkpt>
      <trkpt lat="34.10121" lon="77.13385">
        <ele>4109</ele>
        <time>2015-08-30T10:16:39Z</time>
      </trkpt>
      <trkpt lat="34.10117" lon="77.13388">
        <ele>4107.8</ele>
        <time>2015-08-30T10:16:44Z</time>
      </trkpt>
      <trkpt lat="34.10115" lon="77.13386">
        <ele>4107</ele>
        <time>2015-08-30T10:16:48Z</time>
      </trkpt>
      <trkpt lat="34.10114" lon="77.13385">
        <ele>4107</ele>
        <time>2015-08-30T10:16:50Z</time>
      </trkpt>
      <trkpt lat="34.10113" lon="77.13385">
        <ele>4106.8</ele>
        <time>2015-08-30T10:16:51Z</time>
      </trkpt>
      <trkpt lat="34.1011" lon="77.13393">
        <ele>4105.6</ele>
        <time>2015-08-30T10:16:57Z</time>
      </trkpt>
      <trkpt lat="34.10109" lon="77.13398">
        <ele>4104.8</ele>
        <time>2015-08-30T10:17:00Z</time>
      </trkpt>
      <trkpt lat="34.10108" lon="77.134">
        <ele>4104.4</ele>
        <time>2015-08-30T10:17:01Z</time>
      </trkpt>
      <trkpt lat="34.10107" lon="77.13406">
        <ele>4103.4</ele>
        <time>2015-08-30T10:17:04Z</time>
      </trkpt>
      <trkpt lat="34.10104" lon="77.13413">
        <ele>4102.4</ele>
        <time>2015-08-30T10:17:09Z</time>
      </trkpt>
      <trkpt lat="34.10104" lon="77.13414">
        <ele>4102.2</ele>
        <time>2015-08-30T10:17:10Z</time>
      </trkpt>
      <trkpt lat="34.10104" lon="77.13423">
        <ele>4101.4</ele>
        <time>2015-08-30T10:17:16Z</time>
      </trkpt>
      <trkpt lat="34.10104" lon="77.13425">
        <ele>4101.2</ele>
        <time>2015-08-30T10:17:17Z</time>
      </trkpt>
      <trkpt lat="34.10103" lon="77.13432">
        <ele>4100.2</ele>
        <time>2015-08-30T10:17:22Z</time>
      </trkpt>
      <trkpt lat="34.10098" lon="77.13449">
        <ele>4099</ele>
        <time>2015-08-30T10:17:33Z</time>
      </trkpt>
      <trkpt lat="34.10099" lon="77.13458">
        <ele>4098</ele>
        <time>2015-08-30T10:17:38Z</time>
      </trkpt>
      <trkpt lat="34.101" lon="77.13467">
        <ele>4097</ele>
        <time>2015-08-30T10:17:43Z</time>
      </trkpt>
      <trkpt lat="34.10096" lon="77.13475">
        <ele>4095.8</ele>
        <time>2015-08-30T10:17:49Z</time>
      </trkpt>
      <trkpt lat="34.10094" lon="77.13497">
        <ele>4095.2</ele>
        <time>2015-08-30T10:18:08Z</time>
      </trkpt>
      <trkpt lat="34.10098" lon="77.13519">
        <ele>4095.2</ele>
        <time>2015-08-30T10:18:23Z</time>
      </trkpt>
      <trkpt lat="34.10098" lon="77.13522">
        <ele>4094.8</ele>
        <time>2015-08-30T10:18:25Z</time>
      </trkpt>
      <trkpt lat="34.10092" lon="77.13529">
        <ele>4093.6</ele>
        <time>2015-08-30T10:18:34Z</time>
      </trkpt>
      <trkpt lat="34.10088" lon="77.13538">
        <ele>4092.6</ele>
        <time>2015-08-30T10:18:43Z</time>
      </trkpt>
      <trkpt lat="34.10082" lon="77.13554">
        <ele>4092</ele>
        <time>2015-08-30T10:18:54Z</time>
      </trkpt>
      <trkpt lat="34.10079" lon="77.13561">
        <ele>4091.6</ele>
        <time>2015-08-30T10:18:59Z</time>
      </trkpt>
      <trkpt lat="34.10071" lon="77.13574">
        <ele>4090.4</ele>
        <time>2015-08-30T10:19:10Z</time>
      </trkpt>
      <trkpt lat="34.10067" lon="77.13577">
        <ele>4090</ele>
        <time>2015-08-30T10:19:13Z</time>
      </trkpt>
      <trkpt lat="34.10065" lon="77.13578">
        <ele>4090</ele>
        <time>2015-08-30T10:19:15Z</time>
      </trkpt>
      <trkpt lat="34.10061" lon="77.13583">
        <ele>4089.4</ele>
        <time>2015-08-30T10:19:21Z</time>
      </trkpt>
      <trkpt lat="34.10061" lon="77.13583">
        <ele>4089.4</ele>
        <time>2015-08-30T10:19:22Z</time>
      </trkpt>
      <trkpt lat="34.10061" lon="77.13582">
        <ele>4088.6</ele>
        <time>2015-08-30T10:19:25Z</time>
      </trkpt>
      <trkpt lat="34.10063" lon="77.13581">
        <ele>4088.2</ele>
        <time>2015-08-30T10:19:26Z</time>
      </trkpt>
      <trkpt lat="34.10066" lon="77.13582">
        <ele>4087.2</ele>
        <time>2015-08-30T10:19:35Z</time>
      </trkpt>
      <trkpt lat="34.10062" lon="77.13585">
        <ele>4086.8</ele>
        <time>2015-08-30T10:19:39Z</time>
      </trkpt>
      <trkpt lat="34.10059" lon="77.13588">
        <ele>4086.4</ele>
        <time>2015-08-30T10:19:41Z</time>
      </trkpt>
      <trkpt lat="34.10058" lon="77.13589">
        <ele>4086</ele>
        <time>2015-08-30T10:19:42Z</time>
      </trkpt>
      <trkpt lat="34.10055" lon="77.13592">
        <ele>4084.8</ele>
        <time>2015-08-30T10:19:46Z</time>
      </trkpt>
      <trkpt lat="34.10054" lon="77.13593">
        <ele>4084.6</ele>
        <time>2015-08-30T10:19:47Z</time>
      </trkpt>
      <trkpt lat="34.10051" lon="77.13594">
        <ele>4084</ele>
        <time>2015-08-30T10:19:50Z</time>
      </trkpt>
      <trkpt lat="34.1005" lon="77.13594">
        <ele>4083.6</ele>
        <time>2015-08-30T10:19:51Z</time>
      </trkpt>
      <trkpt lat="34.10045" lon="77.13599">
        <ele>4083.2</ele>
        <time>2015-08-30T10:19:57Z</time>
      </trkpt>
      <trkpt lat="34.1004" lon="77.13604">
        <ele>4082.6</ele>
        <time>2015-08-30T10:20:02Z</time>
      </trkpt>
      <trkpt lat="34.10033" lon="77.13612">
        <ele>4082.2</ele>
        <time>2015-08-30T10:20:12Z</time>
      </trkpt>
      <trkpt lat="34.10029" lon="77.13615">
        <ele>4081.6</ele>
        <time>2015-08-30T10:20:17Z</time>
      </trkpt>
      <trkpt lat="34.10028" lon="77.13615">
        <ele>4081.4</ele>
        <time>2015-08-30T10:20:18Z</time>
      </trkpt>
      <trkpt lat="34.10023" lon="77.13619">
        <ele>4080.4</ele>
        <time>2015-08-30T10:20:23Z</time>
      </trkpt>
      <trkpt lat="34.10016" lon="77.13628">
        <ele>4079.4</ele>
        <time>2015-08-30T10:20:33Z</time>
      </trkpt>
      <trkpt lat="34.10011" lon="77.13633">
        <ele>4078.2</ele>
        <time>2015-08-30T10:20:38Z</time>
      </trkpt>
      <trkpt lat="34.10008" lon="77.13638">
        <ele>4078.2</ele>
        <time>2015-08-30T10:20:43Z</time>
      </trkpt>
      <trkpt lat="34.1" lon="77.13658">
        <ele>4077.6</ele>
        <time>2015-08-30T10:20:56Z</time>
      </trkpt>
      <trkpt lat="34.09996" lon="77.13661">
        <ele>4077.2</ele>
        <time>2015-08-30T10:21:02Z</time>
      </trkpt>
      <trkpt lat="34.09989" lon="77.13672">
        <ele>4076.2</ele>
        <time>2015-08-30T10:21:11Z</time>
      </trkpt>
      <trkpt lat="34.09972" lon="77.13682">
        <ele>4075.2</ele>
        <time>2015-08-30T10:21:27Z</time>
      </trkpt>
      <trkpt lat="34.09969" lon="77.13687">
        <ele>4075.2</ele>
        <time>2015-08-30T10:21:31Z</time>
      </trkpt>
      <trkpt lat="34.09958" lon="77.13688">
        <ele>4074</ele>
        <time>2015-08-30T10:21:44Z</time>
      </trkpt>
      <trkpt lat="34.09942" lon="77.13701">
        <ele>4073.6</ele>
        <time>2015-08-30T10:21:56Z</time>
      </trkpt>
      <trkpt lat="34.0994" lon="77.13702">
        <ele>4073</ele>
        <time>2015-08-30T10:21:59Z</time>
      </trkpt>
      <trkpt lat="34.09938" lon="77.13703">
        <ele>4072.6</ele>
        <time>2015-08-30T10:22:01Z</time>
      </trkpt>
      <trkpt lat="34.09936" lon="77.13706">
        <ele>4071.8</ele>
        <time>2015-08-30T10:22:04Z</time>
      </trkpt>
      <trkpt lat="34.09932" lon="77.13709">
        <ele>4070.8</ele>
        <time>2015-08-30T10:22:09Z</time>
      </trkpt>
      <trkpt lat="34.09917" lon="77.13712">
        <ele>4069.6</ele>
        <time>2015-08-30T10:22:22Z</time>
      </trkpt>
      <trkpt lat="34.09912" lon="77.13715">
        <ele>4068.4</ele>
        <time>2015-08-30T10:22:28Z</time>
      </trkpt>
      <trkpt lat="34.09906" lon="77.13723">
        <ele>4067.4</ele>
        <time>2015-08-30T10:22:35Z</time>
      </trkpt>
      <trkpt lat="34.09901" lon="77.13728">
        <ele>4066.2</ele>
        <time>2015-08-30T10:22:39Z</time>
      </trkpt>
      <trkpt lat="34.09896" lon="77.1373">
        <ele>4065.2</ele>
        <time>2015-08-30T10:22:45Z</time>
      </trkpt>
      <trkpt lat="34.09886" lon="77.13735">
        <ele>4064</ele>
        <time>2015-08-30T10:22:54Z</time>
      </trkpt>
      <trkpt lat="34.09879" lon="77.13736">
        <ele>4063.8</ele>
        <time>2015-08-30T10:23:00Z</time>
      </trkpt>
      <trkpt lat="34.09862" lon="77.13743">
        <ele>4063.6</ele>
        <time>2015-08-30T10:23:15Z</time>
      </trkpt>
      <trkpt lat="34.09846" lon="77.13748">
        <ele>4064.2</ele>
        <time>2015-08-30T10:23:39Z</time>
      </trkpt>
      <trkpt lat="34.09845" lon="77.13749">
        <ele>4064.2</ele>
        <time>2015-08-30T10:23:40Z</time>
      </trkpt>
      <trkpt lat="34.09833" lon="77.13764">
        <ele>4063</ele>
        <time>2015-08-30T10:23:56Z</time>
      </trkpt>
      <trkpt lat="34.09826" lon="77.13772">
        <ele>4062.8</ele>
        <time>2015-08-30T10:24:02Z</time>
      </trkpt>
      <trkpt lat="34.09815" lon="77.13786">
        <ele>4062.4</ele>
        <time>2015-08-30T10:24:13Z</time>
      </trkpt>
      <trkpt lat="34.09811" lon="77.13789">
        <ele>4062</ele>
        <time>2015-08-30T10:24:19Z</time>
      </trkpt>
      <trkpt lat="34.09811" lon="77.13791">
        <ele>4061.6</ele>
        <time>2015-08-30T10:24:21Z</time>
      </trkpt>
      <trkpt lat="34.0981" lon="77.13797">
        <ele>4061.6</ele>
        <time>2015-08-30T10:24:25Z</time>
      </trkpt>
      <trkpt lat="34.09808" lon="77.13803">
        <ele>4062.4</ele>
        <time>2015-08-30T10:24:29Z</time>
      </trkpt>
      <trkpt lat="34.09806" lon="77.13806">
        <ele>4063</ele>
        <time>2015-08-30T10:24:32Z</time>
      </trkpt>
      <trkpt lat="34.09806" lon="77.13807">
        <ele>4063</ele>
        <time>2015-08-30T10:24:34Z</time>
      </trkpt>
      <trkpt lat="34.09806" lon="77.13818">
        <ele>4062.2</ele>
        <time>2015-08-30T10:24:45Z</time>
      </trkpt>
      <trkpt lat="34.09803" lon="77.13821">
        <ele>4063</ele>
        <time>2015-08-30T10:24:48Z</time>
      </trkpt>
      <trkpt lat="34.09803" lon="77.13823">
        <ele>4064</ele>
        <time>2015-08-30T10:24:52Z</time>
      </trkpt>
      <trkpt lat="34.09811" lon="77.13827">
        <ele>4065.2</ele>
        <time>2015-08-30T10:24:57Z</time>
      </trkpt>
      <trkpt lat="34.0981" lon="77.13832">
        <ele>4066.2</ele>
        <time>2015-08-30T10:25:03Z</time>
      </trkpt>
      <trkpt lat="34.0981" lon="77.13833">
        <ele>4066.2</ele>
        <time>2015-08-30T10:25:04Z</time>
      </trkpt>
      <trkpt lat="34.09812" lon="77.13838">
        <ele>4067.4</ele>
        <time>2015-08-30T10:25:18Z</time>
      </trkpt>
      <trkpt lat="34.09808" lon="77.1385">
        <ele>4068.2</ele>
        <time>2015-08-30T10:25:32Z</time>
      </trkpt>
      <trkpt lat="34.09808" lon="77.13853">
        <ele>4068.4</ele>
        <time>2015-08-30T10:25:35Z</time>
      </trkpt>
      <trkpt lat="34.09807" lon="77.13859">
        <ele>4068.4</ele>
        <time>2015-08-30T10:25:41Z</time>
      </trkpt>
      <trkpt lat="34.09806" lon="77.13861">
        <ele>4068.4</ele>
        <time>2015-08-30T10:25:43Z</time>
      </trkpt>
      <trkpt lat="34.09805" lon="77.13862">
        <ele>4068.4</ele>
        <time>2015-08-30T10:25:44Z</time>
      </trkpt>
      <trkpt lat="34.09801" lon="77.13865">
        <ele>4069.4</ele>
        <time>2015-08-30T10:25:51Z</time>
      </trkpt>
      <trkpt lat="34.09802" lon="77.13868">
        <ele>4069.6</ele>
        <time>2015-08-30T10:26:10Z</time>
      </trkpt>
      <trkpt lat="34.09801" lon="77.13873">
        <ele>4069.8</ele>
        <time>2015-08-30T10:26:15Z</time>
      </trkpt>
      <trkpt lat="34.09798" lon="77.13879">
        <ele>4070.6</ele>
        <time>2015-08-30T10:26:21Z</time>
      </trkpt>
      <trkpt lat="34.09797" lon="77.1388">
        <ele>4070.8</ele>
        <time>2015-08-30T10:26:22Z</time>
      </trkpt>
      <trkpt lat="34.09795" lon="77.13884">
        <ele>4071.2</ele>
        <time>2015-08-30T10:26:25Z</time>
      </trkpt>
      <trkpt lat="34.09791" lon="77.13888">
        <ele>4071.4</ele>
        <time>2015-08-30T10:26:29Z</time>
      </trkpt>
      <trkpt lat="34.0979" lon="77.13898">
        <ele>4071.8</ele>
        <time>2015-08-30T10:26:34Z</time>
      </trkpt>
      <trkpt lat="34.09783" lon="77.1391">
        <ele>4070.8</ele>
        <time>2015-08-30T10:26:51Z</time>
      </trkpt>
      <trkpt lat="34.09778" lon="77.13915">
        <ele>4070</ele>
        <time>2015-08-30T10:26:59Z</time>
      </trkpt>
      <trkpt lat="34.09771" lon="77.13919">
        <ele>4070</ele>
        <time>2015-08-30T10:27:05Z</time>
      </trkpt>
      <trkpt lat="34.09769" lon="77.13923">
        <ele>4070</ele>
        <time>2015-08-30T10:27:07Z</time>
      </trkpt>
      <trkpt lat="34.09764" lon="77.1393">
        <ele>4069.8</ele>
        <time>2015-08-30T10:27:15Z</time>
      </trkpt>
      <trkpt lat="34.09759" lon="77.13933">
        <ele>4069.6</ele>
        <time>2015-08-30T10:27:19Z</time>
      </trkpt>
      <trkpt lat="34.09748" lon="77.13938">
        <ele>4070</ele>
        <time>2015-08-30T10:27:27Z</time>
      </trkpt>
      <trkpt lat="34.09739" lon="77.13942">
        <ele>4070.6</ele>
        <time>2015-08-30T10:27:39Z</time>
      </trkpt>
      <trkpt lat="34.09738" lon="77.13943">
        <ele>4070.8</ele>
        <time>2015-08-30T10:27:41Z</time>
      </trkpt>
      <trkpt lat="34.09737" lon="77.13943">
        <ele>4071</ele>
        <time>2015-08-30T10:27:42Z</time>
      </trkpt>
      <trkpt lat="34.09727" lon="77.13951">
        <ele>4071.6</ele>
        <time>2015-08-30T10:27:56Z</time>
      </trkpt>
      <trkpt lat="34.09722" lon="77.13956">
        <ele>4071.8</ele>
        <time>2015-08-30T10:28:02Z</time>
      </trkpt>
      <trkpt lat="34.09713" lon="77.13965">
        <ele>4071.6</ele>
        <time>2015-08-30T10:28:11Z</time>
      </trkpt>
      <trkpt lat="34.09718" lon="77.13973">
        <ele>4071.2</ele>
        <time>2015-08-30T10:28:16Z</time>
      </trkpt>
      <trkpt lat="34.09724" lon="77.13978">
        <ele>4071.4</ele>
        <time>2015-08-30T10:28:22Z</time>
      </trkpt>
      <trkpt lat="34.09732" lon="77.13982">
        <ele>4072.8</ele>
        <time>2015-08-30T10:28:29Z</time>
      </trkpt>
      <trkpt lat="34.09734" lon="77.13982">
        <ele>4073.4</ele>
        <time>2015-08-30T10:28:31Z</time>
      </trkpt>
      <trkpt lat="34.09735" lon="77.13982">
        <ele>4073.8</ele>
        <time>2015-08-30T10:28:33Z</time>
      </trkpt>
      <trkpt lat="34.09737" lon="77.13982">
        <ele>4074</ele>
        <time>2015-08-30T10:28:34Z</time>
      </trkpt>
      <trkpt lat="34.09742" lon="77.13987">
        <ele>4075</ele>
        <time>2015-08-30T10:28:43Z</time>
      </trkpt>
      <trkpt lat="34.09744" lon="77.1399">
        <ele>4075.6</ele>
        <time>2015-08-30T10:28:47Z</time>
      </trkpt>
      <trkpt lat="34.09752" lon="77.13993">
        <ele>4075.6</ele>
        <time>2015-08-30T10:28:55Z</time>
      </trkpt>
      <trkpt lat="34.09753" lon="77.13995">
        <ele>4075.6</ele>
        <time>2015-08-30T10:28:58Z</time>
      </trkpt>
      <trkpt lat="34.0975" lon="77.14">
        <ele>4075.2</ele>
        <time>2015-08-30T10:29:02Z</time>
      </trkpt>
      <trkpt lat="34.09747" lon="77.14004">
        <ele>4074.8</ele>
        <time>2015-08-30T10:29:06Z</time>
      </trkpt>
      <trkpt lat="34.09746" lon="77.14006">
        <ele>4074.6</ele>
        <time>2015-08-30T10:29:08Z</time>
      </trkpt>
      <trkpt lat="34.09732" lon="77.14021">
        <ele>4074</ele>
        <time>2015-08-30T10:29:25Z</time>
      </trkpt>
      <trkpt lat="34.09731" lon="77.14024">
        <ele>4073.8</ele>
        <time>2015-08-30T10:29:27Z</time>
      </trkpt>
      <trkpt lat="34.09727" lon="77.14033">
        <ele>4073.6</ele>
        <time>2015-08-30T10:29:33Z</time>
      </trkpt>
      <trkpt lat="34.09722" lon="77.14049">
        <ele>4073.6</ele>
        <time>2015-08-30T10:29:43Z</time>
      </trkpt>
      <trkpt lat="34.0972" lon="77.14051">
        <ele>4073.8</ele>
        <time>2015-08-30T10:29:45Z</time>
      </trkpt>
      <trkpt lat="34.09714" lon="77.14072">
        <ele>4074.6</ele>
        <time>2015-08-30T10:30:03Z</time>
      </trkpt>
      <trkpt lat="34.09714" lon="77.14082">
        <ele>4075</ele>
        <time>2015-08-30T10:30:15Z</time>
      </trkpt>
      <trkpt lat="34.09712" lon="77.14089">
        <ele>4075.2</ele>
        <time>2015-08-30T10:30:22Z</time>
      </trkpt>
      <trkpt lat="34.09707" lon="77.14109">
        <ele>4075.4</ele>
        <time>2015-08-30T10:30:35Z</time>
      </trkpt>
      <trkpt lat="34.09708" lon="77.14118">
        <ele>4075.2</ele>
        <time>2015-08-30T10:30:44Z</time>
      </trkpt>
      <trkpt lat="34.09706" lon="77.1414">
        <ele>4075.6</ele>
        <time>2015-08-30T10:31:09Z</time>
      </trkpt>
      <trkpt lat="34.09705" lon="77.14143">
        <ele>4075.6</ele>
        <time>2015-08-30T10:31:13Z</time>
      </trkpt>
      <trkpt lat="34.09692" lon="77.1416">
        <ele>4075.2</ele>
        <time>2015-08-30T10:31:30Z</time>
      </trkpt>
      <trkpt lat="34.09681" lon="77.14174">
        <ele>4075.8</ele>
        <time>2015-08-30T10:31:55Z</time>
      </trkpt>
      <trkpt lat="34.09681" lon="77.1418">
        <ele>4076.2</ele>
        <time>2015-08-30T10:31:57Z</time>
      </trkpt>
      <trkpt lat="34.09677" lon="77.14206">
        <ele>4076</ele>
        <time>2015-08-30T10:32:16Z</time>
      </trkpt>
      <trkpt lat="34.09668" lon="77.14225">
        <ele>4076</ele>
        <time>2015-08-30T10:32:27Z</time>
      </trkpt>
      <trkpt lat="34.09662" lon="77.14234">
        <ele>4075.6</ele>
        <time>2015-08-30T10:32:32Z</time>
      </trkpt>
      <trkpt lat="34.09656" lon="77.14245">
        <ele>4075.8</ele>
        <time>2015-08-30T10:32:41Z</time>
      </trkpt>
      <trkpt lat="34.09654" lon="77.14249">
        <ele>4076.2</ele>
        <time>2015-08-30T10:32:47Z</time>
      </trkpt>
      <trkpt lat="34.09644" lon="77.14254">
        <ele>4077.2</ele>
        <time>2015-08-30T10:32:59Z</time>
      </trkpt>
      <trkpt lat="34.0964" lon="77.14258">
        <ele>4077.6</ele>
        <time>2015-08-30T10:33:06Z</time>
      </trkpt>
      <trkpt lat="34.09638" lon="77.14264">
        <ele>4077.8</ele>
        <time>2015-08-30T10:33:11Z</time>
      </trkpt>
      <trkpt lat="34.09637" lon="77.14265">
        <ele>4078.2</ele>
        <time>2015-08-30T10:33:13Z</time>
      </trkpt>
      <trkpt lat="34.09637" lon="77.14265">
        <ele>4078.4</ele>
        <time>2015-08-30T10:33:14Z</time>
      </trkpt>
      <trkpt lat="34.09632" lon="77.14268">
        <ele>4078.8</ele>
        <time>2015-08-30T10:33:21Z</time>
      </trkpt>
      <trkpt lat="34.09622" lon="77.14269">
        <ele>4077.4</ele>
        <time>2015-08-30T10:33:31Z</time>
      </trkpt>
      <trkpt lat="34.09622" lon="77.14271">
        <ele>4077.2</ele>
        <time>2015-08-30T10:33:32Z</time>
      </trkpt>
      <trkpt lat="34.09621" lon="77.14275">
        <ele>4076.8</ele>
        <time>2015-08-30T10:33:34Z</time>
      </trkpt>
      <trkpt lat="34.09619" lon="77.14281">
        <ele>4077</ele>
        <time>2015-08-30T10:33:38Z</time>
      </trkpt>
      <trkpt lat="34.09618" lon="77.14285">
        <ele>4077.4</ele>
        <time>2015-08-30T10:33:42Z</time>
      </trkpt>
      <trkpt lat="34.09604" lon="77.14298">
        <ele>4076.4</ele>
        <time>2015-08-30T10:33:59Z</time>
      </trkpt>
      <trkpt lat="34.09602" lon="77.14302">
        <ele>4076.2</ele>
        <time>2015-08-30T10:34:06Z</time>
      </trkpt>
      <trkpt lat="34.09601" lon="77.14303">
        <ele>4076.2</ele>
        <time>2015-08-30T10:34:07Z</time>
      </trkpt>
      <trkpt lat="34.096" lon="77.14306">
        <ele>4075</ele>
        <time>2015-08-30T10:34:11Z</time>
      </trkpt>
      <trkpt lat="34.09598" lon="77.14311">
        <ele>4073.8</ele>
        <time>2015-08-30T10:34:15Z</time>
      </trkpt>
      <trkpt lat="34.09596" lon="77.14314">
        <ele>4072.6</ele>
        <time>2015-08-30T10:34:18Z</time>
      </trkpt>
      <trkpt lat="34.09594" lon="77.1432">
        <ele>4071.8</ele>
        <time>2015-08-30T10:34:21Z</time>
      </trkpt>
      <trkpt lat="34.09594" lon="77.14321">
        <ele>4071.6</ele>
        <time>2015-08-30T10:34:22Z</time>
      </trkpt>
      <trkpt lat="34.09585" lon="77.14339">
        <ele>4072.8</ele>
        <time>2015-08-30T10:34:34Z</time>
      </trkpt>
      <trkpt lat="34.09582" lon="77.14341">
        <ele>4073.2</ele>
        <time>2015-08-30T10:34:37Z</time>
      </trkpt>
      <trkpt lat="34.09582" lon="77.14344">
        <ele>4073.8</ele>
        <time>2015-08-30T10:34:39Z</time>
      </trkpt>
      <trkpt lat="34.09582" lon="77.14345">
        <ele>4074</ele>
        <time>2015-08-30T10:34:40Z</time>
      </trkpt>
      <trkpt lat="34.09583" lon="77.14346">
        <ele>4074.2</ele>
        <time>2015-08-30T10:34:41Z</time>
      </trkpt>
      <trkpt lat="34.09583" lon="77.14344">
        <ele>4074.8</ele>
        <time>2015-08-30T10:34:48Z</time>
      </trkpt>
      <trkpt lat="34.09586" lon="77.14345">
        <ele>4075.2</ele>
        <time>2015-08-30T10:34:55Z</time>
      </trkpt>
      <trkpt lat="34.09583" lon="77.1435">
        <ele>4076.2</ele>
        <time>2015-08-30T10:35:18Z</time>
      </trkpt>
      <trkpt lat="34.09581" lon="77.14356">
        <ele>4077.4</ele>
        <time>2015-08-30T10:35:25Z</time>
      </trkpt>
      <trkpt lat="34.09581" lon="77.14357">
        <ele>4077.4</ele>
        <time>2015-08-30T10:35:26Z</time>
      </trkpt>
      <trkpt lat="34.09581" lon="77.14359">
        <ele>4077.8</ele>
        <time>2015-08-30T10:35:29Z</time>
      </trkpt>
      <trkpt lat="34.09581" lon="77.14356">
        <ele>4078.4</ele>
        <time>2015-08-30T10:35:32Z</time>
      </trkpt>
      <trkpt lat="34.09585" lon="77.14356">
        <ele>4079.4</ele>
        <time>2015-08-30T10:35:42Z</time>
      </trkpt>
      <trkpt lat="34.0959" lon="77.14357">
        <ele>4080.4</ele>
        <time>2015-08-30T10:35:48Z</time>
      </trkpt>
      <trkpt lat="34.0959" lon="77.14358">
        <ele>4080.4</ele>
        <time>2015-08-30T10:35:49Z</time>
      </trkpt>
      <trkpt lat="34.09594" lon="77.14357">
        <ele>4080.8</ele>
        <time>2015-08-30T10:35:52Z</time>
      </trkpt>
      <trkpt lat="34.09597" lon="77.14358">
        <ele>4081</ele>
        <time>2015-08-30T10:35:55Z</time>
      </trkpt>
      <trkpt lat="34.09602" lon="77.14358">
        <ele>4081.2</ele>
        <time>2015-08-30T10:35:59Z</time>
      </trkpt>
      <trkpt lat="34.09601" lon="77.14358">
        <ele>4081.6</ele>
        <time>2015-08-30T10:36:02Z</time>
      </trkpt>
      <trkpt lat="34.09599" lon="77.14362">
        <ele>4082.6</ele>
        <time>2015-08-30T10:36:07Z</time>
      </trkpt>
      <trkpt lat="34.09598" lon="77.14366">
        <ele>4082.8</ele>
        <time>2015-08-30T10:36:10Z</time>
      </trkpt>
      <trkpt lat="34.09597" lon="77.1437">
        <ele>4082.6</ele>
        <time>2015-08-30T10:36:14Z</time>
      </trkpt>
      <trkpt lat="34.09597" lon="77.1437">
        <ele>4082.6</ele>
        <time>2015-08-30T10:36:16Z</time>
      </trkpt>
      <trkpt lat="34.09594" lon="77.1437">
        <ele>4082.6</ele>
        <time>2015-08-30T10:36:19Z</time>
      </trkpt>
      <trkpt lat="34.09593" lon="77.14374">
        <ele>4083.6</ele>
        <time>2015-08-30T10:36:29Z</time>
      </trkpt>
      <trkpt lat="34.09593" lon="77.14381">
        <ele>4084.4</ele>
        <time>2015-08-30T10:36:36Z</time>
      </trkpt>
      <trkpt lat="34.09592" lon="77.14386">
        <ele>4084.6</ele>
        <time>2015-08-30T10:36:39Z</time>
      </trkpt>
      <trkpt lat="34.09593" lon="77.14388">
        <ele>4084.6</ele>
        <time>2015-08-30T10:36:40Z</time>
      </trkpt>
      <trkpt lat="34.09593" lon="77.1439">
        <ele>4084.8</ele>
        <time>2015-08-30T10:36:41Z</time>
      </trkpt>
      <trkpt lat="34.09592" lon="77.14393">
        <ele>4085</ele>
        <time>2015-08-30T10:36:43Z</time>
      </trkpt>
      <trkpt lat="34.09592" lon="77.14395">
        <ele>4085.2</ele>
        <time>2015-08-30T10:36:45Z</time>
      </trkpt>
      <trkpt lat="34.09592" lon="77.14398">
        <ele>4085.2</ele>
        <time>2015-08-30T10:36:47Z</time>
      </trkpt>
      <trkpt lat="34.0959" lon="77.14398">
        <ele>4085.4</ele>
        <time>2015-08-30T10:36:49Z</time>
      </trkpt>
      <trkpt lat="34.0959" lon="77.14402">
        <ele>4085.4</ele>
        <time>2015-08-30T10:36:58Z</time>
      </trkpt>
      <trkpt lat="34.09594" lon="77.144">
        <ele>4085.4</ele>
        <time>2015-08-30T10:37:00Z</time>
      </trkpt>
      <trkpt lat="34.09596" lon="77.14397">
        <ele>4085.8</ele>
        <time>2015-08-30T10:37:06Z</time>
      </trkpt>
      <trkpt lat="34.09596" lon="77.14397">
        <ele>4085.8</ele>
        <time>2015-08-30T10:37:07Z</time>
      </trkpt>
      <trkpt lat="34.09595" lon="77.14398">
        <ele>4085.8</ele>
        <time>2015-08-30T10:37:11Z</time>
      </trkpt>
      <trkpt lat="34.0959" lon="77.14398">
        <ele>4086.2</ele>
        <time>2015-08-30T10:37:26Z</time>
      </trkpt>
      <trkpt lat="34.09592" lon="77.14399">
        <ele>4140.2</ele>
        <time>2015-08-30T10:37:48Z</time>
      </trkpt>
    </trkseg>
  </trk>
</gpx>